# Wetter Temperatur Luftdruck Luftfeuchtigkeit Sichtweite Windgeschwindigkeit Windrichtung Zeit
1 Clouds 29 1005 79 10000 5.7 270 21:54 28.01.2020
2 Clouds 29 1004 79 10000 7.2 280 21:36 28.01.2020
3 Clouds 29 1004 79 10000 7.2 280 21:18 28.01.2020
4 Clouds 29 1004 79 10000 7.2 280 21:18 28.01.2020
5 Clouds 29 1004 79 10000 8.7 290 20:42 28.01.2020
6 Clouds 29 1004 79 10000 8.7 290 20:42 28.01.2020
7 Clouds 29 1004 79 10000 8.7 290 20:23 28.01.2020
8 Clouds 29 1004 79 10000 7.7 290 19:55 28.01.2020
9 Clouds 29 1004 74 10000 7.7 290 19:36 28.01.2020
10 Clouds 29 1004 74 10000 7.7 290 19:18 28.01.2020
11 Clouds 29 1005 74 10000 7.7 290 18:41 28.01.2020
12 Clouds 29 1005 74 10000 7.7 290 18:22 28.01.2020
13 Clouds 30 1005 79 10000 7.2 290 17:59 28.01.2020
14 Clouds 30 1005 74 10000 9.3 300 17:39 28.01.2020
15 Clouds 30 1005 74 10000 9.3 300 17:21 28.01.2020
16 Clouds 30 1005 79 10000 7.7 290 16:56 28.01.2020
17 Clouds 30 1005 74 10000 8.2 300 16:37 28.01.2020
18 Clouds 29 1005 74 10000 8.2 300 16:19 28.01.2020
19 Clouds 30 1006 79 10000 7.2 300 15:44 28.01.2020
20 Clouds 30 1006 79 10000 7.2 300 15:19 28.01.2020
21 Clouds 30 1006 79 10000 6.7 290 14:57 28.01.2020
22 Clouds 30 1006 79 10000 6.7 290 14:38 28.01.2020
23 Clouds 30 1006 79 10000 6.7 290 14:38 28.01.2020
24 Clouds 30 1006 79 10000 6.7 290 14:18 28.01.2020
25 Clouds 30 1006 79 10000 6.7 290 13:39 28.01.2020
26 Clouds 30 1006 79 10000 6.7 290 13:21 28.01.2020
27 Clouds 30 1006 79 10000 5.7 290 12:42 28.01.2020
28 Clouds 30 1006 79 10000 5.7 290 12:24 28.01.2020
29 Clouds 30 1005 79 10000 6.7 290 11:55 28.01.2020
30 Clouds 30 1005 79 10000 7.2 290 11:37 28.01.2020
31 Clouds 30 1005 79 10000 7.2 290 11:19 28.01.2020
32 Clouds 31 1004 74 0 7.15 290 10:41 28.01.2020
33 Clouds 31 1004 74 10000 6.7 290 10:22 28.01.2020
34 Clouds 31 1004 74 10000 6.7 290 09:56 28.01.2020
35 Clouds 31 1004 74 10000 7.2 290 09:37 28.01.2020
36 Clouds 31 1004 74 10000 7.2 290 09:19 28.01.2020
37 Clouds 32 1004 70 10000 7.7 300 08:41 28.01.2020
38 Clouds 33 1004 70 10000 7.7 300 08:20 28.01.2020
39 Clouds 33 1004 70 10000 8.2 290 07:38 28.01.2020
40 Clouds 33 1004 70 10000 7.7 290 06:51 28.01.2020
41 Clouds 33 1005 66 10000 7.7 290 06:29 28.01.2020
42 Clouds 33 1005 66 10000 8.7 300 05:56 28.01.2020
43 Clouds 33 1006 66 10000 8.2 290 05:34 28.01.2020
44 Clouds 33 1006 63 10000 7.2 270 04:39 28.01.2020
45 Clouds 33 1007 63 10000 7.2 270 03:36 28.01.2020
46 Clouds 33 1007 66 10000 7.2 270 02:32 28.01.2020
47 Clouds 32 1008 66 10000 6.7 270 01:58 28.01.2020
48 Clouds 32 1008 70 10000 6.7 280 01:40 28.01.2020
49 Clouds 31 1007 74 10000 6.7 270 00:51 28.01.2020
50 Clouds 31 1007 74 10000 6.2 280 00:30 28.01.2020
51 Clouds 30 1007 74 10000 6.2 280 23:53 27.01.2020
52 Clouds 30 1007 79 10000 5.1 280 23:31 27.01.2020
53 Clouds 30 1007 79 10000 5.1 280 23:31 27.01.2020
54 Clouds 29 1007 83 10000 6.2 280 22:59 27.01.2020
55 Clouds 29 1006 83 10000 5.7 290 22:41 27.01.2020
56 Clouds 29 1006 83 10000 5.7 290 22:20 27.01.2020
57 Clouds 29 1006 83 10000 5.7 290 21:57 27.01.2020
58 Clouds 29 1005 83 10000 5.1 290 21:38 27.01.2020
59 Clouds 29 1005 83 10000 5.1 290 21:18 27.01.2020
60 Clouds 29 1005 83 10000 5.7 290 20:55 27.01.2020
61 Clouds 29 1005 83 10000 5.1 290 20:37 27.01.2020
62 Clouds 29 1005 83 10000 5.1 290 20:18 27.01.2020
63 Clouds 29 1005 83 10000 4.6 290 19:41 27.01.2020
64 Clouds 29 1005 83 10000 4.6 290 19:23 27.01.2020
65 Clouds 29 1006 83 10000 4.1 290 18:56 27.01.2020
66 Clouds 29 1006 83 10000 4.1 280 18:38 27.01.2020
67 Clouds 29 1006 83 10000 4.1 280 18:20 27.01.2020
68 Clouds 29 1007 83 10000 4.1 280 17:40 27.01.2020
69 Clouds 29 1007 83 10000 4.1 280 17:22 27.01.2020
70 Clouds 29 1007 83 10000 4.1 280 16:59 27.01.2020
71 Clouds 29 1008 79 10000 4.1 280 16:41 27.01.2020
72 Clouds 29 1008 79 10000 4.1 280 16:41 27.01.2020
73 Clouds 29 1008 79 10000 4.1 280 16:23 27.01.2020
74 Clouds 29 1008 83 10000 4.1 280 15:55 27.01.2020
75 Clouds 29 1008 83 10000 3.6 280 15:37 27.01.2020
76 Clouds 29 1008 83 10000 3.6 280 15:19 27.01.2020
77 Clouds 29 1008 83 10000 3.1 280 14:54 27.01.2020
78 Clouds 29 1008 83 10000 2.6 280 14:36 27.01.2020
79 Clouds 29 1008 83 10000 2.6 280 14:18 27.01.2020
80 Clouds 29 1007 79 10000 2.1 270 13:41 27.01.2020
81 Clouds 29 1007 79 10000 2.1 270 13:20 27.01.2020
82 Clouds 29 1007 74 10000 3.6 270 12:56 27.01.2020
83 Clouds 29 1006 74 10000 4.1 270 12:37 27.01.2020
84 Clouds 29 1006 74 10000 4.1 270 12:19 27.01.2020
85 Clouds 30 1006 74 10000 5.1 270 11:41 27.01.2020
86 Clouds 30 1006 74 10000 5.1 270 11:21 27.01.2020
87 Clouds 30 1006 70 10000 5.1 270 10:43 27.01.2020
88 Clouds 31 1006 70 10000 5.7 270 10:25 27.01.2020
89 Clouds 32 1005 70 10000 6.7 290 09:57 27.01.2020
90 Clouds 31 1005 74 10000 7.7 290 09:38 27.01.2020
91 Clouds 31 1005 74 10000 7.7 290 09:18 27.01.2020
92 Clouds 33 1005 63 10000 7.7 290 08:43 27.01.2020
93 Clouds 33 1005 66 10000 7.7 290 08:22 27.01.2020
94 Clouds 33 1006 59 10000 7.2 300 07:54 27.01.2020
95 Clouds 33 1006 63 10000 7.2 300 07:35 27.01.2020
96 Clouds 33 1006 66 10000 7.7 300 06:54 27.01.2020
97 Clouds 33 1006 63 10000 7.2 300 06:27 27.01.2020
98 Clouds 34 1007 63 10000 7.2 300 05:28 27.01.2020
99 Clouds 33 1008 66 10000 6.7 300 03:58 27.01.2020
100 Clouds 33 1009 70 10000 6.2 290 02:43 27.01.2020
101 Clouds 32 1009 70 10000 5.7 290 01:31 27.01.2020
102 Clouds 31 1009 74 10000 4.6 280 00:59 27.01.2020
103 Clouds 31 1009 74 10000 3.6 280 00:37 27.01.2020
104 Clouds 30 1009 74 10000 3.6 280 00:19 27.01.2020
105 Clouds 29 1008 79 10000 4.1 280 23:41 26.01.2020
106 Clouds 29 1008 79 10000 4.1 280 23:19 26.01.2020
107 Clouds 29 1008 79 10000 4.1 290 22:55 26.01.2020
108 Clouds 28 1008 79 10000 3.6 290 22:37 26.01.2020
109 Clouds 28 1008 79 10000 3.6 290 22:18 26.01.2020
110 Clouds 28 1007 79 10000 3.6 280 21:56 26.01.2020
111 Clouds 28 1007 79 10000 3.6 280 21:38 26.01.2020
112 Clouds 28 1007 79 10000 3.6 280 21:19 26.01.2020
113 Clouds 28 1007 79 10000 4.1 290 20:55 26.01.2020
114 Clouds 28 1007 74 10000 4.1 290 20:37 26.01.2020
115 Clouds 28 1007 74 10000 4.1 290 20:18 26.01.2020
116 Clouds 28 1007 79 10000 4.6 290 19:56 26.01.2020
117 Clouds 28 1007 79 10000 4.6 290 19:37 26.01.2020
118 Clouds 28 1007 79 10000 4.6 290 19:18 26.01.2020
119 Clouds 29 1008 79 10000 4.1 290 18:41 26.01.2020
120 Clouds 28 1008 79 10000 4.1 290 18:22 26.01.2020
121 Clouds 28 1008 74 10000 3.6 290 17:58 26.01.2020
122 Clouds 28 1008 79 10000 3.6 300 17:39 26.01.2020
123 Clouds 28 1008 79 10000 3.6 300 17:20 26.01.2020
124 Clouds 28 1008 79 10000 3.1 290 16:58 26.01.2020
125 Clouds 28 1008 79 10000 3.1 290 16:40 26.01.2020
126 Clouds 29 1008 79 10000 3.1 290 16:21 26.01.2020
127 Clouds 28 1009 79 0 2.68 280 15:58 26.01.2020
128 Clouds 28 1009 79 0 2.68 280 15:39 26.01.2020
129 Clouds 28 1010 79 0 2.68 280 15:19 26.01.2020
130 Clouds 29 1009 79 0 2.68 290 14:41 26.01.2020
131 Clouds 29 1008 79 0 2.68 300 14:21 26.01.2020
132 Clouds 29 1008 79 0 2.24 280 13:57 26.01.2020
133 Clouds 29 1014 83 0 2.72 277 13:37 26.01.2020
134 Clouds 29 1014 81 0 2.58 286 13:18 26.01.2020
135 Clouds 29 1013 81 0 2.58 286 12:42 26.01.2020
136 Clouds 29 1013 78 0 2.58 286 12:24 26.01.2020
137 Clouds 29 1013 78 0 2.58 286 12:24 26.01.2020
138 Clouds 29 1013 75 0 2.58 286 11:58 26.01.2020
139 Clouds 29 1013 74 0 2.58 286 11:39 26.01.2020
140 Clouds 30 1006 66 10000 5.7 290 11:19 26.01.2020
141 Clouds 30 1006 66 10000 5.7 290 10:58 26.01.2020
142 Clouds 31 1006 66 10000 5.7 290 10:38 26.01.2020
143 Clouds 31 1006 66 10000 5.7 290 10:38 26.01.2020
144 Clouds 31 1006 66 10000 5.7 290 10:20 26.01.2020
145 Clouds 31 1006 66 10000 6.2 290 09:57 26.01.2020
146 Clouds 31 1006 66 10000 6.7 300 09:39 26.01.2020
147 Clouds 31 1006 66 10000 6.7 300 09:39 26.01.2020
148 Clouds 32 1006 66 10000 6.7 300 09:21 26.01.2020
149 Clouds 32 1006 66 10000 7.2 300 08:43 26.01.2020
150 Clouds 33 1006 66 10000 7.7 300 08:23 26.01.2020
151 Clouds 33 1005 62 10000 6.7 300 07:57 26.01.2020
152 Clouds 33 1006 55 10000 7.2 290 07:39 26.01.2020
153 Clouds 33 1006 55 10000 7.2 290 07:21 26.01.2020
154 Clouds 33 1007 59 10000 7.2 300 06:31 26.01.2020
155 Clouds 33 1008 59 10000 7.7 300 05:32 26.01.2020
156 Clouds 33 1008 59 10000 7.7 300 05:32 26.01.2020
157 Clouds 33 1009 66 10000 6.7 300 04:45 26.01.2020
158 Clouds 33 1009 62 10000 6.2 300 02:54 26.01.2020
159 Rain 31 1010 66 10000 5.1 290 01:49 26.01.2020
160 Rain 31 1009 70 10000 5.1 290 01:25 26.01.2020
161 Clouds 31 1009 74 10000 4.6 280 00:53 26.01.2020
162 Clouds 30 1009 74 10000 4.1 260 00:31 26.01.2020
163 Clouds 29 1009 79 0 3.58 260 23:41 25.01.2020
164 Clouds 28 1009 86 0 2.68 291 23:23 25.01.2020
165 Clouds 28 1009 88 0 1.34 273 22:59 25.01.2020
166 Clouds 28 1008 87 0 2.9 295 22:40 25.01.2020
167 Clouds 27 1009 87 0 0.45 287 22:19 25.01.2020
168 Clouds 27 1013 86 0 2.9 295 21:57 25.01.2020
169 Clouds 27 1013 86 0 2.9 295 21:38 25.01.2020
170 Clouds 27 1008 87 0 0.89 274 21:20 25.01.2020
171 Clouds 28 1013 85 0 2.9 295 20:44 25.01.2020
172 Clouds 28 1007 83 0 3.58 270 20:44 25.01.2020
173 Clouds 28 1012 86 0 2.9 295 20:25 25.01.2020
174 Clouds 28 1012 86 0 2.9 295 20:25 25.01.2020
175 Rain 27 1006 91 0 2.4 286 19:55 25.01.2020
176 Rain 28 1012 83 0 3.58 270 19:37 25.01.2020
177 Rain 28 1013 87 0 2.4 286 19:18 25.01.2020
178 Rain 28 1013 88 0 2.92 304 18:42 25.01.2020
179 Rain 28 1013 87 0 2.4 286 18:22 25.01.2020
180 Rain 28 1012 79 0 2.24 260 17:58 25.01.2020
181 Rain 28 1012 79 0 2.24 260 17:38 25.01.2020
182 Rain 28 1009 87 0 1.34 292 17:19 25.01.2020
183 Rain 28 1008 86 0 2.38 281 16:43 25.01.2020
184 Rain 28 1014 84 0 2.38 281 16:23 25.01.2020
185 Rain 28 1009 86 0 1.34 222 15:58 25.01.2020
186 Rain 28 1014 83 0 2.38 281 15:58 25.01.2020
187 Rain 28 1015 82 0 2.38 281 15:40 25.01.2020
188 Rain 28 1010 87 0 0.45 283 15:21 25.01.2020
189 Rain 28 1015 81 0 2.38 281 14:44 25.01.2020
190 Clouds 28 1009 79 0 3.58 270 14:19 25.01.2020
191 Clouds 29 1009 85 0 0.89 292 13:54 25.01.2020
192 Clouds 28 1014 82 0 2.67 269 13:36 25.01.2020
193 Clouds 29 1009 85 0 1.34 262 13:18 25.01.2020
194 Clouds 29 1009 85 0 1.34 262 13:18 25.01.2020
195 Clouds 29 1007 79 10000 2.6 270 12:41 25.01.2020
196 Clouds 29 1007 79 10000 2.6 270 12:20 25.01.2020
197 Clouds 29 1007 70 10000 3.1 270 11:40 25.01.2020
198 Clouds 29 1007 70 10000 3.1 270 11:20 25.01.2020
199 Clouds 30 1007 70 10000 3.6 260 10:56 25.01.2020
200 Clouds 30 1007 70 10000 4.1 260 10:38 25.01.2020
201 Clouds 30 1007 70 10000 4.1 260 10:38 25.01.2020
202 Clouds 30 1007 70 10000 4.1 260 10:18 25.01.2020
203 Clouds 31 1006 70 10000 5.7 280 09:40 25.01.2020
204 Clouds 31 1006 70 10000 5.7 280 09:20 25.01.2020
205 Clouds 31 1005 70 10000 8.2 300 08:43 25.01.2020
206 Clouds 32 1006 66 10000 6.7 290 08:00 25.01.2020
207 Clouds 32 1007 62 10000 7.2 290 07:40 25.01.2020
208 Clouds 32 1007 66 10000 6.2 290 06:44 25.01.2020
209 Rain 32 1007 62 10000 7.2 300 06:24 25.01.2020
210 Clouds 33 1008 63 10000 6.7 290 05:44 25.01.2020
211 Clouds 33 1009 55 10000 6.7 300 04:24 25.01.2020
212 Clouds 33 1009 66 10000 6.2 280 03:50 25.01.2020
213 Clouds 32 1010 70 10000 5.7 290 02:40 25.01.2020
214 Clouds 31 1010 74 10000 5.1 290 01:58 25.01.2020
215 Clouds 31 1010 74 10000 4.6 280 01:34 25.01.2020
216 Rain 30 1009 83 10000 3.6 320 00:41 25.01.2020
217 Rain 29 1009 83 10000 3.6 320 00:23 25.01.2020
218 Rain 28 1008 79 10000 4.6 290 23:42 24.01.2020
219 Rain 29 1008 79 10000 4.6 290 23:24 24.01.2020
220 Clouds 29 1008 79 10000 4.6 290 22:47 24.01.2020
221 Clouds 29 1008 83 10000 3.1 300 22:29 24.01.2020
222 Clouds 29 1007 83 10000 3.6 300 21:59 24.01.2020
223 Clouds 28 1007 83 10000 3.6 310 21:41 24.01.2020
224 Clouds 28 1007 83 10000 3.6 310 21:41 24.01.2020
225 Clouds 28 1007 83 10000 3.6 310 21:19 24.01.2020
226 Clouds 29 1007 83 10000 3.6 310 20:44 24.01.2020
227 Clouds 28 1007 89 10000 3.1 330 20:23 24.01.2020
228 Clouds 29 1007 89 10000 3.6 340 19:59 24.01.2020
229 Clouds 28 1008 83 10000 3.6 330 19:41 24.01.2020
230 Clouds 28 1008 83 10000 3.6 330 19:22 24.01.2020
231 Clouds 29 1008 79 10000 4.1 320 18:58 24.01.2020
232 Clouds 29 1008 79 10000 4.6 320 18:40 24.01.2020
233 Clouds 29 1008 79 10000 4.6 320 18:22 24.01.2020
234 Clouds 28 1008 79 10000 3.6 310 17:44 24.01.2020
235 Rain 28 1008 83 10000 2.6 290 17:22 24.01.2020
236 Rain 29 1009 83 10000 2.1 290 16:57 24.01.2020
237 Rain 29 1010 79 10000 1.5 290 16:38 24.01.2020
238 Rain 29 1010 79 10000 1.5 290 16:19 24.01.2020
239 Clouds 28 1010 79 10000 2.1 250 15:42 24.01.2020
240 Clouds 29 1010 79 10000 2.1 250 15:21 24.01.2020
241 Clouds 29 1009 79 10000 3.1 280 14:43 24.01.2020
242 Clouds 29 1009 79 10000 3.1 280 14:24 24.01.2020
243 Clouds 29 1009 79 10000 3.1 280 13:59 24.01.2020
244 Clouds 29 1009 79 10000 3.6 290 13:40 24.01.2020
245 Clouds 29 1009 79 10000 3.6 290 13:21 24.01.2020
246 Clouds 29 1009 79 10000 3.1 280 12:43 24.01.2020
247 Clouds 29 1008 74 10000 4.6 290 12:20 24.01.2020
248 Clouds 30 1008 74 10000 3.6 290 11:45 24.01.2020
249 Clouds 30 1008 74 10000 4.6 290 11:19 24.01.2020
250 Clouds 30 1008 74 10000 4.6 290 11:19 24.01.2020
251 Clouds 30 1007 74 10000 5.7 280 10:58 24.01.2020
252 Clouds 30 1007 74 10000 6.2 280 10:40 24.01.2020
253 Clouds 30 1007 74 10000 6.2 280 10:19 24.01.2020
254 Clouds 31 1006 70 10000 6.7 300 09:41 24.01.2020
255 Clouds 31 1006 70 10000 6.7 300 09:23 24.01.2020
256 Clouds 31 1006 66 10000 8.2 300 08:41 24.01.2020
257 Clouds 31 1006 66 10000 8.2 300 08:41 24.01.2020
258 Clouds 32 1006 66 10000 8.2 300 08:21 24.01.2020
259 Clouds 32 1006 62 10000 8.7 290 07:58 24.01.2020
260 Clouds 32 1006 66 10000 8.7 290 07:39 24.01.2020
261 Clouds 33 1006 63 10000 8.7 280 06:54 24.01.2020
262 Clouds 32 1007 62 10000 8.7 290 06:33 24.01.2020
263 Clouds 32 1007 66 10000 8.2 290 05:59 24.01.2020
264 Clouds 33 1007 66 10000 7.7 290 05:18 24.01.2020
265 Clouds 32 1009 70 10000 7.7 290 02:54 24.01.2020
266 Clouds 32 1009 70 10000 6.7 290 02:27 24.01.2020
267 Clouds 32 1009 70 10000 6.7 290 01:56 24.01.2020
268 Clouds 31 1009 74 10000 5.7 280 01:35 24.01.2020
269 Clouds 29 1008 83 10000 5.1 300 00:33 24.01.2020
270 Clouds 29 1007 83 10000 5.7 300 23:58 23.01.2020
271 Clouds 29 1007 83 10000 6.2 320 23:40 23.01.2020
272 Rain 28 1007 83 10000 6.2 320 23:20 23.01.2020
273 Rain 28 1007 88 10000 7.2 320 22:55 23.01.2020
274 Rain 28 1007 88 10000 7.2 320 22:55 23.01.2020
275 Rain 28 1006 88 10000 4.6 300 22:36 23.01.2020
276 Rain 27 1006 88 10000 4.6 300 22:18 23.01.2020
277 Clouds 27 1006 88 10000 2.1 350 21:54 23.01.2020
278 Clouds 27 1006 88 10000 1.5 360 21:36 23.01.2020
279 Clouds 27 1006 88 10000 1.5 360 21:18 23.01.2020
280 Clouds 27 1006 78 10000 4.1 240 20:40 23.01.2020
281 Clouds 27 1006 78 10000 4.1 240 20:22 23.01.2020
282 Rain 28 1006 83 10000 4.1 250 19:57 23.01.2020
283 Clouds 29 1006 83 10000 3.1 250 19:39 23.01.2020
284 Clouds 29 1006 83 10000 3.1 250 19:21 23.01.2020
285 Rain 29 1007 83 10000 3.6 240 18:56 23.01.2020
286 Rain 29 1007 83 10000 3.1 250 18:37 23.01.2020
287 Rain 29 1007 83 10000 3.1 250 18:19 23.01.2020
288 Rain 29 1007 83 10000 3.1 250 18:19 23.01.2020
289 Clouds 29 1007 83 10000 3.6 290 17:44 23.01.2020
290 Clouds 29 1007 83 10000 3.6 290 17:21 23.01.2020
291 Clouds 29 1007 83 10000 2.6 270 16:59 23.01.2020
292 Clouds 29 1008 83 10000 2.6 260 16:39 23.01.2020
293 Clouds 29 1008 83 10000 2.6 260 16:19 23.01.2020
294 Clouds 29 1008 83 10000 3.1 270 15:58 23.01.2020
295 Clouds 29 1009 83 10000 2.6 260 15:38 23.01.2020
296 Clouds 29 1009 83 10000 2.6 260 15:38 23.01.2020
297 Clouds 28 1009 83 10000 2.6 260 15:19 23.01.2020
298 Rain 28 1008 83 10000 3.1 260 14:58 23.01.2020
299 Rain 28 1008 83 10000 3.6 260 14:40 23.01.2020
300 Rain 29 1008 83 10000 3.6 260 14:21 23.01.2020
301 Clouds 29 1008 83 10000 3.6 270 13:46 23.01.2020
302 Clouds 29 1007 83 10000 5.7 290 13:21 23.01.2020
303 Rain 29 1007 83 10000 5.1 280 12:57 23.01.2020
304 Rain 29 1007 83 10000 5.1 280 12:57 23.01.2020
305 Rain 29 1006 83 10000 4.6 290 12:39 23.01.2020
306 Rain 29 1006 83 10000 4.6 290 12:21 23.01.2020
307 Clouds 29 1006 83 10000 6.2 290 11:54 23.01.2020
308 Clouds 29 1006 83 10000 3.6 290 11:36 23.01.2020
309 Clouds 29 1006 83 10000 3.6 290 11:18 23.01.2020
310 Clouds 29 1005 74 10000 4.6 280 10:41 23.01.2020
311 Clouds 29 1005 74 10000 4.6 280 10:19 23.01.2020
312 Clouds 29 1005 74 10000 4.6 280 10:19 23.01.2020
313 Rain 30 1005 74 10000 6.2 280 09:41 23.01.2020
314 Rain 31 1005 74 10000 6.2 280 09:22 23.01.2020
315 Rain 32 1005 66 10000 6.7 290 08:57 23.01.2020
316 Clouds 32 1005 66 10000 6.2 280 08:38 23.01.2020
317 Clouds 32 1005 66 10000 6.2 280 08:19 23.01.2020
318 Rain 32 1005 66 10000 7.2 270 07:42 23.01.2020
319 Clouds 32 1005 70 10000 6.2 280 07:21 23.01.2020
320 Clouds 32 1005 70 10000 6.2 280 07:21 23.01.2020
321 Clouds 32 1006 70 10000 8.2 290 06:44 23.01.2020
322 Clouds 32 1006 70 10000 8.2 290 06:19 23.01.2020
323 Clouds 32 1007 66 10000 7.7 290 04:44 23.01.2020
324 Clouds 31 1008 74 10000 5.7 280 03:48 23.01.2020
325 Clouds 30 1009 74 10000 3.1 280 01:58 23.01.2020
326 Clouds 28 1009 78 10000 3.1 230 00:47 23.01.2020
327 Clouds 28 1009 83 10000 4.1 250 00:26 23.01.2020
328 Clouds 28 1008 83 10000 2.1 270 23:47 22.01.2020
329 Clouds 27 1008 83 10000 2.1 270 23:28 22.01.2020
330 Clouds 26 1008 88 10000 2.6 270 22:55 22.01.2020
331 Rain 26 1007 83 10000 2.6 280 22:37 22.01.2020
332 Rain 25 1007 83 10000 2.6 280 22:19 22.01.2020
333 Clouds 26 1006 83 10000 4.6 250 21:38 22.01.2020
334 Clouds 26 1006 83 10000 4.6 250 21:20 22.01.2020
335 Rain 26 1006 83 10000 5.7 250 20:56 22.01.2020
336 Rain 26 1006 83 0 5.36 250 20:36 22.01.2020
337 Rain 26 1006 83 0 5.36 250 20:36 22.01.2020
338 Rain 27 1006 88 10000 5.1 280 20:18 22.01.2020
339 Clouds 28 1007 88 10000 4.6 280 19:55 22.01.2020
340 Clouds 28 1006 88 10000 4.6 270 19:36 22.01.2020
341 Clouds 28 1006 88 10000 4.6 270 19:36 22.01.2020
342 Clouds 28 1006 88 10000 4.6 270 19:18 22.01.2020
343 Clouds 28 1007 88 10000 4.6 270 18:54 22.01.2020
344 Clouds 28 1007 88 10000 5.7 270 18:36 22.01.2020
345 Clouds 28 1007 88 10000 5.7 270 18:18 22.01.2020
346 Clouds 28 1008 88 10000 5.1 270 17:39 22.01.2020
347 Clouds 28 1008 88 10000 5.1 270 17:20 22.01.2020
348 Clouds 28 1008 88 10000 4.1 270 16:57 22.01.2020
349 Clouds 27 1008 88 10000 4.1 270 16:39 22.01.2020
350 Clouds 27 1008 88 10000 4.1 270 16:20 22.01.2020
351 Clouds 28 1009 88 10000 5.1 280 15:55 22.01.2020
352 Clouds 27 1008 94 10000 4.1 270 15:37 22.01.2020
353 Clouds 27 1008 94 10000 4.1 270 15:18 22.01.2020
354 Clouds 26 1009 100 10000 2.1 280 14:39 22.01.2020
355 Clouds 25 1009 100 10000 2.1 280 14:20 22.01.2020
356 Clouds 25 1008 100 10000 0.5 220 13:57 22.01.2020
357 Clouds 25 1008 100 10000 1.5 50 13:37 22.01.2020
358 Clouds 25 1008 100 10000 1.5 50 13:19 22.01.2020
359 Clouds 25 1008 100 10000 1 270 12:57 22.01.2020
360 Rain 25 1008 94 10000 2.6 280 12:38 22.01.2020
361 Rain 25 1008 94 10000 2.6 280 12:19 22.01.2020
362 Rain 25 1007 100 10000 3.65 323 11:57 22.01.2020
363 Rain 25 1007 100 10000 3.65 323 11:39 22.01.2020
364 Rain 25 1007 100 10000 2.92 323 11:19 22.01.2020
365 Rain 25 1007 94 5000 2.1 260 10:45 22.01.2020
366 Rain 24 1007 100 8000 1.5 330 10:21 22.01.2020
367 Rain 24 1007 100 7000 2.6 340 09:58 22.01.2020
368 Rain 24 1007 100 2000 1.5 350 09:40 22.01.2020
369 Rain 24 1007 100 2000 1.5 350 09:21 22.01.2020
370 Rain 24 1007 94 10000 2.1 330 08:55 22.01.2020
371 Rain 24 1007 100 10000 5.7 190 08:37 22.01.2020
372 Rain 24 1007 100 10000 5.7 190 08:19 22.01.2020
373 Rain 24 1008 100 8000 2.6 160 07:44 22.01.2020
374 Rain 24 1008 100 8000 2.6 160 07:26 22.01.2020
375 Rain 24 1009 100 10000 2.1 60 06:34 22.01.2020
376 Rain 24 1009 94 10000 2.6 40 05:54 22.01.2020
377 Rain 23 1011 100 3000 5.1 200 04:25 22.01.2020
378 Rain 24 1012 100 500 8.7 180 03:26 22.01.2020
379 Rain 26 1010 94 9000 6.2 280 02:42 22.01.2020
380 Rain 25 1010 94 10000 6.2 280 00:47 22.01.2020
381 Thunderstorm 24 1010 100 9000 3.1 10 00:27 22.01.2020
382 Rain 24 1009 100 9000 3.6 100 23:57 21.01.2020
383 Rain 24 1010 100 1200 2.1 340 23:37 21.01.2020
384 Rain 24 1010 100 1200 2.1 340 23:19 21.01.2020
385 Rain 24 1009 100 9000 3.6 160 22:40 21.01.2020
386 Rain 24 1009 100 9000 3.6 160 22:21 21.01.2020
387 Rain 24 1009 100 9000 4.6 190 21:58 21.01.2020
388 Rain 24 1009 100 2500 5.7 180 21:39 21.01.2020
389 Rain 24 1009 100 2500 5.7 180 21:20 21.01.2020
390 Rain 26 1008 83 10000 5.7 260 20:57 21.01.2020
391 Drizzle 25 1008 94 10000 2.1 260 20:38 21.01.2020
392 Drizzle 25 1008 94 10000 2.1 260 20:20 21.01.2020
393 Rain 25 1009 94 4800 6.7 290 19:57 21.01.2020
394 Rain 25 1008 94 2400 3.6 280 19:39 21.01.2020
395 Rain 25 1008 94 2400 3.6 280 19:20 21.01.2020
396 Rain 26 1008 94 1500 9.3 290 18:55 21.01.2020
397 Rain 26 1008 94 6000 8.2 300 18:37 21.01.2020
398 Rain 26 1008 94 6000 8.2 300 18:19 21.01.2020
399 Rain 26 1009 94 8000 7.2 290 17:45 21.01.2020
400 Rain 25 1009 94 8000 7.2 290 17:20 21.01.2020
401 Rain 25 1010 100 10000 8.7 280 16:59 21.01.2020
402 Rain 25 1010 100 6000 10.8 280 16:37 21.01.2020
403 Rain 26 1010 100 6000 10.8 280 16:19 21.01.2020
404 Thunderstorm 25 1010 100 1500 11.8 270 15:56 21.01.2020
405 Rain 26 1010 83 10000 5.1 280 15:36 21.01.2020
406 Rain 27 1010 83 10000 5.1 280 15:18 21.01.2020
407 Rain 26 1010 78 10000 10.3 260 14:38 21.01.2020
408 Rain 26 1010 78 10000 10.3 260 14:20 21.01.2020
409 Rain 26 1009 88 9000 7.2 270 13:40 21.01.2020
410 Rain 25 1009 88 9000 7.2 270 13:19 21.01.2020
411 Rain 26 1009 83 10000 7.7 250 12:56 21.01.2020
412 Clouds 27 1009 79 10000 8.7 300 12:37 21.01.2020
413 Rain 28 1009 79 10000 8.7 300 12:19 21.01.2020
414 Rain 27 1008 83 10000 8.7 280 11:40 21.01.2020
415 Rain 27 1008 83 10000 8.7 280 11:21 21.01.2020
416 Rain 26 1008 88 9000 9.3 300 10:57 21.01.2020
417 Rain 27 1008 88 9000 9.3 300 10:57 21.01.2020
418 Rain 26 1008 88 9000 9.3 300 10:57 21.01.2020
419 Rain 27 1008 78 10000 9.3 280 10:39 21.01.2020
420 Rain 27 1008 78 10000 9.3 280 10:20 21.01.2020
421 Clouds 29 1007 74 10000 7.2 290 09:42 21.01.2020
422 Clouds 29 1007 74 10000 7.2 290 09:23 21.01.2020
423 Rain 28 1008 78 10000 5.7 310 08:50 21.01.2020
424 Rain 27 1008 88 10000 8.7 290 08:32 21.01.2020
425 Rain 28 1007 69 10000 7.7 300 07:59 21.01.2020
426 Thunderstorm 28 1008 83 10000 8.2 300 07:40 21.01.2020
427 Thunderstorm 28 1008 83 10000 8.2 300 07:22 21.01.2020
428 Thunderstorm 29 1008 83 10000 8.2 270 06:49 21.01.2020
429 Thunderstorm 29 1008 74 10000 7.2 310 06:29 21.01.2020
430 Thunderstorm 29 1008 74 10000 7.2 310 06:29 21.01.2020
431 Thunderstorm 29 1008 74 10000 7.2 310 06:29 21.01.2020
432 Clouds 30 1009 79 10000 6.7 350 05:42 21.01.2020
433 Clouds 30 1010 74 10000 5.1 300 04:40 21.01.2020
434 Rain 25 1011 94 10000 4.1 340 02:57 21.01.2020
435 Rain 24 1012 94 6000 9.3 300 01:56 21.01.2020
436 Rain 23 1012 100 1000 12.9 320 01:26 21.01.2020
437 Clouds 27 1010 88 10000 5.1 330 00:37 21.01.2020
438 Rain 27 1010 83 10000 5.1 330 23:59 20.01.2020
439 Rain 26 1010 88 10000 5.1 330 23:41 20.01.2020
440 Rain 25 1010 88 10000 5.1 330 23:19 20.01.2020
441 Clouds 25 1009 88 10000 3.6 340 22:56 20.01.2020
442 Thunderstorm 25 1009 88 10000 3.1 330 22:38 20.01.2020
443 Thunderstorm 25 1009 88 10000 3.1 330 22:20 20.01.2020
444 Thunderstorm 26 1008 88 10000 3.6 340 21:57 20.01.2020
445 Thunderstorm 24 1008 94 10000 2.6 350 21:37 20.01.2020
446 Thunderstorm 24 1008 94 10000 2.6 350 21:19 20.01.2020
447 Rain 24 1008 88 10000 2.6 350 20:56 20.01.2020
448 Rain 24 1008 88 10000 2.6 350 20:56 20.01.2020
449 Rain 24 1008 88 10000 4.1 360 20:38 20.01.2020
450 Rain 24 1008 88 10000 4.1 360 20:18 20.01.2020
451 Rain 25 1009 94 1900 6.2 320 19:56 20.01.2020
452 Clouds 26 1007 94 10000 4.89 289 19:37 20.01.2020
453 Clouds 26 1007 94 10000 4.89 289 19:18 20.01.2020
454 Clouds 26 1008 88 10000 2.1 230 18:43 20.01.2020
455 Rain 26 1008 83 6000 4.6 290 18:22 20.01.2020
456 Rain 25 1009 94 10000 3.1 320 17:41 20.01.2020
457 Rain 25 1009 94 10000 3.1 320 17:20 20.01.2020
458 Rain 25 1009 94 10000 3.1 320 17:20 20.01.2020
459 Rain 25 1009 94 10000 1.5 90 16:59 20.01.2020
460 Rain 24 1009 100 10000 0.5 300 16:37 20.01.2020
461 Rain 24 1009 100 10000 0.5 300 16:18 20.01.2020
462 Rain 24 1009 100 10000 0.5 300 16:18 20.01.2020
463 Rain 25 1010 94 9000 1 290 15:54 20.01.2020
464 Thunderstorm 24 1010 94 4000 6.7 290 15:36 20.01.2020
465 Thunderstorm 24 1010 94 4000 6.7 290 15:18 20.01.2020
466 Thunderstorm 24 1010 100 7000 1.5 100 14:41 20.01.2020
467 Thunderstorm 24 1010 100 7000 1.5 100 14:41 20.01.2020
468 Thunderstorm 25 1010 100 7000 1.5 100 14:22 20.01.2020
469 Thunderstorm 25 1010 100 2000 0.5 320 13:58 20.01.2020
470 Thunderstorm 24 1010 100 1000 7.7 290 13:40 20.01.2020
471 Thunderstorm 24 1010 100 1000 7.7 290 13:21 20.01.2020
472 Thunderstorm 26 1009 100 1000 12.3 310 12:46 20.01.2020
473 Rain 26 1009 94 1500 4.6 260 12:28 20.01.2020
474 Rain 27 1008 79 6000 5.7 290 11:57 20.01.2020
475 Clouds 27 1008 83 10000 3.1 270 11:38 20.01.2020
476 Clouds 27 1008 83 10000 3.1 270 11:19 20.01.2020
477 Clouds 27 1007 83 10000 3.1 270 10:48 20.01.2020
478 Rain 26 1007 94 10000 3.6 310 10:22 20.01.2020
479 Rain 26 1007 94 10000 1 290 09:54 20.01.2020
480 Rain 26 1007 88 8000 4.6 300 09:36 20.01.2020
481 Rain 26 1007 88 8000 4.6 300 09:18 20.01.2020
482 Rain 26 1007 88 3000 2.6 240 08:42 20.01.2020
483 Rain 27 1007 83 8000 9.8 250 08:24 20.01.2020
484 Clouds 28 1007 88 10000 4.1 270 07:43 20.01.2020
485 Rain 28 1007 88 10000 4.1 270 07:23 20.01.2020
486 Thunderstorm 29 1007 88 10000 6.2 260 06:45 20.01.2020
487 Rain 30 1007 79 10000 5.7 310 06:25 20.01.2020
488 Rain 29 1008 83 10000 7.2 310 05:41 20.01.2020
489 Rain 28 1008 83 10000 7.2 310 05:21 20.01.2020
490 Rain 28 1009 94 10000 2.6 280 04:34 20.01.2020
491 Rain 26 1010 94 6000 3.1 290 02:55 20.01.2020
492 Rain 26 1010 94 6000 3.1 290 02:55 20.01.2020
493 Thunderstorm 26 1010 88 1500 8.7 250 01:42 20.01.2020
494 Thunderstorm 26 1010 88 1500 8.7 250 01:23 20.01.2020
495 Rain 27 1009 88 10000 3.6 310 00:43 20.01.2020
496 Rain 26 1009 94 10000 3.6 300 00:22 20.01.2020
497 Rain 26 1008 88 9000 7.2 290 23:39 19.01.2020
498 Rain 26 1008 88 9000 7.2 290 23:19 19.01.2020
499 Thunderstorm 25 1008 94 10000 5.7 290 22:56 19.01.2020
500 Thunderstorm 26 1008 83 3000 3.6 260 22:38 19.01.2020
501 Thunderstorm 26 1008 83 3000 3.6 260 22:38 19.01.2020
502 Thunderstorm 25 1008 83 3000 3.6 260 22:38 19.01.2020
503 Thunderstorm 26 1008 83 3000 3.6 260 22:19 19.01.2020
504 Thunderstorm 26 1008 83 10000 6.2 240 21:56 19.01.2020
505 Thunderstorm 26 1008 83 10000 6.2 240 21:56 19.01.2020
506 Thunderstorm 25 1007 94 10000 3.6 290 21:38 19.01.2020
507 Thunderstorm 26 1007 94 10000 3.6 290 21:19 19.01.2020
508 Rain 25 1007 94 10000 6.7 330 20:57 19.01.2020
509 Rain 25 1007 88 9000 2.1 340 20:38 19.01.2020
510 Rain 25 1007 88 9000 2.1 340 20:20 19.01.2020
511 Rain 25 1006 94 2900 1 350 19:56 19.01.2020
512 Rain 26 1007 94 5000 8.2 300 19:38 19.01.2020
513 Rain 26 1007 94 5000 8.2 300 19:19 19.01.2020
514 Rain 26 1007 88 10000 8.7 320 18:55 19.01.2020
515 Rain 27 1007 88 10000 3.6 340 18:37 19.01.2020
516 Rain 27 1007 88 10000 3.6 340 18:19 19.01.2020
517 Rain 27 1007 78 10000 6.7 310 17:58 19.01.2020
518 Rain 27 1008 88 10000 5.1 320 17:39 19.01.2020
519 Clouds 28 1008 88 10000 5.1 320 17:20 19.01.2020
520 Clouds 28 1008 79 10000 5.1 280 16:57 19.01.2020
521 Clouds 28 1008 79 10000 4.6 280 16:38 19.01.2020
522 Clouds 28 1008 79 10000 4.6 280 16:19 19.01.2020
523 Rain 28 1009 83 10000 4.1 300 15:57 19.01.2020
524 Rain 27 1009 83 10000 4.6 300 15:37 19.01.2020
525 Rain 27 1009 83 10000 4.6 300 15:19 19.01.2020
526 Rain 27 1009 83 9000 6.2 300 14:57 19.01.2020
527 Rain 28 1009 83 3000 3.1 310 14:38 19.01.2020
528 Rain 28 1009 83 3000 3.1 310 14:18 19.01.2020
529 Rain 28 1008 83 10000 3.1 290 13:55 19.01.2020
530 Rain 28 1008 83 10000 5.1 290 13:37 19.01.2020
531 Rain 28 1008 83 10000 5.1 290 13:18 19.01.2020
532 Rain 28 1008 88 9000 5.1 290 12:54 19.01.2020
533 Rain 28 1008 79 10000 4.6 290 12:36 19.01.2020
534 Rain 29 1008 79 10000 4.6 290 12:18 19.01.2020
535 Clouds 28 1007 79 10000 4.1 290 11:39 19.01.2020
536 Clouds 29 1007 79 10000 4.1 290 11:20 19.01.2020
537 Clouds 29 1007 79 10000 4.6 290 10:56 19.01.2020
538 Clouds 29 1007 79 10000 4.6 290 10:56 19.01.2020
539 Clouds 29 1006 79 10000 5.1 290 10:37 19.01.2020
540 Clouds 29 1006 79 10000 5.1 290 10:19 19.01.2020
541 Clouds 29 1006 79 10000 5.7 290 09:45 19.01.2020
542 Clouds 29 1006 79 10000 5.7 290 09:45 19.01.2020
543 Clouds 30 1006 79 10000 5.7 300 09:27 19.01.2020
544 Clouds 30 1006 74 10000 6.7 290 08:58 19.01.2020
545 Clouds 30 1006 70 10000 6.2 290 08:39 19.01.2020
546 Clouds 31 1006 70 10000 6.2 290 08:21 19.01.2020
547 Clouds 31 1006 74 10000 3.6 280 07:42 19.01.2020
548 Clouds 30 1006 74 10000 3.6 280 07:22 19.01.2020
549 Clouds 30 1006 74 10000 3.6 280 07:22 19.01.2020
550 Clouds 30 1006 74 10000 4.6 250 06:51 19.01.2020
551 Rain 29 1007 74 10000 5.1 260 06:21 19.01.2020
552 Rain 31 1009 70 10000 4.1 280 02:44 19.01.2020
553 Rain 30 1009 70 10000 5.7 270 02:21 19.01.2020
554 Rain 32 1009 70 10000 4.6 270 01:25 19.01.2020
555 Rain 31 1009 70 10000 3.6 270 00:50 19.01.2020
556 Rain 30 1008 74 10000 5.1 270 00:29 19.01.2020
557 Rain 30 1008 74 10000 5.1 270 23:57 18.01.2020
558 Rain 30 1008 74 10000 3.1 270 23:38 18.01.2020
559 Rain 30 1008 74 10000 3.1 270 23:19 18.01.2020
560 Rain 29 1008 79 10000 5.1 280 22:55 18.01.2020
561 Rain 28 1007 79 10000 3.6 270 22:37 18.01.2020
562 Rain 28 1007 79 10000 3.6 270 22:19 18.01.2020
563 Rain 28 1007 79 10000 4.1 270 21:56 18.01.2020
564 Clouds 28 1007 79 10000 4.6 270 21:37 18.01.2020
565 Clouds 28 1007 79 10000 4.6 270 21:19 18.01.2020
566 Rain 28 1006 83 10000 5.1 280 20:42 18.01.2020
567 Rain 28 1006 83 10000 5.1 280 20:21 18.01.2020
568 Clouds 29 1006 74 10000 5.1 290 19:57 18.01.2020
569 Clouds 29 1006 74 10000 5.1 290 19:39 18.01.2020
570 Clouds 29 1006 74 10000 5.1 290 19:21 18.01.2020
571 Clouds 29 1007 79 10000 5.7 280 18:42 18.01.2020
572 Clouds 29 1007 79 10000 5.7 280 18:21 18.01.2020
573 Clouds 29 1007 79 10000 5.1 290 17:55 18.01.2020
574 Clouds 29 1007 79 10000 4.6 290 17:37 18.01.2020
575 Clouds 29 1007 79 10000 4.6 290 17:18 18.01.2020
576 Clouds 29 1008 79 10000 5.1 290 16:42 18.01.2020
577 Clouds 29 1008 79 10000 5.1 290 16:24 18.01.2020
578 Clouds 29 1009 74 10000 4.6 280 15:59 18.01.2020
579 Clouds 29 1009 74 10000 5.7 280 15:41 18.01.2020
580 Clouds 30 1009 74 10000 5.7 280 15:22 18.01.2020
581 Clouds 29 1009 74 10000 4.6 280 14:54 18.01.2020
582 Clouds 30 1009 74 10000 3.1 270 14:36 18.01.2020
583 Clouds 30 1009 74 10000 3.1 270 14:18 18.01.2020
584 Clouds 30 1008 74 10000 4.1 270 13:43 18.01.2020
585 Clouds 30 1008 74 10000 4.6 280 13:24 18.01.2020
586 Clouds 30 1008 74 10000 4.1 280 12:56 18.01.2020
587 Clouds 30 1007 74 10000 4.6 280 12:38 18.01.2020
588 Clouds 30 1007 74 10000 4.6 280 12:19 18.01.2020
589 Clouds 30 1007 74 10000 4.1 280 11:44 18.01.2020
590 Clouds 30 1006 79 10000 4.1 280 11:21 18.01.2020
591 Clouds 31 1006 70 10000 4.6 280 10:56 18.01.2020
592 Clouds 31 1006 70 10000 4.6 270 10:38 18.01.2020
593 Clouds 31 1006 70 10000 4.6 270 10:18 18.01.2020
594 Clouds 31 1006 70 10000 4.6 270 10:18 18.01.2020
595 Clouds 31 1005 62 10000 5.7 280 09:42 18.01.2020
596 Clouds 32 1005 62 10000 5.7 280 09:20 18.01.2020
597 Clouds 32 1005 66 10000 6.2 290 08:55 18.01.2020
598 Clouds 33 1006 59 10000 6.2 290 08:36 18.01.2020
599 Clouds 33 1006 59 10000 6.2 290 08:18 18.01.2020
600 Clouds 33 1006 63 10000 7.7 300 07:40 18.01.2020
601 Clouds 33 1006 63 10000 7.7 300 07:20 18.01.2020
602 Clouds 34 1006 59 10000 7.2 290 06:45 18.01.2020
603 Clouds 34 1006 59 10000 7.2 290 06:45 18.01.2020
604 Clouds 34 1007 63 10000 6.7 290 05:53 18.01.2020
605 Clouds 34 1008 66 10000 5.7 310 04:29 18.01.2020
606 Clouds 33 1009 62 10000 5.1 270 02:49 18.01.2020
607 Clouds 32 1009 66 10000 5.1 280 01:51 18.01.2020
608 Clouds 31 1009 74 10000 4.1 270 00:40 18.01.2020
609 Clouds 30 1009 74 10000 4.1 270 00:21 18.01.2020
610 Clouds 30 1009 74 10000 2.1 260 23:59 17.01.2020
611 Clouds 29 1008 83 10000 1.5 250 23:40 17.01.2020
612 Clouds 29 1008 83 10000 1.5 250 23:19 17.01.2020
613 Clouds 28 1008 83 10000 2.1 260 22:43 17.01.2020
614 Clouds 27 1007 83 10000 2.6 250 22:21 17.01.2020
615 Clouds 27 1007 83 10000 2.1 250 21:57 17.01.2020
616 Clouds 27 1007 83 10000 2.1 260 21:39 17.01.2020
617 Clouds 27 1007 83 10000 2.1 260 21:20 17.01.2020
618 Clouds 27 1006 88 10000 2.1 260 20:55 17.01.2020
619 Clouds 27 1007 88 10000 2.6 270 20:36 17.01.2020
620 Clouds 27 1007 88 10000 2.6 270 20:18 17.01.2020
621 Clouds 27 1007 88 10000 2.1 270 19:54 17.01.2020
622 Clouds 27 1007 83 10000 2.6 270 19:36 17.01.2020
623 Clouds 27 1007 83 10000 2.6 270 19:18 17.01.2020
624 Clouds 27 1007 83 10000 2.1 260 18:44 17.01.2020
625 Clouds 27 1007 83 10000 1.5 260 18:26 17.01.2020
626 Clouds 27 1007 83 10000 2.1 240 17:56 17.01.2020
627 Clouds 27 1007 83 10000 2.6 250 17:38 17.01.2020
628 Clouds 27 1007 83 10000 2.6 250 17:19 17.01.2020
629 Clouds 28 1008 74 10000 2.6 260 16:41 17.01.2020
630 Clouds 28 1008 74 10000 2.6 260 16:20 17.01.2020
631 Clouds 28 1008 74 10000 3.6 270 15:48 17.01.2020
632 Clouds 28 1008 74 10000 4.1 270 15:27 17.01.2020
633 Clouds 28 1008 79 10000 3.6 290 14:56 17.01.2020
634 Clouds 28 1008 79 10000 3.6 320 14:38 17.01.2020
635 Clouds 28 1008 79 10000 3.6 320 14:19 17.01.2020
636 Clouds 28 1008 79 10000 3.1 320 13:39 17.01.2020
637 Clouds 29 1008 79 10000 3.1 320 13:21 17.01.2020
638 Clouds 29 1008 79 10000 3.1 320 13:21 17.01.2020
639 Clouds 29 1008 79 10000 3.6 320 12:45 17.01.2020
640 Clouds 29 1007 79 10000 3.1 310 12:23 17.01.2020
641 Clouds 29 1006 79 10000 2.6 330 11:41 17.01.2020
642 Clouds 29 1006 79 10000 2.6 330 11:19 17.01.2020
643 Clouds 29 1006 74 10000 3.1 330 10:54 17.01.2020
644 Clouds 29 1006 74 10000 3.1 330 10:54 17.01.2020
645 Clouds 29 1006 74 10000 3.1 330 10:54 17.01.2020
646 Clouds 30 1005 70 10000 5.1 350 10:36 17.01.2020
647 Clouds 30 1005 70 10000 5.1 350 10:18 17.01.2020
648 Clouds 30 1006 74 10000 3.1 350 09:41 17.01.2020
649 Clouds 30 1006 74 10000 3.1 350 09:20 17.01.2020
650 Clouds 30 1006 74 10000 2.6 360 08:55 17.01.2020
651 Clouds 30 1006 74 10000 2.1 300 08:37 17.01.2020
652 Clouds 30 1006 74 10000 2.1 300 08:18 17.01.2020
653 Clouds 29 1006 74 10000 2.6 280 07:43 17.01.2020
654 Clouds 28 1006 88 10000 2.6 290 07:24 17.01.2020
655 Rain 27 1006 88 10000 4.66 285 06:47 17.01.2020
656 Clouds 26 1007 94 10000 2.6 120 06:29 17.01.2020
657 Clouds 32 1008 68 0 4.75 294 04:26 17.01.2020
658 Clouds 32 1012 75 0 0.89 350 02:56 17.01.2020
659 Clouds 32 1013 76 0 0.89 162 02:56 17.01.2020
660 Rain 30 1005 84 0 4.92 110 02:32 17.01.2020
661 Clouds 32 1009 76 0 4.63 292 01:33 17.01.2020
662 Clouds 31 1009 74 0 3.58 270 00:59 17.01.2020
663 Clouds 30 1009 74 0 3.58 270 00:37 17.01.2020
664 Clouds 29 1009 83 10000 3.6 300 23:59 16.01.2020
665 Clouds 28 1009 83 10000 3.6 300 23:41 16.01.2020
666 Clouds 27 1009 83 10000 3.6 300 23:22 16.01.2020
667 Clouds 27 1007 78 10000 2.1 30 22:41 16.01.2020
668 Clouds 26 1007 78 10000 2.1 30 22:21 16.01.2020
669 Rain 27 1006 74 10000 2.1 290 21:57 16.01.2020
670 Rain 27 1005 66 10000 2.6 300 21:38 16.01.2020
671 Rain 28 1005 66 10000 2.6 300 21:19 16.01.2020
672 Rain 27 1004 74 10000 4.1 280 20:56 16.01.2020
673 Rain 27 1004 74 10000 4.1 250 20:38 16.01.2020
674 Clouds 27 1004 74 10000 4.1 250 20:19 16.01.2020
675 Clouds 26 1005 74 10000 4.1 240 19:56 16.01.2020
676 Clouds 26 1005 78 10000 2.6 230 19:37 16.01.2020
677 Clouds 26 1005 78 10000 2.6 230 19:19 16.01.2020
678 Clouds 26 1006 78 10000 2.1 180 18:55 16.01.2020
679 Clouds 26 1007 78 10000 3.1 170 18:36 16.01.2020
680 Clouds 26 1007 78 10000 3.1 170 18:18 16.01.2020
681 Clouds 26 1010 69 10000 5.7 150 17:42 16.01.2020
682 Clouds 26 1010 69 10000 5.7 150 17:23 16.01.2020
683 Clouds 27 1010 69 10000 2.6 150 16:57 16.01.2020
684 Clouds 27 1010 74 10000 2.6 90 16:38 16.01.2020
685 Clouds 27 1010 74 10000 2.6 90 16:19 16.01.2020
686 Clouds 27 1010 74 10000 2.6 90 16:19 16.01.2020
687 Clouds 27 1010 65 10000 3.6 90 15:44 16.01.2020
688 Rain 27 1010 69 10000 6.2 100 15:23 16.01.2020
689 Rain 28 1010 79 10000 5.1 100 14:57 16.01.2020
690 Clouds 29 1010 74 10000 2.1 310 14:39 16.01.2020
691 Clouds 30 1010 74 10000 2.1 310 14:20 16.01.2020
692 Clouds 29 1009 79 10000 2.6 290 13:45 16.01.2020
693 Clouds 30 1008 74 10000 3.6 280 13:26 16.01.2020
694 Clouds 30 1008 74 10000 3.1 280 12:47 16.01.2020
695 Clouds 30 1008 74 10000 4.1 280 12:47 16.01.2020
696 Clouds 30 1008 74 10000 3.1 280 12:28 16.01.2020
697 Clouds 30 1007 74 10000 4.6 280 11:59 16.01.2020
698 Clouds 30 1007 70 10000 5.1 280 11:40 16.01.2020
699 Clouds 30 1007 70 10000 5.1 280 11:22 16.01.2020
700 Clouds 31 1006 66 10000 5.1 280 10:55 16.01.2020
701 Clouds 31 1006 59 10000 4.6 280 10:36 16.01.2020
702 Clouds 32 1006 59 10000 4.6 280 10:18 16.01.2020
703 Clouds 33 1005 59 10000 6.2 290 09:41 16.01.2020
704 Clouds 33 1005 59 10000 6.2 290 09:23 16.01.2020
705 Clouds 34 1005 59 10000 5.7 290 08:55 16.01.2020
706 Clouds 34 1006 56 10000 6.2 290 08:36 16.01.2020
707 Clouds 34 1006 56 10000 6.2 290 08:18 16.01.2020
708 Clouds 34 1006 63 10000 6.7 300 07:42 16.01.2020
709 Clouds 33 1006 63 10000 6.7 300 07:23 16.01.2020
710 Clouds 35 1007 56 10000 6.7 300 06:48 16.01.2020
711 Clouds 35 1007 56 10000 6.7 300 06:28 16.01.2020
712 Clouds 35 1007 59 10000 6.7 290 05:46 16.01.2020
713 Clouds 34 1008 63 10000 6.7 290 04:46 16.01.2020
714 Clouds 34 1009 63 10000 5.7 300 03:29 16.01.2020
715 Clouds 33 1009 66 10000 5.7 300 02:45 16.01.2020
716 Clouds 31 1009 70 10000 5.1 290 01:28 16.01.2020
717 Clouds 32 1009 70 10000 4.6 290 00:42 16.01.2020
718 Clouds 31 1009 70 10000 4.6 290 00:22 16.01.2020
719 Clouds 29 1009 79 10000 3.6 290 23:40 15.01.2020
720 Clouds 29 1009 79 10000 3.6 290 23:21 15.01.2020
721 -273 0 0 0 0 0 23:20 15.01.2020
722 Clouds 29 1008 83 10000 2.6 280 22:56 15.01.2020
723 Clouds 28 1008 83 10000 3.1 290 22:37 15.01.2020
724 Clouds 28 1008 83 10000 3.1 290 22:18 15.01.2020
725 Clouds 28 1007 79 10000 2.6 280 21:55 15.01.2020
726 Clouds 28 1007 83 10000 2.6 280 21:36 15.01.2020
727 Clouds 28 1007 83 10000 2.6 280 21:18 15.01.2020
728 Clouds 28 1007 83 10000 2.6 280 20:54 15.01.2020
729 Clouds 28 1007 83 10000 3.1 270 20:36 15.01.2020
730 Clouds 29 1007 83 10000 3.1 270 20:18 15.01.2020
731 Clouds 29 1007 83 10000 3.1 280 19:54 15.01.2020
732 Clouds 29 1007 83 10000 3.6 280 19:36 15.01.2020
733 Clouds 29 1007 83 10000 3.6 280 19:36 15.01.2020
734 Clouds 29 1007 83 10000 3.6 280 19:18 15.01.2020
735 Clouds 29 1006 83 10000 3.6 290 18:55 15.01.2020
736 Clouds 29 1006 83 10000 3.6 290 18:55 15.01.2020
737 Clouds 29 1006 83 10000 3.6 290 18:55 15.01.2020
738 Rain 28 1006 83 10000 4.1 300 18:36 15.01.2020
739 Rain 28 1006 83 10000 4.1 300 18:18 15.01.2020
740 Rain 28 1006 83 10000 4.1 300 18:18 15.01.2020
741 Rain 29 1007 83 10000 3.6 290 17:40 15.01.2020
742 Rain 29 1007 83 10000 3.6 290 17:22 15.01.2020
743 Rain 29 1007 83 10000 3.6 290 17:22 15.01.2020
744 Rain 29 1007 83 10000 3.1 290 16:57 15.01.2020
745 Clouds 29 1007 79 10000 3.6 290 16:38 15.01.2020
746 Clouds 29 1007 79 10000 3.6 290 16:20 15.01.2020
747 Clouds 29 1007 79 10000 3.6 290 16:20 15.01.2020
748 Clouds 29 1007 79 10000 3.6 290 16:20 15.01.2020
749 Clouds 29 1007 79 10000 3.6 290 16:20 15.01.2020
750 Clouds 29 1008 79 10000 3.1 290 15:43 15.01.2020
751 Clouds 29 1008 79 10000 3.6 280 15:21 15.01.2020
752 Clouds 29 1008 70 10000 3.1 310 14:57 15.01.2020
753 Clouds 29 1008 66 10000 3.6 320 14:39 15.01.2020
754 Clouds 29 1008 66 10000 3.6 320 14:18 15.01.2020
755 Clouds 29 1007 66 10000 4.1 320 13:44 15.01.2020
756 Clouds 29 1008 79 10000 4.6 290 13:44 15.01.2020
757 Clouds 29 1008 79 10000 4.6 290 13:23 15.01.2020
758 Clouds 30 1008 79 10000 6.2 300 12:57 15.01.2020
759 Clouds 30 1008 79 10000 3.1 270 12:39 15.01.2020
760 Clouds 30 1008 79 10000 3.1 270 12:19 15.01.2020
761 Clouds 30 1007 74 10000 4.1 260 11:55 15.01.2020
762 Clouds 30 1007 74 10000 3.6 270 11:36 15.01.2020
763 Clouds 30 1007 74 10000 3.6 270 11:36 15.01.2020
764 Clouds 30 1007 74 10000 3.6 270 11:18 15.01.2020
765 Clouds 31 1006 70 10000 7.2 300 10:41 15.01.2020
766 Clouds 32 1006 70 10000 7.2 300 10:21 15.01.2020
767 Clouds 32 1005 66 10000 5.1 300 09:42 15.01.2020
768 Clouds 33 1005 66 10000 5.1 300 09:22 15.01.2020
769 Clouds 33 1005 59 10000 5.1 290 08:46 15.01.2020
770 Clouds 33 1005 52 10000 5.1 290 08:28 15.01.2020
771 Clouds 34 1005 52 10000 5.7 300 07:59 15.01.2020
772 Clouds 34 1006 50 10000 5.1 290 07:40 15.01.2020
773 Clouds 35 1006 50 10000 5.1 290 07:21 15.01.2020
774 Clouds 35 1006 49 10000 4.6 300 06:43 15.01.2020
775 Clouds 34 1007 56 10000 4.6 310 05:57 15.01.2020
776 Clouds 34 1009 66 10000 4.1 290 03:56 15.01.2020
777 Clouds 33 1009 66 10000 2.1 270 02:28 15.01.2020
778 Clouds 32 1009 74 10000 1.5 270 01:22 15.01.2020
779 Clouds 31 1009 79 10000 0.5 270 00:45 15.01.2020
780 Clouds 30 1009 79 10000 1 150 00:26 15.01.2020
781 Clouds 28 1009 83 10000 1.5 150 23:47 14.01.2020
782 Clouds 27 1009 88 10000 1.5 150 23:29 14.01.2020
783 Clouds 26 1008 94 10000 1 150 22:59 14.01.2020
784 Clouds 26 1008 94 10000 2.1 180 22:40 14.01.2020
785 Clouds 26 1008 94 10000 2.1 180 22:19 14.01.2020
786 Clouds 26 1008 88 10000 2.1 180 21:58 14.01.2020
787 Clouds 27 1007 83 10000 2.6 190 21:39 14.01.2020
788 Clouds 27 1007 83 10000 2.6 190 21:20 14.01.2020
789 Clouds 27 1007 88 10000 3.1 200 20:57 14.01.2020
790 Rain 28 1006 88 10000 2.1 270 20:39 14.01.2020
791 Rain 28 1006 88 10000 2.1 270 20:19 14.01.2020
792 Rain 28 1006 88 10000 2.1 270 19:55 14.01.2020
793 Rain 28 1006 88 10000 2.1 290 19:37 14.01.2020
794 Rain 28 1006 88 10000 2.1 290 19:18 14.01.2020
795 Rain 28 1006 83 10000 3.1 290 18:41 14.01.2020
796 Rain 28 1006 83 10000 3.1 290 18:20 14.01.2020
797 Rain 28 1006 83 10000 3.1 290 17:59 14.01.2020
798 Rain 28 1006 89 10000 2.6 270 17:37 14.01.2020
799 Rain 29 1006 89 10000 2.6 270 17:18 14.01.2020
800 Rain 29 1006 89 10000 2.6 270 17:18 14.01.2020
801 Clouds 29 1006 89 10000 3.1 260 16:54 14.01.2020
802 Clouds 29 1007 89 10000 3.6 300 16:36 14.01.2020
803 Clouds 29 1007 89 10000 3.6 300 16:18 14.01.2020
804 Rain 29 1008 83 10000 1.5 250 15:42 14.01.2020
805 Rain 29 1008 83 10000 1.5 250 15:19 14.01.2020
806 Rain 29 1009 83 4000 1.5 260 14:46 14.01.2020
807 Rain 29 1008 79 10000 1.5 300 14:22 14.01.2020
808 Clouds 29 1008 79 10000 1.5 290 13:58 14.01.2020
809 Rain 29 1008 79 10000 1.5 280 13:39 14.01.2020
810 Rain 30 1008 79 10000 1.5 280 13:19 14.01.2020
811 Clouds 29 1007 74 10000 2.6 280 12:42 14.01.2020
812 Clouds 30 1007 74 10000 2.6 280 12:22 14.01.2020
813 Clouds 30 1006 74 10000 2.1 280 11:56 14.01.2020
814 Clouds 30 1006 70 10000 3.6 280 11:37 14.01.2020
815 Clouds 30 1006 70 10000 3.6 280 11:37 14.01.2020
816 Clouds 30 1006 70 10000 3.6 280 11:19 14.01.2020
817 Clouds 31 1005 70 10000 5.1 290 10:41 14.01.2020
818 Clouds 32 1005 70 10000 5.1 290 10:20 14.01.2020
819 Clouds 32 1005 66 10000 6.7 290 09:59 14.01.2020
820 Clouds 32 1005 66 10000 6.2 300 09:40 14.01.2020
821 Clouds 33 1005 66 10000 6.2 300 09:21 14.01.2020
822 Clouds 33 1005 63 10000 4.6 300 08:56 14.01.2020
823 Rain 33 1005 66 10000 4.1 260 08:38 14.01.2020
824 Rain 34 1005 66 10000 4.1 260 08:19 14.01.2020
825 Rain 34 1006 63 9000 4.6 260 07:38 14.01.2020
826 Rain 33 1006 66 10000 5.1 260 06:59 14.01.2020
827 Clouds 33 1006 70 10000 6.2 300 06:40 14.01.2020
828 Rain 33 1007 66 9000 5.1 300 05:33 14.01.2020
829 Rain 33 1008 66 8000 3.6 310 04:23 14.01.2020
830 Clouds 34 1009 66 10000 3.1 280 03:43 14.01.2020
831 Clouds 33 1009 66 10000 3.6 280 02:26 14.01.2020
832 Clouds 32 1009 74 10000 2.6 260 01:18 14.01.2020
833 Clouds 30 1009 74 10000 2.1 240 00:39 14.01.2020
834 Clouds 30 1009 74 10000 2.1 240 00:21 14.01.2020
835 Clouds 27 1008 88 10000 1 220 23:38 13.01.2020
836 Clouds 27 1008 88 10000 1 220 23:18 13.01.2020
837 Clouds 27 1008 94 10000 1 250 22:54 13.01.2020
838 Clouds 26 1008 94 10000 1.5 230 22:36 13.01.2020
839 Clouds 27 1008 94 10000 1.5 230 22:18 13.01.2020
840 Clouds 26 1008 100 10000 1 250 21:54 13.01.2020
841 Clouds 26 1008 100 10000 1 250 21:54 13.01.2020
842 Clouds 26 1008 100 10000 1 250 21:54 13.01.2020
843 Clouds 26 1007 94 10000 2.1 210 21:36 13.01.2020
844 Clouds 26 1007 94 10000 2.1 210 21:18 13.01.2020
845 Rain 26 1007 94 10000 2.1 190 20:42 13.01.2020
846 Rain 26 1007 94 10000 2.1 190 20:22 13.01.2020
847 Rain 25 1007 100 10000 1.5 210 19:59 13.01.2020
848 Rain 26 1007 94 10000 2.48 183 19:40 13.01.2020
849 Rain 25 1007 94 10000 2.48 183 19:20 13.01.2020
850 Clouds 25 1007 94 10000 2.48 183 18:58 13.01.2020
851 Rain 25 1007 94 10000 2.48 183 18:37 13.01.2020
852 Rain 25 1007 94 10000 2.48 183 18:19 13.01.2020
853 Rain 25 1007 94 10000 2.48 183 18:19 13.01.2020
854 Rain 26 1008 94 10000 1 190 17:55 13.01.2020
855 Rain 26 1008 100 10000 2.48 183 17:36 13.01.2020
856 Rain 26 1008 100 10000 2.02 241 17:18 13.01.2020
857 Clouds 26 1008 94 0 0.89 270 16:40 13.01.2020
858 Clouds 26 1009 92 0 2.02 241 16:40 13.01.2020
859 Clouds 26 1010 94 0 1.34 230 16:21 13.01.2020
860 Clouds 26 1013 96 0 2.02 241 15:55 13.01.2020
861 Clouds 26 1014 96 0 2.02 241 15:36 13.01.2020
862 Clouds 25 1008 94 0 1.34 270 15:18 13.01.2020
863 Clouds 25 1014 96 0 2.02 241 14:42 13.01.2020
864 Clouds 26 1014 96 0 2.02 241 14:23 13.01.2020
865 Clouds 26 1013 96 0 2.66 247 13:58 13.01.2020
866 Clouds 26 1009 88 0 2.66 247 13:39 13.01.2020
867 Clouds 26 1007 83 0 1.34 240 13:21 13.01.2020
868 Clouds 26 1007 83 10000 1.5 260 12:55 13.01.2020
869 Clouds 26 1007 83 10000 1.5 260 12:36 13.01.2020
870 Clouds 26 1007 83 10000 1.5 260 12:18 13.01.2020
871 Clouds 26 1007 83 10000 1.5 280 11:39 13.01.2020
872 Clouds 26 1007 83 10000 1.5 280 11:20 13.01.2020
873 Clouds 26 1006 78 10000 2.6 230 10:57 13.01.2020
874 Clouds 26 1006 78 10000 2.6 230 10:57 13.01.2020
875 Clouds 27 1006 74 10000 3.1 250 10:39 13.01.2020
876 Clouds 27 1006 74 10000 3.1 250 10:20 13.01.2020
877 Clouds 27 1006 74 10000 3.1 250 10:20 13.01.2020
878 Rain 26 1005 88 10000 7.2 300 09:56 13.01.2020
879 Thunderstorm 26 1006 88 10000 6.7 210 09:38 13.01.2020
880 Thunderstorm 26 1006 88 10000 6.7 210 09:19 13.01.2020
881 Thunderstorm 29 1005 74 10000 7.2 350 08:39 13.01.2020
882 Thunderstorm 30 1005 74 10000 7.2 350 08:20 13.01.2020
883 Thunderstorm 32 1005 63 10000 8.2 310 07:47 13.01.2020
884 Rain 32 1004 63 10000 7.2 310 07:27 13.01.2020
885 Clouds 33 1005 63 10000 3.6 310 06:42 13.01.2020
886 Clouds 33 1005 63 10000 3.6 310 06:20 13.01.2020
887 Rain 34 1005 52 10000 2.1 290 05:23 13.01.2020
888 Rain 33 1007 66 10000 3.1 230 03:54 13.01.2020
889 Rain 32 1007 74 10000 2.1 230 03:22 13.01.2020
890 Clouds 32 1007 70 10000 2.6 260 02:44 13.01.2020
891 Clouds 32 1007 66 10000 2.6 300 02:24 13.01.2020
892 Clouds 31 1008 74 10000 4.1 320 01:18 13.01.2020
893 Clouds 30 1007 79 10000 1 110 00:41 13.01.2020
894 Clouds 29 1007 79 10000 1 110 00:22 13.01.2020
895 Clouds 27 1007 88 10000 0.91 80 23:42 12.01.2020
896 Clouds 27 1007 88 10000 0.91 80 23:23 12.01.2020
897 Clouds 26 1006 88 10000 0.5 130 22:58 12.01.2020
898 Clouds 26 1006 88 10000 1.5 140 22:39 12.01.2020
899 Clouds 25 1006 88 10000 1.5 140 22:21 12.01.2020
900 Clouds 25 1006 94 10000 2.6 110 21:56 12.01.2020
901 Clouds 25 1005 88 10000 1 330 21:38 12.01.2020
902 Clouds 25 1005 88 10000 1 330 21:19 12.01.2020
903 Clouds 26 1005 88 10000 1.03 49 20:56 12.01.2020
904 Clouds 26 1005 88 10000 1.03 49 20:37 12.01.2020
905 Clouds 26 1005 88 10000 2.01 3 20:19 12.01.2020
906 Clouds 26 1005 88 10000 2.01 3 20:19 12.01.2020
907 Clouds 26 1005 94 10000 1.5 350 19:55 12.01.2020
908 Rain 26 1006 94 10000 1.41 34 19:37 12.01.2020
909 Rain 26 1006 94 10000 1.41 34 19:18 12.01.2020
910 Clouds 26 1006 94 10000 1 120 18:57 12.01.2020
911 Drizzle 26 1006 94 10000 1 120 18:38 12.01.2020
912 Drizzle 26 1006 94 10000 1 120 18:20 12.01.2020
913 Rain 26 1006 94 10000 1.5 140 17:42 12.01.2020
914 Rain 26 1006 94 10000 1.5 140 17:23 12.01.2020
915 Rain 26 1006 94 10000 0.5 170 16:59 12.01.2020
916 Clouds 27 1007 94 10000 2.1 160 16:39 12.01.2020
917 Clouds 26 1007 94 10000 2.1 160 16:20 12.01.2020
918 Clouds 27 1006 94 10000 1.5 210 15:57 12.01.2020
919 Clouds 27 1006 94 10000 1.5 170 15:38 12.01.2020
920 Clouds 27 1006 94 10000 1.5 170 15:20 12.01.2020
921 Clouds 26 1006 94 10000 0.5 260 14:43 12.01.2020
922 Clouds 27 1006 94 10000 0.5 260 14:24 12.01.2020
923 Clouds 27 1006 94 10000 0.33 62 13:57 12.01.2020
924 Clouds 27 1006 94 10000 0.33 62 13:57 12.01.2020
925 Clouds 27 1006 94 10000 0.5 160 13:39 12.01.2020
926 Clouds 27 1006 94 10000 0.5 160 13:20 12.01.2020
927 Clouds 26 1006 94 10000 0.5 160 13:20 12.01.2020
928 Clouds 27 1006 88 10000 2.6 160 12:57 12.01.2020
929 Clouds 27 1006 88 10000 1 280 12:37 12.01.2020
930 Clouds 27 1006 88 10000 1 280 12:19 12.01.2020
931 Rain 27 1005 79 10000 1.5 340 11:42 12.01.2020
932 Rain 28 1005 79 10000 1.5 340 11:22 12.01.2020
933 Rain 28 1005 79 10000 4.1 360 10:57 12.01.2020
934 Rain 28 1005 74 10000 3.6 360 10:39 12.01.2020
935 Rain 28 1005 74 10000 3.6 360 10:39 12.01.2020
936 Rain 28 1005 74 10000 3.6 360 10:20 12.01.2020
937 Rain 29 1004 74 10000 4.6 360 09:43 12.01.2020
938 Rain 29 1004 74 10000 4.1 350 09:24 12.01.2020
939 Rain 30 1004 74 10000 4.1 360 08:48 12.01.2020
940 Clouds 31 1004 70 10000 4.6 350 08:25 12.01.2020
941 Clouds 31 1004 70 10000 5.7 360 07:58 12.01.2020
942 Clouds 30 1004 74 10000 2.1 180 07:38 12.01.2020
943 Clouds 30 1004 74 10000 2.1 180 07:19 12.01.2020
944 Thunderstorm 30 1004 83 10000 5.1 290 06:40 12.01.2020
945 Thunderstorm 34 1004 55 10000 5.1 290 05:58 12.01.2020
946 Thunderstorm 34 1004 55 10000 6.2 350 05:20 12.01.2020
947 Clouds 33 1005 52 10000 3.6 10 03:44 12.01.2020
948 Clouds 33 1006 62 10000 3.1 30 02:55 12.01.2020
949 Clouds 31 1006 70 10000 3.6 50 02:30 12.01.2020
950 Clouds 31 1006 79 10000 3.6 50 01:40 12.01.2020
951 Clouds 30 1006 79 10000 3.6 50 01:21 12.01.2020
952 Clouds 29 1006 83 10000 2.1 50 00:40 12.01.2020
953 Clouds 29 1006 83 10000 2.1 50 00:18 12.01.2020
954 Clouds 27 1005 88 10000 1.5 80 23:41 11.01.2020
955 Clouds 26 1005 88 10000 1.5 80 23:19 11.01.2020
956 Clouds 26 1005 94 10000 2.1 90 22:57 11.01.2020
957 Clouds 25 1005 100 10000 2.1 70 22:38 11.01.2020
958 Clouds 25 1005 100 10000 2.1 70 22:20 11.01.2020
959 Clouds 25 1005 94 10000 2.1 90 21:54 11.01.2020
960 Clouds 25 1005 94 10000 2.6 40 21:36 11.01.2020
961 Clouds 25 1005 94 10000 2.6 40 21:18 11.01.2020
962 Clouds 25 1005 94 10000 2.1 80 20:40 11.01.2020
963 Clouds 25 1005 94 10000 2.1 80 20:20 11.01.2020
964 Clouds 25 1005 88 10000 2.6 60 19:58 11.01.2020
965 Clouds 25 1004 88 10000 2.1 50 19:38 11.01.2020
966 Clouds 25 1004 88 10000 2.1 50 19:20 11.01.2020
967 Clouds 25 1005 88 10000 2.1 50 18:57 11.01.2020
968 Clouds 25 1005 88 10000 2.6 60 18:37 11.01.2020
969 Clouds 25 1005 88 10000 2.6 60 18:19 11.01.2020
970 Clouds 25 1005 88 10000 2.6 60 18:19 11.01.2020
971 Clouds 26 1005 88 10000 3.1 60 17:57 11.01.2020
972 Clouds 26 1005 88 10000 2.6 70 17:39 11.01.2020
973 Clouds 25 1005 88 10000 2.6 70 17:19 11.01.2020
974 Clouds 26 1006 88 10000 3.1 70 16:44 11.01.2020
975 Clouds 26 1006 88 10000 3.1 70 16:25 11.01.2020
976 Clouds 26 1007 88 10000 2.1 70 15:57 11.01.2020
977 Clouds 26 1007 88 10000 2.6 80 15:39 11.01.2020
978 Clouds 26 1007 88 10000 2.6 80 15:20 11.01.2020
979 Clouds 26 1007 88 10000 2.6 80 15:20 11.01.2020
980 Clouds 26 1007 83 10000 3.1 90 14:49 11.01.2020
981 Clouds 26 1007 83 10000 2.6 100 14:26 11.01.2020
982 Rain 27 1007 88 10000 2.6 100 13:59 11.01.2020
983 Clouds 27 1007 88 10000 2.6 80 13:38 11.01.2020
984 Clouds 27 1007 88 10000 2.6 80 13:20 11.01.2020
985 Clouds 27 1006 83 10000 2.1 90 12:56 11.01.2020
986 Clouds 27 1006 88 10000 1.5 50 12:38 11.01.2020
987 Clouds 27 1005 83 10000 1.5 60 12:20 11.01.2020
988 Clouds 27 1005 83 10000 1.5 60 11:45 11.01.2020
989 Clouds 27 1005 83 10000 2.1 50 11:24 11.01.2020
990 Clouds 28 1005 78 10000 3.1 40 10:50 11.01.2020
991 Clouds 28 1004 79 10000 3.1 360 10:30 11.01.2020
992 Clouds 29 1004 74 10000 4.1 30 09:55 11.01.2020
993 Clouds 29 1004 74 10000 4.1 360 09:37 11.01.2020
994 Clouds 29 1004 74 10000 4.1 360 09:18 11.01.2020
995 Clouds 30 1003 74 10000 4.6 30 08:41 11.01.2020
996 Clouds 30 1003 74 10000 4.6 30 08:21 11.01.2020
997 Clouds 29 1004 79 10000 4.1 20 07:43 11.01.2020
998 Clouds 29 1004 79 10000 4.1 10 07:25 11.01.2020
999 Rain 30 1004 74 10000 4.6 20 06:45 11.01.2020
1000 Rain 29 1005 74 10000 5.1 40 05:33 11.01.2020
1001 Clouds 29 1005 79 10000 5.1 20 04:45 11.01.2020
1002 Rain 29 1005 74 10000 5.7 10 04:27 11.01.2020
1003 Clouds 28 1006 78 10000 5.1 360 02:48 11.01.2020
1004 Rain 28 1006 88 10000 3.1 20 01:51 11.01.2020
1005 Rain 26 1006 94 10000 3.1 60 01:32 11.01.2020
1006 Clouds 26 1006 94 10000 3.6 10 00:58 11.01.2020
1007 Rain 26 1006 88 10000 3.1 10 00:32 11.01.2020
1008 Clouds 26 1005 88 10000 2.6 10 23:59 10.01.2020
1009 Rain 25 1005 94 10000 3.1 10 23:39 10.01.2020
1010 Rain 25 1005 94 10000 3.1 10 23:39 10.01.2020
1011 Rain 25 1005 94 10000 3.1 10 23:21 10.01.2020
1012 Rain 25 1005 88 10000 4.1 360 22:55 10.01.2020
1013 Rain 25 1004 88 7000 5.1 350 22:37 10.01.2020
1014 Rain 25 1004 88 7000 5.1 350 22:18 10.01.2020
1015 Rain 26 1004 94 7000 6.2 350 21:55 10.01.2020
1016 Rain 26 1004 94 6000 5.1 350 21:36 10.01.2020
1017 Rain 26 1004 94 6000 5.1 350 21:18 10.01.2020
1018 Clouds 26 1003 88 10000 2.6 360 20:42 10.01.2020
1019 Clouds 27 1003 88 10000 2.6 360 20:24 10.01.2020
1020 Clouds 26 1003 94 10000 3.1 360 19:55 10.01.2020
1021 Clouds 26 1003 88 10000 2.6 10 19:37 10.01.2020
1022 Clouds 26 1003 88 10000 2.6 10 19:37 10.01.2020
1023 Clouds 26 1003 88 10000 2.6 10 19:19 10.01.2020
1024 Rain 26 1003 94 10000 5.1 360 18:41 10.01.2020
1025 Rain 26 1003 94 10000 5.1 360 18:19 10.01.2020
1026 Rain 26 1003 94 10000 5.1 360 18:19 10.01.2020
1027 Rain 26 1004 94 10000 4.6 360 17:57 10.01.2020
1028 Rain 26 1004 94 2000 8.7 350 17:39 10.01.2020
1029 Rain 26 1004 94 2000 8.7 350 17:20 10.01.2020
1030 Rain 26 1004 94 4500 3.6 340 16:55 10.01.2020
1031 Clouds 27 1004 83 10000 6.7 350 16:37 10.01.2020
1032 Clouds 27 1004 83 10000 6.7 350 16:19 10.01.2020
1033 Clouds 27 1004 83 10000 5.7 360 15:55 10.01.2020
1034 Clouds 26 1004 83 10000 5.7 10 15:36 10.01.2020
1035 Clouds 26 1005 88 10000 4.6 10 15:18 10.01.2020
1036 Clouds 26 1005 88 10000 4.6 10 14:54 10.01.2020
1037 Clouds 26 1005 88 10000 3.6 10 14:36 10.01.2020
1038 Clouds 26 1005 88 10000 3.6 10 14:18 10.01.2020
1039 Clouds 25 1004 88 10000 3.6 20 13:41 10.01.2020
1040 Clouds 26 1004 88 10000 3.6 20 13:23 10.01.2020
1041 Clouds 26 1004 88 10000 4.6 20 12:58 10.01.2020
1042 Clouds 26 1004 94 10000 4.1 10 12:38 10.01.2020
1043 Clouds 26 1004 94 10000 4.1 10 12:19 10.01.2020
1044 Rain 26 1004 94 10000 5.7 360 11:55 10.01.2020
1045 Rain 26 1004 94 8000 4.1 350 11:37 10.01.2020
1046 Rain 26 1004 94 8000 4.1 350 11:18 10.01.2020
1047 Rain 25 1003 88 10000 5.7 350 10:43 10.01.2020
1048 Rain 26 1003 88 10000 5.7 350 10:24 10.01.2020
1049 Rain 25 1003 94 10000 7.2 350 09:59 10.01.2020
1050 Thunderstorm 25 1002 100 8000 7.7 340 09:40 10.01.2020
1051 Thunderstorm 25 1002 100 8000 7.7 340 09:22 10.01.2020
1052 Thunderstorm 25 1002 94 4000 9.3 350 08:43 10.01.2020
1053 Rain 25 1001 94 5000 9.8 350 08:23 10.01.2020
1054 Rain 26 1002 94 5000 7.7 350 07:46 10.01.2020
1055 Rain 26 1002 94 9000 7.7 360 07:28 10.01.2020
1056 Rain 26 1002 94 7000 6.2 10 06:50 10.01.2020
1057 Rain 26 1003 100 5000 7.7 360 06:26 10.01.2020
1058 Rain 26 1003 94 9000 8.7 340 05:52 10.01.2020
1059 Rain 26 1004 94 3500 7.2 310 03:46 10.01.2020
1060 Rain 26 1004 94 3500 7.2 310 03:46 10.01.2020
1061 Rain 26 1004 94 3000 7.7 300 03:27 10.01.2020
1062 Rain 25 1004 94 3000 5.7 340 02:51 10.01.2020
1063 Rain 26 1004 94 7000 6.7 320 01:49 10.01.2020
1064 Thunderstorm 26 1004 83 6000 8.2 300 01:28 10.01.2020
1065 Rain 26 1004 88 10000 7.2 290 00:47 10.01.2020
1066 Rain 27 1004 88 10000 5.1 260 00:29 10.01.2020
1067 Rain 27 1004 83 10000 6.2 280 23:39 09.01.2020
1068 Rain 27 1004 83 10000 6.2 280 23:39 09.01.2020
1069 Rain 27 1004 83 10000 6.2 280 23:39 09.01.2020
1070 Rain 27 1004 83 10000 6.2 280 23:39 09.01.2020
1071 Rain 27 1004 83 10000 6.2 280 23:20 09.01.2020
1072 Rain 27 1003 83 10000 5.1 240 22:58 09.01.2020
1073 Rain 26 1003 88 10000 4.1 280 22:39 09.01.2020
1074 Rain 26 1003 88 10000 4.1 280 22:19 09.01.2020
1075 Clouds 26 1003 88 10000 4.6 270 21:57 09.01.2020
1076 Clouds 26 1003 88 10000 4.6 270 21:38 09.01.2020
1077 Clouds 26 1003 88 10000 4.6 270 21:20 09.01.2020
1078 Clouds 26 1002 88 10000 5.7 270 20:58 09.01.2020
1079 Clouds 26 1002 88 10000 6.2 270 20:39 09.01.2020
1080 Clouds 26 1002 88 10000 6.2 270 20:20 09.01.2020
1081 Clouds 26 1002 94 10000 5.7 270 19:58 09.01.2020
1082 Clouds 26 1003 88 10000 5.1 270 19:39 09.01.2020
1083 Clouds 26 1003 88 10000 5.1 270 19:20 09.01.2020
1084 Drizzle 26 1003 88 10000 6.2 270 18:56 09.01.2020
1085 Drizzle 26 1003 88 10000 6.2 270 18:56 09.01.2020
1086 Clouds 26 1003 88 10000 6.2 280 18:37 09.01.2020
1087 Clouds 26 1003 88 10000 6.2 280 18:19 09.01.2020
1088 Rain 26 1003 88 10000 7.7 280 17:41 09.01.2020
1089 Rain 26 1003 88 10000 7.7 280 17:19 09.01.2020
1090 Drizzle 25 1004 88 10000 5.7 270 16:56 09.01.2020
1091 Rain 26 1004 83 10000 7.2 270 16:37 09.01.2020
1092 Rain 25 1004 83 10000 7.2 270 16:19 09.01.2020
1093 Rain 26 1005 94 8000 5.1 280 15:42 09.01.2020
1094 Rain 25 1005 88 8000 4.6 280 15:21 09.01.2020
1095 Rain 25 1005 100 8000 5.7 270 14:55 09.01.2020
1096 Thunderstorm 25 1005 94 5000 6.2 270 14:37 09.01.2020
1097 Thunderstorm 25 1005 94 5000 6.2 270 14:18 09.01.2020
1098 Thunderstorm 25 1005 100 5000 5.7 270 13:55 09.01.2020
1099 Rain 25 1005 94 3000 4.6 270 13:37 09.01.2020
1100 Rain 25 1005 94 3000 4.6 270 13:18 09.01.2020
1101 Rain 25 1005 94 5000 4.6 280 12:42 09.01.2020
1102 Rain 25 1005 94 5000 4.6 280 12:24 09.01.2020
1103 Rain 25 1004 88 8000 5.1 280 11:59 09.01.2020
1104 Rain 25 1005 88 2000 4.1 260 11:41 09.01.2020
1105 Rain 25 1005 88 2000 4.1 260 11:23 09.01.2020
1106 Rain 25 1005 83 6000 4.1 280 10:56 09.01.2020
1107 Rain 26 1004 78 8000 5.1 270 10:37 09.01.2020
1108 Rain 26 1004 78 8000 5.1 270 10:19 09.01.2020
1109 Rain 26 1004 78 8000 5.1 270 10:19 09.01.2020
1110 Rain 27 1003 94 10000 3.6 280 09:41 09.01.2020
1111 Rain 27 1003 94 10000 3.6 280 09:22 09.01.2020
1112 Rain 26 1003 88 10000 2.1 260 08:56 09.01.2020
1113 Rain 26 1003 88 10000 4.6 240 08:38 09.01.2020
1114 Rain 26 1003 88 10000 4.6 240 08:19 09.01.2020
1115 Rain 26 1003 83 5000 5.1 270 07:45 09.01.2020
1116 Rain 26 1003 88 3000 7.2 220 07:27 09.01.2020
1117 Rain 28 1003 79 10000 6.7 320 06:39 09.01.2020
1118 Rain 29 1003 79 10000 6.7 320 06:21 09.01.2020
1119 Rain 29 1004 79 10000 7.2 310 05:50 09.01.2020
1120 Rain 29 1005 74 10000 7.2 230 04:54 09.01.2020
1121 Rain 29 1005 89 10000 5.7 290 04:36 09.01.2020
1122 Clouds 31 1006 70 10000 5.7 240 03:26 09.01.2020
1123 Rain 30 1006 74 10000 4.6 230 02:33 09.01.2020
1124 Clouds 30 1006 74 10000 4.6 220 01:41 09.01.2020
1125 Clouds 31 1006 74 10000 5.1 220 00:56 09.01.2020
1126 Clouds 30 1006 79 10000 3.6 230 00:36 09.01.2020
1127 Clouds 29 1006 79 10000 3.6 230 00:18 09.01.2020
1128 Clouds 28 1006 83 10000 3.1 210 23:39 08.01.2020
1129 Clouds 28 1006 83 10000 3.1 210 23:20 08.01.2020
1130 Clouds 28 1006 83 10000 4.1 220 22:40 08.01.2020
1131 Clouds 28 1006 83 10000 4.1 220 22:21 08.01.2020
1132 Rain 28 1005 78 10000 4.1 220 21:58 08.01.2020
1133 Clouds 28 1005 78 10000 4.1 220 21:40 08.01.2020
1134 Clouds 28 1005 78 10000 4.1 220 21:40 08.01.2020
1135 Clouds 28 1005 78 10000 4.1 220 21:20 08.01.2020
1136 Rain 28 1005 83 10000 4.6 210 20:59 08.01.2020
1137 Clouds 28 1005 83 10000 3.6 210 20:40 08.01.2020
1138 Clouds 28 1005 83 10000 3.6 210 20:21 08.01.2020
1139 Clouds 29 1005 79 10000 3.1 240 19:58 08.01.2020
1140 Clouds 28 1005 78 10000 3.6 270 19:38 08.01.2020
1141 Clouds 28 1005 78 10000 3.6 270 19:19 08.01.2020
1142 Rain 28 1005 78 10000 3.6 270 18:57 08.01.2020
1143 Clouds 28 1006 78 10000 4.1 270 18:38 08.01.2020
1144 Clouds 28 1006 78 10000 4.1 270 18:19 08.01.2020
1145 Clouds 28 1005 78 10000 5.7 260 17:56 08.01.2020
1146 Clouds 28 1006 78 10000 3.1 250 17:37 08.01.2020
1147 Clouds 28 1006 78 10000 3.1 250 17:18 08.01.2020
1148 Clouds 28 1006 79 10000 3.6 260 16:55 08.01.2020
1149 Clouds 28 1006 83 10000 2.6 240 16:37 08.01.2020
1150 Clouds 28 1006 83 10000 2.6 240 16:18 08.01.2020
1151 Clouds 28 1007 83 10000 3.1 210 15:44 08.01.2020
1152 Clouds 28 1007 79 10000 2.1 180 15:21 08.01.2020
1153 Rain 28 1008 79 10000 2.1 190 14:58 08.01.2020
1154 Rain 28 1008 79 10000 2.6 190 14:39 08.01.2020
1155 Rain 28 1008 79 10000 2.6 190 14:20 08.01.2020
1156 Rain 28 1008 79 10000 2.6 190 14:20 08.01.2020
1157 Rain 28 1008 79 10000 2.6 190 14:20 08.01.2020
1158 Rain 30 1007 66 10000 3.6 240 13:41 08.01.2020
1159 Rain 30 1007 66 10000 3.6 240 13:21 08.01.2020
1160 Rain 30 1007 66 10000 3.6 250 12:54 08.01.2020
1161 Rain 29 1006 66 10000 3.6 270 12:36 08.01.2020
1162 Rain 30 1006 66 10000 3.6 270 12:18 08.01.2020
1163 Clouds 29 1006 70 10000 3.6 260 11:47 08.01.2020
1164 Clouds 30 1006 70 10000 4.1 270 11:19 08.01.2020
1165 Clouds 30 1005 70 10000 4.1 260 10:57 08.01.2020
1166 Clouds 30 1005 70 10000 5.7 250 10:39 08.01.2020
1167 Clouds 30 1005 70 10000 5.7 250 10:19 08.01.2020
1168 Clouds 31 1005 62 10000 5.7 250 09:42 08.01.2020
1169 Rain 31 1005 62 10000 5.7 260 09:20 08.01.2020
1170 Rain 31 1004 62 10000 6.2 270 08:57 08.01.2020
1171 Rain 32 1004 55 10000 5.1 270 08:38 08.01.2020
1172 Clouds 32 1004 55 10000 5.1 270 08:20 08.01.2020
1173 Clouds 32 1004 55 10000 5.7 270 07:50 08.01.2020
1174 Clouds 32 1005 68 0 1.79 282 07:32 08.01.2020
1175 Clouds 32 1005 55 10000 4.1 260 06:50 08.01.2020
1176 Clouds 32 1005 59 10000 5.7 290 06:32 08.01.2020
1177 Rain 32 1006 62 10000 3.6 230 05:54 08.01.2020
1178 Rain 31 1006 66 10000 5.7 220 05:18 08.01.2020
1179 Clouds 32 1007 66 10000 4.1 250 04:27 08.01.2020
1180 Rain 32 1008 74 10000 6.2 240 02:45 08.01.2020
1181 Clouds 32 1008 66 10000 3.1 200 02:27 08.01.2020
1182 Clouds 31 1008 66 10000 6.2 240 01:50 08.01.2020
1183 Clouds 31 1008 70 10000 3.6 180 01:25 08.01.2020
1184 Clouds 31 1008 79 10000 6.2 240 00:42 08.01.2020
1185 Clouds 31 1008 79 10000 6.2 240 00:21 08.01.2020
1186 Clouds 30 1007 79 10000 6.2 240 23:44 07.01.2020
1187 Clouds 28 1007 83 10000 2.6 230 23:20 07.01.2020
1188 Clouds 28 1006 83 10000 1.5 240 22:41 07.01.2020
1189 Clouds 28 1006 83 10000 1.5 240 22:21 07.01.2020
1190 Clouds 28 1005 83 10000 2.6 260 21:57 07.01.2020
1191 Clouds 27 1005 88 10000 2.1 240 21:39 07.01.2020
1192 Clouds 27 1005 88 10000 2.1 240 21:21 07.01.2020
1193 Clouds 27 1005 88 10000 1.5 230 20:57 07.01.2020
1194 Clouds 27 1005 88 10000 0.5 250 20:38 07.01.2020
1195 Rain 27 1005 88 10000 0.5 250 20:20 07.01.2020
1196 Clouds 28 1006 83 10000 2.1 270 19:55 07.01.2020
1197 Rain 28 1006 79 10000 2.1 270 19:36 07.01.2020
1198 Rain 28 1006 79 10000 2.1 270 19:18 07.01.2020
1199 Rain 28 1006 79 10000 2.1 270 19:18 07.01.2020
1200 Rain 28 1006 79 10000 3.1 290 18:55 07.01.2020
1201 Rain 28 1006 79 10000 2.6 290 18:36 07.01.2020
1202 Rain 28 1006 79 10000 2.6 290 18:18 07.01.2020
1203 Rain 28 1006 83 10000 2.1 260 17:40 07.01.2020
1204 Rain 28 1006 83 10000 2.1 260 17:22 07.01.2020
1205 Clouds 28 1007 83 10000 2.6 270 16:57 07.01.2020
1206 Rain 28 1007 88 10000 2.1 280 16:38 07.01.2020
1207 Rain 28 1007 88 10000 2.1 280 16:19 07.01.2020
1208 Rain 29 1007 79 3000 1 260 15:58 07.01.2020
1209 Clouds 29 1007 79 10000 1 250 15:40 07.01.2020
1210 Clouds 29 1007 79 10000 1 250 15:22 07.01.2020
1211 Clouds 29 1007 79 10000 1 250 15:22 07.01.2020
1212 Clouds 29 1007 74 10000 1.5 280 14:55 07.01.2020
1213 Clouds 29 1007 74 10000 3.1 290 14:37 07.01.2020
1214 Clouds 29 1007 74 10000 3.1 290 14:18 07.01.2020
1215 Clouds 29 1007 74 10000 1.5 290 13:39 07.01.2020
1216 Clouds 29 1007 74 10000 1.5 290 13:19 07.01.2020
1217 Clouds 29 1006 70 10000 1.5 290 12:41 07.01.2020
1218 Clouds 29 1006 70 10000 2.6 300 12:20 07.01.2020
1219 Clouds 30 1006 66 10000 2.1 320 11:57 07.01.2020
1220 Clouds 30 1006 66 10000 3.1 310 11:38 07.01.2020
1221 Clouds 30 1006 66 10000 3.1 310 11:20 07.01.2020
1222 Clouds 31 1005 59 10000 3.1 300 10:42 07.01.2020
1223 Clouds 31 1005 59 10000 3.1 300 10:24 07.01.2020
1224 Clouds 32 1005 59 10000 2.6 300 09:59 07.01.2020
1225 Clouds 32 1004 55 10000 4.1 310 09:38 07.01.2020
1226 Clouds 32 1004 55 10000 4.1 310 09:20 07.01.2020
1227 Clouds 32 1004 55 10000 3.1 330 08:46 07.01.2020
1228 Clouds 32 1004 55 10000 3.6 320 08:26 07.01.2020
1229 Clouds 33 1004 49 10000 3.6 340 07:54 07.01.2020
1230 Clouds 33 1004 49 10000 4.1 330 07:28 07.01.2020
1231 Clouds 33 1005 52 10000 4.1 330 06:54 07.01.2020
1232 Clouds 33 1005 52 10000 3.6 320 06:34 07.01.2020
1233 Clouds 33 1005 55 10000 3.1 300 05:55 07.01.2020
1234 Clouds 33 1007 62 10000 1 10 04:41 07.01.2020
1235 Rain 32 1007 70 10000 1.5 30 03:29 07.01.2020
1236 Clouds 31 1008 74 10000 2.1 50 02:24 07.01.2020
1237 Clouds 30 1008 74 10000 2.6 70 01:57 07.01.2020
1238 Clouds 29 1008 74 10000 2.6 90 01:32 07.01.2020
1239 Clouds 28 1008 83 10000 2.6 100 00:37 07.01.2020
1240 Clouds 27 1008 83 10000 2.6 100 00:19 07.01.2020
1241 Clouds 27 1007 88 10000 1 80 23:55 06.01.2020
1242 Clouds 26 1007 94 10000 0.5 90 23:36 06.01.2020
1243 Clouds 26 1007 94 10000 0.5 90 23:36 06.01.2020
1244 Clouds 25 1007 94 10000 0.5 90 23:18 06.01.2020
1245 Clouds 25 1006 88 10000 1.3 83 22:42 06.01.2020
1246 Clouds 25 1006 88 10000 1.3 83 22:22 06.01.2020
1247 Clouds 25 1006 94 10000 1 90 21:57 06.01.2020
1248 Clouds 25 1006 88 10000 1.3 83 21:38 06.01.2020
1249 Clouds 25 1006 88 10000 1.3 83 21:20 06.01.2020
1250 Clouds 25 1006 88 10000 1.3 83 21:20 06.01.2020
1251 Clouds 25 1005 94 10000 0.5 90 20:56 06.01.2020
1252 Clouds 25 1005 94 10000 2.1 90 20:38 06.01.2020
1253 Clouds 25 1005 94 10000 2.1 90 20:20 06.01.2020
1254 Clouds 25 1005 94 10000 2.1 110 19:56 06.01.2020
1255 Clouds 25 1005 94 10000 2.1 110 19:56 06.01.2020
1256 Clouds 25 1005 94 10000 1 110 19:37 06.01.2020
1257 Clouds 25 1005 94 10000 1 110 19:19 06.01.2020
1258 Clouds 25 1005 94 10000 1 110 19:19 06.01.2020
1259 Rain 25 1005 94 10000 1 110 18:46 06.01.2020
1260 Rain 25 1006 94 10000 0.5 100 18:21 06.01.2020
1261 Drizzle 25 1006 94 10000 2.42 303 17:57 06.01.2020
1262 Clouds 25 1006 94 10000 2.6 100 17:37 06.01.2020
1263 Clouds 25 1006 94 10000 2.6 100 17:37 06.01.2020
1264 Rain 25 1007 94 10000 1.5 130 17:18 06.01.2020
1265 Rain 25 1007 94 10000 1.5 130 16:44 06.01.2020
1266 Rain 26 1008 94 10000 1 160 16:24 06.01.2020
1267 Rain 26 1008 94 10000 0.5 70 15:59 06.01.2020
1268 Rain 26 1009 94 10000 1 70 15:38 06.01.2020
1269 Rain 26 1009 94 10000 1 70 15:18 06.01.2020
1270 Rain 26 1009 94 10000 1.5 50 14:56 06.01.2020
1271 Rain 26 1009 94 10000 1.5 90 14:37 06.01.2020
1272 Rain 26 1009 94 10000 1.5 90 14:18 06.01.2020
1273 Rain 26 1009 94 10000 1.5 90 14:18 06.01.2020
1274 Rain 26 1009 94 10000 1.5 90 14:18 06.01.2020
1275 Rain 26 1009 94 10000 0.82 240 13:41 06.01.2020
1276 Rain 26 1009 94 10000 1.3 289 13:22 06.01.2020
1277 Rain 26 1008 94 10000 1.3 289 12:59 06.01.2020
1278 Rain 26 1008 94 10000 1 80 12:41 06.01.2020
1279 Rain 26 1008 94 10000 1 80 12:20 06.01.2020
1280 Rain 26 1008 94 10000 1 80 12:20 06.01.2020
1281 Rain 26 1008 100 10000 1 70 11:55 06.01.2020
1282 Rain 26 1008 94 10000 1 90 11:37 06.01.2020
1283 Rain 26 1008 94 10000 1 90 11:19 06.01.2020
1284 Rain 26 1007 94 10000 3.1 130 10:42 06.01.2020
1285 Rain 26 1007 100 10000 2.1 140 10:21 06.01.2020
1286 Rain 26 1006 94 10000 1.5 20 09:42 06.01.2020
1287 Rain 26 1006 94 10000 1.5 20 09:24 06.01.2020
1288 Rain 26 1006 94 10000 1 330 08:58 06.01.2020
1289 Rain 26 1006 94 10000 1 330 08:58 06.01.2020
1290 Rain 26 1006 88 10000 2.1 300 08:39 06.01.2020
1291 Rain 28 1006 88 10000 2.1 300 08:21 06.01.2020
1292 Rain 29 1006 78 9000 4.1 340 07:45 06.01.2020
1293 Rain 29 1006 79 9000 7.2 350 07:21 06.01.2020
1294 Rain 30 1005 74 6000 10.3 290 06:38 06.01.2020
1295 Rain 34 1006 49 10000 4.6 320 05:49 06.01.2020
1296 Rain 34 1006 49 10000 5.1 350 05:28 06.01.2020
1297 Rain 33 1007 59 10000 4.6 330 04:24 06.01.2020
1298 Clouds 33 1007 62 10000 5.1 360 03:51 06.01.2020
1299 Clouds 32 1008 62 10000 4.1 10 02:29 06.01.2020
1300 Clouds 31 1007 66 10000 5.1 50 01:54 06.01.2020
1301 Clouds 31 1007 70 10000 3.6 50 01:31 06.01.2020
1302 Clouds 30 1008 74 10000 3.6 60 00:48 06.01.2020
1303 Clouds 28 1007 83 10000 2.6 80 00:29 06.01.2020
1304 Clouds 28 1007 78 10000 2.6 70 23:58 05.01.2020
1305 Clouds 27 1007 88 10000 2.6 70 23:39 05.01.2020
1306 Clouds 27 1007 88 10000 2.6 70 23:21 05.01.2020
1307 Clouds 26 1006 83 10000 1.5 30 22:40 05.01.2020
1308 Clouds 26 1006 83 10000 1.5 30 22:21 05.01.2020
1309 Clouds 26 1006 83 10000 1.5 10 21:58 05.01.2020
1310 Clouds 26 1006 94 10000 1.5 40 21:40 05.01.2020
1311 Clouds 26 1006 94 10000 1.5 40 21:20 05.01.2020
1312 Clouds 26 1006 94 10000 1 60 20:58 05.01.2020
1313 Clouds 27 1005 88 10000 1.44 50 20:39 05.01.2020
1314 Rain 26 1005 88 10000 1.61 81 20:19 05.01.2020
1315 Rain 26 1005 88 10000 2.1 70 19:58 05.01.2020
1316 Rain 26 1005 88 10000 2.1 70 19:39 05.01.2020
1317 Rain 26 1005 88 10000 2.1 70 19:39 05.01.2020
1318 Rain 27 1005 88 10000 2.1 70 19:20 05.01.2020
1319 Rain 27 1006 88 10000 2.1 50 18:56 05.01.2020
1320 Rain 27 1006 88 10000 2.1 70 18:38 05.01.2020
1321 Rain 26 1006 88 10000 2.1 70 18:19 05.01.2020
1322 Rain 26 1006 88 10000 2.6 70 17:58 05.01.2020
1323 Rain 26 1006 88 10000 3.1 50 17:39 05.01.2020
1324 Clouds 26 1006 88 10000 3.1 50 17:20 05.01.2020
1325 Clouds 27 1006 88 10000 3.1 60 16:57 05.01.2020
1326 Clouds 27 1006 88 10000 3.1 60 16:57 05.01.2020
1327 Rain 27 1007 83 10000 3.6 80 16:39 05.01.2020
1328 Rain 27 1007 83 10000 3.6 80 16:19 05.01.2020
1329 Clouds 27 1008 78 10000 1.5 110 15:40 05.01.2020
1330 Clouds 27 1008 78 10000 1.5 110 15:20 05.01.2020
1331 Clouds 27 1009 83 10000 1.5 120 14:56 05.01.2020
1332 Clouds 27 1009 83 10000 1 100 14:38 05.01.2020
1333 Clouds 27 1009 83 10000 1 100 14:20 05.01.2020
1334 Rain 27 1009 83 10000 2.6 130 13:56 05.01.2020
1335 Rain 27 1009 83 10000 2.6 120 13:38 05.01.2020
1336 Rain 28 1009 83 10000 2.6 120 13:19 05.01.2020
1337 Rain 28 1009 83 10000 2.6 120 13:19 05.01.2020
1338 Rain 28 1008 70 10000 3.1 90 12:56 05.01.2020
1339 Rain 28 1008 70 10000 3.1 50 12:37 05.01.2020
1340 Rain 28 1008 70 10000 3.1 50 12:19 05.01.2020
1341 Clouds 29 1007 66 10000 4.6 40 11:44 05.01.2020
1342 Clouds 29 1007 66 10000 5.7 40 11:20 05.01.2020
1343 Clouds 30 1007 70 10000 5.7 20 10:59 05.01.2020
1344 Clouds 29 1006 70 10000 5.7 20 10:40 05.01.2020
1345 Clouds 30 1006 70 10000 5.7 20 10:19 05.01.2020
1346 Clouds 30 1005 70 10000 7.2 10 09:42 05.01.2020
1347 Clouds 30 1005 70 10000 7.2 10 09:22 05.01.2020
1348 Clouds 32 1005 66 10000 7.2 360 08:52 05.01.2020
1349 Clouds 32 1004 59 10000 6.7 360 08:32 05.01.2020
1350 Clouds 33 1004 55 10000 5.1 350 07:59 05.01.2020
1351 Clouds 33 1004 59 10000 5.1 360 07:39 05.01.2020
1352 Clouds 33 1004 59 10000 5.1 360 07:20 05.01.2020
1353 Clouds 33 1005 52 10000 5.1 350 06:44 05.01.2020
1354 Clouds 34 1006 55 10000 3.1 70 05:38 05.01.2020
1355 Clouds 33 1006 59 10000 1.5 30 04:55 05.01.2020
1356 Clouds 33 1006 62 10000 1.5 130 04:18 05.01.2020
1357 Clouds 33 1006 62 10000 1.5 130 04:18 05.01.2020
1358 Clouds 31 1007 66 10000 1 190 03:26 05.01.2020
1359 Clouds 31 1008 74 10000 0.5 190 02:32 05.01.2020
1360 Clouds 31 1009 74 10000 1 210 01:49 05.01.2020
1361 Clouds 30 1009 79 10000 2.74 102 01:20 05.01.2020
1362 Clouds 29 1008 74 10000 1 150 00:57 05.01.2020
1363 Clouds 30 1008 74 10000 1 150 00:57 05.01.2020
1364 Clouds 29 1008 78 10000 1 120 00:39 05.01.2020
1365 Clouds 28 1008 78 10000 1 120 00:19 05.01.2020
1366 Clouds 28 1008 78 10000 2.1 130 23:41 04.01.2020
1367 Clouds 28 1008 78 10000 2.1 120 23:41 04.01.2020
1368 Clouds 27 1008 78 10000 2.1 120 23:20 04.01.2020
1369 Clouds 27 1007 83 10000 3.1 100 22:55 04.01.2020
1370 Clouds 26 1007 83 10000 2.6 100 22:37 04.01.2020
1371 Clouds 27 1007 83 10000 2.6 100 22:19 04.01.2020
1372 Clouds 27 1007 88 10000 1.68 114 21:55 04.01.2020
1373 Clouds 27 1006 88 10000 1.5 70 21:36 04.01.2020
1374 Clouds 26 1006 88 10000 1.5 70 21:18 04.01.2020
1375 Rain 27 1005 83 10000 1.5 110 20:41 04.01.2020
1376 Clouds 27 1005 83 10000 1.5 110 20:22 04.01.2020
1377 Rain 27 1006 83 10000 1.5 120 19:57 04.01.2020
1378 Rain 27 1006 83 10000 1.5 120 19:39 04.01.2020
1379 Rain 27 1006 83 10000 1.5 120 19:20 04.01.2020
1380 Rain 27 1006 83 10000 1 130 18:56 04.01.2020
1381 Rain 27 1006 83 10000 1.5 130 18:38 04.01.2020
1382 Rain 27 1006 83 10000 1.5 130 18:19 04.01.2020
1383 Rain 28 1006 79 10000 1.5 220 17:42 04.01.2020
1384 Rain 28 1006 79 10000 1.5 220 17:24 04.01.2020
1385 Clouds 28 1006 74 10000 1.5 260 16:59 04.01.2020
1386 Clouds 28 1007 74 10000 1.5 250 16:40 04.01.2020
1387 Clouds 28 1007 74 10000 1.5 250 16:22 04.01.2020
1388 Clouds 28 1007 74 10000 1.5 260 15:56 04.01.2020
1389 Clouds 28 1007 74 10000 2.1 280 15:38 04.01.2020
1390 Clouds 28 1007 74 10000 2.1 280 15:19 04.01.2020
1391 Clouds 28 1007 74 10000 2.1 280 14:55 04.01.2020
1392 Clouds 28 1007 74 10000 2.1 280 14:55 04.01.2020
1393 Clouds 29 1007 74 10000 2.6 280 14:36 04.01.2020
1394 Clouds 29 1007 74 10000 2.6 280 14:18 04.01.2020
1395 Clouds 29 1007 79 10000 3.1 290 13:54 04.01.2020
1396 Clouds 29 1007 74 10000 3.1 300 13:36 04.01.2020
1397 Clouds 29 1007 74 10000 3.1 300 13:18 04.01.2020
1398 Clouds 29 1006 66 10000 2.6 330 12:41 04.01.2020
1399 Clouds 29 1006 66 10000 2.6 330 12:19 04.01.2020
1400 Clouds 30 1006 70 10000 4.6 310 11:57 04.01.2020
1401 Clouds 30 1006 74 10000 3.6 310 11:38 04.01.2020
1402 Clouds 30 1006 74 10000 3.6 310 11:19 04.01.2020
1403 Clouds 30 1005 70 10000 4.6 290 10:42 04.01.2020
1404 Clouds 31 1005 70 10000 4.6 290 10:23 04.01.2020
1405 Clouds 31 1005 70 10000 6.2 310 09:58 04.01.2020
1406 Clouds 31 1005 70 10000 7.7 310 09:39 04.01.2020
1407 Clouds 31 1005 70 10000 7.7 310 09:21 04.01.2020
1408 Clouds 33 1004 59 10000 5.7 350 08:41 04.01.2020
1409 Clouds 34 1004 59 10000 5.7 350 08:21 04.01.2020
1410 Clouds 34 1004 52 10000 4.6 320 07:42 04.01.2020
1411 Clouds 35 1004 52 10000 4.6 320 07:20 04.01.2020
1412 Rain 35 1005 49 10000 4.1 340 06:33 04.01.2020
1413 Clouds 34 1006 52 10000 5.1 340 05:20 04.01.2020
1414 Clouds 35 1006 46 10000 4.6 340 04:42 04.01.2020
1415 Clouds 34 1006 46 10000 4.6 340 04:24 04.01.2020
1416 Clouds 34 1007 52 10000 4.1 340 03:18 04.01.2020
1417 Clouds 33 1008 55 10000 1 30 02:21 04.01.2020
1418 Clouds 32 1008 55 10000 2.6 350 01:55 04.01.2020
1419 Clouds 33 1008 59 10000 2.1 30 01:32 04.01.2020
1420 Clouds 32 1008 66 10000 1.5 70 00:46 04.01.2020
1421 Clouds 31 1008 66 10000 1.5 70 00:26 04.01.2020
1422 Clouds 29 1008 79 10000 2.1 90 23:48 03.01.2020
1423 Clouds 28 1008 83 10000 1.5 70 23:25 03.01.2020
1424 Clouds 26 1008 88 10000 1.5 100 22:54 03.01.2020
1425 Clouds 26 1007 88 10000 2.6 90 22:36 03.01.2020
1426 Clouds 26 1007 88 10000 2.6 90 22:18 03.01.2020
1427 Clouds 26 1007 88 10000 2.1 100 21:54 03.01.2020
1428 Clouds 26 1007 88 10000 3.1 100 21:36 03.01.2020
1429 Clouds 26 1007 88 10000 3.1 100 21:18 03.01.2020
1430 Clouds 27 1006 88 10000 2.1 100 20:41 03.01.2020
1431 Clouds 27 1006 88 10000 1 10 20:19 03.01.2020
1432 Rain 27 1006 88 10000 1 10 19:57 03.01.2020
1433 Rain 27 1006 88 10000 1 10 19:39 03.01.2020
1434 Rain 27 1006 88 10000 1 10 19:21 03.01.2020
1435 Rain 27 1006 88 10000 1 360 18:44 03.01.2020
1436 Rain 27 1006 88 10000 1 360 18:44 03.01.2020
1437 Clouds 28 1006 83 10000 1.5 360 18:26 03.01.2020
1438 Clouds 28 1006 74 10000 2.1 340 17:56 03.01.2020
1439 Clouds 29 1006 74 10000 2.1 350 17:38 03.01.2020
1440 Clouds 29 1006 74 10000 2.1 350 17:19 03.01.2020
1441 Clouds 29 1007 70 10000 3.1 340 16:43 03.01.2020
1442 Clouds 29 1007 70 10000 3.1 340 16:24 03.01.2020
1443 Clouds 29 1007 70 10000 3.1 350 15:58 03.01.2020
1444 Clouds 30 1007 70 10000 2.6 350 15:40 03.01.2020
1445 Clouds 30 1007 70 10000 2.6 350 15:18 03.01.2020
1446 Clouds 30 1007 70 10000 2.6 350 14:39 03.01.2020
1447 Clouds 29 1007 70 10000 2.6 350 14:20 03.01.2020
1448 Clouds 29 1007 74 10000 2.1 360 13:56 03.01.2020
1449 Clouds 30 1007 74 10000 2.1 10 13:37 03.01.2020
1450 Clouds 29 1007 74 10000 2.1 10 13:19 03.01.2020
1451 Clouds 30 1006 74 10000 2.6 350 12:39 03.01.2020
1452 Clouds 30 1006 74 10000 2.6 350 12:21 03.01.2020
1453 Clouds 30 1006 74 10000 2.6 340 11:48 03.01.2020
1454 Clouds 30 1006 70 10000 4.1 350 11:29 03.01.2020
1455 Clouds 31 1005 66 10000 4.6 350 10:47 03.01.2020
1456 Clouds 32 1005 55 10000 5.7 340 10:28 03.01.2020
1457 Clouds 33 1005 55 10000 4.1 350 09:59 03.01.2020
1458 Clouds 33 1005 52 10000 4.1 330 09:41 03.01.2020
1459 Clouds 34 1005 52 10000 4.1 330 09:22 03.01.2020
1460 Clouds 34 1004 52 10000 3.6 330 08:57 03.01.2020
1461 Clouds 34 1005 52 10000 2.1 300 08:38 03.01.2020
1462 Clouds 35 1005 52 10000 2.1 300 08:20 03.01.2020
1463 Clouds 34 1005 59 10000 3.6 290 07:41 03.01.2020
1464 Clouds 34 1005 59 10000 3.6 290 07:19 03.01.2020
1465 Clouds 34 1005 59 10000 2.6 320 06:54 03.01.2020
1466 Clouds 34 1006 59 10000 2.6 350 06:35 03.01.2020
1467 Clouds 34 1006 59 10000 3.1 310 05:47 03.01.2020
1468 Clouds 34 1008 55 10000 2.6 310 04:31 03.01.2020
1469 Clouds 33 1008 62 10000 2.6 270 03:18 03.01.2020
1470 Clouds 33 1009 62 10000 0.5 290 02:45 03.01.2020
1471 Clouds 31 1009 66 10000 1 120 01:45 03.01.2020
1472 Clouds 30 1010 74 10000 1 140 00:56 03.01.2020
1473 Clouds 30 1010 79 10000 1 140 00:32 03.01.2020
1474 Clouds 28 1010 83 10000 1.5 140 23:58 02.01.2020
1475 Clouds 28 1009 88 10000 1.5 110 23:39 02.01.2020
1476 Clouds 27 1009 88 10000 1.5 110 23:19 02.01.2020
1477 Clouds 27 1009 88 10000 2.1 140 22:58 02.01.2020
1478 Clouds 27 1009 94 10000 1.5 140 22:39 02.01.2020
1479 Clouds 26 1009 94 10000 1.5 140 22:19 02.01.2020
1480 Clouds 26 1009 88 10000 1 160 21:54 02.01.2020
1481 Clouds 26 1008 88 10000 0.75 5 21:36 02.01.2020
1482 Clouds 26 1008 88 10000 0.75 5 21:36 02.01.2020
1483 Clouds 26 1008 88 10000 0.75 5 21:18 02.01.2020
1484 Clouds 27 1008 88 10000 1 330 20:40 02.01.2020
1485 Clouds 27 1008 88 10000 1 330 20:21 02.01.2020
1486 Clouds 28 1008 83 10000 1 360 19:56 02.01.2020
1487 Clouds 28 1008 83 10000 1 360 19:56 02.01.2020
1488 Clouds 27 1008 88 10000 1.5 340 19:38 02.01.2020
1489 Clouds 27 1008 88 10000 1.5 340 19:19 02.01.2020
1490 Clouds 28 1008 83 10000 1.5 340 18:59 02.01.2020
1491 Clouds 27 1008 83 10000 1.5 340 18:40 02.01.2020
1492 Clouds 28 1008 83 10000 1.5 340 18:22 02.01.2020
1493 Clouds 28 1008 88 10000 1.5 350 17:57 02.01.2020
1494 Clouds 28 1009 79 10000 2.1 340 17:37 02.01.2020
1495 Clouds 29 1009 79 10000 2.1 340 17:19 02.01.2020
1496 Clouds 29 1009 79 10000 2.6 340 16:57 02.01.2020
1497 Clouds 29 1009 74 10000 3.1 330 16:38 02.01.2020
1498 Clouds 29 1009 74 10000 3.1 330 16:20 02.01.2020
1499 Clouds 30 1010 74 10000 3.6 330 15:56 02.01.2020
1500 Clouds 30 1010 74 10000 3.6 330 15:37 02.01.2020
1501 Clouds 30 1010 74 10000 3.1 330 15:19 02.01.2020
1502 Clouds 30 1010 74 10000 3.1 330 14:54 02.01.2020
1503 Clouds 30 1010 74 10000 3.1 330 14:54 02.01.2020
1504 Clouds 30 1010 74 10000 2.6 340 14:36 02.01.2020
1505 Clouds 30 1010 70 10000 2.6 330 14:18 02.01.2020
1506 Rain 30 1009 70 10000 2.6 340 13:45 02.01.2020
1507 Rain 30 1009 70 10000 2.6 340 13:26 02.01.2020
1508 Clouds 30 1009 74 10000 2.1 330 12:43 02.01.2020
1509 Clouds 30 1009 70 10000 3.6 320 12:24 02.01.2020
1510 Clouds 30 1009 70 10000 3.6 320 12:24 02.01.2020
1511 Clouds 30 1009 74 10000 4.1 330 11:43 02.01.2020
1512 Clouds 30 1009 74 10000 4.1 330 11:24 02.01.2020
1513 Clouds 30 1008 70 10000 3.6 330 10:56 02.01.2020
1514 Clouds 30 1008 70 10000 4.1 330 10:37 02.01.2020
1515 Clouds 30 1008 70 10000 4.1 330 10:18 02.01.2020
1516 Clouds 31 1007 62 10000 5.7 350 09:41 02.01.2020
1517 Clouds 32 1007 62 10000 5.7 350 09:22 02.01.2020
1518 Clouds 33 1006 63 10000 6.7 340 08:44 02.01.2020
1519 Rain 34 1007 55 10000 5.1 340 08:25 02.01.2020
1520 Rain 34 1006 56 10000 6.2 330 07:49 02.01.2020
1521 Clouds 34 1007 63 10000 4.6 340 07:30 02.01.2020
1522 Rain 35 1007 56 10000 4.1 340 06:44 02.01.2020
1523 Rain 34 1008 63 10000 6.2 300 06:26 02.01.2020
1524 Clouds 34 1010 55 10000 5.1 350 04:40 02.01.2020
1525 Clouds 34 1010 55 10000 5.1 350 04:21 02.01.2020
1526 Clouds 34 1010 55 10000 5.1 350 04:21 02.01.2020
1527 Clouds 34 1012 59 10000 2.6 90 02:28 02.01.2020
1528 Clouds 33 1012 62 10000 1.5 60 01:58 02.01.2020
1529 Clouds 33 1012 70 10000 1.5 50 01:32 02.01.2020
1530 Clouds 31 1012 74 10000 1 90 00:53 02.01.2020
1531 Clouds 31 1012 79 10000 2.1 100 00:33 02.01.2020
1532 Clouds 30 1011 74 10000 1.5 110 23:49 01.01.2020
1533 Clouds 28 1011 83 10000 1.5 120 23:26 01.01.2020
1534 Clouds 27 1011 88 10000 1 120 22:56 01.01.2020
1535 Rain 27 1010 88 10000 1.5 120 22:37 01.01.2020
1536 Rain 26 1010 88 10000 1.5 120 22:19 01.01.2020
1537 Rain 26 1010 88 10000 2.1 140 21:55 01.01.2020
1538 Clouds 26 1010 88 10000 1 110 21:37 01.01.2020
1539 Clouds 26 1010 88 10000 1 110 21:18 01.01.2020
1540 Rain 26 1009 88 10000 0.5 130 20:42 01.01.2020
1541 Rain 26 1009 88 10000 1 170 20:22 01.01.2020
1542 Rain 26 1009 94 10000 2.1 200 19:58 01.01.2020
1543 Clouds 26 1009 88 10000 1.5 150 19:39 01.01.2020
1544 Clouds 26 1009 88 10000 1.5 150 19:20 01.01.2020
1545 Rain 26 1009 94 10000 2.6 350 18:57 01.01.2020
1546 Clouds 26 1010 78 1000 3.1 240 18:39 01.01.2020
1547 Rain 27 1010 78 1000 3.1 240 18:20 01.01.2020
1548 Clouds 27 1009 74 10000 3.1 260 17:59 01.01.2020
1549 Clouds 28 1009 89 10000 2.1 360 17:40 01.01.2020
1550 Clouds 29 1009 89 10000 2.1 360 17:20 01.01.2020
1551 Clouds 29 1010 84 10000 2.6 320 16:59 01.01.2020
1552 Clouds 29 1010 84 10000 2.6 320 16:59 01.01.2020
1553 Clouds 29 1010 84 10000 2.6 310 16:38 01.01.2020
1554 Clouds 29 1010 84 10000 2.6 310 16:20 01.01.2020
1555 Clouds 29 1010 79 10000 2.6 310 15:57 01.01.2020
1556 Clouds 29 1010 79 10000 2.1 320 15:38 01.01.2020
1557 Clouds 29 1010 79 10000 2.1 320 15:20 01.01.2020
1558 Clouds 29 1010 79 10000 2.6 310 14:56 01.01.2020
1559 Clouds 29 1010 79 10000 2.1 280 14:38 01.01.2020
1560 Clouds 29 1010 79 10000 2.1 280 14:19 01.01.2020
1561 Clouds 29 1010 79 10000 2.1 280 14:19 01.01.2020
1562 Clouds 29 1010 79 10000 2.6 290 13:55 01.01.2020
1563 Clouds 29 1010 79 10000 2.6 290 13:36 01.01.2020
1564 Clouds 29 1010 79 10000 2.6 290 13:18 01.01.2020
1565 Clouds 29 1010 79 10000 2.6 290 13:18 01.01.2020
1566 Clouds 29 1010 79 10000 2.6 290 12:54 01.01.2020
1567 Clouds 29 1010 79 10000 2.6 290 12:54 01.01.2020
1568 Clouds 29 1009 79 10000 3.1 310 12:36 01.01.2020
1569 Clouds 29 1009 79 10000 3.1 310 12:18 01.01.2020
1570 Clouds 29 1008 74 10000 3.1 310 11:42 01.01.2020
1571 Clouds 29 1008 74 10000 3.1 310 11:21 01.01.2020
1572 Clouds 29 1008 74 10000 3.1 310 11:21 01.01.2020
1573 Clouds 29 1008 74 10000 3.1 310 10:56 01.01.2020
1574 Clouds 29 1007 74 10000 3.6 320 10:38 01.01.2020
1575 Clouds 30 1007 74 10000 3.6 320 10:19 01.01.2020
1576 Rain 30 1007 70 10000 2.6 20 09:42 01.01.2020
1577 Rain 30 1007 70 10000 2.6 20 09:22 01.01.2020
1578 Clouds 30 1008 66 10000 0.5 10 08:57 01.01.2020
1579 Rain 30 1007 66 10000 1.5 280 08:38 01.01.2020
1580 Rain 31 1007 66 10000 1.5 280 08:20 01.01.2020
1581 Rain 30 1007 70 10000 5.1 250 07:58 01.01.2020
1582 Thunderstorm 31 1007 62 10000 4.1 250 07:40 01.01.2020
1583 Thunderstorm 30 1007 62 10000 4.1 250 07:20 01.01.2020
1584 Rain 30 1008 66 10000 6.2 270 06:40 01.01.2020
1585 Rain 32 1008 66 10000 6.2 270 06:18 01.01.2020
1586 Clouds 34 1010 63 10000 2.6 200 04:36 01.01.2020
1587 Clouds 33 1011 70 10000 1.5 220 03:40 01.01.2020
1588 Clouds 32 1011 70 10000 1.5 220 03:21 01.01.2020
1589 Clouds 32 1011 70 10000 6.2 330 02:43 01.01.2020
1590 Clouds 31 1011 74 10000 2.1 160 02:24 01.01.2020
1591 Clouds 30 1011 74 10000 6.2 330 01:45 01.01.2020
1592 Clouds 29 1011 78 10000 1.5 120 01:23 01.01.2020
1593 Clouds 27 1011 83 10000 1 70 00:45 01.01.2020
1594 Clouds 27 1011 88 10000 2.6 150 00:26 01.01.2020
1595 Clouds 27 1010 88 10000 1.5 120 23:58 31.12.2019
1596 Clouds 26 1010 83 10000 1.5 170 23:38 31.12.2019
1597 Clouds 26 1010 83 10000 1.5 170 23:18 31.12.2019
1598 Clouds 25 1009 88 10000 1 100 22:56 31.12.2019
1599 Clouds 25 1008 88 10000 0.5 100 22:37 31.12.2019
1600 Clouds 25 1008 88 10000 0.5 100 22:18 31.12.2019
1601 Clouds 25 1008 88 10000 1.5 70 21:43 31.12.2019
1602 Clouds 25 1009 88 10000 2.6 120 21:25 31.12.2019
1603 Clouds 25 1008 88 10000 1.5 110 20:57 31.12.2019
1604 Clouds 25 1009 88 10000 2.1 110 20:39 31.12.2019
1605 Clouds 25 1009 88 10000 2.1 110 20:21 31.12.2019
1606 Clouds 25 1009 83 10000 2.6 110 19:58 31.12.2019
1607 Clouds 25 1009 83 10000 3.6 120 19:40 31.12.2019
1608 Clouds 25 1009 83 10000 3.6 120 19:21 31.12.2019
1609 Clouds 25 1009 83 10000 4.6 120 18:57 31.12.2019
1610 Drizzle 25 1009 83 10000 2.6 90 18:38 31.12.2019
1611 Drizzle 25 1009 83 10000 2.6 90 18:38 31.12.2019
1612 Drizzle 25 1009 83 10000 2.6 90 18:19 31.12.2019
1613 Rain 25 1009 88 10000 2.6 80 17:56 31.12.2019
1614 Rain 25 1009 88 10000 2.6 80 17:56 31.12.2019
1615 Rain 25 1009 88 10000 2.6 70 17:36 31.12.2019
1616 Rain 25 1009 88 10000 2.6 70 17:18 31.12.2019
1617 Rain 25 1009 88 10000 2.6 70 17:18 31.12.2019
1618 Rain 25 1009 83 10000 0.5 130 16:56 31.12.2019
1619 Rain 25 1010 94 10000 3.1 110 16:37 31.12.2019
1620 Rain 24 1010 94 10000 3.1 110 16:18 31.12.2019
1621 Clouds 25 1009 88 10000 1 40 15:56 31.12.2019
1622 Rain 25 1009 88 10000 2.1 120 15:38 31.12.2019
1623 Rain 25 1009 88 10000 2.1 120 15:19 31.12.2019
1624 Clouds 25 1009 88 10000 2.1 120 14:55 31.12.2019
1625 Clouds 25 1009 94 10000 1 230 14:37 31.12.2019
1626 Clouds 24 1009 94 10000 1 230 14:18 31.12.2019
1627 Clouds 24 1008 88 10000 2.1 240 13:56 31.12.2019
1628 Rain 24 1008 94 10000 1 20 13:38 31.12.2019
1629 Rain 24 1008 94 10000 1 20 13:19 31.12.2019
1630 Thunderstorm 24 1008 88 10000 5.1 280 12:55 31.12.2019
1631 Thunderstorm 24 1008 88 10000 5.1 280 12:55 31.12.2019
1632 Thunderstorm 24 1009 94 10000 5.7 90 12:37 31.12.2019
1633 Thunderstorm 24 1009 94 10000 5.7 90 12:37 31.12.2019
1634 Thunderstorm 23 1009 94 10000 5.7 90 12:18 31.12.2019
1635 Thunderstorm 23 1009 94 8000 5.7 120 11:55 31.12.2019
1636 Thunderstorm 25 1010 74 5000 8.2 120 11:37 31.12.2019
1637 Thunderstorm 29 1010 74 5000 8.2 120 11:19 31.12.2019
1638 Thunderstorm 31 1008 66 10000 4.6 260 10:55 31.12.2019
1639 Clouds 32 1008 62 10000 5.1 270 10:37 31.12.2019
1640 Clouds 32 1008 62 10000 5.1 270 10:19 31.12.2019
1641 Clouds 32 1008 59 10000 5.7 260 09:57 31.12.2019
1642 Clouds 32 1006 66 10000 6.7 270 09:38 31.12.2019
1643 Clouds 32 1006 66 10000 6.7 270 09:19 31.12.2019
1644 Clouds 31 1007 63 10000 5.7 260 08:42 31.12.2019
1645 Clouds 32 1007 70 10000 5.7 280 08:23 31.12.2019
1646 Rain 32 1006 62 10000 6.2 290 07:57 31.12.2019
1647 Thunderstorm 33 1006 56 10000 7.2 290 07:38 31.12.2019
1648 Thunderstorm 34 1006 56 10000 7.2 290 07:18 31.12.2019
1649 Clouds 34 1007 59 10000 6.7 300 06:40 31.12.2019
1650 Clouds 34 1008 59 10000 6.7 290 05:28 31.12.2019
1651 Clouds 34 1009 59 10000 5.7 290 04:25 31.12.2019
1652 Clouds 35 1010 59 10000 4.6 290 02:59 31.12.2019
1653 Clouds 34 1011 66 10000 3.6 300 02:34 31.12.2019
1654 Clouds 33 1010 66 10000 4.1 300 01:51 31.12.2019
1655 Clouds 33 1010 66 10000 3.6 300 01:32 31.12.2019
1656 Clouds 32 1010 70 10000 3.1 280 00:54 31.12.2019
1657 Clouds 31 1010 74 10000 2.6 270 00:36 31.12.2019
1658 Clouds 31 1010 74 10000 2.6 270 00:18 31.12.2019
1659 Clouds 30 1010 74 10000 3.1 260 23:54 30.12.2019
1660 Clouds 30 1010 79 10000 1.5 240 23:36 30.12.2019
1661 Clouds 29 1010 79 10000 1.5 240 23:18 30.12.2019
1662 Clouds 29 1010 83 10000 1.5 250 22:54 30.12.2019
1663 Clouds 27 1009 94 10000 1 290 22:36 30.12.2019
1664 Clouds 27 1009 94 10000 1 290 22:18 30.12.2019
1665 Clouds 27 1008 88 10000 2.1 300 21:55 30.12.2019
1666 Clouds 27 1008 88 10000 2.1 310 21:36 30.12.2019
1667 Clouds 27 1008 88 10000 2.1 310 21:18 30.12.2019
1668 Clouds 27 1007 94 10000 2.1 320 20:41 30.12.2019
1669 Rain 27 1007 94 10000 2.1 320 20:21 30.12.2019
1670 Rain 27 1007 94 10000 1 320 19:59 30.12.2019
1671 Rain 27 1007 94 10000 1 320 19:59 30.12.2019
1672 Rain 27 1007 94 10000 1.41 275 19:40 30.12.2019
1673 Rain 27 1007 94 10000 1.41 275 19:20 30.12.2019
1674 Rain 27 1007 94 10000 1.41 275 19:20 30.12.2019
1675 Rain 27 1007 88 10000 1.41 275 18:59 30.12.2019
1676 Rain 27 1007 88 10000 1.41 275 18:41 30.12.2019
1677 Rain 27 1007 88 10000 1 340 18:21 30.12.2019
1678 Rain 27 1007 88 10000 1.5 310 17:59 30.12.2019
1679 Rain 27 1008 88 10000 1 320 17:40 30.12.2019
1680 Clouds 27 1008 88 10000 1 320 17:19 30.12.2019
1681 Clouds 27 1008 88 10000 1.5 290 16:59 30.12.2019
1682 Clouds 28 1008 83 10000 1.5 300 16:40 30.12.2019
1683 Clouds 28 1008 83 10000 1.5 300 16:20 30.12.2019
1684 Clouds 28 1009 79 10000 1.5 320 15:56 30.12.2019
1685 Clouds 28 1009 79 10000 2.1 300 15:38 30.12.2019
1686 Clouds 28 1009 79 10000 2.1 300 15:19 30.12.2019
1687 Clouds 28 1009 79 10000 2.1 300 15:19 30.12.2019
1688 Clouds 29 1009 74 10000 2.6 320 14:54 30.12.2019
1689 Clouds 29 1008 74 10000 2.6 310 14:36 30.12.2019
1690 Clouds 29 1008 74 10000 2.6 310 14:18 30.12.2019
1691 Clouds 29 1008 79 10000 2.1 310 13:41 30.12.2019
1692 Clouds 29 1008 79 10000 2.1 310 13:23 30.12.2019
1693 Clouds 29 1008 79 10000 2.1 270 12:58 30.12.2019
1694 Clouds 29 1008 74 10000 2.1 320 12:39 30.12.2019
1695 Clouds 30 1008 74 10000 2.1 320 12:19 30.12.2019
1696 Clouds 30 1008 74 10000 1.5 300 11:56 30.12.2019
1697 Clouds 30 1008 70 10000 1 330 11:37 30.12.2019
1698 Clouds 30 1008 70 10000 1 330 11:18 30.12.2019
1699 Clouds 31 1008 62 10000 2.6 300 10:42 30.12.2019
1700 Clouds 31 1008 62 10000 2.6 300 10:42 30.12.2019
1701 Clouds 32 1008 62 10000 2.6 300 10:20 30.12.2019
1702 Clouds 32 1007 62 10000 3.6 290 09:44 30.12.2019
1703 Clouds 33 1007 55 10000 2.1 260 09:22 30.12.2019
1704 Clouds 34 1007 52 10000 2.1 260 08:57 30.12.2019
1705 Clouds 33 1007 52 10000 1.5 240 08:39 30.12.2019
1706 Clouds 33 1007 52 10000 1.5 240 08:21 30.12.2019
1707 Clouds 33 1007 55 10000 5.1 310 07:49 30.12.2019
1708 Clouds 33 1008 55 10000 2.6 260 07:25 30.12.2019
1709 Clouds 33 1009 62 10000 2.1 230 06:39 30.12.2019
1710 Clouds 29 1011 83 10000 2.1 200 04:31 30.12.2019
1711 Clouds 28 1011 78 10000 5.1 310 03:51 30.12.2019
1712 Clouds 27 1011 83 10000 5.1 310 02:47 30.12.2019
1713 Clouds 26 1011 88 10000 2.1 220 02:27 30.12.2019
1714 Thunderstorm 26 1012 94 7000 3.6 200 01:39 30.12.2019
1715 Thunderstorm 26 1012 94 7000 3.6 200 01:18 30.12.2019
1716 Thunderstorm 26 1011 88 7000 2.6 210 00:42 30.12.2019
1717 Thunderstorm 28 1011 78 3000 4.6 20 23:58 29.12.2019
1718 Thunderstorm 28 1011 74 5000 6.2 350 23:37 29.12.2019
1719 Thunderstorm 29 1011 74 5000 6.2 350 23:19 29.12.2019
1720 Clouds 29 1010 79 10000 2.1 270 22:41 29.12.2019
1721 Clouds 29 1010 79 10000 2.1 270 22:22 29.12.2019
1722 Clouds 29 1010 74 10000 2.6 290 21:56 29.12.2019
1723 Clouds 29 1009 79 10000 3.1 290 21:38 29.12.2019
1724 Clouds 30 1009 79 10000 3.1 290 21:19 29.12.2019
1725 Clouds 30 1009 79 10000 3.1 290 21:19 29.12.2019
1726 Clouds 30 1008 79 10000 3.6 310 20:55 29.12.2019
1727 Clouds 30 1008 79 10000 2.6 320 20:37 29.12.2019
1728 Clouds 30 1008 79 10000 2.6 320 20:18 29.12.2019
1729 Rain 30 1008 79 10000 3.1 320 19:56 29.12.2019
1730 Rain 30 1008 79 10000 3.1 310 19:38 29.12.2019
1731 Rain 30 1008 79 10000 3.1 310 19:19 29.12.2019
1732 Clouds 30 1008 79 10000 3.1 310 18:55 29.12.2019
1733 Clouds 30 1008 79 10000 3.6 310 18:37 29.12.2019
1734 Clouds 30 1008 79 10000 3.6 310 18:18 29.12.2019
1735 Clouds 30 1009 79 10000 3.6 320 17:56 29.12.2019
1736 Rain 30 1009 79 10000 2.6 310 17:38 29.12.2019
1737 Rain 30 1009 79 10000 2.6 310 17:19 29.12.2019
1738 Rain 30 1009 79 10000 3.6 310 16:55 29.12.2019
1739 Rain 30 1009 79 10000 3.6 300 16:36 29.12.2019
1740 Rain 29 1009 79 10000 3.6 300 16:18 29.12.2019
1741 Clouds 29 1009 79 10000 3.6 300 15:56 29.12.2019
1742 Clouds 29 1009 79 10000 3.1 280 15:38 29.12.2019
1743 Clouds 29 1009 79 10000 3.1 280 15:18 29.12.2019
1744 Clouds 29 1010 79 10000 3.1 280 14:55 29.12.2019
1745 Clouds 30 1010 79 10000 3.1 280 14:37 29.12.2019
1746 Clouds 30 1010 79 10000 3.1 280 14:18 29.12.2019
1747 Clouds 30 1010 79 10000 3.6 290 13:55 29.12.2019
1748 Clouds 30 1010 79 10000 3.1 280 13:37 29.12.2019
1749 Clouds 30 1010 79 10000 3.1 280 13:18 29.12.2019
1750 Clouds 30 1010 79 10000 3.1 290 12:41 29.12.2019
1751 Clouds 30 1009 74 10000 3.6 300 12:23 29.12.2019
1752 Clouds 30 1009 70 10000 4.1 310 11:55 29.12.2019
1753 Clouds 30 1009 66 10000 3.6 290 11:37 29.12.2019
1754 Clouds 30 1009 66 10000 3.6 290 11:19 29.12.2019
1755 Clouds 31 1008 62 10000 4.6 300 10:41 29.12.2019
1756 Clouds 31 1008 62 10000 4.6 300 10:21 29.12.2019
1757 Clouds 31 1007 59 10000 5.7 300 09:54 29.12.2019
1758 Clouds 32 1007 62 10000 5.1 300 09:36 29.12.2019
1759 Clouds 32 1007 62 10000 5.1 300 09:18 29.12.2019
1760 Clouds 31 1007 59 10000 5.1 300 08:46 29.12.2019
1761 Clouds 34 1007 59 10000 5.7 300 08:24 29.12.2019
1762 Clouds 34 1007 59 10000 5.7 310 07:54 29.12.2019
1763 Clouds 33 1007 63 10000 5.7 310 07:28 29.12.2019
1764 Clouds 34 1007 63 10000 4.6 290 06:53 29.12.2019
1765 Clouds 33 1008 63 10000 5.7 310 06:24 29.12.2019
1766 Clouds 34 1008 63 10000 5.7 310 05:51 29.12.2019
1767 Clouds 34 1009 63 10000 4.1 290 04:36 29.12.2019
1768 Clouds 33 1010 70 10000 5.1 290 03:43 29.12.2019
1769 Clouds 34 1010 66 10000 5.7 290 03:19 29.12.2019
1770 Clouds 33 1010 74 10000 4.6 320 02:20 29.12.2019
1771 Clouds 33 1010 74 10000 4.6 320 02:20 29.12.2019
1772 Clouds 32 1010 74 10000 4.1 320 01:31 29.12.2019
1773 Clouds 32 1010 74 10000 3.1 340 00:57 29.12.2019
1774 Clouds 31 1010 74 10000 3.1 310 00:39 29.12.2019
1775 Clouds 31 1010 74 10000 3.1 310 00:21 29.12.2019
1776 Clouds 30 1010 79 10000 3.1 340 23:42 28.12.2019
1777 Clouds 29 1009 83 10000 2.1 350 23:18 28.12.2019
1778 Clouds 29 1009 83 10000 4.1 330 22:39 28.12.2019
1779 Clouds 29 1009 83 10000 4.1 330 22:20 28.12.2019
1780 Clouds 29 1008 83 10000 3.6 330 21:58 28.12.2019
1781 Clouds 29 1008 83 10000 2.6 330 21:39 28.12.2019
1782 Clouds 29 1008 83 10000 2.6 330 21:21 28.12.2019
1783 Clouds 29 1008 83 10000 2.6 330 21:21 28.12.2019
1784 Clouds 28 1009 83 10000 2.1 340 20:57 28.12.2019
1785 Clouds 28 1008 83 10000 3.1 330 20:37 28.12.2019
1786 Clouds 28 1008 83 10000 3.1 330 20:37 28.12.2019
1787 Clouds 29 1008 83 10000 3.1 330 20:19 28.12.2019
1788 Clouds 29 1008 83 10000 3.1 330 19:56 28.12.2019
1789 Rain 28 1008 88 10000 2.1 330 19:38 28.12.2019
1790 Rain 28 1008 88 10000 2.1 330 19:19 28.12.2019
1791 Rain 28 1008 88 10000 2.1 340 18:56 28.12.2019
1792 Rain 28 1008 83 10000 1 330 18:38 28.12.2019
1793 Rain 29 1008 83 10000 1 330 18:18 28.12.2019
1794 Rain 29 1008 83 10000 3.1 330 17:42 28.12.2019
1795 Rain 29 1008 83 10000 4.6 330 17:21 28.12.2019
1796 Rain 29 1007 83 10000 3.6 330 16:59 28.12.2019
1797 Rain 29 1008 83 10000 3.1 330 16:41 28.12.2019
1798 Rain 29 1008 83 10000 3.1 330 16:23 28.12.2019
1799 Rain 29 1009 83 10000 2.6 340 15:44 28.12.2019
1800 Rain 29 1009 79 10000 2.6 350 15:23 28.12.2019
1801 Rain 28 1009 83 10000 2.6 350 14:57 28.12.2019
1802 Rain 28 1009 79 10000 1.5 360 14:38 28.12.2019
1803 Clouds 28 1009 79 10000 1.5 360 14:20 28.12.2019
1804 Clouds 28 1008 79 10000 2.1 350 13:43 28.12.2019
1805 Rain 29 1008 74 10000 3.1 340 13:22 28.12.2019
1806 Clouds 29 1008 79 10000 3.1 350 12:59 28.12.2019
1807 Rain 29 1008 83 10000 2.1 330 12:40 28.12.2019
1808 Rain 29 1008 83 10000 2.1 330 12:21 28.12.2019
1809 Rain 29 1007 79 10000 1.5 330 11:54 28.12.2019
1810 Clouds 29 1007 74 10000 1.5 290 11:36 28.12.2019
1811 Clouds 29 1007 74 10000 1.5 290 11:18 28.12.2019
1812 Clouds 30 1007 70 10000 3.1 320 10:41 28.12.2019
1813 Clouds 30 1007 70 10000 3.6 350 10:20 28.12.2019
1814 Clouds 30 1006 74 10000 3.1 350 09:55 28.12.2019
1815 Clouds 30 1006 74 10000 3.1 350 09:55 28.12.2019
1816 Clouds 31 1006 66 10000 4.6 330 09:37 28.12.2019
1817 Clouds 31 1006 66 10000 4.6 330 09:18 28.12.2019
1818 Clouds 31 1006 70 10000 5.1 330 08:43 28.12.2019
1819 Clouds 31 1006 79 10000 4.6 350 08:25 28.12.2019
1820 Clouds 31 1006 79 10000 2.6 300 07:49 28.12.2019
1821 Clouds 32 1006 70 10000 2.1 290 07:25 28.12.2019
1822 Clouds 27 1007 83 10000 8.2 210 05:53 28.12.2019
1823 Thunderstorm 32 1007 70 10000 4.6 330 03:52 28.12.2019
1824 Clouds 33 1008 63 10000 5.1 310 03:33 28.12.2019
1825 Clouds 34 1009 63 10000 3.6 300 02:43 28.12.2019
1826 Clouds 33 1009 66 10000 4.6 300 01:59 28.12.2019
1827 Clouds 32 1009 66 10000 4.6 300 01:25 28.12.2019
1828 Clouds 31 1009 74 10000 4.1 290 00:51 28.12.2019
1829 Clouds 31 1009 70 10000 3.6 270 00:32 28.12.2019
1830 Clouds 31 1009 70 10000 3.6 270 00:32 28.12.2019
1831 Clouds 31 1009 70 10000 2.6 270 23:59 27.12.2019
1832 Clouds 30 1008 79 10000 3.1 260 23:41 27.12.2019
1833 Clouds 28 1008 79 10000 3.1 260 23:19 27.12.2019
1834 Clouds 27 1008 88 10000 3.1 280 22:57 27.12.2019
1835 Clouds 25 1007 94 10000 2.6 290 22:38 27.12.2019
1836 Clouds 26 1007 94 10000 2.6 290 22:20 27.12.2019
1837 Clouds 24 1007 88 10000 2.1 310 21:44 27.12.2019
1838 Clouds 26 1006 83 10000 2.1 340 21:25 27.12.2019
1839 Clouds 26 1005 83 10000 2.1 330 20:58 27.12.2019
1840 Clouds 27 1005 78 10000 3.1 340 20:40 27.12.2019
1841 Clouds 27 1005 78 10000 3.1 340 20:21 27.12.2019
1842 Clouds 27 1004 78 10000 3.6 300 19:42 27.12.2019
1843 Clouds 27 1004 78 10000 3.6 300 19:20 27.12.2019
1844 Clouds 27 1004 79 10000 4.6 320 18:58 27.12.2019
1845 Clouds 27 1004 74 10000 4.6 310 18:37 27.12.2019
1846 Clouds 29 1004 74 10000 4.6 310 18:19 27.12.2019
1847 Clouds 27 1005 78 10000 4.1 320 17:57 27.12.2019
1848 Clouds 28 1005 78 10000 4.6 310 17:38 27.12.2019
1849 Rain 28 1005 78 10000 4.6 310 17:19 27.12.2019
1850 Rain 28 1005 78 10000 4.1 310 16:58 27.12.2019
1851 Rain 28 1006 83 10000 3.6 290 16:38 27.12.2019
1852 Rain 27 1006 83 10000 3.6 290 16:19 27.12.2019
1853 Rain 27 1006 83 10000 3.6 290 16:19 27.12.2019
1854 Rain 26 1006 94 10000 2.1 290 15:43 27.12.2019
1855 Rain 24 1006 94 10000 1 300 15:20 27.12.2019
1856 Rain 24 1007 94 10000 0.5 70 14:57 27.12.2019
1857 Rain 25 1007 88 10000 0.5 120 14:39 27.12.2019
1858 Rain 25 1007 88 10000 0.5 120 14:20 27.12.2019
1859 Rain 25 1007 88 10000 2.57 118 13:48 27.12.2019
1860 Clouds 25 1007 88 10000 1 180 13:25 27.12.2019
1861 Clouds 25 1007 88 10000 1 180 13:25 27.12.2019
1862 Clouds 24 1007 88 10000 0.5 180 12:58 27.12.2019
1863 Clouds 24 1007 88 10000 1 180 12:39 27.12.2019
1864 Clouds 25 1007 88 10000 1 180 12:21 27.12.2019
1865 Clouds 25 1006 88 10000 2.6 130 11:45 27.12.2019
1866 Clouds 25 1006 88 10000 2.6 130 11:26 27.12.2019
1867 Clouds 26 1006 83 10000 2.1 60 10:56 27.12.2019
1868 Clouds 27 1005 78 10000 1.5 360 10:38 27.12.2019
1869 Clouds 27 1005 78 10000 1.5 360 10:20 27.12.2019
1870 Clouds 26 1005 83 10000 5.1 10 09:43 27.12.2019
1871 Clouds 26 1005 83 10000 5.1 10 09:21 27.12.2019
1872 Clouds 25 1006 88 10000 7.2 10 08:58 27.12.2019
1873 Rain 24 1007 94 10000 8.7 20 08:36 27.12.2019
1874 Thunderstorm 24 1008 94 5000 12.3 30 07:51 27.12.2019
1875 Thunderstorm 28 1009 78 10000 7.7 40 07:32 27.12.2019
1876 Clouds 31 1007 62 10000 5.7 290 06:37 27.12.2019
1877 Clouds 31 1007 59 10000 6.2 270 05:37 27.12.2019
1878 Thunderstorm 33 1007 59 10000 6.2 250 03:44 27.12.2019
1879 Clouds 33 1008 59 10000 6.7 260 02:21 27.12.2019
1880 Clouds 33 1008 62 10000 6.7 260 01:42 27.12.2019
1881 Clouds 32 1008 62 10000 6.7 260 01:20 27.12.2019
1882 Clouds 32 1008 66 10000 6.7 280 00:44 27.12.2019
1883 Clouds 31 1007 70 10000 6.7 270 00:24 27.12.2019
1884 Clouds 31 1007 70 10000 7.2 290 23:42 26.12.2019
1885 Clouds 31 1007 70 10000 7.2 290 23:23 26.12.2019
1886 Clouds 30 1007 70 10000 6.2 290 22:57 26.12.2019
1887 Clouds 30 1007 66 10000 6.2 290 22:37 26.12.2019
1888 Clouds 30 1007 66 10000 6.2 290 22:18 26.12.2019
1889 Clear 30 1006 66 10000 6.7 290 21:39 26.12.2019
1890 Clear 30 1006 66 10000 6.7 290 21:39 26.12.2019
1891 Clear 30 1006 66 10000 6.7 290 21:21 26.12.2019
1892 Clear 30 1006 66 10000 6.7 290 21:21 26.12.2019
1893 Clear 30 1005 66 10000 6.2 290 20:47 26.12.2019
1894 Clouds 30 1006 74 10000 6.7 290 20:24 26.12.2019
1895 Clouds 30 1006 74 10000 5.7 280 19:59 26.12.2019
1896 Clouds 30 1006 70 10000 4.6 280 19:40 26.12.2019
1897 Clouds 30 1006 70 10000 4.6 280 19:40 26.12.2019
1898 Clouds 30 1006 70 10000 4.6 280 19:22 26.12.2019
1899 Clouds 30 1006 70 10000 5.7 290 18:59 26.12.2019
1900 Clouds 30 1006 66 10000 5.7 290 18:40 26.12.2019
1901 Clouds 30 1006 66 10000 5.7 290 18:20 26.12.2019
1902 Clouds 30 1007 66 10000 5.7 290 17:57 26.12.2019
1903 Clouds 31 1007 62 10000 5.7 290 17:39 26.12.2019
1904 Clouds 31 1007 62 10000 5.7 290 17:19 26.12.2019
1905 Clouds 31 1007 66 10000 5.7 290 16:45 26.12.2019
1906 Clouds 31 1007 66 10000 4.6 270 16:24 26.12.2019
1907 Clouds 31 1008 66 10000 4.1 270 15:56 26.12.2019
1908 Clouds 31 1008 66 10000 4.1 270 15:56 26.12.2019
1909 Clouds 31 1008 70 10000 3.6 270 15:38 26.12.2019
1910 Clouds 31 1008 70 10000 3.6 270 15:18 26.12.2019
1911 Clouds 31 1008 66 10000 5.1 280 14:41 26.12.2019
1912 Clouds 31 1008 66 10000 5.1 280 14:22 26.12.2019
1913 Clouds 30 1008 66 10000 3.6 280 13:45 26.12.2019
1914 Clouds 30 1008 66 10000 3.1 270 13:23 26.12.2019
1915 Clear 31 1009 66 10000 3.6 260 12:58 26.12.2019
1916 Clear 31 1008 66 10000 3.6 270 12:40 26.12.2019
1917 Clear 31 1008 66 10000 3.6 270 12:21 26.12.2019
1918 Clear 31 1008 66 10000 4.1 270 11:58 26.12.2019
1919 Clear 31 1007 59 10000 4.6 250 11:39 26.12.2019
1920 Clear 31 1007 59 10000 4.6 250 11:20 26.12.2019
1921 Clear 32 1007 59 10000 5.1 260 10:49 26.12.2019
1922 Clear 33 1006 55 10000 5.1 260 10:20 26.12.2019
1923 Clouds 33 1006 52 10000 5.1 260 09:54 26.12.2019
1924 Clouds 34 1006 52 10000 5.7 270 09:32 26.12.2019
1925 Clouds 34 1006 49 10000 6.2 280 08:57 26.12.2019
1926 Clouds 34 1006 52 10000 7.2 290 08:38 26.12.2019
1927 Clouds 34 1006 52 10000 7.2 290 08:20 26.12.2019
1928 Clouds 34 1006 52 10000 7.2 290 08:20 26.12.2019
1929 Clouds 35 1007 52 10000 7.2 300 07:31 26.12.2019
1930 Clouds 35 1007 47 10000 6.2 300 06:57 26.12.2019
1931 Clouds 35 1007 50 10000 5.7 300 06:34 26.12.2019
1932 Clouds 36 1008 56 10000 5.7 300 05:57 26.12.2019
1933 Clouds 35 1008 56 10000 7.2 280 05:38 26.12.2019
1934 Clouds 36 1008 52 10000 5.7 320 04:32 26.12.2019
1935 Clouds 35 1009 49 10000 4.1 300 03:31 26.12.2019
1936 Clouds 34 1010 55 10000 2.6 310 02:46 26.12.2019
1937 Clouds 34 1010 55 10000 2.6 240 02:25 26.12.2019
1938 Clouds 33 1010 59 10000 4.1 180 01:44 26.12.2019
1939 Clouds 33 1011 59 10000 3.1 240 01:24 26.12.2019
1940 Clouds 32 1011 66 10000 2.6 230 00:43 26.12.2019
1941 Clouds 31 1011 66 10000 2.6 230 00:22 26.12.2019
1942 Clouds 31 1011 66 10000 2.6 230 00:22 26.12.2019
1943 Clouds 31 1011 66 10000 2.6 240 23:56 25.12.2019
1944 Clouds 30 1011 70 10000 1.5 240 23:36 25.12.2019
1945 Clouds 29 1011 70 10000 1.5 240 23:18 25.12.2019
1946 Clouds 26 1010 88 10000 0.94 271 22:55 25.12.2019
1947 Clouds 27 1010 88 10000 0.94 271 22:55 25.12.2019
1948 Clouds 27 1009 83 10000 1 270 22:36 25.12.2019
1949 Clouds 26 1009 83 10000 1 270 22:18 25.12.2019
1950 Clouds 26 1008 83 10000 1.5 300 21:40 25.12.2019
1951 Clouds 26 1008 83 10000 1.5 300 21:22 25.12.2019
1952 Clouds 27 1008 78 10000 1.5 300 20:59 25.12.2019
1953 Clouds 27 1008 70 10000 2.1 280 20:40 25.12.2019
1954 Clouds 28 1008 70 10000 2.1 280 20:19 25.12.2019
1955 Clouds 28 1008 74 10000 2.6 290 19:57 25.12.2019
1956 Clouds 28 1008 74 10000 2.6 300 19:39 25.12.2019
1957 Clouds 28 1008 74 10000 2.6 300 19:21 25.12.2019
1958 Clouds 29 1008 74 10000 3.6 290 18:39 25.12.2019
1959 Clouds 29 1008 74 10000 3.6 290 18:20 25.12.2019
1960 Clouds 29 1008 74 10000 3.1 290 17:43 25.12.2019
1961 Clouds 29 1008 70 10000 2.6 280 17:21 25.12.2019
1962 Clouds 29 1008 70 10000 2.6 290 16:59 25.12.2019
1963 Clouds 29 1009 74 10000 2.6 290 16:39 25.12.2019
1964 Clouds 29 1009 74 10000 2.6 290 16:19 25.12.2019
1965 Clouds 29 1009 70 10000 2.6 290 15:58 25.12.2019
1966 Clouds 29 1009 66 10000 2.1 290 15:39 25.12.2019
1967 Clouds 29 1009 66 10000 2.1 290 15:21 25.12.2019
1968 Clouds 30 1010 66 10000 3.1 300 14:58 25.12.2019
1969 Clouds 30 1009 66 10000 3.6 300 14:40 25.12.2019
1970 Clouds 30 1009 66 10000 3.6 300 14:21 25.12.2019
1971 Clouds 30 1009 66 10000 3.6 300 14:21 25.12.2019
1972 Clouds 30 1009 66 10000 3.6 300 14:21 25.12.2019
1973 Clouds 30 1009 66 10000 3.6 300 14:21 25.12.2019
1974 Clouds 30 1009 66 10000 3.6 300 14:21 25.12.2019
1975 Clouds 30 1009 70 10000 4.1 300 13:57 25.12.2019
1976 Clouds 30 1009 70 10000 4.6 300 13:38 25.12.2019
1977 Clouds 30 1009 70 10000 4.6 300 13:19 25.12.2019
1978 Clouds 30 1008 66 10000 4.1 300 12:40 25.12.2019
1979 Clouds 31 1008 66 10000 4.1 300 12:20 25.12.2019
1980 Clouds 31 1008 59 10000 4.6 300 11:56 25.12.2019
1981 Clouds 31 1008 59 10000 4.6 320 11:38 25.12.2019
1982 Clouds 31 1008 59 10000 4.6 320 11:18 25.12.2019
1983 Clouds 32 1007 52 10000 4.6 310 10:38 25.12.2019
1984 Clouds 33 1007 52 10000 4.6 310 10:20 25.12.2019
1985 Clouds 34 1007 52 10000 4.1 310 09:51 25.12.2019
1986 Clouds 34 1006 49 10000 4.6 310 09:32 25.12.2019
1987 Clouds 34 1007 49 10000 4.6 330 08:51 25.12.2019
1988 Clouds 34 1007 49 10000 4.6 330 08:51 25.12.2019
1989 Clouds 35 1006 44 10000 4.6 320 08:31 25.12.2019
1990 Clouds 36 1006 44 10000 4.6 330 07:52 25.12.2019
1991 Clouds 36 1007 44 10000 4.1 310 07:34 25.12.2019
1992 Clouds 35 1007 49 10000 3.6 320 06:52 25.12.2019
1993 Clouds 36 1007 50 10000 3.6 300 06:23 25.12.2019
1994 Clouds 36 1008 49 10000 3.6 320 05:18 25.12.2019
1995 Clouds 35 1009 55 10000 4.1 330 04:39 25.12.2019
1996 Clouds 35 1009 55 10000 4.1 330 04:20 25.12.2019
1997 Clouds 33 1009 62 10000 5.1 330 03:42 25.12.2019
1998 Clouds 34 1010 66 10000 3.6 350 02:56 25.12.2019
1999 Clouds 33 1010 62 10000 2.6 320 02:27 25.12.2019
2000 Clouds 33 1010 62 10000 2.6 320 01:26 25.12.2019
2001 Clouds 31 1010 70 10000 3.1 330 00:56 25.12.2019
2002 Clouds 32 1010 70 10000 1.5 20 00:33 25.12.2019
2003 Clouds 30 1010 74 10000 1 70 23:58 24.12.2019
2004 Clouds 29 1010 83 10000 1 80 23:39 24.12.2019
2005 Clouds 28 1010 83 10000 1 80 23:20 24.12.2019
2006 Clouds 26 1009 88 10000 1.18 359 22:41 24.12.2019
2007 Clouds 26 1009 88 10000 1.18 359 22:23 24.12.2019
2008 Clouds 26 1008 88 10000 1.18 359 21:44 24.12.2019
2009 Clouds 26 1008 88 10000 1.18 359 21:23 24.12.2019
2010 Clouds 26 1008 94 10000 1.18 359 20:59 24.12.2019
2011 Clouds 26 1008 94 10000 1.18 359 20:41 24.12.2019
2012 Rain 26 1008 88 10000 1 360 20:19 24.12.2019
2013 Rain 26 1008 88 10000 2.46 20 19:45 24.12.2019
2014 Rain 27 1008 83 10000 2.46 20 19:22 24.12.2019
2015 Rain 27 1008 83 10000 0.5 360 18:58 24.12.2019
2016 Rain 27 1008 83 10000 1.5 360 18:40 24.12.2019
2017 Rain 27 1008 83 10000 1.5 360 18:18 24.12.2019
2018 Clouds 27 1009 83 10000 1 280 17:42 24.12.2019
2019 Clouds 29 1009 83 10000 1 280 17:21 24.12.2019
2020 Clouds 29 1009 79 10000 1.5 310 16:58 24.12.2019
2021 Clouds 28 1009 79 10000 2.1 330 16:39 24.12.2019
2022 Clouds 29 1009 79 10000 2.1 330 16:20 24.12.2019
2023 Clouds 29 1010 79 10000 2.6 300 15:56 24.12.2019
2024 Clouds 28 1010 79 10000 1.5 330 15:36 24.12.2019
2025 Clouds 28 1010 79 10000 1.5 330 15:18 24.12.2019
2026 Clouds 28 1010 70 10000 2.43 348 14:57 24.12.2019
2027 Clouds 29 1010 66 10000 2.1 230 14:39 24.12.2019
2028 Clouds 30 1010 66 10000 2.1 230 14:21 24.12.2019
2029 Clouds 30 1010 66 10000 2.6 240 13:56 24.12.2019
2030 Rain 29 1009 74 10000 0.5 340 13:37 24.12.2019
2031 Rain 29 1009 74 10000 0.5 340 13:19 24.12.2019
2032 Rain 29 1009 74 10000 0.5 340 13:19 24.12.2019
2033 Clouds 28 1009 78 10000 1 310 12:56 24.12.2019
2034 Clouds 28 1008 66 10000 1.5 270 12:37 24.12.2019
2035 Clouds 28 1008 66 10000 1.5 270 12:19 24.12.2019
2036 Clouds 28 1008 62 10000 2.6 230 11:55 24.12.2019
2037 Clouds 28 1008 66 10000 1.5 200 11:37 24.12.2019
2038 Clouds 29 1008 66 10000 1.5 200 11:19 24.12.2019
2039 Clouds 29 1007 66 10000 2.1 270 10:56 24.12.2019
2040 Clouds 29 1006 58 10000 2.6 310 10:37 24.12.2019
2041 Clouds 29 1006 58 10000 2.6 310 10:19 24.12.2019
2042 Clouds 29 1006 62 10000 3.1 280 09:55 24.12.2019
2043 Clouds 28 1006 69 10000 3.1 290 09:37 24.12.2019
2044 Clouds 27 1006 69 10000 3.1 290 09:19 24.12.2019
2045 Thunderstorm 30 1006 69 10000 4.1 270 08:45 24.12.2019
2046 Thunderstorm 31 1007 73 10000 9.8 140 08:24 24.12.2019
2047 Clouds 35 1006 47 10000 5.1 300 07:46 24.12.2019
2048 Clouds 36 1006 47 10000 5.7 290 07:26 24.12.2019
2049 Clouds 36 1006 47 10000 5.1 320 06:58 24.12.2019
2050 Clouds 36 1007 47 10000 4.6 320 06:38 24.12.2019
2051 Clouds 36 1007 47 10000 4.6 320 06:19 24.12.2019
2052 Clouds 36 1007 47 10000 4.6 310 05:46 24.12.2019
2053 Clouds 36 1008 47 10000 4.6 310 05:18 24.12.2019
2054 Clouds 35 1009 55 10000 4.6 300 03:55 24.12.2019
2055 Clouds 35 1009 55 10000 3.6 320 03:25 24.12.2019
2056 Clouds 35 1010 52 10000 3.1 340 02:25 24.12.2019
2057 Clouds 34 1010 55 10000 6.2 330 01:52 24.12.2019
2058 Clouds 34 1010 55 10000 6.2 330 01:23 24.12.2019
2059 Clouds 33 1010 59 10000 1 20 00:47 24.12.2019
2060 Clouds 32 1010 66 10000 0.5 350 00:26 24.12.2019
2061 Clouds 31 1010 74 10000 1.5 90 23:59 23.12.2019
2062 Clouds 30 1010 79 10000 1.5 110 23:41 23.12.2019
2063 Clouds 29 1010 79 10000 1.5 110 23:23 23.12.2019
2064 Clouds 27 1010 83 10000 1.5 110 22:56 23.12.2019
2065 Clouds 27 1010 83 10000 1.5 110 22:56 23.12.2019
2066 Clouds 27 1010 83 10000 1.5 110 22:56 23.12.2019
2067 Clouds 26 1009 88 10000 1 300 22:37 23.12.2019
2068 Clouds 26 1009 88 10000 1 300 22:19 23.12.2019
2069 Clouds 27 1009 83 10000 1.03 55 21:55 23.12.2019
2070 Clouds 27 1009 83 10000 1.03 55 21:55 23.12.2019
2071 Clouds 27 1009 83 10000 1.03 55 21:36 23.12.2019
2072 Clouds 27 1009 83 10000 1.03 55 21:36 23.12.2019
2073 Clouds 27 1009 83 10000 1.03 55 21:36 23.12.2019
2074 Clouds 27 1009 83 10000 1.03 55 21:18 23.12.2019
2075 Clear 27 1008 83 10000 1.03 55 20:57 23.12.2019
2076 Clear 27 1008 83 10000 1.03 55 20:39 23.12.2019
2077 Clouds 27 1008 83 10000 1.28 3 20:18 23.12.2019
2078 Clouds 27 1008 83 10000 1.28 3 19:56 23.12.2019
2079 Clouds 27 1008 83 10000 1.28 3 19:56 23.12.2019
2080 Clouds 27 1008 83 10000 0.5 300 19:38 23.12.2019
2081 Clouds 28 1008 83 10000 0.5 300 19:19 23.12.2019
2082 Clouds 28 1008 78 10000 1 300 18:57 23.12.2019
2083 Clouds 28 1008 74 10000 1 310 18:38 23.12.2019
2084 Clouds 28 1008 74 10000 1 310 18:20 23.12.2019
2085 Clouds 29 1009 79 10000 1 320 17:56 23.12.2019
2086 Clouds 29 1009 70 10000 1.5 320 17:37 23.12.2019
2087 Clear 29 1009 70 10000 1.5 320 17:19 23.12.2019
2088 Clear 29 1009 70 10000 1.5 290 16:54 23.12.2019
2089 Clear 29 1009 70 10000 2.6 300 16:36 23.12.2019
2090 Clear 29 1009 70 10000 2.6 300 16:18 23.12.2019
2091 Clouds 30 1009 70 10000 2.6 340 15:55 23.12.2019
2092 Clouds 30 1010 66 10000 3.1 320 15:36 23.12.2019
2093 Clouds 30 1010 66 10000 3.1 320 15:18 23.12.2019
2094 Clouds 30 1009 66 10000 3.6 330 14:42 23.12.2019
2095 Clouds 30 1009 66 10000 3.6 330 14:24 23.12.2019
2096 Clouds 30 1009 66 10000 1.5 310 13:59 23.12.2019
2097 Clouds 30 1009 66 10000 1.5 310 13:41 23.12.2019
2098 Clouds 30 1009 70 10000 1.5 290 13:22 23.12.2019
2099 Clouds 30 1008 66 10000 2.1 290 12:58 23.12.2019
2100 Clouds 30 1008 66 10000 2.1 290 12:58 23.12.2019
2101 Clouds 30 1008 66 10000 1.5 260 12:39 23.12.2019
2102 Clouds 30 1008 66 10000 1.5 260 12:20 23.12.2019
2103 Clouds 31 1008 59 10000 1.5 280 11:55 23.12.2019
2104 Clouds 31 1007 59 10000 2.6 250 11:37 23.12.2019
2105 Clouds 31 1007 59 10000 2.6 250 11:18 23.12.2019
2106 Clouds 32 1007 55 10000 3.1 250 10:54 23.12.2019
2107 Clouds 32 1007 49 10000 3.6 270 10:36 23.12.2019
2108 Clouds 33 1007 49 10000 3.6 270 10:18 23.12.2019
2109 Clouds 33 1006 49 10000 4.1 290 09:40 23.12.2019
2110 Clouds 34 1006 49 10000 4.1 290 09:22 23.12.2019
2111 Clouds 35 1006 44 10000 3.6 310 08:58 23.12.2019
2112 Clouds 35 1006 46 10000 4.1 290 08:40 23.12.2019
2113 Rain 34 1006 46 10000 4.1 290 08:22 23.12.2019
2114 Clouds 35 1007 41 10000 3.6 300 07:48 23.12.2019
2115 Clouds 35 1007 41 10000 4.1 290 07:21 23.12.2019
2116 Clouds 35 1007 44 10000 4.1 300 06:57 23.12.2019
2117 Clouds 35 1008 44 10000 4.6 290 06:27 23.12.2019
2118 Clouds 35 1008 44 10000 3.1 300 05:56 23.12.2019
2119 Clouds 35 1008 49 10000 5.1 300 05:29 23.12.2019
2120 Clouds 35 1009 52 10000 4.1 290 04:34 23.12.2019
2121 Clouds 35 1009 49 10000 2.1 260 03:28 23.12.2019
2122 Clouds 34 1010 59 10000 1.5 210 02:43 23.12.2019
2123 Clouds 33 1010 55 10000 2.6 190 02:19 23.12.2019
2124 Clouds 33 1010 52 10000 1.5 150 01:44 23.12.2019
2125 Clouds 32 1010 55 10000 3.1 150 01:26 23.12.2019
2126 Clouds 30 1010 55 10000 3.6 180 00:44 23.12.2019
2127 Clouds 30 1010 55 10000 3.6 180 00:44 23.12.2019
2128 Clouds 29 1010 62 10000 3.1 200 00:23 23.12.2019
2129 Clouds 28 1009 83 10000 2.6 150 23:40 22.12.2019
2130 Clouds 28 1009 83 10000 2.6 150 23:22 22.12.2019
2131 Clouds 28 1009 83 10000 2.6 150 23:22 22.12.2019
2132 Clouds 27 1009 88 10000 2.6 160 22:58 22.12.2019
2133 Clouds 27 1008 88 10000 2.6 180 22:40 22.12.2019
2134 Clouds 28 1008 88 10000 2.6 180 22:22 22.12.2019
2135 Clouds 27 1008 78 10000 0.59 6 21:58 22.12.2019
2136 Clouds 27 1008 78 10000 1 70 21:40 22.12.2019
2137 Clouds 27 1008 78 10000 1 70 21:21 22.12.2019
2138 Clouds 27 1008 78 10000 1 70 21:21 22.12.2019
2139 Clouds 27 1008 78 10000 1 70 21:21 22.12.2019
2140 Clouds 27 1008 74 10000 1 70 20:59 22.12.2019
2141 Clouds 27 1008 78 10000 0.5 70 20:39 22.12.2019
2142 Clouds 27 1008 78 10000 0.5 70 20:19 22.12.2019
2143 Clouds 28 1008 74 10000 1.5 70 19:57 22.12.2019
2144 Clouds 28 1008 74 10000 1 70 19:39 22.12.2019
2145 Clouds 28 1008 74 10000 1 70 19:19 22.12.2019
2146 Clouds 29 1008 70 10000 2.1 290 18:42 22.12.2019
2147 Clouds 29 1008 70 10000 2.1 290 18:24 22.12.2019
2148 Clouds 29 1008 70 10000 2.1 330 17:56 22.12.2019
2149 Clouds 30 1008 70 10000 1.5 290 17:38 22.12.2019
2150 Clouds 30 1008 70 10000 1.5 290 17:19 22.12.2019
2151 Clouds 30 1008 70 10000 1.5 290 17:19 22.12.2019
2152 Clouds 30 1008 70 10000 1.5 290 16:57 22.12.2019
2153 Rain 29 1009 66 10000 3.1 310 16:39 22.12.2019
2154 Rain 30 1009 66 10000 3.1 310 16:21 22.12.2019
2155 Clouds 30 1009 66 10000 3.1 300 15:56 22.12.2019
2156 Clouds 30 1009 66 10000 3.1 300 15:38 22.12.2019
2157 Clouds 30 1009 66 10000 3.1 300 15:20 22.12.2019
2158 Clouds 30 1009 66 10000 3.1 300 14:55 22.12.2019
2159 Clouds 30 1009 66 10000 3.1 300 14:55 22.12.2019
2160 Clouds 30 1009 66 10000 4.1 330 14:37 22.12.2019
2161 Clouds 30 1009 66 10000 4.1 330 14:18 22.12.2019
2162 Clouds 30 1009 66 10000 4.1 330 14:18 22.12.2019
2163 Clouds 30 1009 66 10000 4.1 330 14:18 22.12.2019
2164 Clouds 30 1008 66 10000 3.6 330 13:55 22.12.2019
2165 Clouds 31 1008 66 10000 4.1 320 13:37 22.12.2019
2166 Clouds 30 1008 66 10000 4.1 320 13:18 22.12.2019
2167 Rain 30 1008 70 10000 4.6 330 12:56 22.12.2019
2168 Clouds 30 1007 70 10000 4.6 310 12:37 22.12.2019
2169 Clouds 30 1007 70 10000 4.6 310 12:18 22.12.2019
2170 Clouds 31 1007 62 10000 4.1 310 11:56 22.12.2019
2171 Clouds 31 1006 62 10000 4.6 320 11:38 22.12.2019
2172 Clouds 31 1006 62 10000 4.6 320 11:18 22.12.2019
2173 Clouds 31 1006 62 10000 5.1 300 10:55 22.12.2019
2174 Clouds 32 1005 52 10000 4.6 320 10:36 22.12.2019
2175 Clouds 33 1005 52 10000 4.6 320 10:18 22.12.2019
2176 Clouds 33 1005 46 10000 4.1 330 09:57 22.12.2019
2177 Clouds 33 1005 46 10000 4.6 340 09:38 22.12.2019
2178 Clouds 34 1005 46 10000 4.6 340 09:20 22.12.2019
2179 Clouds 35 1005 44 10000 5.1 330 08:42 22.12.2019
2180 Clouds 35 1005 44 10000 5.1 330 08:21 22.12.2019
2181 Clouds 36 1005 44 10000 3.6 330 07:42 22.12.2019
2182 Clouds 36 1005 44 10000 3.6 330 07:21 22.12.2019
2183 Clouds 36 1005 47 10000 5.1 270 06:52 22.12.2019
2184 Clouds 36 1006 47 10000 3.6 310 06:22 22.12.2019
2185 Clouds 35 1007 52 10000 4.1 270 05:29 22.12.2019
2186 Clouds 35 1007 55 10000 4.1 320 04:46 22.12.2019
2187 Clouds 35 1008 55 10000 3.6 300 04:24 22.12.2019
2188 Clouds 35 1009 49 10000 2.6 20 02:43 22.12.2019
2189 Clouds 35 1009 49 10000 2.6 20 02:43 22.12.2019
2190 Clouds 35 1009 49 10000 2.6 20 02:43 22.12.2019
2191 Clouds 33 1009 52 10000 2.1 20 01:59 22.12.2019
2192 Clouds 33 1009 59 10000 1.5 320 01:31 22.12.2019
2193 Clouds 32 1009 62 10000 0.5 130 00:48 22.12.2019
2194 Clouds 31 1009 62 10000 1 180 00:29 22.12.2019
2195 Clouds 28 1009 66 10000 1 130 23:59 21.12.2019
2196 Clouds 28 1009 74 10000 1 120 23:40 21.12.2019
2197 Clear 26 1009 74 10000 1 120 23:20 21.12.2019
2198 Clear 26 1008 74 10000 1.5 110 22:47 21.12.2019
2199 Clear 25 1008 74 10000 1.5 130 22:20 21.12.2019
2200 Clear 25 1008 78 10000 2.1 130 21:58 21.12.2019
2201 Clear 25 1008 74 10000 1.5 150 21:40 21.12.2019
2202 Clear 26 1008 74 10000 1.5 150 21:21 21.12.2019
2203 Clear 26 1008 74 10000 2.1 120 20:59 21.12.2019
2204 Clear 26 1008 74 10000 2.1 120 20:59 21.12.2019
2205 Clear 26 1008 74 10000 2.1 120 20:41 21.12.2019
2206 Rain 26 1008 69 10000 2.6 130 20:22 21.12.2019
2207 Rain 26 1007 69 10000 1.5 130 19:59 21.12.2019
2208 Clouds 26 1008 74 10000 2.6 130 19:41 21.12.2019
2209 Clouds 26 1008 74 10000 2.6 130 19:20 21.12.2019
2210 Clouds 26 1007 78 10000 2.6 150 18:59 21.12.2019
2211 Rain 26 1008 69 10000 5.1 160 18:40 21.12.2019
2212 Rain 27 1008 69 10000 5.1 160 18:22 21.12.2019
2213 Rain 27 1008 74 10000 2.6 180 17:55 21.12.2019
2214 Rain 27 1007 69 10000 1 150 17:37 21.12.2019
2215 Rain 27 1007 69 10000 1 150 17:18 21.12.2019
2216 Rain 27 1008 74 10000 1.5 220 16:54 21.12.2019
2217 Rain 27 1008 69 10000 0.5 290 16:36 21.12.2019
2218 Rain 27 1008 69 10000 0.5 290 16:36 21.12.2019
2219 Rain 27 1008 69 10000 0.5 290 16:18 21.12.2019
2220 Rain 27 1009 74 10000 2.1 280 15:54 21.12.2019
2221 Rain 26 1009 69 10000 3.6 260 15:36 21.12.2019
2222 Rain 27 1009 69 10000 3.6 260 15:18 21.12.2019
2223 Clouds 26 1009 65 10000 2.6 280 14:40 21.12.2019
2224 Rain 26 1009 78 10000 4.1 280 14:40 21.12.2019
2225 Clouds 27 1009 65 10000 2.6 280 14:22 21.12.2019
2226 Clouds 27 1009 65 10000 2.6 280 14:22 21.12.2019
2227 Rain 27 1010 61 10000 3.1 220 13:57 21.12.2019
2228 Thunderstorm 27 1008 61 10000 7.7 170 13:39 21.12.2019
2229 Thunderstorm 28 1008 61 10000 7.7 170 13:19 21.12.2019
2230 Thunderstorm 29 1008 74 10000 7.7 140 12:56 21.12.2019
2231 Clouds 30 1008 74 10000 2.1 190 12:38 21.12.2019
2232 Clouds 30 1008 74 10000 2.1 190 12:38 21.12.2019
2233 Clouds 30 1008 74 10000 2.1 190 12:19 21.12.2019
2234 Clouds 30 1007 70 10000 2.1 250 11:45 21.12.2019
2235 Clouds 30 1006 70 10000 1.5 270 11:26 21.12.2019
2236 Clouds 31 1006 70 10000 3.1 260 10:58 21.12.2019
2237 Rain 31 1006 62 10000 3.1 280 10:39 21.12.2019
2238 Rain 31 1006 62 10000 3.1 280 10:21 21.12.2019
2239 Clouds 32 1006 59 10000 4.1 290 09:57 21.12.2019
2240 Clouds 32 1006 59 10000 4.6 290 09:39 21.12.2019
2241 Clouds 33 1006 59 10000 4.6 290 09:19 21.12.2019
2242 Clouds 34 1006 55 10000 4.1 290 08:46 21.12.2019
2243 Thunderstorm 33 1005 59 10000 2.6 330 08:26 21.12.2019
2244 Rain 33 1006 55 10000 4.6 340 07:47 21.12.2019
2245 Rain 33 1006 55 10000 3.6 320 07:23 21.12.2019
2246 Rain 33 1006 49 10000 4.1 330 06:47 21.12.2019
2247 Clouds 35 1007 52 10000 4.1 310 06:28 21.12.2019
2248 Clouds 34 1007 52 10000 3.1 320 05:59 21.12.2019
2249 Clouds 35 1008 52 10000 2.1 290 04:59 21.12.2019
2250 Clouds 34 1008 55 10000 2.6 290 04:33 21.12.2019
2251 Clouds 34 1009 55 10000 2.6 300 03:56 21.12.2019
2252 Clouds 33 1010 52 10000 3.6 320 02:23 21.12.2019
2253 Clouds 33 1010 59 10000 1 140 01:42 21.12.2019
2254 Rain 33 1010 59 10000 1 120 01:23 21.12.2019
2255 Clouds 32 1010 74 10000 0.5 130 00:39 21.12.2019
2256 Clouds 31 1010 74 10000 0.5 130 00:20 21.12.2019
2257 Clouds 29 1009 83 10000 0.5 120 23:39 20.12.2019
2258 Clouds 28 1009 83 10000 0.5 120 23:20 20.12.2019
2259 Clouds 27 1009 88 10000 1.5 120 22:57 20.12.2019
2260 Clouds 27 1009 94 10000 2.1 120 22:38 20.12.2019
2261 Clouds 27 1009 94 10000 2.1 120 22:18 20.12.2019
2262 Clouds 27 1008 88 10000 1.42 81 21:41 20.12.2019
2263 Clouds 27 1008 88 10000 1.42 81 21:21 20.12.2019
2264 Clear 27 1008 88 10000 1.42 81 20:57 20.12.2019
2265 Clouds 27 1008 88 10000 1.42 81 20:38 20.12.2019
2266 Clouds 27 1008 88 10000 1.71 349 20:19 20.12.2019
2267 Clouds 27 1008 88 10000 1.5 170 19:42 20.12.2019
2268 Clouds 27 1008 88 10000 1.5 170 19:21 20.12.2019
2269 Clouds 27 1008 88 10000 1 190 18:58 20.12.2019
2270 Rain 27 1008 88 10000 2.6 220 18:40 20.12.2019
2271 Rain 27 1008 88 10000 2.6 220 18:21 20.12.2019
2272 Rain 27 1008 88 10000 2.6 220 18:21 20.12.2019
2273 Rain 27 1008 88 6000 2.1 350 17:56 20.12.2019
2274 Rain 27 1008 88 6000 2.1 350 17:56 20.12.2019
2275 Rain 28 1008 88 6000 2.1 350 17:38 20.12.2019
2276 Rain 29 1008 88 6000 2.1 350 17:20 20.12.2019
2277 Clouds 29 1008 70 10000 3.1 350 16:56 20.12.2019
2278 Clouds 29 1008 70 10000 3.1 340 16:37 20.12.2019
2279 Clouds 29 1008 70 10000 3.1 340 16:19 20.12.2019
2280 Clouds 30 1009 66 10000 4.1 320 15:54 20.12.2019
2281 Clouds 30 1009 66 10000 4.1 320 15:54 20.12.2019
2282 Clouds 30 1008 66 10000 4.6 330 15:36 20.12.2019
2283 Clouds 30 1008 66 10000 4.6 330 15:36 20.12.2019
2284 Clouds 30 1008 66 10000 4.6 330 15:18 20.12.2019
2285 Clouds 30 1008 66 10000 3.6 320 14:42 20.12.2019
2286 Clouds 30 1008 66 10000 3.6 320 14:23 20.12.2019
2287 Clouds 30 1008 62 10000 1.5 250 13:57 20.12.2019
2288 Clouds 30 1008 66 10000 3.1 220 13:37 20.12.2019
2289 Clouds 30 1008 66 10000 3.1 220 13:18 20.12.2019
2290 Clouds 30 1008 66 10000 3.1 220 13:18 20.12.2019
2291 Clouds 30 1007 70 10000 3.1 360 12:55 20.12.2019
2292 Clouds 30 1007 66 10000 2.6 350 12:36 20.12.2019
2293 Clouds 30 1007 66 10000 2.6 350 12:18 20.12.2019
2294 Clouds 31 1007 59 10000 1.5 340 11:57 20.12.2019
2295 Rain 31 1006 59 10000 2.6 330 11:38 20.12.2019
2296 Clouds 31 1006 59 10000 2.6 330 11:18 20.12.2019
2297 Clouds 32 1006 62 10000 3.1 310 10:55 20.12.2019
2298 Clouds 32 1006 62 0 2.68 310 10:37 20.12.2019
2299 Clouds 32 1006 62 10000 3.6 310 10:19 20.12.2019
2300 Rain 33 1006 52 10000 3.6 290 09:42 20.12.2019
2301 Clouds 33 1006 52 10000 3.6 290 09:21 20.12.2019
2302 Clouds 34 1005 55 10000 3.6 300 08:54 20.12.2019
2303 Clouds 33 1006 62 10000 3.1 270 08:36 20.12.2019
2304 Rain 32 1006 62 10000 3.1 270 08:18 20.12.2019
2305 Clouds 32 1006 62 10000 2.6 280 07:41 20.12.2019
2306 Clouds 31 1006 62 10000 2.6 280 07:23 20.12.2019
2307 Thunderstorm 32 1006 55 10000 4.6 340 06:55 20.12.2019
2308 Clouds 33 1006 47 10000 4.1 350 06:36 20.12.2019
2309 Clouds 34 1006 47 10000 4.1 350 06:18 20.12.2019
2310 Clouds 34 1007 52 10000 4.6 350 05:45 20.12.2019
2311 Clouds 34 1008 55 10000 3.6 310 04:46 20.12.2019
2312 Clouds 34 1009 59 10000 3.6 330 03:48 20.12.2019
2313 Clouds 33 1009 55 10000 3.1 330 02:46 20.12.2019
2314 Clouds 33 1010 55 10000 3.6 360 01:59 20.12.2019
2315 Clouds 33 1010 59 10000 2.6 30 01:35 20.12.2019
2316 Clouds 32 1010 59 10000 2.1 70 00:54 20.12.2019
2317 Clouds 32 1010 58 10000 2.6 70 00:35 20.12.2019
2318 Clouds 30 1010 70 10000 2.6 50 23:57 19.12.2019
2319 Clouds 30 1010 74 10000 1.5 70 23:39 19.12.2019
2320 Clouds 29 1010 74 10000 1.5 70 23:19 19.12.2019
2321 Clouds 27 1009 83 10000 1 30 22:39 19.12.2019
2322 Clouds 26 1009 83 10000 1 30 22:21 19.12.2019
2323 Clouds 27 1009 78 10000 1.5 30 21:56 19.12.2019
2324 Clouds 27 1009 78 10000 1.5 30 21:56 19.12.2019
2325 Clouds 27 1009 78 10000 1 60 21:38 19.12.2019
2326 Clouds 27 1009 78 10000 1 60 21:19 19.12.2019
2327 Clouds 26 1008 83 10000 1.5 40 20:56 19.12.2019
2328 Clouds 27 1008 78 10000 1 50 20:37 19.12.2019
2329 Clouds 27 1008 78 10000 1 50 20:19 19.12.2019
2330 Clouds 27 1008 78 10000 1.5 30 19:58 19.12.2019
2331 Clouds 27 1008 78 10000 1.5 30 19:39 19.12.2019
2332 Clouds 27 1008 78 10000 1.5 30 19:39 19.12.2019
2333 Clouds 27 1008 78 10000 1.5 30 19:19 19.12.2019
2334 Clouds 27 1008 78 10000 1.5 30 19:19 19.12.2019
2335 Clouds 27 1008 78 10000 2.1 20 18:57 19.12.2019
2336 Clouds 27 1008 74 10000 2.6 20 18:39 19.12.2019
2337 Clouds 28 1008 74 10000 2.6 20 18:19 19.12.2019
2338 Rain 28 1008 74 10000 2.1 10 17:55 19.12.2019
2339 Rain 28 1008 74 10000 1.5 360 17:37 19.12.2019
2340 Clouds 28 1008 74 10000 1.5 360 17:18 19.12.2019
2341 Clouds 28 1009 70 10000 2.1 360 16:55 19.12.2019
2342 Clouds 28 1009 70 10000 2.1 360 16:55 19.12.2019
2343 Clouds 29 1009 70 10000 3.1 360 16:37 19.12.2019
2344 Clouds 29 1009 70 10000 3.1 360 16:19 19.12.2019
2345 Clouds 29 1009 66 10000 2.6 350 15:55 19.12.2019
2346 Clouds 29 1009 70 10000 2.1 350 15:37 19.12.2019
2347 Clouds 29 1009 70 10000 2.1 350 15:18 19.12.2019
2348 Clouds 28 1008 79 10000 2.6 10 14:42 19.12.2019
2349 Clouds 28 1008 79 10000 2.6 10 14:20 19.12.2019
2350 Clouds 28 1008 74 10000 2.6 30 13:58 19.12.2019
2351 Clouds 28 1008 66 10000 1.5 360 13:38 19.12.2019
2352 Clouds 29 1008 66 10000 1.5 360 13:19 19.12.2019
2353 Clouds 28 1007 70 10000 2.1 360 12:57 19.12.2019
2354 Clouds 28 1007 70 10000 1.5 10 12:39 19.12.2019
2355 Clouds 28 1007 70 10000 1.5 10 12:19 19.12.2019
2356 Clouds 29 1007 62 10000 1 10 11:58 19.12.2019
2357 Clouds 29 1007 55 10000 2.1 350 11:40 19.12.2019
2358 Rain 29 1007 55 10000 2.1 350 11:18 19.12.2019
2359 Rain 30 1007 55 10000 2.1 350 10:57 19.12.2019
2360 Rain 30 1007 49 10000 1 20 10:38 19.12.2019
2361 Rain 31 1007 58 10000 1 110 10:19 19.12.2019
2362 Rain 31 1007 58 10000 1 110 09:54 19.12.2019
2363 Rain 31 1006 58 10000 1 50 09:36 19.12.2019
2364 Rain 31 1006 58 10000 1 50 09:18 19.12.2019
2365 Clouds 31 1007 58 10000 0.5 10 08:41 19.12.2019
2366 Clouds 31 1007 58 10000 0.5 10 08:19 19.12.2019
2367 Clouds 30 1006 51 10000 0.5 340 07:58 19.12.2019
2368 Clouds 30 1007 54 10000 2.1 10 07:38 19.12.2019
2369 Clouds 30 1007 54 10000 2.1 10 07:20 19.12.2019
2370 Thunderstorm 28 1007 65 10000 9.3 60 06:50 19.12.2019
2371 Thunderstorm 30 1007 55 10000 7.7 60 06:30 19.12.2019
2372 Clouds 35 1006 47 10000 2.6 140 05:56 19.12.2019
2373 Clouds 34 1007 49 10000 2.6 130 05:36 19.12.2019
2374 Clouds 33 1008 49 10000 2.6 170 04:56 19.12.2019
2375 Clouds 32 1009 49 10000 3.6 190 03:45 19.12.2019
2376 Clouds 30 1010 58 10000 3.6 190 02:24 19.12.2019
2377 Clouds 27 1010 65 10000 1 290 01:23 19.12.2019
2378 Thunderstorm 28 1010 61 10000 3.6 110 00:44 19.12.2019
2379 Thunderstorm 29 1010 61 10000 3.6 110 00:25 19.12.2019
2380 Thunderstorm 28 1010 61 10000 4.6 170 23:59 18.12.2019
2381 Clouds 28 1009 65 10000 4.6 170 23:41 18.12.2019
2382 Clouds 28 1009 65 10000 4.6 170 23:19 18.12.2019
2383 Clouds 28 1008 88 10000 3.6 150 22:56 18.12.2019
2384 Clouds 28 1008 83 10000 1.5 130 22:37 18.12.2019
2385 Clouds 28 1008 83 10000 1.5 130 22:19 18.12.2019
2386 Clouds 28 1007 83 10000 1.5 0 21:57 18.12.2019
2387 Clouds 28 1007 79 10000 1.5 180 21:39 18.12.2019
2388 Clouds 28 1007 79 10000 1.5 180 21:19 18.12.2019
2389 Clouds 29 1007 79 10000 1.5 210 20:55 18.12.2019
2390 Clouds 28 1006 79 10000 1.5 260 20:37 18.12.2019
2391 Clouds 28 1006 79 10000 1.5 260 20:19 18.12.2019
2392 Clouds 29 1006 79 10000 1.5 280 19:55 18.12.2019
2393 Rain 29 1006 79 10000 1.5 270 19:37 18.12.2019
2394 Rain 29 1006 79 10000 1.5 270 19:18 18.12.2019
2395 Rain 29 1007 79 10000 2.6 270 18:45 18.12.2019
2396 Rain 29 1007 79 10000 2.6 270 18:25 18.12.2019
2397 Rain 29 1007 79 10000 2.6 260 17:57 18.12.2019
2398 Rain 29 1007 79 10000 3.1 260 17:39 18.12.2019
2399 Rain 29 1007 79 10000 3.1 260 17:20 18.12.2019
2400 Rain 29 1007 79 10000 2.6 280 16:58 18.12.2019
2401 Rain 29 1007 79 10000 2.6 280 16:40 18.12.2019
2402 Rain 28 1007 79 10000 2.1 270 16:21 18.12.2019
2403 Clouds 28 1008 79 10000 2.6 270 15:56 18.12.2019
2404 Clouds 29 1007 79 10000 2.6 270 15:38 18.12.2019
2405 Clouds 29 1007 79 10000 2.6 270 15:20 18.12.2019
2406 Clouds 29 1008 74 10000 3.1 270 14:43 18.12.2019
2407 Clouds 30 1007 74 10000 3.1 270 14:22 18.12.2019
2408 Clouds 30 1007 74 10000 2.6 270 13:58 18.12.2019
2409 Clouds 30 1007 70 10000 3.6 280 13:39 18.12.2019
2410 Clouds 30 1007 70 10000 3.6 280 13:21 18.12.2019
2411 Rain 30 1006 70 10000 3.1 270 12:59 18.12.2019
2412 Rain 30 1006 70 10000 3.6 280 12:40 18.12.2019
2413 Rain 30 1006 70 10000 3.6 280 12:21 18.12.2019
2414 Rain 30 1006 70 10000 4.6 280 11:57 18.12.2019
2415 Rain 30 1005 66 10000 4.6 290 11:39 18.12.2019
2416 Clouds 31 1005 66 10000 5.7 290 11:20 18.12.2019
2417 Clouds 31 1005 66 10000 5.7 290 10:57 18.12.2019
2418 Thunderstorm 32 1005 63 10000 5.7 290 10:39 18.12.2019
2419 Thunderstorm 32 1005 63 10000 5.7 290 10:20 18.12.2019
2420 Clouds 32 1005 63 10000 4.1 300 09:57 18.12.2019
2421 Clouds 33 1005 59 10000 6.7 300 09:19 18.12.2019
2422 Clouds 34 1005 59 10000 6.7 300 08:42 18.12.2019
2423 Clouds 34 1005 59 10000 6.2 290 08:24 18.12.2019
2424 Clouds 35 1005 59 10000 6.7 300 07:57 18.12.2019
2425 Clouds 35 1005 56 10000 5.7 310 07:39 18.12.2019
2426 Clouds 36 1005 56 10000 5.7 310 07:19 18.12.2019
2427 Clouds 35 1006 59 10000 5.7 300 06:51 18.12.2019
2428 Rain 35 1006 59 10000 5.7 310 06:23 18.12.2019
2429 Clouds 35 1007 52 10000 5.1 300 05:35 18.12.2019
2430 Clouds 35 1007 52 10000 5.1 300 05:35 18.12.2019
2431 Clouds 34 1008 44 10000 4.1 280 03:49 18.12.2019
2432 Clouds 33 1009 52 10000 3.6 280 02:46 18.12.2019
2433 Clouds 33 1010 49 10000 1 330 02:27 18.12.2019
2434 Clouds 33 1010 52 10000 0.5 20 01:44 18.12.2019
2435 Clouds 32 1010 52 10000 0.5 20 01:25 18.12.2019
2436 Clouds 30 1009 62 10000 1 150 00:42 18.12.2019
2437 Clouds 29 1009 62 10000 1 150 00:24 18.12.2019
2438 Clouds 27 1009 69 10000 1 130 23:59 17.12.2019
2439 Clouds 27 1009 69 10000 1 130 23:59 17.12.2019
2440 Clouds 27 1009 65 10000 2.1 110 23:40 17.12.2019
2441 Clouds 26 1009 65 10000 2.1 110 23:21 17.12.2019
2442 Clouds 25 1009 73 10000 1 130 22:57 17.12.2019
2443 Clouds 25 1009 73 10000 1 130 22:57 17.12.2019
2444 Clouds 25 1008 78 10000 1.5 120 22:39 17.12.2019
2445 Clouds 24 1008 78 10000 1.5 120 22:19 17.12.2019
2446 Clouds 24 1008 78 10000 2.6 130 21:57 17.12.2019
2447 Clouds 24 1007 73 10000 2.6 120 21:39 17.12.2019
2448 Clouds 24 1007 73 10000 2.6 120 21:20 17.12.2019
2449 Clouds 24 1007 73 10000 1.5 70 20:59 17.12.2019
2450 Clouds 24 1006 78 10000 2.1 70 20:40 17.12.2019
2451 Clouds 25 1006 78 10000 2.1 70 20:19 17.12.2019
2452 Clouds 25 1006 78 10000 1 50 19:57 17.12.2019
2453 Clouds 24 1006 78 10000 1.5 50 19:39 17.12.2019
2454 Clouds 24 1006 78 10000 1.5 50 19:20 17.12.2019
2455 Clouds 24 1006 78 10000 1.5 40 18:57 17.12.2019
2456 Clouds 25 1006 78 10000 2.1 40 18:38 17.12.2019
2457 Clouds 25 1006 78 10000 2.1 40 18:20 17.12.2019
2458 Clouds 25 1006 74 10000 2.1 130 17:55 17.12.2019
2459 Clouds 25 1007 74 10000 2.6 140 17:37 17.12.2019
2460 Clouds 25 1007 74 10000 2.6 140 17:18 17.12.2019
2461 Clouds 25 1006 74 10000 2.6 30 16:55 17.12.2019
2462 Clouds 25 1007 69 10000 1.5 140 16:36 17.12.2019
2463 Clouds 26 1007 69 10000 1.5 140 16:18 17.12.2019
2464 Clouds 26 1007 69 10000 1.5 140 16:18 17.12.2019
2465 Rain 26 1007 74 10000 2.6 150 15:38 17.12.2019
2466 Rain 26 1007 74 10000 2.6 150 15:20 17.12.2019
2467 Rain 28 1008 65 10000 3.6 160 14:57 17.12.2019
2468 Rain 28 1007 54 10000 3.6 200 14:38 17.12.2019
2469 Rain 28 1007 54 10000 3.6 200 14:19 17.12.2019
2470 Thunderstorm 27 1008 74 10000 5.1 210 13:59 17.12.2019
2471 Thunderstorm 28 1009 62 10000 8.7 160 13:41 17.12.2019
2472 Thunderstorm 28 1009 62 10000 8.7 160 13:19 17.12.2019
2473 Clouds 29 1008 74 10000 1 270 12:59 17.12.2019
2474 Clouds 30 1007 70 10000 2.6 270 12:38 17.12.2019
2475 Clouds 30 1006 70 10000 4.1 290 12:18 17.12.2019
2476 Clouds 30 1007 70 10000 2.6 270 12:18 17.12.2019
2477 Clouds 31 1006 70 10000 4.1 290 11:57 17.12.2019
2478 Clouds 31 1006 70 10000 3.6 270 11:37 17.12.2019
2479 Clouds 32 1005 70 10000 4.6 290 11:18 17.12.2019
2480 Clouds 32 1005 70 10000 4.6 290 10:57 17.12.2019
2481 Clouds 32 1005 66 10000 5.7 290 10:39 17.12.2019
2482 Clouds 32 1005 66 10000 5.7 290 10:39 17.12.2019
2483 Clouds 32 1005 66 10000 5.7 290 10:19 17.12.2019
2484 Rain 33 1005 59 10000 5.7 290 09:56 17.12.2019
2485 Clouds 33 1005 56 10000 5.1 290 09:38 17.12.2019
2486 Clouds 33 1005 56 10000 5.1 290 09:38 17.12.2019
2487 Clouds 34 1005 56 10000 5.1 290 09:18 17.12.2019
2488 Clouds 34 1005 49 10000 5.1 290 08:55 17.12.2019
2489 Clouds 34 1005 52 10000 6.7 300 08:36 17.12.2019
2490 Clouds 35 1005 52 10000 6.7 300 08:18 17.12.2019
2491 Clouds 35 1005 47 10000 6.2 300 07:42 17.12.2019
2492 Clouds 35 1005 47 10000 6.2 300 07:23 17.12.2019
2493 Clouds 35 1005 44 10000 6.7 290 06:53 17.12.2019
2494 Clouds 35 1006 41 10000 6.2 300 06:32 17.12.2019
2495 Clouds 35 1007 56 10000 5.7 310 05:50 17.12.2019
2496 Clouds 35 1007 56 10000 5.7 310 05:50 17.12.2019
2497 Clouds 35 1007 56 10000 5.7 310 05:31 17.12.2019
2498 Clouds 35 1008 59 10000 4.1 330 04:19 17.12.2019
2499 Clouds 33 1009 59 10000 2.6 310 02:27 17.12.2019
2500 Clouds 32 1009 70 10000 2.6 250 01:34 17.12.2019
2501 Clouds 32 1009 70 10000 4.1 270 00:48 17.12.2019
2502 Clouds 30 1009 70 10000 3.2 268 00:22 17.12.2019
2503 Clouds 29 1009 74 10000 4.1 270 23:59 16.12.2019
2504 Clouds 28 1009 78 10000 1 140 23:40 16.12.2019
2505 Clouds 28 1009 78 10000 1 140 23:18 16.12.2019
2506 Clouds 27 1009 83 10000 1.5 160 22:55 16.12.2019
2507 Clouds 27 1008 83 10000 1 110 22:36 16.12.2019
2508 Clouds 27 1008 83 10000 1 110 22:18 16.12.2019
2509 Clouds 26 1008 83 10000 0.5 130 21:54 16.12.2019
2510 Clouds 27 1007 83 10000 1.5 130 21:36 16.12.2019
2511 Clouds 27 1007 83 10000 1.5 130 21:18 16.12.2019
2512 Clouds 27 1007 83 10000 2.1 150 20:56 16.12.2019
2513 Clouds 27 1007 83 10000 1.5 190 20:37 16.12.2019
2514 Clouds 27 1007 83 10000 1.5 190 20:18 16.12.2019
2515 Clouds 28 1006 74 10000 2.1 230 19:55 16.12.2019
2516 Clouds 28 1006 70 10000 1 230 19:36 16.12.2019
2517 Clouds 28 1006 70 10000 1 230 19:18 16.12.2019
2518 Clouds 28 1006 70 10000 2.1 250 18:55 16.12.2019
2519 Clouds 28 1006 74 10000 0.5 210 18:37 16.12.2019
2520 Clouds 28 1006 74 10000 1.23 285 18:18 16.12.2019
2521 Clouds 28 1006 74 10000 1.23 285 17:56 16.12.2019
2522 Clouds 28 1006 74 10000 1 210 17:37 16.12.2019
2523 Clouds 28 1006 70 10000 1.34 238 17:19 16.12.2019
2524 Clouds 28 1006 70 10000 1.34 238 16:54 16.12.2019
2525 Clouds 28 1007 66 10000 1.34 238 16:36 16.12.2019
2526 Clouds 28 1007 66 10000 1.34 238 16:18 16.12.2019
2527 Clouds 28 1007 66 10000 1 170 15:55 16.12.2019
2528 Clouds 28 1007 74 10000 2.1 210 15:37 16.12.2019
2529 Clouds 28 1007 74 10000 2.1 210 15:37 16.12.2019
2530 Clouds 28 1007 74 10000 2.1 210 15:18 16.12.2019
2531 Clouds 28 1007 79 10000 2.1 290 14:54 16.12.2019
2532 Clouds 28 1007 74 10000 2.1 310 14:36 16.12.2019
2533 Clouds 28 1007 74 10000 2.1 310 14:18 16.12.2019
2534 Clouds 28 1007 74 10000 2.1 310 14:18 16.12.2019
2535 Clouds 28 1007 70 10000 3.1 230 13:38 16.12.2019
2536 Clouds 28 1007 70 10000 3.1 230 13:20 16.12.2019
2537 Clouds 28 1007 69 10000 3.6 200 12:58 16.12.2019
2538 Clouds 28 1007 69 10000 3.6 200 12:58 16.12.2019
2539 Clouds 28 1007 66 10000 5.7 160 12:40 16.12.2019
2540 Clouds 28 1007 66 10000 5.7 160 12:20 16.12.2019
2541 Clouds 30 1007 66 10000 3.1 220 11:59 16.12.2019
2542 Clouds 30 1007 66 10000 3.1 220 11:59 16.12.2019
2543 Clouds 30 1007 59 10000 3.6 230 11:41 16.12.2019
2544 Clouds 30 1007 59 10000 3.6 230 11:22 16.12.2019
2545 Clouds 31 1006 62 10000 3.6 290 10:59 16.12.2019
2546 Clouds 32 1006 62 10000 3.6 290 10:40 16.12.2019
2547 Rain 32 1007 76 0 1.79 279 10:21 16.12.2019
2548 Clouds 32 1005 66 10000 5.1 290 09:47 16.12.2019
2549 Clouds 32 1005 62 10000 5.7 290 09:29 16.12.2019
2550 Clouds 33 1005 63 10000 6.7 290 08:58 16.12.2019
2551 Clouds 33 1005 59 10000 7.2 290 08:39 16.12.2019
2552 Clouds 34 1005 59 10000 7.2 290 08:19 16.12.2019
2553 Clouds 34 1005 59 10000 7.2 290 08:19 16.12.2019
2554 Clouds 33 1005 59 10000 7.2 300 07:51 16.12.2019
2555 Clouds 34 1005 59 10000 7.2 300 07:31 16.12.2019
2556 Clouds 34 1006 63 10000 6.7 310 06:49 16.12.2019
2557 Clouds 34 1006 59 10000 6.7 320 06:27 16.12.2019
2558 Clouds 34 1006 63 10000 6.2 310 05:58 16.12.2019
2559 Rain 34 1007 59 10000 5.7 310 05:39 16.12.2019
2560 Rain 34 1007 59 10000 5.7 310 05:21 16.12.2019
2561 Clouds 33 1008 63 10000 4.1 300 02:59 16.12.2019
2562 Clouds 32 1009 62 10000 6.2 320 01:45 16.12.2019
2563 Clouds 32 1009 66 10000 2.1 260 00:56 16.12.2019
2564 Clouds 31 1009 79 10000 2.1 280 00:38 16.12.2019
2565 Clouds 31 1009 74 10000 1.5 260 00:18 16.12.2019
2566 Clouds 29 1009 83 10000 2.16 291 23:41 15.12.2019
2567 Clouds 28 1009 83 10000 1.31 335 23:22 15.12.2019
2568 Clouds 27 1008 88 10000 0.5 280 22:57 15.12.2019
2569 Clouds 26 1008 94 10000 1 280 22:38 15.12.2019
2570 Clouds 26 1008 94 10000 1 280 22:19 15.12.2019
2571 Clouds 26 1007 94 10000 1.5 270 21:58 15.12.2019
2572 Clouds 26 1007 94 10000 1 280 21:38 15.12.2019
2573 Clouds 26 1007 94 10000 1 280 21:20 15.12.2019
2574 Clouds 27 1007 88 10000 2.6 270 20:58 15.12.2019
2575 Clouds 27 1006 94 10000 1.5 270 20:39 15.12.2019
2576 Clouds 26 1006 94 10000 1.5 270 20:21 15.12.2019
2577 Clouds 26 1006 94 10000 1.5 260 19:58 15.12.2019
2578 Clouds 27 1006 88 10000 1.5 250 19:40 15.12.2019
2579 Clouds 27 1006 88 10000 1.5 250 19:20 15.12.2019
2580 Clouds 27 1006 83 10000 1.5 260 18:57 15.12.2019
2581 Clouds 27 1006 83 10000 2.1 270 18:39 15.12.2019
2582 Clouds 27 1006 88 10000 1.5 260 18:19 15.12.2019
2583 Clouds 27 1006 88 10000 1.5 260 18:19 15.12.2019
2584 Clouds 27 1006 88 10000 1.5 260 17:56 15.12.2019
2585 Clouds 27 1006 88 10000 1.5 260 17:56 15.12.2019
2586 Clouds 27 1006 88 10000 2.1 250 17:38 15.12.2019
2587 Rain 27 1007 88 10000 2.1 250 17:19 15.12.2019
2588 Rain 27 1007 88 10000 2.1 250 16:57 15.12.2019
2589 Clouds 27 1007 88 10000 1.5 250 16:39 15.12.2019
2590 Rain 27 1007 88 10000 1.5 250 16:20 15.12.2019
2591 Clouds 27 1007 88 10000 1.5 290 15:55 15.12.2019
2592 Clouds 27 1007 83 10000 1.5 240 15:37 15.12.2019
2593 Clouds 27 1007 83 10000 1.5 240 15:18 15.12.2019
2594 Clouds 28 1007 79 10000 2.1 240 14:55 15.12.2019
2595 Rain 28 1007 74 10000 2.1 240 14:37 15.12.2019
2596 Rain 28 1007 74 10000 2.1 240 14:37 15.12.2019
2597 Clouds 28 1007 74 10000 2.1 240 14:18 15.12.2019
2598 Clouds 28 1007 74 10000 2.6 260 13:58 15.12.2019
2599 Clouds 28 1007 79 10000 2.6 250 13:37 15.12.2019
2600 Rain 28 1007 79 10000 2.6 250 13:37 15.12.2019
2601 Rain 29 1007 79 10000 2.6 250 13:19 15.12.2019
2602 Rain 29 1007 79 10000 2.6 250 13:19 15.12.2019
2603 Clouds 29 1007 79 10000 2.6 220 12:56 15.12.2019
2604 Clouds 29 1008 83 10000 3.6 240 12:38 15.12.2019
2605 Clouds 29 1008 83 10000 3.6 240 12:20 15.12.2019
2606 Clouds 30 1007 79 10000 3.1 250 11:55 15.12.2019
2607 Clouds 30 1007 70 10000 3.6 260 11:36 15.12.2019
2608 Clouds 30 1006 70 10000 3.6 290 11:18 15.12.2019
2609 Clouds 30 1006 70 10000 3.6 290 10:54 15.12.2019
2610 Clouds 30 1006 70 10000 4.1 270 10:36 15.12.2019
2611 Clouds 31 1006 70 10000 4.1 270 10:18 15.12.2019
2612 Clouds 31 1006 66 10000 2.6 280 09:39 15.12.2019
2613 Clouds 31 1006 66 10000 2.6 280 09:20 15.12.2019
2614 Clouds 31 1005 66 10000 2.1 270 08:58 15.12.2019
2615 Clouds 30 1006 62 10000 3.6 240 08:39 15.12.2019
2616 Clouds 31 1006 62 10000 3.6 240 08:20 15.12.2019
2617 Clouds 31 1006 62 10000 5.7 260 07:56 15.12.2019
2618 Clouds 32 1006 62 10000 4.6 310 07:34 15.12.2019
2619 Rain 30 1008 62 10000 1.5 290 06:44 15.12.2019
2620 Clouds 33 1008 59 10000 5.1 310 06:19 15.12.2019
2621 Clouds 33 1007 52 10000 5.1 310 05:25 15.12.2019
2622 Clouds 33 1008 59 10000 4.6 300 04:47 15.12.2019
2623 Clouds 32 1009 70 10000 2.6 300 03:22 15.12.2019
2624 Rain 31 1009 74 10000 2.6 330 02:33 15.12.2019
2625 Rain 30 1009 70 10000 4.1 300 01:46 15.12.2019
2626 Rain 31 1009 66 10000 3.6 260 01:28 15.12.2019
2627 Clouds 31 1009 70 10000 3.1 290 00:54 15.12.2019
2628 Clouds 31 1009 70 10000 2.6 190 00:35 15.12.2019
2629 Clouds 30 1009 79 10000 2.6 210 23:58 14.12.2019
2630 Clouds 30 1008 79 10000 1.5 210 23:39 14.12.2019
2631 Clouds 29 1008 88 10000 0.5 250 23:19 14.12.2019
2632 Clouds 28 1008 88 10000 0.5 250 22:57 14.12.2019
2633 Clouds 28 1008 88 10000 1 240 22:39 14.12.2019
2634 Clouds 28 1008 88 10000 1 240 22:20 14.12.2019
2635 Clouds 27 1007 88 10000 0.5 240 21:55 14.12.2019
2636 Clouds 28 1007 88 10000 2.1 240 21:37 14.12.2019
2637 Clouds 28 1007 88 10000 2.1 240 21:18 14.12.2019
2638 Clouds 28 1007 88 10000 1 240 20:55 14.12.2019
2639 Clouds 28 1007 88 10000 1 240 20:55 14.12.2019
2640 Clouds 28 1007 83 10000 2.1 250 20:37 14.12.2019
2641 Clouds 28 1007 83 10000 2.1 250 20:19 14.12.2019
2642 Clouds 28 1007 83 10000 2.6 270 19:40 14.12.2019
2643 Clouds 28 1007 83 10000 2.6 270 19:40 14.12.2019
2644 Clouds 28 1007 83 10000 2.6 270 19:21 14.12.2019
2645 Clouds 28 1007 79 10000 3.1 270 18:59 14.12.2019
2646 Clouds 28 1007 83 10000 3.1 260 18:40 14.12.2019
2647 Clouds 28 1007 83 10000 3.1 260 18:22 14.12.2019
2648 Clouds 28 1007 83 10000 2.6 270 17:59 14.12.2019
2649 Clouds 28 1007 79 10000 2.6 280 17:41 14.12.2019
2650 Clouds 28 1007 79 10000 2.6 280 17:22 14.12.2019
2651 Clouds 28 1008 83 10000 2.6 300 16:42 14.12.2019
2652 Clouds 28 1008 83 10000 2.6 300 16:20 14.12.2019
2653 Clouds 28 1008 83 10000 2.6 300 15:58 14.12.2019
2654 Clouds 28 1008 79 10000 3.1 300 15:39 14.12.2019
2655 Clouds 28 1008 79 10000 3.1 300 15:20 14.12.2019
2656 Clouds 28 1009 83 10000 3.1 290 14:57 14.12.2019
2657 Clouds 29 1008 79 10000 3.6 290 14:38 14.12.2019
2658 Clouds 28 1008 79 10000 3.6 290 14:19 14.12.2019
2659 Clouds 28 1008 79 10000 4.1 300 13:45 14.12.2019
2660 Clouds 28 1008 79 10000 4.1 300 13:20 14.12.2019
2661 Clouds 28 1008 83 10000 4.1 300 12:58 14.12.2019
2662 Clouds 29 1008 83 10000 4.1 310 12:40 14.12.2019
2663 Clouds 28 1008 83 10000 4.1 310 12:21 14.12.2019
2664 Clouds 28 1008 83 10000 3.6 300 11:58 14.12.2019
2665 Clouds 29 1008 79 10000 2.6 310 11:39 14.12.2019
2666 Rain 29 1008 79 10000 2.6 330 11:19 14.12.2019
2667 Rain 29 1008 79 10000 2.6 330 10:57 14.12.2019
2668 Clouds 29 1007 79 10000 3.1 330 10:39 14.12.2019
2669 Clouds 29 1007 79 10000 3.1 330 10:21 14.12.2019
2670 Rain 29 1007 74 10000 3.6 340 09:57 14.12.2019
2671 Clouds 29 1007 74 10000 5.1 330 09:38 14.12.2019
2672 Clouds 29 1007 74 10000 5.1 330 09:18 14.12.2019
2673 Clouds 29 1007 78 10000 2.1 330 08:43 14.12.2019
2674 Clouds 28 1007 78 10000 2.1 330 08:20 14.12.2019
2675 Clouds 28 1007 88 10000 0.5 240 07:44 14.12.2019
2676 Clouds 27 1007 88 10000 0.5 240 07:23 14.12.2019
2677 Clouds 27 1008 88 10000 2.6 260 06:57 14.12.2019
2678 Clouds 27 1008 83 10000 3.6 280 06:37 14.12.2019
2679 Rain 26 1009 83 10000 4.6 270 05:59 14.12.2019
2680 Thunderstorm 24 1009 94 10000 5.7 320 04:48 14.12.2019
2681 Clouds 34 1010 56 10000 4.1 270 02:35 14.12.2019
2682 Clouds 33 1010 66 10000 3.1 260 01:56 14.12.2019
2683 Clouds 32 1010 66 10000 3.6 270 01:37 14.12.2019
2684 Clouds 31 1010 70 10000 3.6 300 00:49 14.12.2019
2685 Clouds 31 1010 70 10000 3.6 300 00:28 14.12.2019
2686 Clouds 30 1010 70 10000 2.1 290 23:57 13.12.2019
2687 Clouds 29 1010 70 10000 1 330 23:37 13.12.2019
2688 Clouds 28 1010 70 10000 1 330 23:18 13.12.2019
2689 Clouds 26 1009 74 10000 1.76 306 22:41 13.12.2019
2690 Clouds 25 1009 74 10000 1.76 306 22:19 13.12.2019
2691 Clouds 25 1009 78 10000 1 360 21:56 13.12.2019
2692 Clouds 25 1009 74 10000 1 10 21:38 13.12.2019
2693 Clouds 25 1009 74 10000 1 10 21:20 13.12.2019
2694 Clouds 25 1008 69 10000 3.1 50 20:42 13.12.2019
2695 Rain 25 1008 69 10000 3.1 50 20:23 13.12.2019
2696 Clouds 25 1008 69 10000 3.1 50 19:59 13.12.2019
2697 Clouds 25 1009 74 10000 3.1 60 19:41 13.12.2019
2698 Clouds 25 1009 74 10000 3.1 60 19:22 13.12.2019
2699 Clouds 24 1009 74 10000 4.1 100 18:59 13.12.2019
2700 Clouds 25 1009 78 10000 2.6 80 18:40 13.12.2019
2701 Clouds 24 1009 78 10000 2.6 80 18:19 13.12.2019
2702 Clouds 25 1009 78 10000 2.6 80 17:55 13.12.2019
2703 Clouds 25 1010 78 10000 3.6 120 17:37 13.12.2019
2704 Clouds 25 1010 78 10000 3.6 120 17:18 13.12.2019
2705 Clouds 25 1010 78 10000 3.6 120 17:18 13.12.2019
2706 Clouds 26 1010 83 10000 3.1 140 16:54 13.12.2019
2707 Clouds 26 1010 78 10000 3.6 150 16:36 13.12.2019
2708 Clouds 26 1010 78 10000 3.6 150 16:18 13.12.2019
2709 Clouds 25 1010 74 10000 1 130 15:38 13.12.2019
2710 Clouds 26 1010 74 10000 1 130 15:20 13.12.2019
2711 Clouds 26 1011 74 10000 2.1 110 14:41 13.12.2019
2712 Rain 26 1011 74 10000 2.1 110 14:21 13.12.2019
2713 Rain 26 1010 69 10000 1 30 13:58 13.12.2019
2714 Rain 26 1010 69 10000 1.5 150 13:40 13.12.2019
2715 Rain 26 1010 69 10000 1.5 150 13:21 13.12.2019
2716 Rain 27 1008 54 10000 2.1 340 12:44 13.12.2019
2717 Rain 27 1008 54 10000 2.1 340 12:44 13.12.2019
2718 Rain 27 1008 54 10000 2.1 340 12:23 13.12.2019
2719 Rain 27 1007 54 10000 1 30 11:59 13.12.2019
2720 Clouds 27 1008 54 10000 1.5 240 11:41 13.12.2019
2721 Clouds 28 1008 54 10000 1.5 240 11:23 13.12.2019
2722 Clouds 28 1007 58 10000 2.1 270 10:56 13.12.2019
2723 Clouds 28 1007 61 10000 4.6 190 10:38 13.12.2019
2724 Thunderstorm 27 1007 61 10000 7.2 300 10:19 13.12.2019
2725 Thunderstorm 26 1008 69 10000 7.2 160 09:41 13.12.2019
2726 Thunderstorm 30 1007 66 10000 7.7 290 09:20 13.12.2019
2727 Clouds 32 1005 59 10000 7.2 300 08:44 13.12.2019
2728 Clouds 34 1005 59 10000 7.2 300 08:25 13.12.2019
2729 Clouds 34 1006 50 10000 8.7 290 07:48 13.12.2019
2730 Clouds 35 1006 50 10000 7.7 300 07:24 13.12.2019
2731 Clouds 34 1007 56 10000 7.7 310 06:55 13.12.2019
2732 Clouds 35 1007 53 10000 7.2 300 06:29 13.12.2019
2733 Clouds 35 1007 47 10000 6.2 300 05:51 13.12.2019
2734 Clouds 35 1008 47 10000 5.7 300 05:30 13.12.2019
2735 Clear 35 1008 44 10000 5.1 310 04:48 13.12.2019
2736 Clouds 35 1009 52 10000 5.7 310 03:49 13.12.2019
2737 Clouds 34 1010 56 10000 4.1 320 02:35 13.12.2019
2738 Clouds 34 1010 59 10000 4.1 290 01:50 13.12.2019
2739 Clouds 33 1010 66 10000 4.6 300 01:21 13.12.2019
2740 Clouds 33 1009 66 10000 4.6 310 00:46 13.12.2019
2741 Clouds 32 1009 66 10000 4.6 310 00:24 13.12.2019
2742 Clouds 29 1009 79 10000 0.5 350 23:41 12.12.2019
2743 Clouds 28 1009 79 10000 0.5 350 23:22 12.12.2019
2744 Clouds 27 1009 83 10000 1.5 80 22:56 12.12.2019
2745 Clouds 26 1008 83 10000 1.5 360 22:38 12.12.2019
2746 Clouds 25 1008 83 10000 1.5 360 22:19 12.12.2019
2747 Clouds 26 1008 83 10000 1.5 50 21:55 12.12.2019
2748 Clouds 26 1009 83 10000 3.1 70 21:37 12.12.2019
2749 Clouds 25 1009 83 10000 3.1 70 21:19 12.12.2019
2750 Clouds 26 1008 83 10000 1.5 90 20:58 12.12.2019
2751 Rain 27 1008 74 10000 2.6 360 20:39 12.12.2019
2752 Clouds 27 1008 74 10000 2.6 360 20:21 12.12.2019
2753 Clouds 26 1008 83 10000 1.5 70 19:55 12.12.2019
2754 Clouds 26 1008 74 10000 0.5 130 19:37 12.12.2019
2755 Clouds 27 1008 74 10000 0.5 130 19:18 12.12.2019
2756 Clouds 27 1008 74 10000 1 130 18:55 12.12.2019
2757 Clouds 27 1008 74 10000 1 296 18:36 12.12.2019
2758 Clouds 27 1008 74 10000 1 296 18:18 12.12.2019
2759 Clouds 27 1008 74 10000 1 296 17:55 12.12.2019
2760 Clouds 27 1008 74 10000 1 296 17:37 12.12.2019
2761 Clear 27 1008 74 10000 2.11 292 17:19 12.12.2019
2762 Clear 28 1009 70 10000 0.5 190 16:54 12.12.2019
2763 Clear 28 1009 70 10000 1.5 180 16:36 12.12.2019
2764 Clear 28 1009 70 10000 1.5 180 16:18 12.12.2019
2765 Thunderstorm 29 1010 79 10000 3.1 230 15:42 12.12.2019
2766 Thunderstorm 29 1010 79 10000 3.1 230 15:19 12.12.2019
2767 Thunderstorm 30 1010 70 10000 3.1 230 14:57 12.12.2019
2768 Clouds 30 1010 70 10000 3.6 270 14:37 12.12.2019
2769 Clouds 30 1010 70 10000 3.6 270 14:19 12.12.2019
2770 Clouds 30 1009 70 10000 2.6 250 13:55 12.12.2019
2771 Clouds 30 1008 70 10000 2.6 270 13:37 12.12.2019
2772 Clouds 30 1008 70 10000 2.6 270 13:18 12.12.2019
2773 Clouds 30 1008 70 10000 3.6 270 12:55 12.12.2019
2774 Clouds 30 1008 70 10000 3.6 250 12:37 12.12.2019
2775 Clouds 30 1007 70 10000 4.1 260 12:18 12.12.2019
2776 Clouds 30 1007 66 10000 4.6 270 11:40 12.12.2019
2777 Clouds 30 1007 66 10000 4.6 270 11:22 12.12.2019
2778 Clouds 31 1006 62 10000 5.1 270 10:59 12.12.2019
2779 Clouds 31 1005 62 10000 5.7 290 10:41 12.12.2019
2780 Clouds 31 1005 62 10000 5.7 290 10:23 12.12.2019
2781 Clouds 33 1005 59 10000 6.7 290 09:58 12.12.2019
2782 Clouds 33 1005 56 10000 6.7 300 09:40 12.12.2019
2783 Clouds 33 1005 56 10000 6.7 300 09:21 12.12.2019
2784 Clouds 34 1005 49 10000 5.1 310 08:54 12.12.2019
2785 Rain 33 1005 34 10000 3.6 310 08:36 12.12.2019
2786 Rain 33 1005 34 10000 3.6 310 08:18 12.12.2019
2787 Thunderstorm 32 1005 56 10000 6.2 290 07:41 12.12.2019
2788 Thunderstorm 32 1005 56 10000 6.2 290 07:21 12.12.2019
2789 Rain 32 1006 59 10000 6.7 300 06:43 12.12.2019
2790 Rain 32 1006 59 10000 6.7 300 06:23 12.12.2019
2791 Rain 35 1007 53 10000 4.1 310 05:35 12.12.2019
2792 Clouds 36 1007 53 10000 6.2 310 04:49 12.12.2019
2793 Clouds 34 1009 62 10000 3.6 310 02:44 12.12.2019
2794 Clouds 34 1009 62 10000 3.6 310 02:26 12.12.2019
2795 Clouds 33 1009 66 10000 3.6 280 01:59 12.12.2019
2796 Clouds 33 1009 62 10000 2.6 280 01:36 12.12.2019
2797 Clouds 32 1009 70 10000 3.1 280 00:58 12.12.2019
2798 Clouds 32 1009 70 10000 3.6 280 00:38 12.12.2019
2799 Clouds 31 1009 70 10000 3.6 280 00:18 12.12.2019
2800 Clouds 29 1008 83 10000 1.5 360 23:40 11.12.2019
2801 Clouds 28 1008 83 10000 1.5 360 23:20 11.12.2019
2802 Clouds 27 1008 83 10000 1 70 22:57 11.12.2019
2803 Clouds 26 1008 88 10000 2.1 80 22:38 11.12.2019
2804 Clouds 26 1008 88 10000 2.1 80 22:19 11.12.2019
2805 Clouds 26 1008 94 10000 1.5 360 21:56 11.12.2019
2806 Clouds 26 1008 88 10000 1 350 21:37 11.12.2019
2807 Clouds 27 1007 88 10000 1.83 306 21:19 11.12.2019
2808 Clouds 27 1007 88 10000 1.83 306 20:55 11.12.2019
2809 Rain 27 1007 88 10000 1 350 20:37 11.12.2019
2810 Clouds 27 1007 88 10000 1 350 20:18 11.12.2019
2811 Clouds 28 1007 83 10000 2.1 350 19:55 11.12.2019
2812 Clouds 28 1007 83 10000 2.1 330 19:36 11.12.2019
2813 Clouds 28 1007 83 10000 2.1 330 19:18 11.12.2019
2814 Clouds 28 1007 79 10000 2.6 320 18:40 11.12.2019
2815 Clouds 28 1007 79 10000 2.6 320 18:21 11.12.2019
2816 Clouds 28 1007 79 10000 3.6 320 17:57 11.12.2019
2817 Clouds 29 1007 79 10000 3.6 320 17:38 11.12.2019
2818 Clouds 29 1007 79 10000 3.6 320 17:18 11.12.2019
2819 Clouds 29 1007 79 10000 4.1 320 16:56 11.12.2019
2820 Clouds 29 1007 79 10000 4.1 320 16:56 11.12.2019
2821 Clouds 29 1008 79 10000 4.1 310 16:38 11.12.2019
2822 Clouds 29 1008 79 10000 4.1 310 16:19 11.12.2019
2823 Clouds 29 1008 79 10000 4.6 310 15:58 11.12.2019
2824 Clouds 29 1008 74 10000 3.6 320 15:38 11.12.2019
2825 Clouds 29 1008 74 10000 3.6 320 15:20 11.12.2019
2826 Clouds 29 1008 79 10000 4.1 320 14:56 11.12.2019
2827 Clouds 29 1007 74 10000 4.1 300 14:37 11.12.2019
2828 Clouds 29 1007 74 10000 4.1 300 14:37 11.12.2019
2829 Clouds 29 1007 74 10000 4.1 300 14:19 11.12.2019
2830 Clouds 29 1007 70 10000 3.6 280 13:54 11.12.2019
2831 Clouds 29 1007 70 10000 3.1 280 13:36 11.12.2019
2832 Clear 29 1007 70 10000 3.1 280 13:18 11.12.2019
2833 Clear 29 1007 70 10000 5.1 310 12:54 11.12.2019
2834 Clouds 29 1007 66 10000 3.6 280 12:36 11.12.2019
2835 Clouds 29 1007 66 10000 3.6 280 12:36 11.12.2019
2836 Clouds 29 1007 66 10000 3.6 280 12:18 11.12.2019
2837 Clouds 29 1006 62 10000 3.6 280 11:54 11.12.2019
2838 Clouds 29 1006 62 10000 3.1 270 11:36 11.12.2019
2839 Clouds 28 1006 62 10000 3.1 270 11:18 11.12.2019
2840 Clouds 28 1006 62 10000 3.6 270 10:41 11.12.2019
2841 Clouds 29 1006 62 10000 3.6 270 10:23 11.12.2019
2842 Clouds 29 1006 58 10000 2.1 310 09:58 11.12.2019
2843 Clouds 29 1006 62 10000 1.5 250 09:38 11.12.2019
2844 Clouds 29 1006 62 10000 1.5 250 09:20 11.12.2019
2845 Clouds 28 1006 70 10000 1.5 10 08:56 11.12.2019
2846 Rain 28 1005 70 10000 4.1 310 08:37 11.12.2019
2847 Rain 28 1005 70 10000 4.1 310 08:18 11.12.2019
2848 Thunderstorm 27 1006 74 8000 5.7 40 07:44 11.12.2019
2849 Thunderstorm 27 1006 74 8000 5.7 40 07:25 11.12.2019
2850 Clouds 33 1006 44 10000 7.2 300 06:46 11.12.2019
2851 Clouds 34 1006 44 10000 7.2 300 06:25 11.12.2019
2852 Clouds 35 1007 44 10000 6.7 310 05:56 11.12.2019
2853 Clouds 35 1007 47 10000 6.7 300 05:36 11.12.2019
2854 Clouds 35 1008 49 10000 6.2 310 04:55 11.12.2019
2855 Clouds 35 1009 52 10000 5.1 300 03:41 11.12.2019
2856 Clouds 33 1010 62 10000 3.6 300 02:39 11.12.2019
2857 Clouds 32 1009 66 10000 3.6 310 01:22 11.12.2019
2858 Clouds 31 1009 66 10000 3.6 310 00:45 11.12.2019
2859 Clouds 31 1009 70 10000 2.1 10 00:21 11.12.2019
2860 Clouds 30 1009 74 10000 3.1 60 23:46 10.12.2019
2861 Clouds 28 1009 74 10000 1.5 30 23:27 10.12.2019
2862 Clouds 26 1009 78 10000 2.6 70 22:57 10.12.2019
2863 Clouds 25 1009 83 10000 1.5 100 22:39 10.12.2019
2864 Clouds 24 1009 83 10000 1.5 100 22:21 10.12.2019
2865 Clouds 25 1008 78 10000 1 160 21:55 10.12.2019
2866 Clouds 25 1008 78 10000 1.5 120 21:37 10.12.2019
2867 Clouds 25 1008 78 10000 1.5 120 21:18 10.12.2019
2868 Clouds 25 1008 78 10000 1.5 120 20:56 10.12.2019
2869 Clouds 25 1008 78 10000 1.5 90 20:37 10.12.2019
2870 Clouds 25 1008 78 10000 1.5 90 20:18 10.12.2019
2871 Clouds 25 1008 78 10000 1 80 19:54 10.12.2019
2872 Clouds 25 1008 78 10000 2.6 110 19:36 10.12.2019
2873 Clouds 25 1008 78 10000 2.6 110 19:18 10.12.2019
2874 Clouds 25 1007 78 10000 2.6 170 18:39 10.12.2019
2875 Clouds 25 1007 78 10000 2.6 170 18:20 10.12.2019
2876 Clouds 26 1008 74 10000 1.5 140 17:57 10.12.2019
2877 Clouds 26 1008 74 10000 1.5 130 17:39 10.12.2019
2878 Clouds 26 1008 74 10000 1.5 130 17:19 10.12.2019
2879 Clouds 26 1008 74 10000 2.6 50 16:43 10.12.2019
2880 Clouds 26 1008 74 10000 2.6 50 16:20 10.12.2019
2881 Clouds 26 1009 74 10000 3.1 40 15:58 10.12.2019
2882 Clouds 26 1009 74 9000 5.7 40 15:37 10.12.2019
2883 Clouds 26 1009 74 9000 5.7 40 15:18 10.12.2019
2884 Clouds 26 1009 74 9000 5.7 40 15:18 10.12.2019
2885 Clouds 26 1009 74 9000 5.7 40 15:18 10.12.2019
2886 Clouds 27 1009 74 9000 1.5 230 14:55 10.12.2019
2887 Clouds 26 1008 74 8000 1.08 306 14:37 10.12.2019
2888 Rain 27 1008 74 8000 3.61 276 14:19 10.12.2019
2889 Rain 27 1008 74 6000 2.6 240 13:56 10.12.2019
2890 Rain 27 1008 74 6000 4.1 230 13:37 10.12.2019
2891 Rain 27 1008 74 6000 4.1 230 13:18 10.12.2019
2892 Rain 27 1008 65 10000 4.1 210 12:40 10.12.2019
2893 Rain 27 1008 65 10000 4.1 210 12:22 10.12.2019
2894 Rain 28 1007 62 10000 5.1 200 11:42 10.12.2019
2895 Rain 29 1007 62 10000 5.1 200 11:24 10.12.2019
2896 Rain 30 1007 62 10000 3.6 270 10:57 10.12.2019
2897 Rain 31 1006 58 10000 4.1 280 10:38 10.12.2019
2898 Rain 31 1006 58 10000 4.1 280 10:38 10.12.2019
2899 Rain 31 1006 58 10000 4.1 280 10:20 10.12.2019
2900 Clouds 30 1006 55 10000 3.6 270 09:56 10.12.2019
2901 Clouds 30 1006 55 10000 3.6 270 09:56 10.12.2019
2902 Clouds 30 1006 55 10000 3.6 270 09:56 10.12.2019
2903 Clouds 30 1005 54 10000 4.1 230 09:38 10.12.2019
2904 Clouds 30 1005 54 10000 4.1 230 09:38 10.12.2019
2905 Clouds 30 1005 54 10000 4.1 230 09:19 10.12.2019
2906 Clouds 29 1006 61 10000 8.2 210 08:55 10.12.2019
2907 Rain 31 1006 52 10000 6.2 290 08:36 10.12.2019
2908 Rain 31 1006 52 10000 6.2 290 08:36 10.12.2019
2909 Rain 32 1006 52 10000 6.2 290 08:18 10.12.2019
2910 Thunderstorm 32 1006 49 10000 6.2 310 07:44 10.12.2019
2911 Thunderstorm 32 1006 49 10000 6.2 310 07:44 10.12.2019
2912 Thunderstorm 32 1006 49 10000 6.2 310 07:44 10.12.2019
2913 Thunderstorm 33 1006 49 10000 6.2 310 07:25 10.12.2019
2914 Rain 33 1006 44 10000 5.7 320 06:47 10.12.2019
2915 Clouds 35 1007 47 10000 5.1 320 06:21 10.12.2019
2916 Clouds 35 1007 47 10000 5.1 320 05:55 10.12.2019
2917 Clouds 35 1008 47 10000 4.1 330 04:56 10.12.2019
2918 Clouds 35 1009 46 10000 3.1 350 03:39 10.12.2019
2919 Clouds 34 1009 49 10000 2.6 330 02:46 10.12.2019
2920 Clouds 33 1010 49 10000 3.1 340 01:45 10.12.2019
2921 Clouds 32 1010 49 10000 2.6 360 01:24 10.12.2019
2922 Clouds 31 1011 52 10000 3.1 30 00:42 10.12.2019
2923 Clouds 31 1011 52 10000 3.1 30 00:22 10.12.2019
2924 Clouds 30 1010 62 10000 1 20 23:42 09.12.2019
2925 Clouds 29 1010 62 10000 1 20 23:24 09.12.2019
2926 Clouds 28 1010 66 10000 2.1 30 22:58 09.12.2019
2927 Clouds 28 1009 70 10000 3.1 50 22:40 09.12.2019
2928 Clouds 28 1009 70 10000 3.1 50 22:20 09.12.2019
2929 Clouds 27 1009 83 10000 1.5 60 21:57 09.12.2019
2930 Clouds 27 1009 83 10000 1 70 21:39 09.12.2019
2931 Clouds 27 1009 83 10000 1 70 21:39 09.12.2019
2932 Clouds 27 1009 83 10000 1 70 21:19 09.12.2019
2933 Clouds 28 1008 79 10000 1 70 20:57 09.12.2019
2934 Clouds 28 1009 79 10000 1.5 70 20:39 09.12.2019
2935 Clouds 28 1009 79 10000 1.5 70 20:20 09.12.2019
2936 Clouds 27 1008 83 10000 1.5 60 19:56 09.12.2019
2937 Clouds 28 1008 79 10000 0.5 260 19:38 09.12.2019
2938 Clouds 28 1008 79 10000 0.5 260 19:19 09.12.2019
2939 Rain 28 1008 79 10000 1.5 280 18:58 09.12.2019
2940 Rain 28 1008 74 10000 2.1 270 18:39 09.12.2019
2941 Rain 29 1008 74 10000 2.1 270 18:20 09.12.2019
2942 Rain 29 1008 74 10000 2.1 280 17:58 09.12.2019
2943 Rain 29 1008 74 10000 3.1 270 17:40 09.12.2019
2944 Rain 29 1008 74 10000 3.1 270 17:21 09.12.2019
2945 Rain 29 1008 74 10000 2.6 270 16:56 09.12.2019
2946 Rain 29 1008 74 10000 2.6 270 16:56 09.12.2019
2947 Rain 29 1009 74 10000 3.1 270 16:38 09.12.2019
2948 Rain 29 1009 74 10000 3.1 270 16:20 09.12.2019
2949 Rain 29 1009 74 10000 3.1 270 15:56 09.12.2019
2950 Rain 29 1009 74 10000 3.6 280 15:37 09.12.2019
2951 Rain 29 1009 74 10000 3.6 280 15:19 09.12.2019
2952 Clouds 29 1009 66 10000 4.1 280 14:59 09.12.2019
2953 Clouds 29 1009 70 10000 4.1 280 14:40 09.12.2019
2954 Clouds 29 1009 70 10000 4.1 280 14:18 09.12.2019
2955 Clouds 29 1009 70 10000 4.1 280 13:55 09.12.2019
2956 Clouds 30 1008 70 10000 4.6 280 13:36 09.12.2019
2957 Clouds 30 1008 70 10000 4.6 280 13:18 09.12.2019
2958 Clouds 30 1008 70 10000 4.6 280 12:54 09.12.2019
2959 Clouds 30 1008 66 10000 4.1 280 12:36 09.12.2019
2960 Clouds 30 1008 66 10000 4.1 280 12:18 09.12.2019
2961 Clouds 30 1007 66 10000 4.1 290 11:40 09.12.2019
2962 Clouds 31 1007 66 10000 4.1 290 11:22 09.12.2019
2963 Clouds 31 1007 62 10000 3.1 280 10:59 09.12.2019
2964 Clouds 30 1006 55 10000 3.1 280 10:39 09.12.2019
2965 Clouds 32 1006 55 10000 3.1 280 10:19 09.12.2019
2966 Clouds 31 1007 55 10000 1.5 230 09:44 09.12.2019
2967 Clouds 31 1007 55 10000 1.5 230 09:25 09.12.2019
2968 Clouds 30 1007 55 10000 1 220 08:57 09.12.2019
2969 Rain 32 1007 52 10000 4.6 300 08:39 09.12.2019
2970 Rain 33 1007 52 10000 4.6 300 08:20 09.12.2019
2971 Clouds 33 1007 43 10000 4.6 300 07:52 09.12.2019
2972 Thunderstorm 32 1007 46 10000 2.1 340 07:33 09.12.2019
2973 Thunderstorm 32 1007 46 10000 2.1 340 07:33 09.12.2019
2974 Thunderstorm 34 1007 52 10000 6.2 310 06:58 09.12.2019
2975 Rain 35 1007 41 10000 6.2 310 06:31 09.12.2019
2976 Rain 37 1008 34 10000 5.1 310 05:48 09.12.2019
2977 Clouds 37 1008 37 10000 3.6 310 05:23 09.12.2019
2978 Clouds 36 1009 56 10000 3.6 290 04:28 09.12.2019
2979 Clouds 34 1010 63 10000 2.1 340 02:29 09.12.2019
2980 Clouds 33 1011 66 10000 6.2 310 01:47 09.12.2019
2981 Clouds 33 1011 63 10000 6.2 310 00:58 09.12.2019
2982 Clouds 32 1010 66 10000 0.5 100 00:33 09.12.2019
2983 Clouds 29 1010 74 10000 1.5 90 23:57 08.12.2019
2984 Clouds 29 1010 74 10000 1 100 23:37 08.12.2019
2985 Clouds 28 1010 74 10000 1 100 23:19 08.12.2019
2986 Clouds 28 1009 69 10000 1.5 130 22:56 08.12.2019
2987 Clouds 27 1009 74 10000 1.17 357 22:38 08.12.2019
2988 Clouds 28 1009 74 10000 1.17 357 22:18 08.12.2019
2989 Clouds 27 1009 69 10000 0.5 360 21:56 08.12.2019
2990 Clouds 27 1008 66 10000 1.17 357 21:37 08.12.2019
2991 Clouds 27 1008 66 10000 1.17 357 21:19 08.12.2019
2992 Clouds 27 1008 62 10000 1 310 20:56 08.12.2019
2993 Clouds 28 1008 66 10000 2.1 240 20:37 08.12.2019
2994 Rain 28 1008 66 10000 2.1 240 20:19 08.12.2019
2995 Rain 28 1008 66 10000 2.1 270 19:55 08.12.2019
2996 Rain 28 1008 62 10000 2.6 260 19:37 08.12.2019
2997 Rain 28 1008 62 10000 2.6 260 19:19 08.12.2019
2998 Rain 28 1008 62 10000 2.1 260 18:55 08.12.2019
2999 Rain 28 1009 65 10000 2.1 240 18:36 08.12.2019
3000 Rain 27 1009 65 10000 2.1 240 18:36 08.12.2019
3001 Rain 27 1009 65 10000 2.1 240 18:18 08.12.2019
3002 Rain 27 1009 69 10000 1 200 17:55 08.12.2019
3003 Rain 28 1010 69 10000 1.5 190 17:37 08.12.2019
3004 Clear 27 1010 69 10000 1.5 190 17:19 08.12.2019
3005 Clouds 27 1011 69 10000 4.1 190 16:55 08.12.2019
3006 Clear 27 1011 74 10000 3.6 170 16:37 08.12.2019
3007 Clear 27 1011 74 10000 3.6 170 16:18 08.12.2019
3008 Clouds 28 1011 69 10000 3.1 180 15:38 08.12.2019
3009 Clouds 28 1011 69 10000 3.1 180 15:19 08.12.2019
3010 Clouds 28 1011 69 10000 3.1 180 15:19 08.12.2019
3011 Clouds 29 1011 62 10000 2.6 220 14:58 08.12.2019
3012 Clouds 28 1011 65 10000 3.6 210 14:39 08.12.2019
3013 Clouds 28 1011 65 10000 3.6 210 14:21 08.12.2019
3014 Clouds 29 1010 70 10000 2.1 220 13:54 08.12.2019
3015 Clouds 29 1010 70 10000 3.6 240 13:36 08.12.2019
3016 Clouds 29 1010 70 10000 3.6 240 13:18 08.12.2019
3017 Clouds 30 1009 74 10000 4.1 290 12:42 08.12.2019
3018 Clouds 30 1009 74 10000 4.1 290 12:23 08.12.2019
3019 Clouds 30 1009 74 10000 4.1 300 12:00 08.12.2019
3020 Clouds 30 1009 70 10000 4.6 270 11:38 08.12.2019
3021 Clouds 30 1009 70 10000 4.6 270 11:19 08.12.2019
3022 Clouds 30 1008 70 10000 5.7 290 10:58 08.12.2019
3023 Clouds 31 1008 66 10000 6.7 300 10:38 08.12.2019
3024 Clouds 31 1008 66 10000 6.7 300 10:19 08.12.2019
3025 Rain 32 1007 66 10000 6.2 290 09:56 08.12.2019
3026 Thunderstorm 33 1007 59 10000 5.7 290 09:37 08.12.2019
3027 Thunderstorm 32 1007 59 10000 5.7 290 09:19 08.12.2019
3028 Thunderstorm 32 1007 59 10000 5.7 290 09:19 08.12.2019
3029 Thunderstorm 33 1007 59 10000 7.2 300 08:57 08.12.2019
3030 Thunderstorm 32 1007 59 10000 7.2 300 08:57 08.12.2019
3031 Clouds 33 1007 49 10000 7.7 300 08:36 08.12.2019
3032 Clouds 34 1007 49 10000 7.7 300 08:18 08.12.2019
3033 Clouds 35 1007 52 10000 7.2 300 07:42 08.12.2019
3034 Clouds 36 1007 52 10000 7.2 300 07:19 08.12.2019
3035 Clouds 35 1007 47 10000 7.2 300 06:47 08.12.2019
3036 Clouds 35 1008 52 10000 7.2 300 06:22 08.12.2019
3037 Clear 36 1008 44 10000 6.2 300 05:35 08.12.2019
3038 Clear 36 1009 41 10000 5.1 300 04:59 08.12.2019
3039 Clouds 35 1010 47 10000 4.1 310 03:49 08.12.2019
3040 Clouds 36 1010 49 10000 3.6 300 03:21 08.12.2019
3041 Clear 36 1011 44 10000 2.6 290 02:38 08.12.2019
3042 Clouds 34 1011 46 10000 1.5 340 01:54 08.12.2019
3043 Clouds 33 1011 43 10000 2.6 360 01:19 08.12.2019
3044 Clouds 32 1010 52 10000 3.1 320 00:40 08.12.2019
3045 Clouds 32 1010 52 10000 3.1 320 00:20 08.12.2019
3046 Clouds 30 1010 69 10000 2.1 280 23:40 07.12.2019
3047 Rain 28 1010 69 10000 2.1 280 23:21 07.12.2019
3048 Clouds 26 1010 78 10000 3.1 10 22:56 07.12.2019
3049 Clouds 26 1010 78 10000 4.1 30 22:38 07.12.2019
3050 Clouds 25 1010 78 10000 4.1 30 22:20 07.12.2019
3051 Clouds 26 1010 78 10000 5.7 60 21:56 07.12.2019
3052 Clouds 27 1010 74 10000 7.7 70 21:38 07.12.2019
3053 Clouds 26 1010 74 10000 7.7 70 21:38 07.12.2019
3054 Clouds 28 1010 74 10000 7.7 70 21:19 07.12.2019
3055 Rain 29 1009 83 10000 2.1 20 20:59 07.12.2019
3056 Clouds 29 1009 83 10000 2.6 360 20:36 07.12.2019
3057 Clouds 29 1009 83 10000 2.6 360 20:18 07.12.2019
3058 Clouds 29 1009 83 10000 1.5 360 19:56 07.12.2019
3059 Clouds 29 1008 83 10000 2.6 10 19:38 07.12.2019
3060 Clouds 29 1008 83 10000 2.6 10 19:20 07.12.2019
3061 Rain 29 1008 83 10000 2.6 360 18:44 07.12.2019
3062 Clouds 29 1008 79 10000 3.6 340 18:19 07.12.2019
3063 Clouds 30 1008 79 10000 2.6 350 17:58 07.12.2019
3064 Rain 30 1008 74 10000 2.6 340 17:40 07.12.2019
3065 Clouds 30 1008 74 10000 2.6 340 17:21 07.12.2019
3066 Clouds 30 1009 74 10000 3.1 350 16:56 07.12.2019
3067 Clouds 30 1009 74 10000 3.6 340 16:38 07.12.2019
3068 Clouds 30 1009 74 10000 3.6 340 16:19 07.12.2019
3069 Clouds 30 1009 79 10000 3.1 340 15:56 07.12.2019
3070 Clouds 30 1009 74 10000 3.6 330 15:38 07.12.2019
3071 Clouds 30 1009 74 10000 3.6 330 15:18 07.12.2019
3072 Clouds 30 1009 74 10000 4.6 310 14:42 07.12.2019
3073 Clouds 30 1009 74 10000 4.6 310 14:19 07.12.2019
3074 Clouds 30 1008 70 10000 4.6 300 13:41 07.12.2019
3075 Clouds 30 1008 70 10000 4.6 300 13:21 07.12.2019
3076 Clouds 30 1008 74 10000 4.1 290 12:59 07.12.2019
3077 Clear 30 1008 70 10000 3.6 290 12:40 07.12.2019
3078 Clear 30 1008 70 10000 3.6 290 12:22 07.12.2019
3079 Clear 31 1007 70 10000 3.6 280 11:58 07.12.2019
3080 Clear 31 1007 62 10000 4.6 280 11:39 07.12.2019
3081 Clear 31 1007 62 10000 4.6 280 11:21 07.12.2019
3082 Clear 32 1006 63 10000 6.2 290 10:38 07.12.2019
3083 Clear 33 1006 63 10000 6.2 290 10:19 07.12.2019
3084 Clouds 33 1006 63 10000 6.7 290 09:56 07.12.2019
3085 Clear 34 1006 59 10000 6.7 290 09:36 07.12.2019
3086 Clear 34 1006 59 10000 6.7 290 09:18 07.12.2019
3087 Clouds 35 1006 56 10000 7.7 300 08:40 07.12.2019
3088 Clouds 35 1006 56 10000 7.7 300 08:21 07.12.2019
3089 Clouds 36 1006 50 10000 6.7 290 07:45 07.12.2019
3090 Clouds 36 1006 34 10000 7.7 310 07:26 07.12.2019
3091 Clouds 36 1007 44 10000 7.2 310 06:50 07.12.2019
3092 Clouds 37 1007 44 10000 6.7 310 06:25 07.12.2019
3093 Clouds 37 1008 44 10000 5.7 310 05:30 07.12.2019
3094 Clouds 36 1009 53 10000 3.6 310 03:59 07.12.2019
3095 Clouds 36 1009 53 10000 3.6 310 03:40 07.12.2019
3096 Clouds 34 1010 59 10000 3.1 270 02:21 07.12.2019
3097 Clouds 32 1011 66 10000 5.1 270 01:34 07.12.2019
3098 Clouds 32 1011 66 10000 5.1 270 01:34 07.12.2019
3099 Clouds 32 1011 70 10000 3.1 200 00:53 07.12.2019
3100 Clouds 31 1011 74 10000 2.6 200 00:20 07.12.2019
3101 Clouds 30 1011 79 10000 2.1 200 23:56 06.12.2019
3102 Clouds 29 1011 79 10000 1.5 190 23:36 06.12.2019
3103 Clouds 29 1011 79 10000 1.5 190 23:18 06.12.2019
3104 Clouds 26 1010 88 10000 1.48 50 22:38 06.12.2019
3105 Clouds 27 1010 88 10000 1.48 50 22:19 06.12.2019
3106 Clouds 26 1009 88 10000 1.5 70 21:57 06.12.2019
3107 Clouds 26 1009 88 10000 1.5 60 21:38 06.12.2019
3108 Clouds 26 1009 88 10000 1.5 60 21:19 06.12.2019
3109 Clouds 26 1008 88 10000 1.5 320 20:42 06.12.2019
3110 Clouds 26 1008 88 10000 1.5 320 20:42 06.12.2019
3111 Clouds 26 1008 88 10000 1.5 320 20:24 06.12.2019
3112 Clouds 26 1008 88 10000 1.5 320 20:24 06.12.2019
3113 Clouds 27 1008 83 10000 1.35 296 19:59 06.12.2019
3114 Clouds 27 1007 83 10000 1.5 290 19:40 06.12.2019
3115 Clouds 27 1007 83 10000 1.5 290 19:22 06.12.2019
3116 Clouds 29 1007 74 10000 2.6 310 18:56 06.12.2019
3117 Clouds 29 1007 74 10000 3.1 300 18:38 06.12.2019
3118 Clouds 29 1007 74 10000 3.1 300 18:19 06.12.2019
3119 Clouds 29 1008 74 10000 3.1 290 17:55 06.12.2019
3120 Clouds 29 1008 74 10000 3.6 300 17:37 06.12.2019
3121 Clouds 29 1008 74 10000 3.6 300 17:19 06.12.2019
3122 Clouds 29 1008 74 10000 4.1 290 16:42 06.12.2019
3123 Clouds 29 1008 74 10000 4.1 290 16:24 06.12.2019
3124 Clouds 29 1009 74 10000 5.7 300 15:59 06.12.2019
3125 Clouds 29 1009 74 10000 5.1 300 15:40 06.12.2019
3126 Clouds 30 1009 74 10000 5.1 300 15:18 06.12.2019
3127 Clouds 30 1009 74 10000 5.1 300 15:18 06.12.2019
3128 Clouds 30 1009 70 10000 6.2 310 14:56 06.12.2019
3129 Clouds 30 1009 66 10000 5.7 300 14:37 06.12.2019
3130 Clouds 30 1009 66 10000 5.7 300 14:18 06.12.2019
3131 Clouds 30 1009 66 10000 6.2 290 13:42 06.12.2019
3132 Clouds 30 1009 66 10000 6.2 290 13:24 06.12.2019
3133 Clouds 30 1008 66 10000 5.7 300 12:42 06.12.2019
3134 Clouds 30 1008 66 10000 5.7 300 12:22 06.12.2019
3135 Clouds 30 1008 66 10000 4.1 290 11:57 06.12.2019
3136 Clouds 31 1008 66 10000 4.6 280 11:39 06.12.2019
3137 Clouds 31 1008 66 10000 4.6 280 11:19 06.12.2019
3138 Clouds 32 1007 59 10000 6.2 290 10:43 06.12.2019
3139 Clouds 32 1007 59 10000 6.2 290 10:21 06.12.2019
3140 Clouds 33 1007 52 10000 6.7 300 09:58 06.12.2019
3141 Clouds 33 1007 49 10000 6.7 300 09:37 06.12.2019
3142 Clouds 33 1007 49 10000 6.7 300 09:37 06.12.2019
3143 Clouds 33 1007 49 10000 6.7 300 09:37 06.12.2019
3144 Clouds 34 1007 49 10000 6.7 300 09:19 06.12.2019
3145 Clouds 34 1007 44 10000 6.7 300 08:45 06.12.2019
3146 Clouds 35 1007 44 10000 7.2 300 08:27 06.12.2019
3147 Clear 35 1007 46 10000 7.2 310 07:56 06.12.2019
3148 Clear 36 1007 44 10000 7.7 300 07:36 06.12.2019
3149 Clear 36 1007 44 10000 7.7 300 07:18 06.12.2019
3150 Clear 36 1007 39 10000 7.2 310 06:29 06.12.2019
3151 Clear 35 1008 36 10000 6.7 310 05:53 06.12.2019
3152 Clear 36 1008 32 10000 6.2 320 05:33 06.12.2019
3153 Clouds 34 1010 55 10000 4.1 320 02:19 06.12.2019
3154 Clouds 32 1011 59 10000 2.6 310 01:30 06.12.2019
3155 Clouds 31 1011 66 10000 1.5 230 00:41 06.12.2019
3156 Clouds 31 1011 66 10000 1.5 230 00:20 06.12.2019
3157 Clouds 31 1010 70 10000 1 160 23:47 05.12.2019
3158 Clouds 29 1010 74 10000 1.5 150 23:19 05.12.2019
3159 Clouds 28 1010 78 10000 1.5 140 22:57 05.12.2019
3160 Clouds 27 1010 83 10000 1 70 22:38 05.12.2019
3161 Clouds 26 1010 83 10000 1 70 22:18 05.12.2019
3162 Clouds 26 1010 83 10000 1 70 22:18 05.12.2019
3163 Clear 26 1009 78 10000 1.5 60 21:44 05.12.2019
3164 Clear 26 1009 78 10000 1.5 60 21:25 05.12.2019
3165 Clear 26 1008 78 10000 1 230 20:59 05.12.2019
3166 Clear 27 1007 78 10000 1 230 20:40 05.12.2019
3167 Clear 27 1007 78 10000 1 230 20:40 05.12.2019
3168 Clear 27 1007 78 10000 1 230 20:21 05.12.2019
3169 Clear 27 1007 83 10000 1.5 260 19:58 05.12.2019
3170 Clear 27 1007 83 10000 1.5 260 19:58 05.12.2019
3171 Clear 27 1007 83 10000 1.5 260 19:58 05.12.2019
3172 Clear 26 1007 78 10000 1.5 270 19:40 05.12.2019
3173 Clear 27 1007 78 10000 1.5 270 19:20 05.12.2019
3174 Clear 27 1007 74 10000 1 260 18:57 05.12.2019
3175 Clear 27 1007 74 10000 1.5 250 18:37 05.12.2019
3176 Clear 28 1007 74 10000 1.5 250 18:19 05.12.2019
3177 Clear 28 1008 70 10000 2.6 260 17:39 05.12.2019
3178 Clear 29 1008 70 10000 2.6 260 17:20 05.12.2019
3179 Clear 29 1008 66 10000 3.1 270 16:57 05.12.2019
3180 Clear 29 1008 66 10000 2.6 270 16:39 05.12.2019
3181 Clear 29 1008 66 10000 2.6 270 16:21 05.12.2019
3182 Clear 29 1009 66 10000 3.1 270 15:57 05.12.2019
3183 Clear 29 1009 70 10000 2.6 270 15:38 05.12.2019
3184 Clear 29 1009 70 10000 2.6 270 15:20 05.12.2019
3185 Clear 29 1009 70 10000 3.1 270 14:55 05.12.2019
3186 Clear 29 1009 70 10000 3.6 270 14:37 05.12.2019
3187 Clear 29 1009 70 10000 3.6 270 14:19 05.12.2019
3188 Clear 29 1009 70 10000 3.6 270 13:56 05.12.2019
3189 Clear 30 1009 66 10000 4.1 270 13:38 05.12.2019
3190 Clear 30 1009 66 10000 4.1 270 13:19 05.12.2019
3191 Clear 30 1009 66 10000 4.6 280 12:56 05.12.2019
3192 Clear 30 1008 62 10000 4.1 270 12:38 05.12.2019
3193 Clear 30 1008 62 10000 4.1 270 12:19 05.12.2019
3194 Clear 31 1008 55 10000 4.1 270 11:39 05.12.2019
3195 Clouds 31 1008 55 10000 4.1 270 11:21 05.12.2019
3196 Clouds 31 1008 55 10000 4.1 270 11:21 05.12.2019
3197 Clouds 32 1008 52 10000 4.6 270 10:58 05.12.2019
3198 Clouds 32 1008 46 10000 5.7 280 10:40 05.12.2019
3199 Clouds 32 1008 46 10000 5.7 280 10:19 05.12.2019
3200 Clouds 33 1007 49 10000 5.7 270 09:55 05.12.2019
3201 Clouds 34 1007 44 10000 7.2 290 09:36 05.12.2019
3202 Clouds 34 1007 44 10000 7.2 290 09:18 05.12.2019
3203 Clouds 34 1007 41 10000 7.7 300 08:39 05.12.2019
3204 Clear 34 1007 41 10000 7.7 300 08:20 05.12.2019
3205 Clear 35 1008 41 10000 7.2 300 07:57 05.12.2019
3206 Clear 35 1008 41 10000 6.7 300 07:38 05.12.2019
3207 Clear 35 1008 41 10000 6.7 300 07:20 05.12.2019
3208 Clear 35 1008 44 10000 6.2 300 06:45 05.12.2019
3209 Clear 36 1009 39 10000 6.2 300 06:23 05.12.2019
3210 Clear 35 1009 41 10000 5.7 300 05:48 05.12.2019
3211 Clear 35 1010 41 10000 5.7 290 05:23 05.12.2019
3212 Clear 36 1011 32 10000 3.6 290 04:27 05.12.2019
3213 Clouds 35 1012 41 10000 3.6 290 02:55 05.12.2019
3214 Clouds 34 1012 49 10000 2.6 280 02:25 05.12.2019
3215 Clouds 33 1012 59 10000 2.1 290 01:59 05.12.2019
3216 Clouds 33 1012 62 10000 2.6 290 01:40 05.12.2019
3217 Clouds 33 1012 62 10000 2.6 290 01:20 05.12.2019
3218 Clouds 32 1012 70 10000 1.5 190 00:37 05.12.2019
3219 Clouds 31 1012 70 10000 1.5 190 00:18 05.12.2019
3220 Clouds 30 1011 74 10000 1.8 291 23:42 04.12.2019
3221 Clouds 29 1011 74 10000 0.94 103 23:22 04.12.2019
3222 Clouds 28 1011 83 10000 0.5 360 22:57 04.12.2019
3223 Rain 27 1011 88 10000 0.94 103 22:36 04.12.2019
3224 Rain 27 1011 88 10000 0.94 103 22:18 04.12.2019
3225 Rain 26 1010 88 10000 0.94 103 21:55 04.12.2019
3226 Rain 26 1010 88 10000 1 360 21:37 04.12.2019
3227 Rain 26 1010 88 10000 1 360 21:18 04.12.2019
3228 Rain 26 1010 83 10000 0.5 360 20:56 04.12.2019
3229 Rain 26 1010 88 10000 1 350 20:38 04.12.2019
3230 Rain 27 1010 88 10000 1 350 20:19 04.12.2019
3231 Rain 27 1009 83 10000 1.5 310 19:40 04.12.2019
3232 Rain 27 1009 83 10000 1.5 310 19:22 04.12.2019
3233 Rain 28 1009 78 10000 1.5 310 18:59 04.12.2019
3234 Rain 28 1009 74 10000 1.5 300 18:40 04.12.2019
3235 Rain 28 1009 74 10000 1.5 300 18:22 04.12.2019
3236 Rain 28 1009 74 10000 2.6 270 17:58 04.12.2019
3237 Rain 28 1009 74 10000 2.6 270 17:38 04.12.2019
3238 Clear 28 1009 74 10000 2.6 270 17:18 04.12.2019
3239 Clear 28 1010 79 10000 3.1 280 16:41 04.12.2019
3240 Clear 29 1010 79 10000 3.1 280 16:20 04.12.2019
3241 Clear 29 1010 70 10000 3.6 270 15:59 04.12.2019
3242 Clear 29 1010 74 10000 3.6 280 15:41 04.12.2019
3243 Clear 29 1010 74 10000 3.6 280 15:21 04.12.2019
3244 Clear 29 1010 74 10000 3.6 270 14:59 04.12.2019
3245 Clear 29 1010 74 10000 4.1 270 14:41 04.12.2019
3246 Clouds 29 1010 74 10000 4.1 270 14:21 04.12.2019
3247 Clouds 29 1010 74 10000 4.6 280 13:56 04.12.2019
3248 Clouds 29 1010 74 10000 4.1 270 13:36 04.12.2019
3249 Clouds 29 1010 74 10000 4.1 270 13:18 04.12.2019
3250 Clouds 29 1009 74 10000 4.1 270 12:41 04.12.2019
3251 Clouds 30 1009 66 10000 3.1 280 12:23 04.12.2019
3252 Clouds 30 1009 52 10000 2.6 310 11:44 04.12.2019
3253 Clouds 30 1009 52 10000 2.6 310 11:26 04.12.2019
3254 Clouds 31 1008 55 10000 3.6 290 10:58 04.12.2019
3255 Clouds 31 1008 55 10000 4.1 290 10:40 04.12.2019
3256 Clouds 31 1008 55 10000 4.1 290 10:21 04.12.2019
3257 Clouds 30 1008 49 10000 4.1 310 09:44 04.12.2019
3258 Clouds 30 1008 49 10000 4.1 310 09:24 04.12.2019
3259 Clouds 30 1008 49 10000 4.1 310 09:24 04.12.2019
3260 Clouds 30 1008 55 10000 3.6 310 08:54 04.12.2019
3261 Clouds 31 1008 55 10000 3.6 290 08:36 04.12.2019
3262 Clouds 33 1008 55 10000 3.6 290 08:18 04.12.2019
3263 Clouds 32 1008 74 10000 1.5 270 07:41 04.12.2019
3264 Clouds 32 1008 74 10000 1.5 270 07:22 04.12.2019
3265 Thunderstorm 34 1009 56 9000 3.6 310 06:33 04.12.2019
3266 Clouds 34 1009 52 10000 3.6 290 05:47 04.12.2019
3267 Clouds 33 1011 59 10000 3.1 270 04:39 04.12.2019
3268 Clouds 33 1011 52 10000 0.5 120 03:53 04.12.2019
3269 Clouds 32 1012 62 10000 2.1 130 02:19 04.12.2019
3270 Clouds 29 1012 74 10000 3.1 120 00:50 04.12.2019
3271 Clouds 28 1012 83 10000 4.6 150 00:22 04.12.2019
3272 Clouds 28 1011 83 10000 2.6 150 23:56 03.12.2019
3273 Clouds 27 1010 88 10000 2.1 360 23:37 03.12.2019
3274 Clouds 27 1010 88 10000 2.1 360 23:18 03.12.2019
3275 Rain 26 1010 88 10000 4.6 330 22:40 03.12.2019
3276 Rain 26 1010 88 10000 4.6 330 22:19 03.12.2019
3277 Rain 26 1010 88 10000 4.6 330 21:57 03.12.2019
3278 Rain 26 1009 88 10000 2.6 360 21:37 03.12.2019
3279 Rain 26 1009 88 10000 2.6 360 21:19 03.12.2019
3280 Clouds 26 1009 94 10000 2.6 10 20:56 03.12.2019
3281 Clouds 25 1009 88 10000 0.5 350 20:38 03.12.2019
3282 Clouds 26 1009 88 10000 0.5 350 20:18 03.12.2019
3283 Rain 26 1009 88 10000 0.5 60 19:54 03.12.2019
3284 Clouds 26 1008 78 10000 1 110 19:36 03.12.2019
3285 Clouds 26 1008 78 10000 1 110 19:18 03.12.2019
3286 Clouds 26 1009 78 10000 1 110 18:55 03.12.2019
3287 Clouds 26 1009 78 10000 1.5 80 18:37 03.12.2019
3288 Clouds 26 1009 78 10000 1.5 80 18:18 03.12.2019
3289 Clouds 26 1009 78 10000 2.1 140 17:40 03.12.2019
3290 Rain 27 1009 78 10000 2.1 140 17:19 03.12.2019
3291 Rain 27 1009 78 10000 1.5 160 16:59 03.12.2019
3292 Rain 28 1009 78 10000 1 140 16:40 03.12.2019
3293 Rain 28 1009 78 10000 1 140 16:21 03.12.2019
3294 Rain 28 1009 78 10000 1.79 234 15:59 03.12.2019
3295 Rain 27 1010 74 10000 1.5 170 15:39 03.12.2019
3296 Rain 27 1010 74 10000 1.5 170 15:20 03.12.2019
3297 Rain 27 1010 74 10000 1.5 170 15:20 03.12.2019
3298 Rain 27 1010 74 10000 1.5 170 15:20 03.12.2019
3299 Clouds 27 1010 74 10000 2.6 190 14:56 03.12.2019
3300 Clouds 27 1010 74 10000 4.1 190 14:38 03.12.2019
3301 Clouds 27 1010 74 10000 4.1 190 14:18 03.12.2019
3302 Clouds 29 1009 74 10000 3.6 260 13:38 03.12.2019
3303 Clouds 29 1009 74 10000 3.6 260 13:20 03.12.2019
3304 Clouds 29 1009 74 10000 3.6 260 13:20 03.12.2019
3305 Clouds 30 1009 70 10000 3.6 260 12:58 03.12.2019
3306 Clouds 30 1009 70 10000 3.6 260 12:37 03.12.2019
3307 Clouds 30 1009 70 10000 3.6 260 12:18 03.12.2019
3308 Clouds 30 1009 70 10000 3.6 270 11:57 03.12.2019
3309 Clouds 30 1009 66 10000 3.6 290 11:38 03.12.2019
3310 Clouds 30 1009 66 10000 3.6 290 11:19 03.12.2019
3311 Clouds 30 1008 66 10000 3.6 310 10:56 03.12.2019
3312 Clouds 30 1008 70 10000 4.6 330 10:38 03.12.2019
3313 Clouds 31 1008 70 10000 4.6 330 10:18 03.12.2019
3314 Clouds 31 1007 70 10000 4.6 310 09:42 03.12.2019
3315 Clouds 31 1007 70 10000 5.7 320 09:24 03.12.2019
3316 Clouds 32 1006 59 10000 5.1 340 08:56 03.12.2019
3317 Clouds 33 1006 52 10000 6.2 340 08:38 03.12.2019
3318 Clouds 33 1006 52 10000 6.2 340 08:20 03.12.2019
3319 Clouds 34 1006 41 10000 6.2 340 07:51 03.12.2019
3320 Clouds 34 1007 59 10000 6.2 340 07:25 03.12.2019
3321 Clouds 34 1007 52 10000 6.2 330 06:38 03.12.2019
3322 Clouds 35 1007 52 10000 6.2 330 06:19 03.12.2019
3323 Clouds 33 1008 59 10000 4.1 320 04:59 03.12.2019
3324 Clouds 32 1009 52 10000 2.1 230 03:42 03.12.2019
3325 Clouds 32 1010 59 10000 0.5 20 03:21 03.12.2019
3326 Clouds 32 1010 59 10000 1.5 50 02:52 03.12.2019
3327 Clouds 31 1010 62 10000 2.1 40 02:32 03.12.2019
3328 Clouds 31 1010 62 10000 2.1 50 01:57 03.12.2019
3329 Clouds 31 1009 62 10000 3.1 10 01:38 03.12.2019
3330 Clouds 31 1009 62 10000 3.1 10 01:18 03.12.2019
3331 Clouds 31 1009 70 10000 2.6 10 00:41 03.12.2019
3332 Clouds 31 1009 70 10000 2.6 10 00:23 03.12.2019
3333 Clouds 30 1009 74 10000 1.5 70 23:44 02.12.2019
3334 Clouds 28 1009 83 10000 2.1 70 23:22 02.12.2019
3335 Clouds 27 1009 88 10000 1.5 90 22:56 02.12.2019
3336 Clouds 26 1008 94 10000 1.5 70 22:37 02.12.2019
3337 Clouds 26 1008 94 10000 1.5 70 22:19 02.12.2019
3338 Clouds 26 1008 88 10000 1.5 60 21:39 02.12.2019
3339 Clouds 26 1008 88 10000 1.5 60 21:20 02.12.2019
3340 Clouds 26 1008 88 10000 1.5 60 21:20 02.12.2019
3341 Clouds 26 1007 88 10000 1 70 20:57 02.12.2019
3342 Clouds 26 1007 88 10000 2.6 70 20:39 02.12.2019
3343 Rain 26 1007 88 10000 2.6 70 20:20 02.12.2019
3344 Rain 26 1007 88 10000 2.1 90 19:57 02.12.2019
3345 Rain 27 1007 88 10000 2.1 90 19:39 02.12.2019
3346 Rain 27 1007 88 10000 2.1 90 19:20 02.12.2019
3347 Rain 27 1007 83 10000 2.1 130 18:48 02.12.2019
3348 Clouds 27 1007 83 10000 1.5 90 18:24 02.12.2019
3349 Clouds 29 1007 79 10000 2.6 20 17:59 02.12.2019
3350 Clouds 29 1007 79 10000 2.6 20 17:59 02.12.2019
3351 Clouds 29 1007 79 10000 2.6 20 17:59 02.12.2019
3352 Clouds 29 1007 79 10000 3.1 360 17:41 02.12.2019
3353 Clouds 28 1007 79 10000 3.1 360 17:21 02.12.2019
3354 Clouds 28 1007 79 10000 3.1 360 17:21 02.12.2019
3355 Clouds 28 1007 79 10000 2.6 350 16:57 02.12.2019
3356 Rain 28 1008 79 10000 2.6 360 16:39 02.12.2019
3357 Rain 28 1008 79 10000 2.6 360 16:18 02.12.2019
3358 Clouds 28 1008 79 10000 3.1 350 15:56 02.12.2019
3359 Clouds 28 1009 79 10000 1.5 350 15:38 02.12.2019
3360 Clouds 28 1009 79 10000 1.5 350 15:20 02.12.2019
3361 Clouds 28 1008 79 10000 3.6 350 14:55 02.12.2019
3362 Clouds 28 1008 79 10000 3.6 350 14:55 02.12.2019
3363 Clouds 29 1008 74 10000 3.6 350 14:37 02.12.2019
3364 Clouds 30 1008 74 10000 3.6 350 14:18 02.12.2019
3365 Clouds 29 1008 74 10000 2.6 340 13:54 02.12.2019
3366 Clouds 29 1007 74 10000 3.6 350 13:36 02.12.2019
3367 Clouds 29 1007 74 10000 3.6 350 13:18 02.12.2019
3368 Clouds 30 1007 70 10000 3.1 350 12:41 02.12.2019
3369 Clouds 30 1007 70 10000 3.1 350 12:20 02.12.2019
3370 Clouds 30 1006 74 10000 5.1 340 11:56 02.12.2019
3371 Clouds 30 1006 70 10000 4.1 350 11:37 02.12.2019
3372 Clouds 30 1006 70 10000 4.1 350 11:19 02.12.2019
3373 Clouds 30 1006 70 10000 4.1 350 11:19 02.12.2019
3374 Clouds 30 1006 70 10000 4.6 330 10:56 02.12.2019
3375 Clouds 30 1006 70 10000 3.6 310 10:38 02.12.2019
3376 Clouds 30 1006 70 10000 3.6 310 10:38 02.12.2019
3377 Clouds 30 1006 70 10000 3.6 310 10:19 02.12.2019
3378 Clouds 31 1005 66 10000 2.6 310 09:42 02.12.2019
3379 Clouds 31 1005 66 10000 2.6 310 09:42 02.12.2019
3380 Clouds 30 1005 66 10000 2.6 310 09:19 02.12.2019
3381 Clouds 30 1006 70 10000 3.6 280 08:58 02.12.2019
3382 Clouds 30 1005 70 10000 3.6 300 08:40 02.12.2019
3383 Clouds 31 1005 70 10000 3.6 300 08:21 02.12.2019
3384 Rain 31 1006 74 10000 4.6 340 07:44 02.12.2019
3385 Thunderstorm 32 1005 62 10000 4.6 340 07:23 02.12.2019
3386 Thunderstorm 33 1005 66 10000 4.6 340 06:58 02.12.2019
3387 Thunderstorm 33 1005 63 10000 6.2 340 06:39 02.12.2019
3388 Rain 34 1006 59 10000 5.1 340 05:36 02.12.2019
3389 Clouds 34 1006 56 10000 5.7 350 04:50 02.12.2019
3390 Clouds 34 1008 55 10000 2.6 110 02:56 02.12.2019
3391 Clouds 34 1008 59 10000 2.6 120 02:36 02.12.2019
3392 Clouds 31 1008 66 10000 2.1 160 01:28 02.12.2019
3393 Clouds 31 1008 66 10000 2.1 130 00:59 02.12.2019
3394 Clouds 30 1008 70 10000 2.6 120 00:28 02.12.2019
3395 Clouds 29 1008 70 10000 1.5 120 23:56 01.12.2019
3396 Clouds 28 1008 78 10000 1 110 23:38 01.12.2019
3397 Clouds 27 1008 78 10000 1 110 23:19 01.12.2019
3398 Clouds 26 1007 88 10000 1.5 90 22:56 01.12.2019
3399 Clouds 25 1007 94 10000 1 140 22:37 01.12.2019
3400 Clouds 25 1007 94 10000 1 140 22:37 01.12.2019
3401 Clouds 25 1007 94 10000 1 140 22:18 01.12.2019
3402 Clouds 25 1007 88 10000 3.1 110 21:56 01.12.2019
3403 Clouds 25 1006 94 10000 2.6 110 21:38 01.12.2019
3404 Clouds 25 1006 94 10000 2.6 110 21:38 01.12.2019
3405 Clouds 25 1006 94 10000 2.6 110 21:18 01.12.2019
3406 Clouds 25 1006 94 10000 3.1 100 20:56 01.12.2019
3407 Clouds 25 1005 100 10000 2.6 90 20:37 01.12.2019
3408 Rain 25 1005 100 10000 2.6 90 20:19 01.12.2019
3409 Rain 25 1005 94 10000 0.5 80 19:55 01.12.2019
3410 Rain 25 1005 94 10000 0.5 250 19:36 01.12.2019
3411 Rain 25 1005 94 10000 0.5 250 19:36 01.12.2019
3412 Rain 25 1005 94 10000 0.5 250 19:18 01.12.2019
3413 Rain 25 1005 94 10000 0.5 250 19:18 01.12.2019
3414 Rain 25 1005 94 10000 1.5 10 18:55 01.12.2019
3415 Rain 25 1005 94 10000 1.5 10 18:55 01.12.2019
3416 Rain 25 1005 94 10000 2.19 237 18:36 01.12.2019
3417 Rain 26 1005 94 10000 2.19 237 18:18 01.12.2019
3418 Rain 26 1005 94 10000 0.5 180 17:55 01.12.2019
3419 Rain 26 1006 94 10000 2.1 200 17:37 01.12.2019
3420 Rain 25 1006 94 10000 2.1 200 17:19 01.12.2019
3421 Rain 26 1006 83 10000 3.67 268 16:43 01.12.2019
3422 Rain 25 1006 88 10000 3.67 268 16:23 01.12.2019
3423 Rain 26 1007 78 10000 1.5 190 15:53 01.12.2019
3424 Rain 26 1007 78 10000 3.1 190 15:33 01.12.2019
3425 Rain 26 1007 88 10000 2.1 200 14:58 01.12.2019
3426 Rain 26 1007 88 10000 2.1 200 14:58 01.12.2019
3427 Rain 26 1007 88 10000 2.1 200 14:58 01.12.2019
3428 Rain 26 1007 88 10000 4.1 220 14:37 01.12.2019
3429 Clouds 26 1007 88 10000 4.1 220 14:19 01.12.2019
3430 Rain 25 1006 100 10000 1.5 320 13:40 01.12.2019
3431 Rain 25 1006 100 10000 1.5 320 13:40 01.12.2019
3432 Rain 25 1006 100 10000 1.5 320 13:21 01.12.2019
3433 Thunderstorm 25 1008 94 6000 7.7 140 12:47 01.12.2019
3434 Thunderstorm 29 1006 70 10000 2.6 280 12:19 01.12.2019
3435 Clouds 29 1006 74 10000 2.6 290 11:44 01.12.2019
3436 Clouds 29 1006 74 10000 2.6 320 11:24 01.12.2019
3437 Clouds 30 1006 74 10000 2.6 300 10:55 01.12.2019
3438 Clouds 30 1006 70 10000 3.6 310 10:37 01.12.2019
3439 Rain 31 1006 70 0 3.58 310 10:18 01.12.2019
3440 Clouds 31 1006 66 10000 3.6 320 09:41 01.12.2019
3441 Clouds 32 1006 66 10000 3.6 320 09:21 01.12.2019
3442 Clouds 32 1006 59 10000 3.6 310 08:49 01.12.2019
3443 Clouds 32 1005 55 10000 3.1 270 08:22 01.12.2019
3444 Clouds 32 1005 59 10000 1.5 240 07:52 01.12.2019
3445 Clouds 31 1006 62 10000 2.6 210 07:32 01.12.2019
3446 Clouds 31 1006 58 10000 2.1 140 06:58 01.12.2019
3447 Clouds 31 1007 62 10000 2.6 150 06:40 01.12.2019
3448 Rain 30 1008 66 10000 5.1 300 05:55 01.12.2019
3449 Rain 30 1008 70 10000 5.1 300 04:53 01.12.2019
3450 Rain 31 1008 70 10000 5.7 250 04:21 01.12.2019
3451 Clouds 33 1009 52 10000 3.6 310 02:38 01.12.2019
3452 Clouds 33 1009 52 10000 3.6 310 02:20 01.12.2019
3453 Clouds 34 1009 52 10000 3.6 320 01:52 01.12.2019
3454 Clouds 33 1009 59 10000 3.1 310 01:26 01.12.2019
3455 Clouds 33 1009 59 10000 3.1 310 01:26 01.12.2019
3456 Clouds 32 1009 59 10000 3.1 290 00:44 01.12.2019
3457 Clouds 32 1009 66 10000 3.6 310 00:24 01.12.2019
3458 Clouds 31 1009 66 10000 2.6 320 23:44 30.11.2019
3459 Clouds 31 1009 66 10000 2.6 310 23:25 30.11.2019
3460 Clouds 29 1008 70 10000 2.6 330 22:58 30.11.2019
3461 Clouds 29 1008 74 10000 2.6 330 22:39 30.11.2019
3462 Clouds 30 1008 74 10000 2.6 330 22:20 30.11.2019
3463 Clouds 29 1008 70 10000 3.1 300 21:47 30.11.2019
3464 Clouds 30 1007 70 10000 2.6 320 21:28 30.11.2019
3465 Rain 29 1007 70 10000 2.1 300 20:58 30.11.2019
3466 Clouds 29 1007 70 10000 2.6 300 20:39 30.11.2019
3467 Clouds 29 1007 70 10000 2.6 300 20:19 30.11.2019
3468 Clouds 30 1007 70 10000 1.5 270 19:56 30.11.2019
3469 Clouds 30 1007 70 10000 3.1 260 19:38 30.11.2019
3470 Clouds 30 1007 70 10000 3.1 260 19:20 30.11.2019
3471 Clouds 30 1007 70 10000 2.6 260 18:58 30.11.2019
3472 Clouds 30 1007 70 10000 3.1 280 18:38 30.11.2019
3473 Clouds 30 1007 70 10000 3.1 280 18:20 30.11.2019
3474 Clouds 30 1007 70 10000 2.6 290 17:58 30.11.2019
3475 Clouds 30 1007 66 10000 2.1 290 17:39 30.11.2019
3476 Clouds 30 1007 66 10000 2.1 290 17:20 30.11.2019
3477 Clouds 30 1007 70 10000 3.1 300 16:57 30.11.2019
3478 Clouds 30 1008 70 10000 2.6 310 16:39 30.11.2019
3479 Clouds 30 1008 70 10000 2.6 310 16:20 30.11.2019
3480 Clouds 29 1008 74 10000 3.1 310 15:42 30.11.2019
3481 Clouds 30 1008 74 10000 3.1 330 15:19 30.11.2019
3482 Clouds 30 1008 70 10000 3.1 310 14:57 30.11.2019
3483 Clouds 30 1008 74 10000 3.1 300 14:38 30.11.2019
3484 Clouds 29 1008 74 10000 3.1 300 14:19 30.11.2019
3485 Clouds 30 1008 74 10000 3.1 330 13:58 30.11.2019
3486 Clouds 30 1008 70 10000 3.6 290 13:38 30.11.2019
3487 Clouds 30 1008 70 10000 3.6 290 13:19 30.11.2019
3488 Clouds 30 1007 70 10000 5.1 300 12:47 30.11.2019
3489 Clouds 30 1007 74 10000 4.6 310 12:29 30.11.2019
3490 Clouds 30 1007 74 10000 5.7 320 11:58 30.11.2019
3491 Rain 30 1007 55 10000 5.7 290 11:39 30.11.2019
3492 Clouds 30 1007 55 10000 5.7 290 11:18 30.11.2019
3493 Clouds 31 1007 55 10000 4.6 290 10:45 30.11.2019
3494 Clouds 31 1007 62 10000 4.6 280 10:21 30.11.2019
3495 Rain 31 1007 62 10000 3.6 270 09:50 30.11.2019
3496 Rain 32 1007 52 10000 5.1 260 09:30 30.11.2019
3497 Clouds 32 1006 49 10000 6.2 290 08:57 30.11.2019
3498 Clouds 33 1006 49 10000 6.7 290 08:38 30.11.2019
3499 Clouds 33 1006 49 10000 6.7 290 08:18 30.11.2019
3500 Clouds 33 1006 52 10000 5.1 310 07:42 30.11.2019
3501 Clouds 33 1006 52 10000 5.1 310 07:23 30.11.2019
3502 Rain 34 1006 49 10000 5.1 290 06:46 30.11.2019
3503 Rain 34 1007 49 10000 6.2 310 06:27 30.11.2019
3504 Clouds 35 1007 52 10000 5.1 310 05:23 30.11.2019
3505 Clouds 35 1009 55 10000 4.1 330 03:38 30.11.2019
3506 Clouds 33 1009 62 10000 2.6 350 02:26 30.11.2019
3507 Clouds 32 1010 62 10000 2.6 10 01:51 30.11.2019
3508 Clouds 32 1010 66 10000 2.6 350 01:24 30.11.2019
3509 Clouds 31 1010 66 10000 1.5 330 00:45 30.11.2019
3510 Clouds 31 1010 66 10000 1.5 330 00:27 30.11.2019
3511 Clouds 30 1010 70 10000 1.5 20 23:45 29.11.2019
3512 Clouds 30 1009 74 10000 0.5 50 23:25 29.11.2019
3513 Clouds 30 1009 74 10000 0.5 50 23:25 29.11.2019
3514 Clouds 27 1009 83 10000 1 40 22:49 29.11.2019
3515 Clouds 26 1009 88 10000 1 350 22:28 29.11.2019
3516 Clouds 26 1008 88 10000 1 350 21:59 29.11.2019
3517 Clouds 26 1008 88 10000 1.6 18 21:41 29.11.2019
3518 Clouds 26 1008 88 10000 1.6 18 21:22 29.11.2019
3519 Clouds 26 1008 88 10000 1.6 18 20:56 29.11.2019
3520 Clouds 26 1008 83 10000 1.6 18 20:37 29.11.2019
3521 Clouds 26 1008 83 10000 1.49 24 20:18 29.11.2019
3522 -273 0 0 0 0 0 19:55 29.11.2019
3523 Clouds 27 1007 83 10000 0.5 350 19:37 29.11.2019
3524 Clouds 27 1007 83 10000 0.5 350 19:18 29.11.2019
3525 Clouds 27 1007 83 10000 0.5 350 19:18 29.11.2019
3526 Clouds 27 1007 83 10000 1.5 350 18:42 29.11.2019
3527 Clouds 27 1007 83 10000 1.5 350 18:24 29.11.2019
3528 Clouds 27 1007 79 10000 1.5 340 17:57 29.11.2019
3529 Clouds 27 1007 79 10000 1.5 340 17:39 29.11.2019
3530 Rain 28 1007 79 10000 1.5 340 17:20 29.11.2019
3531 Rain 28 1008 74 10000 1.5 340 16:43 29.11.2019
3532 Rain 29 1008 70 10000 2.1 330 16:21 29.11.2019
3533 Clouds 29 1008 70 10000 2.1 300 15:56 29.11.2019
3534 Clouds 29 1009 70 10000 2.6 310 15:37 29.11.2019
3535 Clouds 29 1009 70 10000 2.6 310 15:19 29.11.2019
3536 Clouds 29 1009 70 10000 2.6 280 14:40 29.11.2019
3537 Clouds 29 1009 70 10000 2.6 280 14:40 29.11.2019
3538 Clouds 29 1009 70 10000 2.6 280 14:21 29.11.2019
3539 Clouds 29 1009 70 10000 3.1 280 13:57 29.11.2019
3540 Clouds 29 1008 70 10000 3.6 270 13:37 29.11.2019
3541 Clouds 29 1008 70 10000 3.6 270 13:19 29.11.2019
3542 Clouds 29 1008 74 10000 3.6 280 12:42 29.11.2019
3543 Clouds 29 1008 74 10000 3.6 280 12:24 29.11.2019
3544 Clouds 30 1008 66 10000 3.1 280 11:56 29.11.2019
3545 Clouds 30 1008 66 10000 4.6 270 11:38 29.11.2019
3546 Clouds 30 1008 66 10000 4.6 270 11:19 29.11.2019
3547 Clouds 30 1008 66 10000 4.1 270 10:57 29.11.2019
3548 Clouds 30 1008 62 10000 5.7 240 10:39 29.11.2019
3549 Clouds 30 1008 62 10000 5.7 240 10:20 29.11.2019
3550 Clouds 31 1007 52 10000 4.6 280 09:58 29.11.2019
3551 Clouds 31 1007 49 10000 5.1 280 09:39 29.11.2019
3552 Clouds 32 1007 49 10000 5.1 280 09:20 29.11.2019
3553 Clouds 32 1006 55 10000 5.7 290 08:55 29.11.2019
3554 Clouds 32 1007 43 10000 6.2 290 08:37 29.11.2019
3555 Clouds 33 1007 43 10000 6.2 290 08:18 29.11.2019
3556 Clouds 34 1006 46 10000 7.2 300 07:41 29.11.2019
3557 Clouds 35 1006 41 10000 7.2 300 07:23 29.11.2019
3558 Clouds 35 1007 52 10000 7.2 290 06:49 29.11.2019
3559 Clouds 35 1007 49 10000 6.2 300 06:28 29.11.2019
3560 Clouds 34 1008 52 10000 5.1 310 05:32 29.11.2019
3561 Clouds 34 1008 52 10000 5.1 310 05:32 29.11.2019
3562 Clouds 34 1008 52 10000 5.1 310 05:32 29.11.2019
3563 Clouds 33 1008 59 10000 4.6 310 04:57 29.11.2019
3564 Clouds 33 1009 59 10000 3.6 320 03:41 29.11.2019
3565 Clouds 33 1009 59 10000 4.1 330 03:18 29.11.2019
3566 Clouds 32 1010 70 10000 6.2 290 02:25 29.11.2019
3567 Clouds 32 1010 62 10000 3.6 330 01:45 29.11.2019
3568 Clouds 32 1010 62 10000 6.2 290 01:23 29.11.2019
3569 Clouds 32 1010 62 10000 6.2 290 01:23 29.11.2019
3570 Clouds 32 1010 66 10000 6.2 290 00:40 29.11.2019
3571 Clouds 31 1010 66 10000 6.2 290 00:20 29.11.2019
3572 Clouds 30 1010 70 10000 2.6 320 23:44 28.11.2019
3573 Clouds 30 1010 74 10000 2.6 300 23:21 28.11.2019
3574 Clouds 28 1009 79 10000 1.5 330 22:57 28.11.2019
3575 Clouds 27 1009 83 10000 1.5 340 22:37 28.11.2019
3576 Clouds 26 1009 83 10000 1.5 340 22:19 28.11.2019
3577 Clouds 27 1008 78 10000 1 280 21:55 28.11.2019
3578 Clouds 27 1008 78 10000 0.5 70 21:37 28.11.2019
3579 Clouds 27 1008 78 10000 0.5 70 21:18 28.11.2019
3580 Clouds 26 1008 83 10000 1.5 70 20:42 28.11.2019
3581 Clouds 27 1008 78 10000 1 360 20:23 28.11.2019
3582 Clouds 27 1007 70 10000 1.5 310 19:59 28.11.2019
3583 Clouds 27 1007 70 10000 2.1 290 19:40 28.11.2019
3584 Clouds 27 1007 70 10000 2.1 290 19:22 28.11.2019
3585 Clouds 28 1007 66 10000 2.6 290 18:59 28.11.2019
3586 Clouds 28 1007 66 10000 3.1 290 18:39 28.11.2019
3587 Clouds 28 1007 66 10000 3.1 290 18:18 28.11.2019
3588 Clouds 28 1007 66 10000 3.1 290 17:59 28.11.2019
3589 Clouds 28 1007 66 10000 3.1 290 17:59 28.11.2019
3590 -273 0 0 0 0 0 17:41 28.11.2019
3591 Clouds 28 1007 66 10000 2.1 300 17:40 28.11.2019
3592 Clouds 28 1007 66 10000 2.1 300 17:20 28.11.2019
3593 Clouds 28 1008 62 10000 2.1 280 16:41 28.11.2019
3594 Clouds 28 1008 62 10000 2.1 280 16:41 28.11.2019
3595 Clouds 28 1008 62 10000 2.1 280 16:19 28.11.2019
3596 Clouds 28 1009 62 10000 2.6 270 15:59 28.11.2019
3597 Clouds 28 1009 62 10000 2.6 270 15:40 28.11.2019
3598 Clouds 28 1009 62 10000 2.6 270 15:20 28.11.2019
3599 Clouds 29 1009 62 10000 3.1 270 14:58 28.11.2019
3600 Clouds 29 1009 62 10000 3.6 280 14:39 28.11.2019
3601 Clouds 29 1009 62 10000 3.6 280 14:20 28.11.2019
3602 Clouds 29 1008 62 10000 3.1 270 13:55 28.11.2019
3603 Clouds 30 1008 58 10000 3.6 280 13:37 28.11.2019
3604 Clouds 30 1008 58 10000 3.6 280 13:19 28.11.2019
3605 Clouds 30 1008 58 10000 3.6 280 12:41 28.11.2019
3606 Clouds 30 1008 58 10000 3.6 280 12:22 28.11.2019
3607 Clouds 30 1008 55 10000 4.1 270 11:56 28.11.2019
3608 Clouds 30 1007 58 10000 5.1 280 11:38 28.11.2019
3609 Clouds 31 1007 58 10000 5.1 280 11:19 28.11.2019
3610 Clouds 31 1007 55 10000 5.1 290 10:42 28.11.2019
3611 Clouds 31 1007 55 10000 5.1 290 10:42 28.11.2019
3612 Clouds 32 1007 49 10000 6.2 290 10:22 28.11.2019
3613 Clouds 33 1006 46 10000 7.2 290 09:58 28.11.2019
3614 Clouds 33 1006 43 10000 7.7 290 09:40 28.11.2019
3615 Clouds 33 1006 43 10000 7.7 290 09:20 28.11.2019
3616 Clouds 34 1006 46 10000 7.7 290 08:44 28.11.2019
3617 Clouds 35 1006 49 10000 7.7 290 08:23 28.11.2019
3618 Clouds 35 1006 49 10000 7.7 290 07:58 28.11.2019
3619 Clouds 35 1006 49 10000 7.7 290 07:58 28.11.2019
3620 Clouds 35 1006 49 10000 7.7 290 07:58 28.11.2019
3621 Clouds 35 1006 49 10000 7.7 300 07:40 28.11.2019
3622 Clouds 35 1006 49 10000 7.7 300 07:22 28.11.2019
3623 Clouds 36 1006 44 10000 7.2 310 06:43 28.11.2019
3624 Clouds 35 1007 49 10000 5.7 310 05:58 28.11.2019
3625 Clouds 35 1007 49 10000 4.6 310 05:40 28.11.2019
3626 Clouds 36 1008 50 10000 4.6 290 04:54 28.11.2019
3627 Clouds 34 1009 43 10000 3.1 260 02:33 28.11.2019
3628 Clouds 32 1010 52 10000 2.1 200 01:28 28.11.2019
3629 Clouds 31 1010 66 10000 2.6 190 00:42 28.11.2019
3630 Clouds 30 1010 62 10000 2.1 160 00:20 28.11.2019
3631 Clouds 29 1010 65 10000 2.6 150 23:39 27.11.2019
3632 Clouds 28 1010 65 10000 2.6 150 23:21 27.11.2019
3633 Clouds 27 1010 69 10000 2.6 140 22:58 27.11.2019
3634 Clouds 26 1010 74 10000 2.1 140 22:38 27.11.2019
3635 Clouds 25 1010 74 10000 2.1 140 22:19 27.11.2019
3636 Clouds 25 1009 74 10000 2.6 150 21:56 27.11.2019
3637 Clouds 25 1009 74 10000 1.5 110 21:37 27.11.2019
3638 Clouds 25 1009 74 10000 1.5 110 21:19 27.11.2019
3639 Clouds 25 1008 74 10000 2.1 120 20:57 27.11.2019
3640 Clouds 25 1008 74 10000 2.1 120 20:57 27.11.2019
3641 Clouds 25 1008 74 10000 1.5 110 20:37 27.11.2019
3642 Clouds 25 1008 74 10000 1.5 110 20:19 27.11.2019
3643 Clouds 25 1008 74 10000 2.1 120 19:56 27.11.2019
3644 Clouds 25 1008 74 10000 1.5 80 19:37 27.11.2019
3645 Clouds 25 1008 74 10000 1.5 80 19:18 27.11.2019
3646 Clouds 25 1008 74 10000 1.5 70 18:56 27.11.2019
3647 Clouds 26 1008 69 10000 1.5 120 18:36 27.11.2019
3648 Clouds 26 1008 69 10000 1.5 120 18:18 27.11.2019
3649 Clouds 26 1008 69 10000 2.1 160 17:55 27.11.2019
3650 Clouds 26 1009 69 10000 1.5 130 17:36 27.11.2019
3651 Clouds 26 1009 69 10000 1.5 130 17:18 27.11.2019
3652 Clouds 27 1009 74 10000 1.5 170 16:55 27.11.2019
3653 Clouds 27 1009 78 10000 2.1 180 16:36 27.11.2019
3654 Clouds 27 1009 78 10000 2.1 180 16:18 27.11.2019
3655 Clouds 28 1009 74 10000 2.1 190 15:56 27.11.2019
3656 Clouds 28 1009 74 10000 2.6 210 15:37 27.11.2019
3657 Clouds 28 1009 74 10000 2.6 210 15:19 27.11.2019
3658 Clouds 28 1009 74 10000 2.6 230 14:55 27.11.2019
3659 Clouds 28 1009 74 10000 2.6 230 14:55 27.11.2019
3660 Clouds 29 1009 66 10000 3.1 230 14:37 27.11.2019
3661 Clouds 29 1009 66 10000 3.1 230 14:19 27.11.2019
3662 Clouds 29 1009 66 10000 3.1 240 13:55 27.11.2019
3663 Clouds 29 1009 66 10000 3.6 250 13:36 27.11.2019
3664 Clouds 29 1009 66 10000 3.6 250 13:18 27.11.2019
3665 Clouds 30 1009 62 10000 3.6 230 12:41 27.11.2019
3666 Clouds 30 1009 62 10000 4.6 250 12:21 27.11.2019
3667 Clouds 30 1008 58 10000 4.1 250 11:56 27.11.2019
3668 Clouds 30 1008 58 10000 4.1 250 11:36 27.11.2019
3669 Clouds 31 1008 58 10000 4.6 280 11:18 27.11.2019
3670 Clouds 31 1007 55 10000 5.1 280 10:46 27.11.2019
3671 Clouds 31 1007 55 10000 5.1 280 10:24 27.11.2019
3672 Clouds 32 1007 52 10000 5.7 280 09:57 27.11.2019
3673 Clouds 33 1007 49 10000 5.1 280 09:39 27.11.2019
3674 Clouds 33 1007 46 10000 5.7 290 09:18 27.11.2019
3675 Clouds 34 1007 44 10000 5.1 290 08:42 27.11.2019
3676 Clouds 35 1007 44 10000 5.1 290 08:23 27.11.2019
3677 Clouds 36 1007 41 10000 4.6 290 07:48 27.11.2019
3678 Clouds 36 1007 39 10000 4.1 290 07:29 27.11.2019
3679 Clouds 36 1007 39 10000 4.1 290 07:29 27.11.2019
3680 Clouds 35 1008 38 10000 4.6 280 06:55 27.11.2019
3681 Clouds 35 1008 36 10000 4.1 290 06:36 27.11.2019
3682 Clouds 34 1009 43 10000 4.6 310 05:49 27.11.2019
3683 Clouds 34 1009 43 10000 4.6 310 05:26 27.11.2019
3684 Clouds 34 1009 49 10000 4.1 300 04:49 27.11.2019
3685 Clouds 33 1010 55 10000 4.1 310 04:31 27.11.2019
3686 Clouds 33 1010 55 10000 4.1 320 03:43 27.11.2019
3687 Clouds 32 1010 52 10000 3.6 300 03:20 27.11.2019
3688 Clouds 32 1011 55 10000 6.2 290 02:34 27.11.2019
3689 Clouds 31 1011 58 10000 3.6 330 00:55 27.11.2019
3690 Clouds 31 1010 66 10000 3.6 310 00:37 27.11.2019
3691 Clouds 30 1010 66 10000 4.1 330 00:19 27.11.2019
3692 Clouds 29 1010 70 10000 3.6 320 23:41 26.11.2019
3693 Clouds 29 1010 70 10000 3.6 320 23:23 26.11.2019
3694 Clouds 26 1009 88 10000 1.5 320 22:40 26.11.2019
3695 Clouds 25 1009 88 10000 1.5 320 22:20 26.11.2019
3696 Clouds 25 1009 88 10000 1.5 330 21:59 26.11.2019
3697 Clouds 25 1008 88 10000 2.1 320 21:39 26.11.2019
3698 Clouds 25 1008 88 10000 2.1 320 21:21 26.11.2019
3699 Clear 25 1008 88 10000 2.1 330 20:57 26.11.2019
3700 Clear 25 1007 88 10000 2.1 330 20:38 26.11.2019
3701 Clear 25 1007 88 10000 2.1 330 20:19 26.11.2019
3702 Clear 25 1007 88 10000 2.1 330 20:19 26.11.2019
3703 Clear 25 1007 88 10000 2.1 350 19:56 26.11.2019
3704 Clouds 25 1007 88 10000 2.1 320 19:38 26.11.2019
3705 Clouds 25 1007 88 10000 2.1 320 19:19 26.11.2019
3706 Clear 25 1007 88 10000 1.5 340 18:58 26.11.2019
3707 Clouds 26 1008 83 10000 1.5 320 18:39 26.11.2019
3708 Clouds 26 1008 83 10000 2.1 340 18:21 26.11.2019
3709 Clouds 26 1008 83 10000 2.1 340 17:59 26.11.2019
3710 Clear 26 1008 83 10000 1.5 330 17:40 26.11.2019
3711 Rain 26 1008 83 10000 1 320 17:21 26.11.2019
3712 Rain 27 1008 83 10000 1 320 16:57 26.11.2019
3713 Rain 27 1008 70 10000 1.5 320 16:38 26.11.2019
3714 Rain 28 1008 70 10000 1.5 320 16:19 26.11.2019
3715 Clouds 28 1008 74 10000 2.1 320 15:59 26.11.2019
3716 Rain 28 1009 74 10000 3.1 330 15:38 26.11.2019
3717 Rain 28 1009 74 10000 3.1 330 15:38 26.11.2019
3718 Rain 28 1009 74 10000 3.1 330 15:20 26.11.2019
3719 Rain 28 1009 74 10000 3.6 300 14:51 26.11.2019
3720 Rain 28 1009 74 10000 2.1 280 14:26 26.11.2019
3721 Rain 28 1009 74 10000 2.6 280 13:59 26.11.2019
3722 Clouds 28 1009 74 10000 2.6 270 13:40 26.11.2019
3723 Clouds 28 1009 74 10000 2.6 270 13:22 26.11.2019
3724 Clouds 29 1008 74 10000 4.1 280 12:40 26.11.2019
3725 Clouds 29 1008 70 10000 5.1 300 12:22 26.11.2019
3726 Clouds 29 1008 70 10000 5.1 300 11:59 26.11.2019
3727 Clouds 29 1007 70 10000 4.1 290 11:40 26.11.2019
3728 Clouds 29 1007 70 10000 4.6 290 11:20 26.11.2019
3729 Clouds 30 1007 70 10000 4.6 290 10:58 26.11.2019
3730 Clouds 30 1007 70 10000 6.2 310 10:40 26.11.2019
3731 Clouds 30 1007 70 10000 6.2 310 10:21 26.11.2019
3732 Clouds 31 1007 66 10000 6.7 320 09:57 26.11.2019
3733 Clouds 31 1006 62 10000 5.7 330 09:38 26.11.2019
3734 Clouds 32 1006 62 10000 5.7 330 09:19 26.11.2019
3735 Rain 34 1006 41 10000 5.1 350 08:44 26.11.2019
3736 Clouds 34 1006 49 10000 3.6 330 08:24 26.11.2019
3737 Clouds 34 1006 49 10000 3.6 310 07:46 26.11.2019
3738 Clouds 34 1006 46 10000 2.1 120 07:27 26.11.2019
3739 Rain 35 1006 49 10000 2.6 160 06:55 26.11.2019
3740 Rain 31 1007 66 10000 1 280 06:35 26.11.2019
3741 Rain 31 1008 83 10000 2.6 250 05:53 26.11.2019
3742 Clouds 34 1008 59 10000 3.1 330 04:47 26.11.2019
3743 Clouds 34 1009 59 10000 2.1 10 02:52 26.11.2019
3744 Clouds 32 1010 62 10000 3.6 30 01:33 26.11.2019
3745 Clouds 31 1010 66 10000 3.1 50 00:53 26.11.2019
3746 Clouds 30 1010 66 10000 2.1 90 00:30 26.11.2019
3747 Clouds 28 1009 69 10000 3.1 100 23:54 25.11.2019
3748 Clouds 27 1009 74 10000 3.1 130 23:36 25.11.2019
3749 Clouds 25 1009 78 10000 2.1 110 23:18 25.11.2019
3750 Clouds 24 1008 83 10000 1.5 80 22:39 25.11.2019
3751 Clouds 24 1008 83 10000 1.5 80 22:39 25.11.2019
3752 Clouds 24 1008 83 10000 1.5 80 22:19 25.11.2019
3753 Clouds 24 1008 83 10000 2.1 100 21:59 25.11.2019
3754 Clouds 24 1008 83 10000 1.5 120 21:40 25.11.2019
3755 Clouds 24 1008 83 10000 1.5 120 21:21 25.11.2019
3756 Clouds 23 1008 83 10000 1.5 130 20:57 25.11.2019
3757 Clouds 23 1008 83 10000 1.5 130 20:57 25.11.2019
3758 Clouds 23 1008 83 10000 2.6 100 20:39 25.11.2019
3759 Clouds 23 1008 83 10000 2.6 100 20:20 25.11.2019
3760 Clouds 23 1008 83 10000 2.1 120 19:56 25.11.2019
3761 Clouds 24 1008 83 10000 2.6 120 19:38 25.11.2019
3762 Clouds 24 1008 83 10000 2.1 110 19:19 25.11.2019
3763 Clouds 24 1008 83 10000 2.1 110 18:57 25.11.2019
3764 Clouds 24 1008 83 10000 2.1 70 18:39 25.11.2019
3765 Clouds 24 1008 83 10000 1.5 100 18:21 25.11.2019
3766 Clouds 24 1008 83 10000 1.5 100 17:58 25.11.2019
3767 Clouds 24 1008 83 10000 1.5 100 17:58 25.11.2019
3768 Clouds 24 1008 78 10000 1.5 100 17:39 25.11.2019
3769 Rain 24 1009 78 10000 2.1 100 17:20 25.11.2019
3770 Rain 25 1009 78 10000 2.1 100 16:57 25.11.2019
3771 Rain 24 1009 73 10000 1.5 130 16:39 25.11.2019
3772 Rain 25 1009 73 10000 1.5 130 16:21 25.11.2019
3773 Rain 25 1009 69 10000 1.5 130 15:55 25.11.2019
3774 Rain 25 1010 69 10000 3.6 150 15:37 25.11.2019
3775 Rain 26 1010 69 10000 3.6 150 15:18 25.11.2019
3776 Rain 26 1010 69 10000 6.2 150 14:42 25.11.2019
3777 Rain 26 1010 69 10000 6.2 150 14:23 25.11.2019
3778 Rain 26 1010 69 10000 5.7 150 13:55 25.11.2019
3779 Rain 26 1010 69 10000 4.6 150 13:36 25.11.2019
3780 Rain 26 1010 69 10000 4.6 150 13:18 25.11.2019
3781 Rain 26 1009 65 10000 5.1 160 13:18 25.11.2019
3782 Rain 27 1009 65 10000 5.1 160 12:55 25.11.2019
3783 Rain 26 1009 65 10000 3.6 160 12:36 25.11.2019
3784 Rain 27 1008 69 10000 2.6 170 12:18 25.11.2019
3785 Rain 27 1008 61 10000 3.1 170 11:40 25.11.2019
3786 Rain 28 1008 61 10000 3.1 190 11:21 25.11.2019
3787 Rain 28 1008 61 10000 3.1 190 10:58 25.11.2019
3788 Clouds 28 1007 65 10000 4.1 190 10:39 25.11.2019
3789 Clouds 28 1007 65 10000 4.1 190 10:19 25.11.2019
3790 Clouds 29 1006 45 10000 3.6 230 09:42 25.11.2019
3791 Clouds 30 1006 45 10000 3.6 230 09:24 25.11.2019
3792 Rain 30 1007 54 10000 5.7 210 08:42 25.11.2019
3793 Rain 30 1007 54 10000 5.7 210 08:24 25.11.2019
3794 Clouds 32 1007 29 10000 5.1 290 07:56 25.11.2019
3795 Rain 32 1007 35 10000 5.1 310 07:37 25.11.2019
3796 Thunderstorm 31 1007 45 10000 9.8 140 07:18 25.11.2019
3797 Thunderstorm 30 1008 57 8000 8.7 150 06:38 25.11.2019
3798 Rain 34 1008 46 10000 5.1 310 06:18 25.11.2019
3799 Clouds 32 1008 49 10000 5.1 290 05:32 25.11.2019
3800 Clouds 34 1009 55 10000 4.1 300 04:49 25.11.2019
3801 Clouds 33 1011 62 10000 2.6 300 02:36 25.11.2019
3802 Clouds 32 1011 62 10000 1 10 01:44 25.11.2019
3803 Clouds 31 1011 62 10000 1 10 01:24 25.11.2019
3804 Clouds 32 1011 62 10000 0.5 350 00:59 25.11.2019
3805 Rain 31 1011 70 10000 0.5 40 00:21 25.11.2019
3806 Clouds 29 1011 74 10000 1.5 50 23:45 24.11.2019
3807 Clouds 29 1011 74 10000 1.5 50 23:45 24.11.2019
3808 Clouds 28 1010 78 10000 0.9 109 23:21 24.11.2019
3809 Clouds 27 1010 78 10000 0.9 109 22:58 24.11.2019
3810 Clouds 27 1010 83 10000 1 70 22:39 24.11.2019
3811 Clouds 26 1010 83 10000 1 70 22:19 24.11.2019
3812 Clouds 26 1009 83 10000 1 130 21:57 24.11.2019
3813 Rain 26 1009 83 10000 0.9 109 21:39 24.11.2019
3814 Rain 26 1009 83 10000 0.9 109 21:20 24.11.2019
3815 Rain 26 1008 83 10000 0.5 140 20:58 24.11.2019
3816 Rain 26 1009 83 10000 1.5 140 20:38 24.11.2019
3817 Rain 26 1009 83 10000 1.5 140 20:18 24.11.2019
3818 Rain 26 1009 83 10000 2.1 140 19:56 24.11.2019
3819 Rain 26 1008 78 10000 1.5 120 19:38 24.11.2019
3820 Rain 27 1008 78 10000 1 100 19:20 24.11.2019
3821 Rain 27 1008 78 10000 1 100 18:58 24.11.2019
3822 Rain 27 1008 78 10000 1.5 190 18:37 24.11.2019
3823 Rain 27 1009 78 10000 1.5 170 18:19 24.11.2019
3824 Rain 27 1009 78 10000 1.5 170 18:19 24.11.2019
3825 Rain 27 1009 78 10000 1.5 170 17:56 24.11.2019
3826 Clouds 27 1009 78 10000 2.1 150 17:37 24.11.2019
3827 Clouds 27 1009 78 10000 1.5 160 17:19 24.11.2019
3828 Clouds 28 1009 78 10000 1.5 160 16:57 24.11.2019
3829 Rain 27 1009 78 10000 1.5 170 16:38 24.11.2019
3830 Rain 27 1009 78 10000 1.5 170 16:19 24.11.2019
3831 Clouds 28 1010 74 10000 1.5 200 15:43 24.11.2019
3832 Clouds 28 1009 74 10000 2.1 240 15:25 24.11.2019
3833 Clouds 28 1009 66 10000 2.6 240 14:58 24.11.2019
3834 Clouds 28 1009 66 10000 2.6 240 14:58 24.11.2019
3835 Clouds 28 1009 66 10000 2.1 250 14:38 24.11.2019
3836 Clouds 28 1009 66 10000 2.1 250 14:18 24.11.2019
3837 Clouds 28 1009 74 10000 0.5 290 13:54 24.11.2019
3838 Clouds 28 1009 66 10000 1 250 13:36 24.11.2019
3839 Clouds 29 1009 70 10000 1 320 13:18 24.11.2019
3840 Rain 29 1008 66 10000 2.1 340 12:42 24.11.2019
3841 Rain 29 1008 66 10000 3.1 310 12:19 24.11.2019
3842 Rain 29 1008 66 10000 3.1 310 11:58 24.11.2019
3843 Rain 29 1007 62 10000 3.6 290 11:37 24.11.2019
3844 Clouds 30 1007 62 10000 3.6 290 11:18 24.11.2019
3845 Clouds 30 1007 52 10000 4.1 300 10:47 24.11.2019
3846 Clouds 31 1007 52 10000 4.1 300 10:29 24.11.2019
3847 Clouds 32 1007 46 10000 2.6 350 09:58 24.11.2019
3848 Clouds 33 1007 46 10000 3.6 350 09:38 24.11.2019
3849 Clouds 33 1007 46 10000 3.6 350 09:19 24.11.2019
3850 Clouds 33 1007 43 10000 2.6 340 08:56 24.11.2019
3851 Clouds 33 1007 46 10000 3.1 300 08:36 24.11.2019
3852 Clouds 34 1007 46 10000 3.1 300 08:18 24.11.2019
3853 Clouds 34 1007 49 10000 3.1 330 07:45 24.11.2019
3854 Clouds 34 1007 49 10000 3.6 330 07:20 24.11.2019
3855 Clouds 34 1008 52 10000 3.6 350 06:21 24.11.2019
3856 Clouds 34 1009 52 10000 2.1 40 04:54 24.11.2019
3857 Clouds 32 1009 58 10000 2.1 20 04:35 24.11.2019
3858 Clouds 29 1011 62 10000 0.5 70 02:32 24.11.2019
3859 Clouds 28 1012 65 10000 1.5 130 01:42 24.11.2019
3860 Clouds 28 1012 65 10000 1.5 130 01:22 24.11.2019
3861 Clouds 28 1011 69 10000 2.6 140 00:48 24.11.2019
3862 Clouds 27 1011 69 10000 2.6 140 00:24 24.11.2019
3863 Clouds 27 1011 69 10000 3.6 140 23:56 23.11.2019
3864 Clouds 27 1011 69 10000 3.6 140 23:37 23.11.2019
3865 Clouds 26 1011 74 10000 1.5 100 23:19 23.11.2019
3866 Clouds 25 1011 74 10000 1.5 100 22:54 23.11.2019
3867 Clouds 25 1011 74 10000 1.5 100 22:54 23.11.2019
3868 Rain 25 1010 78 10000 1.5 100 22:36 23.11.2019
3869 Rain 24 1010 78 10000 1.5 100 22:18 23.11.2019
3870 Rain 25 1009 74 10000 2.1 180 21:43 23.11.2019
3871 Rain 25 1009 74 10000 2.1 180 21:43 23.11.2019
3872 Rain 25 1009 74 10000 2.1 180 21:23 23.11.2019
3873 Rain 25 1009 74 10000 2.1 180 21:23 23.11.2019
3874 Clouds 25 1009 74 10000 3.1 180 20:59 23.11.2019
3875 Rain 25 1008 78 10000 3.1 160 20:37 23.11.2019
3876 Clouds 25 1008 78 10000 3.1 160 20:19 23.11.2019
3877 Clouds 26 1008 74 10000 2.6 130 19:56 23.11.2019
3878 Clouds 26 1008 78 10000 2.1 130 19:37 23.11.2019
3879 Clouds 26 1008 74 10000 2.1 180 19:18 23.11.2019
3880 Clouds 26 1008 74 10000 2.6 190 18:41 23.11.2019
3881 Clouds 26 1008 69 10000 1.5 190 18:21 23.11.2019
3882 Clouds 26 1008 69 10000 1.5 190 17:59 23.11.2019
3883 Clouds 25 1008 69 10000 2.1 170 17:40 23.11.2019
3884 Clouds 25 1009 69 10000 1.5 160 17:21 23.11.2019
3885 Clouds 25 1009 69 10000 1.5 160 16:56 23.11.2019
3886 Clouds 25 1010 69 10000 1 210 16:38 23.11.2019
3887 Clouds 25 1010 69 10000 1 210 16:20 23.11.2019
3888 Clouds 25 1011 78 10000 2.1 110 15:57 23.11.2019
3889 Rain 25 1011 78 10000 2.1 60 15:38 23.11.2019
3890 Rain 25 1011 78 10000 2.1 60 15:19 23.11.2019
3891 Rain 24 1011 78 10000 6.2 30 14:55 23.11.2019
3892 Rain 24 1011 78 10000 6.2 30 14:37 23.11.2019
3893 Rain 23 1011 78 10000 6.2 30 14:18 23.11.2019
3894 Rain 23 1011 94 10000 7.2 50 13:42 23.11.2019
3895 Rain 23 1011 94 10000 7.2 50 13:19 23.11.2019
3896 Thunderstorm 25 1011 88 6000 11.8 90 12:55 23.11.2019
3897 Thunderstorm 25 1011 73 5000 8.7 120 12:37 23.11.2019
3898 Clouds 28 1009 66 10000 4.6 280 12:19 23.11.2019
3899 Clouds 31 1008 66 10000 3.6 280 11:42 23.11.2019
3900 Rain 31 1008 66 10000 6.2 270 11:19 23.11.2019
3901 Clouds 31 1008 66 10000 6.2 280 10:45 23.11.2019
3902 Clouds 31 1008 66 10000 6.2 280 10:21 23.11.2019
3903 Clouds 32 1007 59 10000 6.2 290 09:42 23.11.2019
3904 Clouds 32 1007 59 10000 6.2 290 09:20 23.11.2019
3905 Clouds 33 1006 52 10000 6.2 290 08:43 23.11.2019
3906 Clouds 34 1006 52 10000 6.2 290 08:20 23.11.2019
3907 Clouds 34 1006 52 10000 6.2 290 07:54 23.11.2019
3908 Clouds 34 1007 56 10000 6.2 290 07:35 23.11.2019
3909 Clouds 33 1007 55 10000 5.7 300 06:47 23.11.2019
3910 Rain 35 1008 50 10000 5.7 320 06:21 23.11.2019
3911 Rain 34 1008 49 10000 6.2 310 05:51 23.11.2019
3912 Rain 34 1008 49 10000 6.2 310 05:29 23.11.2019
3913 Rain 36 1009 47 10000 5.7 310 04:49 23.11.2019
3914 Rain 36 1009 44 10000 4.1 300 04:27 23.11.2019
3915 Clouds 35 1010 41 10000 6.2 290 02:48 23.11.2019
3916 Clouds 34 1011 49 10000 6.2 290 01:51 23.11.2019
3917 Clouds 33 1011 43 10000 6.2 290 01:32 23.11.2019
3918 Clouds 32 1011 52 10000 2.6 180 00:43 23.11.2019
3919 Clouds 31 1011 51 10000 2.6 130 00:18 23.11.2019
3920 Clouds 29 1011 61 10000 1.5 100 23:42 22.11.2019
3921 Clouds 28 1011 69 10000 2.1 140 23:20 22.11.2019
3922 Clouds 27 1011 69 10000 2.1 140 22:57 22.11.2019
3923 Clouds 26 1010 69 10000 2.1 160 22:38 22.11.2019
3924 Clouds 26 1010 69 10000 2.1 160 22:20 22.11.2019
3925 Clouds 26 1010 65 10000 3.1 140 21:58 22.11.2019
3926 Clouds 26 1010 69 10000 3.1 160 21:39 22.11.2019
3927 Clouds 26 1010 69 10000 3.1 160 21:19 22.11.2019
3928 Clouds 27 1010 65 10000 4.1 180 20:43 22.11.2019
3929 Clouds 27 1010 83 10000 3.1 190 20:22 22.11.2019
3930 Clouds 27 1009 78 10000 2.6 160 19:57 22.11.2019
3931 Clouds 27 1009 78 10000 2.6 160 19:37 22.11.2019
3932 Clouds 27 1009 78 10000 2.6 160 19:19 22.11.2019
3933 Clouds 27 1008 78 10000 1 160 18:40 22.11.2019
3934 Clouds 27 1008 78 10000 1 160 18:21 22.11.2019
3935 Clouds 27 1009 78 10000 1 160 17:58 22.11.2019
3936 Clouds 27 1009 78 10000 0.48 79 17:40 22.11.2019
3937 Clear 26 1009 78 10000 2.24 309 17:21 22.11.2019
3938 Clear 27 1010 74 10000 0.5 160 16:42 22.11.2019
3939 Clear 28 1010 69 10000 1.5 160 16:24 22.11.2019
3940 Clouds 28 1010 70 10000 2.6 160 15:45 22.11.2019
3941 Clouds 29 1011 70 10000 2.6 170 15:24 22.11.2019
3942 Clouds 29 1011 70 10000 2.6 170 15:24 22.11.2019
3943 Clouds 29 1011 74 10000 2.6 220 14:56 22.11.2019
3944 Clouds 29 1011 74 10000 2.6 220 14:56 22.11.2019
3945 Clouds 29 1011 70 10000 2.1 200 14:38 22.11.2019
3946 Clouds 29 1011 70 10000 2.1 200 14:19 22.11.2019
3947 Clouds 29 1011 74 10000 1.5 270 13:58 22.11.2019
3948 Clouds 29 1010 70 10000 2.1 280 13:37 22.11.2019
3949 Clouds 29 1010 74 10000 1.5 270 13:18 22.11.2019
3950 Clouds 29 1010 74 10000 1.5 270 12:57 22.11.2019
3951 Clouds 29 1010 74 10000 2.6 260 12:39 22.11.2019
3952 Clouds 30 1010 74 10000 2.6 260 12:18 22.11.2019
3953 Clouds 30 1009 70 10000 3.6 280 11:55 22.11.2019
3954 Clouds 30 1009 66 10000 4.1 280 11:36 22.11.2019
3955 Clouds 30 1009 66 10000 4.1 280 11:18 22.11.2019
3956 Clouds 31 1008 62 10000 5.1 280 10:40 22.11.2019
3957 Clouds 31 1008 62 10000 5.1 280 10:22 22.11.2019
3958 Clouds 31 1008 62 10000 5.1 280 10:22 22.11.2019
3959 Clouds 32 1008 59 10000 5.7 290 09:58 22.11.2019
3960 Clouds 33 1008 52 10000 6.2 290 09:39 22.11.2019
3961 Clouds 33 1008 52 10000 6.2 290 09:21 22.11.2019
3962 Clouds 34 1008 36 10000 6.2 290 08:47 22.11.2019
3963 Clouds 34 1008 36 10000 5.1 290 08:28 22.11.2019
3964 Rain 35 1009 38 10000 5.1 290 07:56 22.11.2019
3965 Rain 35 1008 44 10000 5.1 290 07:37 22.11.2019
3966 Rain 35 1008 44 10000 5.1 290 07:18 22.11.2019
3967 Clouds 35 1009 49 10000 4.1 290 06:41 22.11.2019
3968 Clouds 35 1010 52 10000 3.6 290 05:57 22.11.2019
3969 Clouds 34 1010 49 10000 3.6 320 04:53 22.11.2019
3970 Clouds 33 1011 59 10000 4.6 340 02:59 22.11.2019
3971 Clouds 33 1011 62 10000 5.7 360 02:37 22.11.2019
3972 Clouds 33 1011 62 10000 5.7 360 02:18 22.11.2019
3973 Clouds 32 1012 66 10000 6.2 290 01:42 22.11.2019
3974 Clouds 32 1012 66 10000 6.2 290 01:18 22.11.2019
3975 Clouds 31 1011 66 10000 2.6 10 00:26 22.11.2019
3976 Clouds 30 1012 70 10000 1.5 50 23:57 21.11.2019
3977 Clouds 29 1011 79 10000 2.1 60 23:39 21.11.2019
3978 Clouds 28 1011 79 10000 2.1 60 23:21 21.11.2019
3979 Clouds 27 1011 88 10000 0.5 50 22:54 21.11.2019
3980 Clouds 26 1010 94 10000 1 70 22:36 21.11.2019
3981 Clouds 26 1010 94 10000 1 70 22:18 21.11.2019
3982 Clouds 26 1010 94 10000 0.5 50 21:54 21.11.2019
3983 Clear 25 1009 94 10000 0.75 89 21:36 21.11.2019
3984 Clear 26 1009 94 10000 0.75 89 21:18 21.11.2019
3985 Clear 26 1009 88 10000 1 170 20:55 21.11.2019
3986 Clear 26 1008 83 10000 0.75 89 20:36 21.11.2019
3987 Clear 26 1008 83 10000 0.75 89 20:36 21.11.2019
3988 Clear 26 1008 83 10000 1.86 302 20:18 21.11.2019
3989 Clear 26 1008 88 10000 1.5 30 19:41 21.11.2019
3990 -273 0 0 0 0 0 19:23 21.11.2019
3991 Clear 26 1008 88 10000 1.5 30 19:23 21.11.2019
3992 Clear 26 1008 83 10000 1.5 20 18:59 21.11.2019
3993 Clear 26 1008 83 10000 1 350 18:40 21.11.2019
3994 Clear 26 1008 83 10000 1 350 18:21 21.11.2019
3995 Clear 27 1008 78 10000 0.5 280 17:58 21.11.2019
3996 Clear 27 1008 74 10000 1 270 17:39 21.11.2019
3997 Clear 27 1008 74 10000 1 270 17:21 21.11.2019
3998 Clear 27 1008 79 10000 2.1 280 16:57 21.11.2019
3999 Clouds 28 1009 79 10000 3.1 290 16:39 21.11.2019
4000 Clouds 28 1009 79 10000 3.1 290 16:20 21.11.2019
4001 Clouds 29 1009 79 10000 3.1 310 15:44 21.11.2019
4002 Clouds 29 1009 79 10000 3.1 310 15:21 21.11.2019
4003 Clouds 29 1009 74 10000 3.6 310 14:59 21.11.2019
4004 Clouds 29 1009 74 10000 4.6 310 14:38 21.11.2019
4005 Clouds 30 1009 74 10000 4.6 310 14:20 21.11.2019
4006 Clouds 30 1009 70 10000 5.1 300 13:59 21.11.2019
4007 Clouds 30 1009 70 10000 4.1 290 13:37 21.11.2019
4008 Clouds 29 1009 70 10000 4.1 290 13:19 21.11.2019
4009 Clouds 30 1009 70 10000 4.1 290 12:42 21.11.2019
4010 Clouds 30 1009 70 10000 4.6 290 12:24 21.11.2019
4011 Clouds 30 1008 66 10000 4.6 290 11:56 21.11.2019
4012 Clouds 30 1008 66 10000 4.6 280 11:38 21.11.2019
4013 Clouds 30 1008 66 10000 4.6 280 11:19 21.11.2019
4014 Clouds 31 1008 66 10000 5.1 290 10:43 21.11.2019
4015 Clouds 31 1008 62 10000 5.7 300 10:25 21.11.2019
4016 Clouds 32 1007 59 10000 5.7 310 09:59 21.11.2019
4017 Clouds 33 1007 52 10000 5.7 290 09:41 21.11.2019
4018 Clouds 33 1007 52 10000 5.7 290 09:23 21.11.2019
4019 Clouds 34 1007 46 10000 5.1 300 08:55 21.11.2019
4020 Clouds 34 1006 46 10000 4.6 290 08:37 21.11.2019
4021 Clouds 35 1006 46 10000 4.6 290 08:18 21.11.2019
4022 Clouds 35 1007 56 10000 5.7 310 07:39 21.11.2019
4023 Clouds 34 1007 56 10000 5.7 310 07:18 21.11.2019
4024 Clouds 34 1007 59 10000 5.7 290 06:45 21.11.2019
4025 Clouds 34 1008 59 10000 6.7 300 06:24 21.11.2019
4026 Clouds 34 1009 63 10000 5.7 300 05:27 21.11.2019
4027 Clouds 35 1010 63 10000 4.6 310 03:31 21.11.2019
4028 Clouds 34 1011 62 10000 6.2 290 02:40 21.11.2019
4029 Clouds 33 1011 62 10000 2.1 250 01:52 21.11.2019
4030 Clouds 31 1011 66 10000 2.1 250 01:23 21.11.2019
4031 Clouds 31 1011 74 10000 1.5 200 00:47 21.11.2019
4032 Clouds 30 1011 83 10000 2.6 200 00:20 21.11.2019
4033 Clouds 29 1011 83 10000 2.6 180 23:51 20.11.2019
4034 Clouds 28 1010 79 10000 1 260 23:23 20.11.2019
4035 Clouds 26 1010 78 10000 1.5 230 22:59 20.11.2019
4036 Clouds 26 1009 83 10000 1 360 22:41 20.11.2019
4037 Clouds 25 1009 83 10000 1 360 22:20 20.11.2019
4038 Clear 25 1009 88 10000 1.01 17 21:59 20.11.2019
4039 Clear 24 1009 88 10000 1 50 21:40 20.11.2019
4040 Clear 24 1009 88 10000 1 50 21:22 20.11.2019
4041 Clear 24 1008 88 10000 1 20 20:58 20.11.2019
4042 Clear 25 1008 83 10000 1 40 20:40 20.11.2019
4043 Clear 25 1008 83 10000 1 40 20:22 20.11.2019
4044 Clear 25 1008 83 10000 1 50 19:58 20.11.2019
4045 Clear 25 1008 83 10000 1 50 19:58 20.11.2019
4046 Clear 25 1008 83 10000 1 70 19:37 20.11.2019
4047 Clear 25 1008 83 10000 1 70 19:19 20.11.2019
4048 Clear 25 1008 83 10000 1 70 18:59 20.11.2019
4049 Clear 25 1008 78 10000 1.5 70 18:40 20.11.2019
4050 Clear 25 1008 78 10000 1.5 70 18:22 20.11.2019
4051 Clear 25 1008 78 10000 1.5 60 17:58 20.11.2019
4052 Clear 25 1009 83 10000 1.5 70 17:39 20.11.2019
4053 Clear 26 1009 83 10000 1.5 70 17:21 20.11.2019
4054 Clear 26 1009 83 10000 1.5 100 16:57 20.11.2019
4055 Clear 25 1009 83 10000 0.5 210 16:39 20.11.2019
4056 Clear 25 1009 83 10000 0.5 210 16:19 20.11.2019
4057 Clear 25 1009 83 10000 0.5 210 16:19 20.11.2019
4058 Clear 26 1009 74 10000 1 280 15:57 20.11.2019
4059 Clear 26 1009 78 10000 0.5 300 15:38 20.11.2019
4060 Clear 26 1009 78 10000 0.5 300 15:38 20.11.2019
4061 Clear 26 1009 78 10000 0.5 300 15:19 20.11.2019
4062 Clear 26 1009 74 10000 1.94 326 14:41 20.11.2019
4063 Clouds 26 1009 74 10000 2.44 258 14:22 20.11.2019
4064 Clouds 26 1009 74 10000 1 270 13:59 20.11.2019
4065 Clouds 26 1009 74 10000 1.5 240 13:40 20.11.2019
4066 Clouds 26 1009 74 10000 1.5 240 13:20 20.11.2019
4067 Clouds 26 1008 74 10000 1 250 12:59 20.11.2019
4068 Clouds 26 1008 74 10000 2.1 220 12:38 20.11.2019
4069 Clouds 26 1008 74 10000 2.1 220 12:19 20.11.2019
4070 Clouds 27 1008 65 10000 2.6 240 11:45 20.11.2019
4071 Rain 28 1008 58 10000 1.5 240 11:23 20.11.2019
4072 Clouds 27 1007 58 10000 2.6 240 10:58 20.11.2019
4073 Clouds 28 1007 61 10000 2.1 270 10:39 20.11.2019
4074 Clouds 28 1007 61 10000 2.1 270 10:20 20.11.2019
4075 Clouds 28 1007 58 10000 1.5 220 09:56 20.11.2019
4076 Clouds 28 1007 54 10000 3.1 230 09:37 20.11.2019
4077 Clouds 29 1007 54 10000 3.1 230 09:19 20.11.2019
4078 Rain 30 1007 48 10000 4.1 290 08:42 20.11.2019
4079 Rain 32 1007 48 10000 4.1 290 08:24 20.11.2019
4080 Thunderstorm 32 1006 45 10000 3.6 210 07:50 20.11.2019
4081 Rain 32 1008 45 10000 7.7 140 07:30 20.11.2019
4082 Thunderstorm 33 1007 55 10000 7.7 290 06:55 20.11.2019
4083 Rain 34 1007 56 10000 7.7 290 06:37 20.11.2019
4084 Rain 32 1007 56 10000 7.7 290 06:18 20.11.2019
4085 Clouds 35 1009 55 10000 4.6 310 04:40 20.11.2019
4086 Clouds 34 1010 62 10000 3.6 290 02:23 20.11.2019
4087 Clouds 32 1010 66 10000 6.2 290 01:35 20.11.2019
4088 Clouds 32 1010 74 10000 1 250 00:44 20.11.2019
4089 Clouds 31 1010 74 10000 1 250 00:18 20.11.2019
4090 Clouds 29 1010 79 10000 1 100 23:40 19.11.2019
4091 Clouds 29 1010 79 10000 1 100 23:22 19.11.2019
4092 Clouds 27 1009 83 10000 1 90 22:54 19.11.2019
4093 Clouds 26 1009 88 10000 1.5 70 22:36 19.11.2019
4094 Clouds 25 1009 88 10000 1.5 70 22:18 19.11.2019
4095 Clouds 25 1009 88 10000 2.1 80 21:54 19.11.2019
4096 Clouds 25 1008 88 10000 1 70 21:36 19.11.2019
4097 Clouds 25 1008 88 10000 1 70 21:36 19.11.2019
4098 Clouds 25 1008 88 10000 1 70 21:36 19.11.2019
4099 Clouds 25 1008 88 10000 1 70 21:18 19.11.2019
4100 Clouds 25 1008 88 10000 1.5 80 20:54 19.11.2019
4101 Clouds 25 1008 88 10000 1 70 20:36 19.11.2019
4102 Rain 25 1008 88 10000 1 70 20:18 19.11.2019
4103 Rain 25 1008 88 10000 1 70 20:18 19.11.2019
4104 Rain 26 1008 88 10000 1 70 19:41 19.11.2019
4105 Rain 26 1008 88 10000 1 70 19:41 19.11.2019
4106 Rain 26 1008 88 10000 1 70 19:20 19.11.2019
4107 Rain 26 1008 88 10000 1 90 18:58 19.11.2019
4108 Rain 27 1008 88 10000 1 260 18:39 19.11.2019
4109 Rain 27 1008 88 10000 1 260 18:18 19.11.2019
4110 Rain 27 1008 79 10000 1 260 17:57 19.11.2019
4111 Rain 27 1008 79 10000 1.5 260 17:38 19.11.2019
4112 Rain 28 1008 79 10000 1.5 260 17:19 19.11.2019
4113 Rain 28 1009 79 10000 2.1 260 16:59 19.11.2019
4114 Rain 28 1009 83 10000 2.1 270 16:39 19.11.2019
4115 Rain 28 1009 83 10000 2.1 270 16:19 19.11.2019
4116 Clouds 29 1009 79 10000 2.1 270 15:45 19.11.2019
4117 Clouds 29 1009 79 10000 2.6 260 15:26 19.11.2019
4118 -273 0 0 0 0 0 14:57 19.11.2019
4119 Clouds 29 1009 74 10000 2.6 270 14:39 19.11.2019
4120 Clouds 30 1009 74 10000 2.6 270 14:20 19.11.2019
4121 Clouds 29 1009 74 10000 3.6 270 13:42 19.11.2019
4122 Clouds 30 1009 74 10000 3.6 270 13:20 19.11.2019
4123 Clouds 30 1009 74 10000 4.1 270 12:54 19.11.2019
4124 Clouds 30 1009 74 10000 3.6 270 12:36 19.11.2019
4125 Clouds 30 1009 74 10000 3.6 270 12:18 19.11.2019
4126 Clouds 30 1009 74 10000 3.6 270 11:54 19.11.2019
4127 Clouds 30 1009 66 10000 5.1 250 11:36 19.11.2019
4128 Clouds 30 1009 66 10000 5.1 250 11:18 19.11.2019
4129 Clouds 31 1008 62 10000 6.2 260 10:42 19.11.2019
4130 Clouds 31 1008 62 10000 6.2 260 10:20 19.11.2019
4131 Clouds 31 1008 62 10000 6.2 260 10:20 19.11.2019
4132 Clouds 32 1008 59 10000 5.7 270 09:43 19.11.2019
4133 Clouds 33 1007 59 10000 6.7 290 09:21 19.11.2019
4134 Clouds 33 1007 55 10000 6.7 290 08:57 19.11.2019
4135 Clouds 33 1007 52 10000 6.7 290 08:39 19.11.2019
4136 Clouds 34 1007 52 10000 6.7 290 08:20 19.11.2019
4137 Clouds 35 1007 52 10000 6.2 300 07:42 19.11.2019
4138 Clouds 35 1007 52 10000 6.2 300 07:24 19.11.2019
4139 Clouds 35 1007 49 10000 6.2 310 06:58 19.11.2019
4140 Clouds 35 1007 44 10000 5.7 310 06:37 19.11.2019
4141 Clouds 36 1008 44 10000 5.7 300 06:18 19.11.2019
4142 Clear 36 1008 44 10000 4.6 310 05:18 19.11.2019
4143 Clear 35 1010 41 10000 2.6 250 03:39 19.11.2019
4144 Clear 34 1010 41 10000 2.6 250 03:19 19.11.2019
4145 Clouds 34 1010 43 10000 6.2 290 02:45 19.11.2019
4146 Clouds 32 1011 45 10000 2.1 220 01:48 19.11.2019
4147 Clouds 31 1011 48 10000 1 230 00:46 19.11.2019
4148 Clouds 29 1011 51 10000 1.5 100 00:19 19.11.2019
4149 Clouds 28 1010 74 10000 1.5 120 23:39 18.11.2019
4150 Clouds 27 1010 74 10000 1.5 120 23:19 18.11.2019
4151 Clouds 27 1010 74 10000 1 120 22:46 18.11.2019
4152 Clouds 26 1010 78 10000 0.5 60 22:24 18.11.2019
4153 Clouds 26 1009 74 10000 0.5 350 21:58 18.11.2019
4154 Clouds 26 1009 69 10000 1 290 21:40 18.11.2019
4155 Clouds 26 1009 69 10000 1 290 21:21 18.11.2019
4156 Clouds 26 1008 74 10000 2.6 310 20:59 18.11.2019
4157 Clouds 26 1008 69 10000 3.1 280 20:40 18.11.2019
4158 Rain 26 1008 69 10000 3.1 280 20:19 18.11.2019
4159 Rain 26 1009 69 10000 2.6 60 19:57 18.11.2019
4160 Clouds 26 1009 74 10000 5.7 60 19:38 18.11.2019
4161 Clouds 26 1009 74 10000 5.7 60 19:20 18.11.2019
4162 Clouds 27 1010 78 10000 7.7 80 18:56 18.11.2019
4163 Rain 27 1009 78 10000 3.1 100 18:38 18.11.2019
4164 Rain 27 1009 78 10000 3.1 100 18:19 18.11.2019
4165 Rain 27 1009 78 10000 0.5 310 17:55 18.11.2019
4166 Rain 27 1009 78 10000 0.5 330 17:37 18.11.2019
4167 Rain 27 1009 78 10000 0.5 330 17:18 18.11.2019
4168 Rain 28 1009 74 10000 1 340 16:42 18.11.2019
4169 Clouds 29 1010 70 10000 1.5 330 16:24 18.11.2019
4170 Clouds 29 1010 70 10000 2.1 330 15:58 18.11.2019
4171 Clouds 29 1010 70 10000 2.1 290 15:39 18.11.2019
4172 Clouds 29 1010 70 10000 2.1 290 15:39 18.11.2019
4173 Clouds 29 1010 70 10000 2.1 290 15:20 18.11.2019
4174 Clouds 30 1010 70 10000 2.1 270 14:56 18.11.2019
4175 Clouds 30 1010 70 10000 2.6 270 14:37 18.11.2019
4176 Clouds 30 1010 70 10000 2.6 270 14:18 18.11.2019
4177 Clouds 30 1010 70 10000 3.6 280 13:42 18.11.2019
4178 Clouds 30 1010 70 10000 3.6 280 13:23 18.11.2019
4179 Clouds 30 1009 70 10000 3.1 270 12:40 18.11.2019
4180 Clouds 29 1009 70 10000 3.1 270 12:20 18.11.2019
4181 Clouds 30 1009 66 10000 3.6 280 11:56 18.11.2019
4182 Clouds 30 1009 62 10000 2.6 280 11:38 18.11.2019
4183 Clear 30 1009 62 10000 2.6 280 11:19 18.11.2019
4184 Clear 30 1009 66 0 4.14 306 10:43 18.11.2019
4185 Clouds 31 1009 52 10000 3.1 290 10:25 18.11.2019
4186 Clouds 32 1008 52 10000 3.6 300 09:57 18.11.2019
4187 Clouds 32 1008 55 10000 5.7 280 09:38 18.11.2019
4188 Clouds 32 1008 55 10000 5.7 280 09:19 18.11.2019
4189 Clouds 32 1008 55 10000 5.7 280 09:19 18.11.2019
4190 Clouds 32 1008 55 10000 3.6 330 08:47 18.11.2019
4191 Clouds 32 1007 55 10000 4.6 340 08:24 18.11.2019
4192 Rain 32 1008 40 10000 4.1 300 07:58 18.11.2019
4193 Rain 32 1009 55 10000 4.6 300 07:38 18.11.2019
4194 Rain 32 1009 55 10000 4.6 300 07:20 18.11.2019
4195 Rain 34 1009 55 10000 6.2 310 06:43 18.11.2019
4196 Rain 34 1009 55 10000 6.2 310 06:25 18.11.2019
4197 Clouds 35 1010 55 10000 5.1 290 05:41 18.11.2019
4198 Clouds 34 1011 55 10000 4.1 310 03:53 18.11.2019
4199 Clouds 32 1013 66 10000 3.6 340 01:40 18.11.2019
4200 Clouds 32 1012 62 10000 3.6 340 00:53 18.11.2019
4201 Clouds 31 1012 70 10000 3.6 350 00:19 18.11.2019
4202 Clouds 30 1012 74 10000 1.5 360 23:41 17.11.2019
4203 Clouds 29 1012 74 10000 1.5 360 23:21 17.11.2019
4204 Clouds 27 1012 78 10000 1.5 350 22:57 17.11.2019
4205 Clouds 27 1011 83 10000 1.5 360 22:39 17.11.2019
4206 Clouds 27 1011 83 10000 1.5 360 22:39 17.11.2019
4207 Clouds 26 1011 83 10000 1.5 360 22:20 17.11.2019
4208 Clouds 26 1011 88 10000 1.5 360 21:55 17.11.2019
4209 Clouds 25 1011 94 10000 1 360 21:36 17.11.2019
4210 Clouds 25 1011 94 10000 1 360 21:18 17.11.2019
4211 Clouds 25 1011 94 10000 1 360 21:18 17.11.2019
4212 Clear 25 1010 88 10000 1.12 335 20:54 17.11.2019
4213 Clear 26 1010 88 10000 0.5 80 20:36 17.11.2019
4214 Rain 26 1010 88 10000 0.5 80 20:18 17.11.2019
4215 Rain 26 1010 88 10000 1.5 70 19:54 17.11.2019
4216 Rain 26 1010 83 10000 2.6 70 19:36 17.11.2019
4217 Rain 26 1010 83 10000 2.6 70 19:18 17.11.2019
4218 Clouds 27 1010 88 10000 2.1 70 18:54 17.11.2019
4219 Clouds 27 1010 83 10000 2.1 360 18:36 17.11.2019
4220 Clouds 27 1010 83 10000 2.1 360 18:18 17.11.2019
4221 Rain 27 1011 78 10000 1.5 10 17:56 17.11.2019
4222 Rain 27 1011 78 10000 2.1 350 17:38 17.11.2019
4223 Rain 27 1011 78 10000 2.1 350 17:18 17.11.2019
4224 Rain 28 1011 74 10000 2.6 340 16:42 17.11.2019
4225 Rain 28 1011 74 10000 2.6 340 16:21 17.11.2019
4226 Rain 29 1011 74 10000 2.6 330 15:57 17.11.2019
4227 Rain 29 1011 74 10000 2.6 340 15:39 17.11.2019
4228 Rain 29 1011 74 10000 2.6 340 15:19 17.11.2019
4229 Rain 29 1012 74 10000 3.6 360 14:57 17.11.2019
4230 Clouds 29 1012 70 10000 3.6 360 14:39 17.11.2019
4231 Clouds 29 1012 70 10000 3.6 360 14:39 17.11.2019
4232 Clouds 29 1012 70 10000 3.6 360 14:20 17.11.2019
4233 Clouds 29 1011 66 10000 3.6 360 13:58 17.11.2019
4234 Clouds 29 1011 66 10000 4.1 350 13:40 17.11.2019
4235 Clouds 29 1011 66 10000 4.1 350 13:19 17.11.2019
4236 Clouds 29 1011 62 10000 4.1 350 12:45 17.11.2019
4237 Clouds 30 1010 70 10000 5.1 330 12:24 17.11.2019
4238 Clouds 30 1010 62 10000 4.6 320 11:58 17.11.2019
4239 Clouds 30 1009 66 10000 5.7 320 11:40 17.11.2019
4240 Clouds 30 1009 66 10000 5.7 320 11:21 17.11.2019
4241 Clouds 30 1009 66 10000 5.1 310 10:56 17.11.2019
4242 Clouds 30 1009 62 10000 5.1 290 10:36 17.11.2019
4243 Clouds 31 1009 62 10000 5.1 290 10:18 17.11.2019
4244 Clouds 32 1008 43 10000 1.5 320 09:41 17.11.2019
4245 Clouds 32 1008 43 10000 1.5 320 09:23 17.11.2019
4246 Clouds 32 1008 43 10000 3.6 280 08:44 17.11.2019
4247 Clouds 32 1008 43 10000 3.6 280 08:24 17.11.2019
4248 Clouds 33 1008 36 10000 4.1 290 07:56 17.11.2019
4249 Rain 33 1008 36 10000 6.2 300 07:38 17.11.2019
4250 Rain 33 1008 36 10000 6.2 300 07:19 17.11.2019
4251 Thunderstorm 31 1010 54 8000 9.8 50 06:50 17.11.2019
4252 Thunderstorm 33 1009 49 10000 7.7 300 06:28 17.11.2019
4253 Clouds 35 1010 56 10000 6.2 310 04:57 17.11.2019
4254 Clouds 34 1011 55 10000 4.6 290 03:59 17.11.2019
4255 Clouds 34 1012 55 10000 3.1 280 03:33 17.11.2019
4256 Clouds 34 1012 55 10000 3.1 270 02:59 17.11.2019
4257 Clouds 33 1013 59 10000 2.6 290 01:50 17.11.2019
4258 Clouds 32 1012 66 10000 1.5 270 00:59 17.11.2019
4259 Clouds 32 1012 66 10000 2.6 290 00:24 17.11.2019
4260 Clouds 31 1012 70 10000 1.5 300 23:59 16.11.2019
4261 Clouds 30 1012 74 10000 1.5 350 23:40 16.11.2019
4262 Clouds 30 1012 74 10000 1.5 350 23:40 16.11.2019
4263 Clouds 29 1012 74 10000 1.5 350 23:18 16.11.2019
4264 Clouds 27 1011 88 10000 1.5 270 22:42 16.11.2019
4265 Clouds 26 1011 88 10000 1.5 270 22:20 16.11.2019
4266 Clouds 26 1011 88 10000 0.5 330 21:58 16.11.2019
4267 Clouds 26 1011 88 10000 1 320 21:40 16.11.2019
4268 Clouds 26 1011 88 10000 1 320 21:21 16.11.2019
4269 Rain 26 1011 88 10000 1.18 335 20:58 16.11.2019
4270 Rain 27 1011 83 10000 1 300 20:39 16.11.2019
4271 Clouds 27 1011 83 10000 1 300 20:19 16.11.2019
4272 Clouds 27 1010 83 10000 2.1 350 19:41 16.11.2019
4273 Clouds 27 1010 83 10000 2.1 350 19:22 16.11.2019
4274 Clouds 27 1010 83 10000 1.5 330 18:59 16.11.2019
4275 Clouds 27 1010 83 10000 2.1 340 18:39 16.11.2019
4276 Clouds 27 1010 83 10000 2.1 340 18:20 16.11.2019
4277 Clouds 27 1011 78 10000 2.1 330 17:55 16.11.2019
4278 Clouds 27 1011 78 10000 1.5 350 17:36 16.11.2019
4279 Clouds 27 1011 74 10000 2.26 326 17:18 16.11.2019
4280 Clouds 27 1011 74 10000 2.26 326 16:44 16.11.2019
4281 Clouds 27 1011 74 10000 2.26 326 16:44 16.11.2019
4282 Clouds 28 1012 70 10000 1.5 110 16:26 16.11.2019
4283 Clouds 28 1012 74 10000 2.26 326 15:54 16.11.2019
4284 Clouds 28 1012 74 10000 1 250 15:36 16.11.2019
4285 Clouds 28 1012 74 10000 1 250 15:18 16.11.2019
4286 Clouds 28 1012 66 10000 1.5 230 14:40 16.11.2019
4287 Clouds 28 1012 66 10000 1.5 230 14:40 16.11.2019
4288 Clouds 29 1012 66 10000 1.5 230 14:21 16.11.2019
4289 Clear 29 1011 66 10000 5.1 300 13:56 16.11.2019
4290 Clear 29 1011 66 10000 5.1 300 13:38 16.11.2019
4291 Clear 29 1011 66 10000 5.1 300 13:19 16.11.2019
4292 Clear 30 1010 66 10000 5.1 310 12:58 16.11.2019
4293 Clear 30 1010 58 10000 5.7 320 12:40 16.11.2019
4294 Clear 30 1010 58 10000 5.7 320 12:20 16.11.2019
4295 Clouds 30 1009 58 10000 5.1 310 11:45 16.11.2019
4296 Clouds 30 1010 58 10000 5.7 270 11:26 16.11.2019
4297 Clouds 31 1009 58 10000 4.6 270 10:57 16.11.2019
4298 Clouds 31 1009 55 10000 3.6 260 10:39 16.11.2019
4299 Clouds 31 1009 55 10000 3.6 260 10:20 16.11.2019
4300 Clouds 32 1009 55 10000 4.6 270 09:43 16.11.2019
4301 Clouds 32 1009 55 10000 4.6 270 09:21 16.11.2019
4302 Clouds 33 1008 52 10000 5.1 300 08:58 16.11.2019
4303 Clear 34 1008 52 10000 4.6 340 08:38 16.11.2019
4304 Clouds 34 1008 52 10000 4.6 340 08:18 16.11.2019
4305 Clouds 34 1008 52 10000 6.7 310 07:42 16.11.2019
4306 Clouds 34 1008 52 10000 6.7 310 07:21 16.11.2019
4307 Clouds 34 1009 52 10000 6.2 310 06:52 16.11.2019
4308 Clouds 35 1009 52 10000 5.7 320 06:33 16.11.2019
4309 Clouds 36 1010 52 10000 4.6 310 05:30 16.11.2019
4310 Clouds 35 1012 55 10000 3.6 300 03:49 16.11.2019
4311 Clouds 35 1012 59 10000 4.1 290 03:25 16.11.2019
4312 Clouds 33 1013 55 10000 2.6 350 01:51 16.11.2019
4313 Clouds 33 1013 55 10000 2.6 10 01:20 16.11.2019
4314 Clouds 33 1013 62 10000 0.5 150 00:46 16.11.2019
4315 Clouds 32 1012 70 10000 0.5 340 00:26 16.11.2019
4316 Clouds 29 1012 83 10000 1 50 23:40 15.11.2019
4317 Clouds 28 1012 83 10000 1 50 23:21 15.11.2019
4318 Clouds 27 1011 88 10000 1 70 22:57 15.11.2019
4319 Clouds 26 1011 94 10000 1 70 22:38 15.11.2019
4320 Clouds 25 1011 94 10000 1 70 22:18 15.11.2019
4321 Clouds 25 1010 94 10000 0.58 2 21:42 15.11.2019
4322 Clouds 25 1010 94 10000 0.58 2 21:21 15.11.2019
4323 Clear 25 1010 94 10000 0.5 80 20:59 15.11.2019
4324 Clear 25 1010 94 10000 0.58 2 20:40 15.11.2019
4325 Clouds 25 1010 94 10000 1.64 322 20:22 15.11.2019
4326 Clouds 26 1010 88 10000 1.64 322 19:59 15.11.2019
4327 Clouds 26 1009 88 10000 1.64 322 19:41 15.11.2019
4328 Clouds 26 1009 88 10000 1.64 322 19:21 15.11.2019
4329 Clouds 26 1009 83 10000 1.64 322 18:59 15.11.2019
4330 Clouds 27 1009 83 10000 1 360 18:41 15.11.2019
4331 Clouds 26 1009 83 10000 1 360 18:41 15.11.2019
4332 Clouds 27 1009 83 10000 1 360 18:22 15.11.2019
4333 Clouds 27 1010 83 10000 1.5 360 17:54 15.11.2019
4334 Clouds 27 1010 83 10000 1.5 350 17:36 15.11.2019
4335 Clouds 27 1010 83 10000 1.5 350 17:18 15.11.2019
4336 Clouds 28 1011 83 10000 1.5 330 16:40 15.11.2019
4337 Clouds 28 1011 83 10000 1.5 330 16:22 15.11.2019
4338 Clouds 28 1011 83 10000 2.1 360 15:57 15.11.2019
4339 Clouds 28 1011 83 10000 1.5 350 15:36 15.11.2019
4340 Clouds 28 1011 83 10000 1.5 350 15:18 15.11.2019
4341 Clouds 28 1011 83 10000 2.1 320 14:55 15.11.2019
4342 Clouds 29 1011 79 10000 3.1 320 14:36 15.11.2019
4343 Clouds 29 1011 79 10000 3.1 320 14:18 15.11.2019
4344 Clouds 29 1011 79 10000 3.1 300 13:54 15.11.2019
4345 Clouds 29 1011 79 10000 3.1 300 13:54 15.11.2019
4346 Clouds 29 1010 79 10000 4.1 290 13:36 15.11.2019
4347 Clouds 29 1010 79 10000 4.1 290 13:18 15.11.2019
4348 Clouds 29 1010 79 10000 5.7 300 12:55 15.11.2019
4349 Clouds 29 1009 74 10000 5.7 300 12:36 15.11.2019
4350 Clouds 30 1009 74 10000 5.7 300 12:18 15.11.2019
4351 Clear 30 1008 66 10000 4.6 290 11:39 15.11.2019
4352 Clouds 30 1008 66 10000 4.6 290 11:21 15.11.2019
4353 Clouds 30 1008 66 10000 4.1 290 10:58 15.11.2019
4354 Clouds 31 1007 62 10000 4.6 290 10:39 15.11.2019
4355 Clouds 31 1007 62 10000 4.6 290 10:20 15.11.2019
4356 Clouds 32 1007 62 10000 6.2 300 09:41 15.11.2019
4357 Clouds 32 1007 62 10000 6.2 300 09:20 15.11.2019
4358 Clouds 32 1007 66 10000 6.7 290 08:57 15.11.2019
4359 Clouds 32 1007 66 10000 6.7 290 08:57 15.11.2019
4360 Clouds 33 1007 63 10000 7.2 300 08:39 15.11.2019
4361 Clouds 34 1007 63 10000 7.2 300 08:18 15.11.2019
4362 Clouds 33 1007 66 10000 7.7 310 07:42 15.11.2019
4363 Clouds 34 1007 66 10000 7.2 300 07:22 15.11.2019
4364 Rain 34 1008 62 10000 6.7 310 06:36 15.11.2019
4365 Clouds 34 1008 63 10000 6.2 290 05:52 15.11.2019
4366 Clouds 34 1008 63 10000 6.2 290 05:52 15.11.2019
4367 Clouds 35 1009 63 10000 6.2 300 05:28 15.11.2019
4368 Clouds 36 1009 66 10000 6.2 300 04:45 15.11.2019
4369 Clouds 35 1010 52 10000 2.6 210 03:38 15.11.2019
4370 Clouds 34 1011 59 10000 2.6 160 02:32 15.11.2019
4371 Clouds 33 1011 59 10000 2.6 210 01:51 15.11.2019
4372 Clouds 32 1011 62 10000 2.1 210 01:24 15.11.2019
4373 Clouds 31 1011 70 10000 0.5 170 00:40 15.11.2019
4374 Clouds 30 1010 74 10000 0.5 150 00:20 15.11.2019
4375 Clouds 29 1010 78 10000 1 140 23:45 14.11.2019
4376 Clouds 29 1010 78 10000 1 140 23:25 14.11.2019
4377 Clouds 26 1009 88 10000 1 90 22:41 14.11.2019
4378 Clouds 25 1009 88 10000 1 90 22:22 14.11.2019
4379 Clouds 25 1009 94 10000 1 50 21:58 14.11.2019
4380 Clouds 25 1009 94 10000 1 50 21:58 14.11.2019
4381 Clear 25 1008 88 10000 0.5 50 21:40 14.11.2019
4382 Clear 25 1008 88 10000 0.5 50 21:21 14.11.2019
4383 Clear 25 1008 88 10000 1 50 20:55 14.11.2019
4384 Clear 25 1008 88 10000 1 50 20:37 14.11.2019
4385 Clouds 25 1008 88 10000 1 50 20:18 14.11.2019
4386 Clouds 25 1008 88 10000 1 30 19:54 14.11.2019
4387 Clouds 25 1008 83 10000 1 30 19:36 14.11.2019
4388 Clouds 25 1008 83 10000 0.5 60 19:18 14.11.2019
4389 Clouds 25 1008 83 10000 0.5 60 19:18 14.11.2019
4390 Clouds 25 1009 78 10000 2.6 60 18:42 14.11.2019
4391 Clouds 26 1009 78 10000 2.6 60 18:22 14.11.2019
4392 Clouds 26 1009 83 10000 3.1 50 17:57 14.11.2019
4393 Clouds 26 1009 83 10000 3.1 50 17:38 14.11.2019
4394 Rain 26 1009 83 10000 1.5 60 17:20 14.11.2019
4395 Rain 26 1009 83 10000 1.5 60 16:58 14.11.2019
4396 Rain 26 1010 83 10000 1 90 16:37 14.11.2019
4397 Rain 26 1010 83 10000 1 90 16:19 14.11.2019
4398 Rain 26 1010 83 10000 1.5 80 15:58 14.11.2019
4399 Rain 26 1010 78 10000 0.5 150 15:38 14.11.2019
4400 Rain 26 1010 78 10000 0.5 150 15:20 14.11.2019
4401 Rain 27 1010 65 10000 1.5 160 14:55 14.11.2019
4402 Rain 27 1010 69 10000 2.6 180 14:37 14.11.2019
4403 Rain 27 1010 69 10000 2.6 180 14:18 14.11.2019
4404 Rain 27 1009 65 10000 3.6 220 13:41 14.11.2019
4405 Clouds 27 1009 65 10000 3.6 220 13:22 14.11.2019
4406 Clouds 28 1008 65 10000 1.5 330 12:57 14.11.2019
4407 Clouds 28 1008 69 10000 2.6 310 12:38 14.11.2019
4408 Clouds 27 1008 69 10000 2.6 310 12:19 14.11.2019
4409 Clouds 27 1008 69 10000 4.1 270 11:54 14.11.2019
4410 Clouds 28 1008 65 10000 4.1 240 11:36 14.11.2019
4411 Clouds 29 1008 65 10000 4.1 240 11:18 14.11.2019
4412 Clouds 29 1008 65 10000 4.1 240 11:18 14.11.2019
4413 Clouds 30 1007 74 10000 4.6 270 10:41 14.11.2019
4414 Clouds 30 1007 74 10000 4.6 270 10:21 14.11.2019
4415 Clouds 31 1007 66 10000 4.1 270 09:59 14.11.2019
4416 Clouds 31 1007 46 10000 5.1 240 09:41 14.11.2019
4417 Clouds 32 1007 46 10000 5.1 240 09:23 14.11.2019
4418 Clouds 31 1007 58 10000 4.6 290 08:49 14.11.2019
4419 Clouds 31 1007 58 10000 4.6 290 08:28 14.11.2019
4420 Clouds 29 1007 58 10000 3.6 270 07:59 14.11.2019
4421 Thunderstorm 28 1007 61 10000 3.6 270 07:38 14.11.2019
4422 Thunderstorm 28 1007 61 10000 3.6 270 07:20 14.11.2019
4423 Rain 30 1009 79 3000 7.2 360 06:45 14.11.2019
4424 Rain 34 1008 52 10000 6.7 300 06:19 14.11.2019
4425 Clouds 33 1010 59 10000 5.7 290 04:49 14.11.2019
4426 Clouds 33 1011 46 10000 3.1 270 04:27 14.11.2019
4427 Clouds 33 1012 43 10000 2.6 270 02:49 14.11.2019
4428 Clouds 32 1012 59 10000 3.1 260 02:29 14.11.2019
4429 Clouds 31 1012 62 10000 1.5 220 01:40 14.11.2019
4430 Clouds 30 1012 66 10000 1.5 260 00:55 14.11.2019
4431 Clouds 30 1012 70 10000 2.1 280 00:36 14.11.2019
4432 Clouds 30 1012 70 10000 2.1 280 00:18 14.11.2019
4433 Clouds 30 1011 70 10000 2.6 270 23:37 13.11.2019
4434 Clouds 30 1011 70 10000 2.6 270 23:19 13.11.2019
4435 Clouds 28 1011 78 10000 2.1 300 22:41 13.11.2019
4436 Clouds 26 1011 78 10000 2.1 300 22:23 13.11.2019
4437 Clouds 27 1010 78 10000 1.5 300 21:57 13.11.2019
4438 Clouds 27 1010 78 10000 1.5 310 21:39 13.11.2019
4439 Clouds 27 1010 78 10000 1.5 310 21:20 13.11.2019
4440 Clouds 27 1010 78 10000 1.5 330 20:58 13.11.2019
4441 Clouds 27 1010 78 10000 1.5 330 20:58 13.11.2019
4442 Clouds 27 1010 78 10000 1.5 340 20:38 13.11.2019
4443 Rain 27 1010 78 10000 1.5 340 20:19 13.11.2019
4444 Clouds 28 1010 78 10000 2.6 350 19:59 13.11.2019
4445 Clouds 28 1010 78 10000 2.6 360 19:40 13.11.2019
4446 Clouds 28 1010 78 10000 2.6 360 19:18 13.11.2019
4447 Clouds 28 1010 83 10000 2.6 20 18:55 13.11.2019
4448 Clouds 28 1010 83 10000 2.6 20 18:55 13.11.2019
4449 Clouds 27 1010 83 10000 3.6 10 18:37 13.11.2019
4450 Clouds 28 1010 83 10000 3.6 10 18:18 13.11.2019
4451 Clouds 28 1010 83 10000 3.6 10 17:56 13.11.2019
4452 Clouds 28 1010 79 10000 2.1 10 17:37 13.11.2019
4453 Clouds 28 1010 79 10000 2.1 10 17:19 13.11.2019
4454 Clouds 28 1011 74 10000 2.1 360 16:56 13.11.2019
4455 Clouds 28 1011 74 10000 2.6 350 16:37 13.11.2019
4456 Clouds 28 1011 74 10000 2.6 350 16:37 13.11.2019
4457 Clouds 29 1011 74 10000 2.6 350 16:18 13.11.2019
4458 Clouds 29 1011 74 10000 2.1 330 15:56 13.11.2019
4459 Clouds 29 1011 74 10000 2.1 330 15:56 13.11.2019
4460 Clouds 29 1011 74 10000 2.6 320 15:37 13.11.2019
4461 Clouds 29 1011 74 10000 2.6 320 15:18 13.11.2019
4462 Rain 29 1010 70 10000 3.6 300 14:41 13.11.2019
4463 Clouds 29 1010 70 10000 4.1 300 14:21 13.11.2019
4464 Clouds 29 1010 70 10000 4.6 280 13:39 13.11.2019
4465 Clouds 29 1010 70 10000 4.6 280 13:20 13.11.2019
4466 Clouds 29 1010 74 10000 5.1 270 12:59 13.11.2019
4467 Clouds 29 1009 74 10000 4.6 280 12:41 13.11.2019
4468 Clouds 29 1009 74 10000 4.6 280 12:23 13.11.2019
4469 Clouds 29 1009 66 10000 4.6 270 11:57 13.11.2019
4470 Clouds 30 1009 45 10000 5.7 250 11:38 13.11.2019
4471 Clouds 30 1009 45 10000 5.7 250 11:38 13.11.2019
4472 Clouds 29 1009 45 10000 5.7 250 11:19 13.11.2019
4473 Clouds 29 1009 58 10000 1.5 170 10:55 13.11.2019
4474 Rain 28 1010 65 10000 8.2 140 10:37 13.11.2019
4475 Rain 28 1010 65 10000 8.2 140 10:19 13.11.2019
4476 Clouds 31 1008 55 10000 6.2 290 09:42 13.11.2019
4477 Clouds 32 1008 55 10000 6.2 290 09:21 13.11.2019
4478 Clouds 33 1008 55 10000 7.2 290 08:42 13.11.2019
4479 Clouds 33 1008 59 10000 7.2 300 08:23 13.11.2019
4480 Rain 34 1008 55 10000 6.7 300 07:59 13.11.2019
4481 Clouds 34 1008 55 10000 7.2 300 07:39 13.11.2019
4482 Clouds 34 1008 55 10000 7.2 300 07:18 13.11.2019
4483 Clouds 35 1009 52 10000 6.2 300 06:42 13.11.2019
4484 Clouds 35 1009 52 10000 6.2 300 06:19 13.11.2019
4485 Clouds 35 1010 55 10000 5.7 310 05:48 13.11.2019
4486 Clouds 35 1010 56 10000 5.1 290 05:22 13.11.2019
4487 Clouds 35 1011 55 10000 4.6 300 03:57 13.11.2019
4488 Clouds 33 1013 59 10000 5.1 300 01:52 13.11.2019
4489 Clouds 32 1013 62 10000 2.6 260 01:27 13.11.2019
4490 Clouds 32 1013 66 10000 2.1 270 00:43 13.11.2019
4491 Clouds 30 1013 66 10000 1.5 330 23:58 12.11.2019
4492 Clouds 30 1012 74 10000 2.1 330 23:40 12.11.2019
4493 Clouds 29 1012 74 10000 2.1 330 23:20 12.11.2019
4494 Clouds 27 1012 78 10000 1 330 22:43 12.11.2019
4495 Clouds 27 1012 78 10000 1.5 310 22:20 12.11.2019
4496 Clouds 27 1012 74 10000 1 330 21:58 12.11.2019
4497 Clouds 27 1012 74 10000 1.5 340 21:39 12.11.2019
4498 Clouds 27 1012 74 10000 1.5 340 21:21 12.11.2019
4499 Clouds 27 1011 78 10000 2.1 350 20:56 12.11.2019
4500 Clouds 28 1011 78 10000 3.1 360 20:37 12.11.2019
4501 Clouds 28 1011 78 10000 3.1 360 20:18 12.11.2019
4502 Clouds 28 1011 78 10000 3.1 360 20:18 12.11.2019
4503 Clouds 28 1011 78 10000 2.6 350 19:56 12.11.2019
4504 Clouds 28 1011 78 10000 3.1 360 19:38 12.11.2019
4505 Clouds 28 1011 78 10000 3.1 360 19:18 12.11.2019
4506 Clouds 28 1010 78 10000 4.1 360 18:55 12.11.2019
4507 Clouds 28 1011 74 10000 4.1 10 18:37 12.11.2019
4508 Clouds 28 1011 74 10000 4.1 10 18:37 12.11.2019
4509 Clouds 28 1011 74 10000 4.1 10 18:19 12.11.2019
4510 Clouds 28 1011 74 10000 3.6 10 17:55 12.11.2019
4511 Clouds 28 1011 78 10000 3.6 10 17:37 12.11.2019
4512 Clouds 28 1011 78 10000 3.6 10 17:37 12.11.2019
4513 Clouds 28 1011 78 10000 3.6 10 17:18 12.11.2019
4514 Clouds 28 1011 78 10000 3.6 10 17:18 12.11.2019
4515 Clouds 28 1012 70 10000 2.6 360 16:43 12.11.2019
4516 Clouds 28 1012 70 10000 2.6 360 16:25 12.11.2019
4517 Clouds 29 1012 66 10000 2.6 350 15:57 12.11.2019
4518 Clouds 29 1012 66 10000 3.6 340 15:39 12.11.2019
4519 Clouds 29 1012 66 10000 3.6 340 15:20 12.11.2019
4520 Clouds 29 1012 58 10000 4.1 330 14:55 12.11.2019
4521 Clouds 29 1012 58 10000 4.6 310 14:36 12.11.2019
4522 Clouds 29 1012 58 10000 4.6 310 14:18 12.11.2019
4523 Clouds 30 1012 58 10000 4.6 310 13:54 12.11.2019
4524 Clouds 30 1012 62 10000 4.6 300 13:36 12.11.2019
4525 Clouds 29 1012 62 10000 4.6 300 13:18 12.11.2019
4526 Clouds 30 1011 58 10000 4.1 290 12:39 12.11.2019
4527 Clouds 30 1011 58 10000 4.1 290 12:19 12.11.2019
4528 Clouds 30 1010 52 10000 4.6 290 11:55 12.11.2019
4529 Clouds 30 1010 52 10000 5.1 290 11:36 12.11.2019
4530 Clouds 30 1010 52 10000 5.1 290 11:18 12.11.2019
4531 Clouds 30 1010 52 10000 4.6 290 10:55 12.11.2019
4532 Clouds 31 1009 52 10000 5.1 290 10:36 12.11.2019
4533 Clouds 31 1009 52 10000 5.1 290 10:18 12.11.2019
4534 Clouds 32 1009 38 10000 4.6 290 09:39 12.11.2019
4535 Clouds 33 1009 38 10000 4.6 290 09:20 12.11.2019
4536 Clouds 34 1008 38 10000 4.6 310 08:49 12.11.2019
4537 Clouds 33 1009 43 10000 4.6 320 08:29 12.11.2019
4538 Clouds 34 1009 43 10000 4.6 320 07:43 12.11.2019
4539 Clouds 34 1009 41 10000 5.1 300 07:25 12.11.2019
4540 Clouds 34 1009 41 10000 5.7 300 06:54 12.11.2019
4541 Clouds 34 1010 41 10000 5.1 330 06:28 12.11.2019
4542 Clouds 35 1010 38 10000 5.7 300 05:57 12.11.2019
4543 Clouds 35 1010 41 10000 3.6 330 04:59 12.11.2019
4544 Clouds 36 1011 46 10000 4.1 310 04:37 12.11.2019
4545 Clouds 35 1012 52 10000 3.1 300 02:48 12.11.2019
4546 Clear 33 1013 43 10000 1.5 80 01:38 12.11.2019
4547 Clouds 33 1013 43 10000 1.5 80 01:18 12.11.2019
4548 Clouds 32 1012 55 10000 1 20 00:40 12.11.2019
4549 Clouds 31 1012 55 10000 1 20 00:21 12.11.2019
4550 Clouds 29 1012 78 10000 1 70 23:42 11.11.2019
4551 Clouds 28 1012 78 10000 1 70 23:21 11.11.2019
4552 Clouds 25 1011 94 10000 1 70 22:39 11.11.2019
4553 Clouds 24 1011 94 10000 1 70 22:20 11.11.2019
4554 Clouds 25 1011 88 10000 0.18 221 21:59 11.11.2019
4555 Clouds 25 1011 88 10000 0.18 221 21:39 11.11.2019
4556 Clouds 25 1011 88 10000 0.18 221 21:21 11.11.2019
4557 Clouds 25 1010 88 10000 0.5 60 20:59 11.11.2019
4558 Clouds 25 1010 88 10000 1 70 20:41 11.11.2019
4559 Clouds 25 1010 88 10000 1 70 20:20 11.11.2019
4560 Clouds 25 1010 88 10000 1 70 20:20 11.11.2019
4561 Clouds 25 1010 88 10000 1 70 19:56 11.11.2019
4562 Clouds 25 1010 78 10000 1.5 80 19:37 11.11.2019
4563 Clouds 26 1010 78 10000 1.5 80 19:18 11.11.2019
4564 Clouds 26 1010 78 10000 1.5 360 18:41 11.11.2019
4565 Clouds 26 1010 78 10000 1.5 20 18:21 11.11.2019
4566 Clouds 27 1010 74 10000 1.5 10 17:59 11.11.2019
4567 Clouds 28 1010 74 10000 2.1 360 17:40 11.11.2019
4568 Clouds 28 1010 74 10000 2.1 360 17:22 11.11.2019
4569 Clouds 28 1010 70 10000 1.5 340 16:39 11.11.2019
4570 Clouds 28 1010 70 10000 2.6 330 16:20 11.11.2019
4571 Clouds 29 1011 66 10000 2.6 310 15:55 11.11.2019
4572 Clouds 29 1011 70 10000 3.6 300 15:37 11.11.2019
4573 Clouds 29 1011 70 10000 3.6 300 15:19 11.11.2019
4574 Clouds 29 1011 66 10000 4.1 290 14:42 11.11.2019
4575 Clouds 29 1011 66 10000 4.6 290 14:24 11.11.2019
4576 Clouds 29 1010 70 10000 4.1 290 13:57 11.11.2019
4577 Clouds 29 1010 70 10000 4.6 290 13:37 11.11.2019
4578 Clouds 29 1010 70 10000 4.6 290 13:19 11.11.2019
4579 Clouds 29 1010 70 10000 4.6 290 13:19 11.11.2019
4580 Clouds 29 1010 70 10000 4.6 290 12:56 11.11.2019
4581 Clouds 29 1009 66 10000 3.6 280 12:38 11.11.2019
4582 Clouds 29 1009 66 10000 3.6 280 12:20 11.11.2019
4583 Clouds 30 1009 55 10000 3.1 260 11:41 11.11.2019
4584 Clouds 30 1009 55 10000 3.1 260 11:22 11.11.2019
4585 Clouds 30 1008 49 10000 3.6 270 10:56 11.11.2019
4586 Clouds 31 1008 43 10000 3.6 270 10:38 11.11.2019
4587 Clouds 32 1008 43 10000 3.6 270 10:18 11.11.2019
4588 Clouds 33 1008 33 10000 4.6 280 09:43 11.11.2019
4589 Clouds 33 1008 38 10000 6.2 290 09:21 11.11.2019
4590 Clouds 34 1007 41 10000 6.7 290 08:59 11.11.2019
4591 Clouds 34 1007 38 10000 6.2 300 08:37 11.11.2019
4592 Clear 35 1007 38 10000 6.2 300 08:18 11.11.2019
4593 Clear 35 1007 36 10000 5.7 310 07:54 11.11.2019
4594 Clear 36 1008 26 10000 4.6 310 07:36 11.11.2019
4595 Clear 36 1008 26 10000 4.6 310 07:18 11.11.2019
4596 Clear 37 1008 25 10000 4.6 300 06:40 11.11.2019
4597 Clear 36 1008 30 10000 4.6 310 06:20 11.11.2019
4598 Clear 36 1009 34 10000 4.1 300 05:49 11.11.2019
4599 Clear 36 1011 41 10000 4.6 340 03:56 11.11.2019
4600 Clear 36 1011 41 10000 4.6 340 03:56 11.11.2019
4601 Clear 35 1011 38 10000 3.6 20 02:55 11.11.2019
4602 Clouds 35 1012 36 10000 3.6 10 02:18 11.11.2019
4603 Clouds 34 1012 38 10000 3.1 10 01:51 11.11.2019
4604 Clouds 33 1011 43 10000 2.6 10 01:31 11.11.2019
4605 Clouds 33 1011 55 10000 2.1 360 00:41 11.11.2019
4606 Clouds 30 1011 79 10000 1 20 23:58 10.11.2019
4607 Clouds 29 1011 78 10000 1 50 23:39 10.11.2019
4608 Clouds 28 1011 78 10000 1 50 23:19 10.11.2019
4609 Clouds 27 1011 83 10000 1 40 22:57 10.11.2019
4610 Clouds 26 1011 83 10000 1 40 22:38 10.11.2019
4611 Clouds 26 1010 88 10000 1.5 70 22:20 10.11.2019
4612 Clouds 25 1010 88 10000 1 50 21:57 10.11.2019
4613 Clouds 25 1010 88 10000 1 50 21:38 10.11.2019
4614 Clouds 25 1010 88 10000 1.5 70 21:20 10.11.2019
4615 Clouds 25 1010 88 10000 1.5 70 21:20 10.11.2019
4616 Clouds 26 1010 88 10000 1 50 20:42 10.11.2019
4617 Clouds 25 1010 88 10000 1.5 80 20:22 10.11.2019
4618 Clouds 25 1010 88 10000 1.5 80 20:22 10.11.2019
4619 Clouds 25 1010 88 10000 1.5 80 20:22 10.11.2019
4620 Rain 25 1009 88 10000 1.5 100 19:57 10.11.2019
4621 Rain 26 1009 88 10000 1.5 100 19:38 10.11.2019
4622 Rain 26 1009 88 10000 1.5 100 19:19 10.11.2019
4623 Rain 26 1009 88 10000 1.5 90 18:58 10.11.2019
4624 Rain 26 1009 88 10000 1.5 90 18:58 10.11.2019
4625 Rain 26 1009 88 10000 1.5 90 18:40 10.11.2019
4626 Clouds 26 1010 83 10000 2.06 327 18:20 10.11.2019
4627 Clouds 26 1010 83 10000 2.06 327 18:20 10.11.2019
4628 Clouds 26 1010 83 10000 1 280 17:57 10.11.2019
4629 Rain 26 1010 78 10000 1.5 280 17:39 10.11.2019
4630 Clouds 27 1010 78 10000 1.5 280 17:20 10.11.2019
4631 Clouds 27 1010 78 10000 1 280 16:58 10.11.2019
4632 Clouds 27 1010 78 10000 1 280 16:40 10.11.2019
4633 Clouds 28 1010 74 10000 2.1 290 16:21 10.11.2019
4634 Clouds 28 1010 74 10000 2.1 310 15:56 10.11.2019
4635 Clouds 28 1010 74 10000 3.1 300 15:37 10.11.2019
4636 Clouds 28 1010 74 10000 3.1 300 15:37 10.11.2019
4637 Clouds 28 1010 74 10000 3.1 300 15:18 10.11.2019
4638 Clouds 28 1010 70 10000 3.1 310 14:55 10.11.2019
4639 Clouds 29 1010 66 10000 4.1 320 14:36 10.11.2019
4640 Clouds 29 1010 66 10000 4.1 320 14:18 10.11.2019
4641 Clouds 29 1010 66 10000 4.6 310 13:42 10.11.2019
4642 Clouds 29 1010 66 10000 5.7 310 13:21 10.11.2019
4643 Clouds 29 1009 66 10000 5.1 310 12:55 10.11.2019
4644 Clouds 30 1009 70 10000 5.1 300 12:37 10.11.2019
4645 Clouds 30 1009 70 10000 5.1 300 12:18 10.11.2019
4646 Clear 30 1008 70 10000 6.7 310 11:54 10.11.2019
4647 Clear 30 1008 62 10000 5.1 310 11:36 10.11.2019
4648 Clear 30 1008 62 10000 5.1 310 11:18 10.11.2019
4649 Clear 31 1008 62 10000 4.6 320 10:41 10.11.2019
4650 Clear 31 1008 62 10000 4.6 330 10:20 10.11.2019
4651 Clouds 32 1008 52 10000 4.1 350 09:45 10.11.2019
4652 Clouds 32 1007 49 10000 3.6 350 09:27 10.11.2019
4653 Clouds 33 1007 46 10000 4.1 360 08:59 10.11.2019
4654 Clouds 33 1007 46 10000 4.1 360 08:38 10.11.2019
4655 Clouds 33 1007 46 10000 4.1 360 08:38 10.11.2019
4656 Clouds 34 1007 39 10000 4.6 340 08:19 10.11.2019
4657 Clouds 35 1008 46 10000 4.6 340 07:43 10.11.2019
4658 Clouds 34 1008 55 10000 5.1 340 07:25 10.11.2019
4659 Clouds 34 1008 55 10000 5.1 340 07:25 10.11.2019
4660 Rain 34 1009 49 10000 4.1 320 06:33 10.11.2019
4661 Clear 36 1009 49 10000 4.1 320 05:43 10.11.2019
4662 Clear 36 1011 32 10000 3.6 290 03:22 10.11.2019
4663 Clouds 34 1013 49 10000 2.6 90 01:56 10.11.2019
4664 Clouds 32 1013 55 10000 1.5 30 01:19 10.11.2019
4665 Clouds 32 1012 59 10000 2.1 50 00:42 10.11.2019
4666 Clouds 30 1012 70 10000 1.5 50 23:58 09.11.2019
4667 Clouds 29 1011 69 10000 1.5 70 23:38 09.11.2019
4668 Clouds 29 1011 69 10000 1.5 70 23:18 09.11.2019
4669 Clouds 27 1011 69 10000 2.1 60 22:41 09.11.2019
4670 Clouds 25 1011 69 10000 1.5 80 22:21 09.11.2019
4671 Clouds 25 1010 69 10000 1 90 21:56 09.11.2019
4672 Clouds 25 1010 69 10000 1 90 21:38 09.11.2019
4673 Clouds 25 1010 74 10000 1.5 60 21:20 09.11.2019
4674 Clouds 25 1010 74 10000 2.1 10 20:44 09.11.2019
4675 Clouds 25 1010 74 10000 1.5 20 20:23 09.11.2019
4676 Clouds 25 1010 74 10000 6.2 50 19:58 09.11.2019
4677 Clouds 26 1010 74 10000 6.2 50 19:40 09.11.2019
4678 Clouds 26 1010 74 10000 6.2 50 19:40 09.11.2019
4679 Clouds 27 1011 74 10000 8.7 70 19:21 09.11.2019
4680 Clouds 27 1010 83 10000 3.6 70 18:57 09.11.2019
4681 Clouds 28 1010 83 10000 2.07 33 18:38 09.11.2019
4682 Clouds 28 1010 83 10000 2.07 33 18:18 09.11.2019
4683 Clouds 27 1010 83 10000 2.07 33 17:41 09.11.2019
4684 Clouds 27 1010 83 10000 1.65 354 17:22 09.11.2019
4685 Clouds 28 1010 83 10000 1.65 354 16:56 09.11.2019
4686 Clouds 28 1010 79 10000 1 290 16:37 09.11.2019
4687 Clouds 28 1010 79 10000 1 290 16:37 09.11.2019
4688 Clouds 28 1010 79 10000 1 290 16:18 09.11.2019
4689 Clouds 28 1010 79 10000 1 290 15:41 09.11.2019
4690 Clouds 28 1011 79 10000 1 340 15:23 09.11.2019
4691 Clouds 28 1011 79 10000 1.5 260 14:46 09.11.2019
4692 Clouds 28 1011 79 10000 1.5 290 14:23 09.11.2019
4693 Clouds 29 1010 79 10000 1.5 280 13:58 09.11.2019
4694 Clouds 29 1010 79 10000 1.5 280 13:40 09.11.2019
4695 Rain 29 1010 70 10000 2.6 260 13:21 09.11.2019
4696 Rain 29 1010 74 10000 2.6 250 12:58 09.11.2019
4697 Rain 29 1010 74 10000 2.6 250 12:40 09.11.2019
4698 Rain 30 1009 70 10000 3.6 250 12:21 09.11.2019
4699 Clouds 30 1009 70 10000 3.6 240 11:48 09.11.2019
4700 Clouds 30 1009 62 10000 3.6 240 11:22 09.11.2019
4701 Clouds 31 1008 66 10000 3.6 250 10:58 09.11.2019
4702 Clouds 31 1008 66 10000 4.6 250 10:39 09.11.2019
4703 Clouds 31 1008 66 10000 4.6 250 10:19 09.11.2019
4704 Clouds 32 1008 62 10000 5.1 280 09:45 09.11.2019
4705 Clouds 32 1007 62 10000 6.2 290 09:26 09.11.2019
4706 Clouds 33 1007 55 10000 6.2 290 08:57 09.11.2019
4707 Clouds 33 1007 52 10000 6.7 300 08:39 09.11.2019
4708 Clouds 34 1007 52 10000 6.7 300 08:19 09.11.2019
4709 Clouds 34 1007 52 10000 6.7 300 07:44 09.11.2019
4710 Clouds 35 1008 52 10000 6.7 300 07:22 09.11.2019
4711 Clouds 34 1008 49 10000 6.7 290 06:49 09.11.2019
4712 Clouds 34 1008 49 10000 5.7 300 06:30 09.11.2019
4713 Clouds 35 1009 46 10000 5.7 300 05:42 09.11.2019
4714 Clouds 35 1010 46 10000 4.6 290 04:56 09.11.2019
4715 Clouds 35 1011 52 10000 3.6 290 03:37 09.11.2019
4716 Clouds 35 1012 52 10000 3.6 290 02:42 09.11.2019
4717 Clouds 34 1013 49 10000 0.5 290 01:55 09.11.2019
4718 Clouds 33 1013 49 10000 1 160 00:51 09.11.2019
4719 Clouds 33 1012 52 10000 0.5 20 00:31 09.11.2019
4720 Clouds 32 1012 55 10000 1 30 23:57 08.11.2019
4721 Clouds 30 1012 66 10000 1 60 23:38 08.11.2019
4722 Clouds 30 1012 66 10000 1 60 23:19 08.11.2019
4723 Clouds 27 1011 78 10000 0.96 341 22:47 08.11.2019
4724 Clouds 26 1011 83 10000 0.96 341 22:22 08.11.2019
4725 Clouds 26 1011 83 10000 0.96 341 21:56 08.11.2019
4726 Clouds 26 1010 83 10000 0.96 341 21:38 08.11.2019
4727 Clouds 26 1010 83 10000 0.96 341 21:18 08.11.2019
4728 Clouds 26 1010 83 10000 0.96 341 20:41 08.11.2019
4729 Clouds 27 1010 83 10000 2.02 336 20:21 08.11.2019
4730 Clouds 27 1010 78 10000 1 350 19:58 08.11.2019
4731 Clouds 27 1010 74 10000 1 20 19:38 08.11.2019
4732 Clouds 27 1010 74 10000 1 20 19:18 08.11.2019
4733 Clouds 27 1010 74 10000 1 20 19:18 08.11.2019
4734 Clouds 27 1010 74 10000 1.5 360 18:55 08.11.2019
4735 Clouds 28 1011 70 10000 2.1 360 18:37 08.11.2019
4736 Clouds 28 1011 70 10000 2.1 360 18:19 08.11.2019
4737 Clouds 28 1011 70 10000 1.5 360 17:55 08.11.2019
4738 Clouds 28 1011 70 10000 1.5 360 17:55 08.11.2019
4739 Clouds 28 1011 74 10000 1.5 340 17:37 08.11.2019
4740 Clouds 28 1011 74 10000 1.5 340 17:18 08.11.2019
4741 Clouds 28 1011 70 10000 2.1 330 16:58 08.11.2019
4742 Clouds 28 1011 74 10000 2.1 300 16:39 08.11.2019
4743 Clouds 28 1011 74 10000 2.1 300 16:19 08.11.2019
4744 Clouds 28 1011 74 10000 2.1 290 15:56 08.11.2019
4745 Clouds 28 1011 74 10000 2.1 290 15:38 08.11.2019
4746 Clouds 28 1011 74 10000 2.1 290 15:20 08.11.2019
4747 Clouds 28 1011 70 10000 2.6 290 14:55 08.11.2019
4748 Clouds 28 1011 70 10000 2.1 300 14:36 08.11.2019
4749 Clouds 28 1011 70 10000 2.1 300 14:18 08.11.2019
4750 Clouds 28 1012 66 10000 1.5 280 13:43 08.11.2019
4751 Clouds 28 1011 66 10000 2.1 280 13:23 08.11.2019
4752 Clouds 28 1011 66 10000 2.6 290 12:59 08.11.2019
4753 Clouds 28 1010 66 10000 2.6 270 12:41 08.11.2019
4754 Clouds 28 1010 66 10000 2.6 270 12:23 08.11.2019
4755 Clouds 29 1010 66 10000 3.1 270 11:55 08.11.2019
4756 Clouds 29 1010 66 10000 3.1 270 11:37 08.11.2019
4757 Clouds 29 1010 66 10000 3.1 270 11:19 08.11.2019
4758 Clouds 29 1010 70 10000 2.1 270 10:43 08.11.2019
4759 Clouds 29 1009 62 10000 2.1 240 10:22 08.11.2019
4760 Clouds 30 1009 66 10000 2.6 260 09:59 08.11.2019
4761 Rain 31 1009 58 10000 5.1 290 09:41 08.11.2019
4762 Rain 31 1009 58 10000 5.1 290 09:20 08.11.2019
4763 Thunderstorm 31 1009 58 10000 5.1 280 08:54 08.11.2019
4764 Rain 33 1008 55 10000 4.1 290 08:36 08.11.2019
4765 Rain 33 1008 55 10000 4.1 290 08:18 08.11.2019
4766 Clouds 33 1008 52 10000 5.1 330 07:39 08.11.2019
4767 Clouds 33 1008 52 10000 5.1 330 07:20 08.11.2019
4768 Clouds 32 1009 59 10000 4.6 330 06:40 08.11.2019
4769 Clouds 32 1009 59 10000 4.6 330 06:20 08.11.2019
4770 Clouds 33 1009 55 10000 5.7 300 05:53 08.11.2019
4771 Clouds 32 1010 55 10000 4.6 310 05:19 08.11.2019
4772 Clouds 33 1011 55 10000 3.6 310 03:44 08.11.2019
4773 Clouds 33 1011 55 10000 3.6 310 03:21 08.11.2019
4774 Clouds 32 1011 59 10000 3.1 300 02:42 08.11.2019
4775 Clouds 32 1012 55 10000 3.1 280 01:47 08.11.2019
4776 Clouds 31 1012 62 10000 1 160 01:22 08.11.2019
4777 Clouds 30 1012 70 10000 1 360 00:24 08.11.2019
4778 Clouds 29 1012 74 10000 1.5 30 23:58 07.11.2019
4779 Clouds 29 1011 74 10000 1.5 20 23:40 07.11.2019
4780 Clouds 29 1011 74 10000 1.5 20 23:21 07.11.2019
4781 Clouds 27 1011 78 10000 0.5 50 22:42 07.11.2019
4782 Clouds 25 1010 88 10000 0.5 360 22:21 07.11.2019
4783 Clouds 26 1010 88 10000 0.5 30 21:56 07.11.2019
4784 Clouds 25 1010 88 10000 0.5 50 21:37 07.11.2019
4785 Clouds 25 1010 88 10000 0.5 50 21:19 07.11.2019
4786 Clouds 26 1010 83 10000 1 360 20:57 07.11.2019
4787 Clouds 26 1010 83 10000 1.5 20 20:38 07.11.2019
4788 Clear 26 1010 83 10000 1.5 20 20:20 07.11.2019
4789 Clear 26 1010 83 10000 2.1 20 19:54 07.11.2019
4790 Clear 27 1010 83 10000 2.1 360 19:36 07.11.2019
4791 Clear 27 1010 83 10000 2.1 360 19:18 07.11.2019
4792 Clear 27 1010 74 10000 2.1 360 18:55 07.11.2019
4793 Clear 27 1010 74 10000 2.1 350 18:36 07.11.2019
4794 Clear 27 1010 74 10000 2.1 350 18:18 07.11.2019
4795 Clear 28 1010 78 10000 2.1 330 17:40 07.11.2019
4796 Clear 28 1010 78 10000 2.1 330 17:40 07.11.2019
4797 Clear 28 1010 74 10000 3.1 330 17:21 07.11.2019
4798 Clear 28 1010 74 10000 3.1 330 16:58 07.11.2019
4799 Clear 28 1010 79 10000 3.1 330 16:40 07.11.2019
4800 Clear 28 1010 79 10000 3.1 330 16:20 07.11.2019
4801 Clouds 28 1010 74 10000 3.1 320 15:57 07.11.2019
4802 Clouds 28 1010 74 10000 2.1 310 15:38 07.11.2019
4803 Clouds 28 1010 74 10000 2.1 310 15:19 07.11.2019
4804 Clouds 28 1010 66 10000 2.1 250 14:45 07.11.2019
4805 Clouds 28 1010 66 10000 2.1 250 14:27 07.11.2019
4806 Clouds 28 1010 66 10000 2.1 250 14:27 07.11.2019
4807 Clouds 28 1010 66 10000 2.1 250 13:57 07.11.2019
4808 Clouds 28 1010 70 10000 1 90 13:38 07.11.2019
4809 Clouds 28 1010 70 10000 1 90 13:20 07.11.2019
4810 Clouds 28 1010 62 10000 1 20 12:58 07.11.2019
4811 Clouds 29 1009 55 10000 1 30 12:40 07.11.2019
4812 Clouds 29 1009 55 10000 1 30 12:21 07.11.2019
4813 Clouds 29 1009 55 10000 1.5 350 11:58 07.11.2019
4814 Clouds 30 1009 45 10000 3.6 350 11:39 07.11.2019
4815 Clouds 30 1009 45 10000 3.6 350 11:20 07.11.2019
4816 Clouds 31 1008 43 10000 4.1 360 10:40 07.11.2019
4817 Clouds 31 1008 43 10000 4.1 360 10:19 07.11.2019
4818 Clouds 32 1007 49 10000 5.7 360 09:43 07.11.2019
4819 Clouds 32 1007 49 10000 5.7 360 09:22 07.11.2019
4820 Clouds 33 1007 43 10000 6.2 360 08:57 07.11.2019
4821 Clouds 33 1007 41 10000 6.7 340 08:38 07.11.2019
4822 Clouds 34 1007 41 10000 6.7 340 08:19 07.11.2019
4823 Clouds 34 1007 41 10000 6.7 340 08:19 07.11.2019
4824 Clouds 34 1007 41 10000 6.7 340 08:19 07.11.2019
4825 Rain 34 1007 43 10000 5.1 10 07:42 07.11.2019
4826 Rain 35 1007 43 10000 5.1 10 07:22 07.11.2019
4827 Clouds 35 1008 46 10000 4.6 10 07:00 07.11.2019
4828 Clouds 33 1008 58 10000 3.6 340 06:40 07.11.2019
4829 Clouds 33 1008 58 10000 3.6 340 06:40 07.11.2019
4830 Clouds 31 1008 58 10000 3.6 340 06:21 07.11.2019
4831 Clouds 31 1008 58 10000 3.6 340 06:21 07.11.2019
4832 Clouds 32 1009 59 10000 4.6 320 05:47 07.11.2019
4833 Clouds 33 1009 59 10000 4.6 320 05:29 07.11.2019
4834 Clouds 34 1010 52 10000 5.1 320 04:49 07.11.2019
4835 Clouds 33 1010 52 10000 5.1 320 04:26 07.11.2019
4836 Clouds 31 1011 66 10000 3.6 350 01:18 07.11.2019
4837 Clouds 30 1011 74 10000 3.1 350 00:23 07.11.2019
4838 Clouds 30 1011 74 10000 3.1 350 00:23 07.11.2019
4839 Clouds 29 1010 74 10000 3.6 360 23:49 06.11.2019
4840 Clouds 29 1010 74 10000 2.1 350 23:23 06.11.2019
4841 Clouds 29 1010 74 10000 2.1 350 23:23 06.11.2019
4842 Clouds 27 1010 88 10000 1 350 22:58 06.11.2019
4843 Clouds 26 1009 83 10000 1.5 340 22:39 06.11.2019
4844 Clouds 26 1009 83 10000 1.5 340 22:19 06.11.2019
4845 Clouds 26 1009 94 10000 1 360 21:57 06.11.2019
4846 Clouds 26 1009 94 10000 1.5 360 21:38 06.11.2019
4847 Clouds 26 1009 94 10000 1.5 360 21:38 06.11.2019
4848 Clouds 26 1009 94 10000 1.5 360 21:19 06.11.2019
4849 Clouds 26 1009 94 10000 1.5 360 21:19 06.11.2019
4850 Clear 26 1008 88 10000 1.5 330 20:55 06.11.2019
4851 Clear 26 1008 88 10000 1.5 350 20:37 06.11.2019
4852 Rain 26 1008 88 10000 2.1 340 20:18 06.11.2019
4853 Rain 27 1008 88 10000 2.1 340 19:40 06.11.2019
4854 Rain 27 1008 88 10000 2.1 340 19:22 06.11.2019
4855 Rain 27 1008 83 10000 2.6 340 18:59 06.11.2019
4856 Rain 27 1008 88 10000 3.1 350 18:39 06.11.2019
4857 Rain 27 1008 88 10000 3.1 350 18:20 06.11.2019
4858 Rain 27 1009 88 10000 2.1 360 17:59 06.11.2019
4859 Clouds 27 1008 88 10000 1.5 330 17:41 06.11.2019
4860 Clouds 27 1008 88 10000 1.5 330 17:22 06.11.2019
4861 Clouds 28 1009 74 10000 4.1 350 16:57 06.11.2019
4862 Rain 28 1009 79 10000 2.6 320 16:38 06.11.2019
4863 Rain 28 1009 79 10000 2.6 320 16:19 06.11.2019
4864 Clouds 28 1009 79 10000 3.1 340 15:57 06.11.2019
4865 Clouds 28 1009 83 10000 1.5 320 15:37 06.11.2019
4866 Clouds 28 1009 83 10000 1.5 320 15:19 06.11.2019
4867 Clouds 28 1009 83 10000 1.5 280 14:57 06.11.2019
4868 Rain 28 1009 79 10000 1.5 280 14:38 06.11.2019
4869 Clouds 28 1009 79 10000 1.5 280 14:20 06.11.2019
4870 Clouds 28 1008 79 10000 2.1 270 13:57 06.11.2019
4871 Clouds 28 1008 79 10000 2.6 270 13:37 06.11.2019
4872 Clouds 28 1008 79 10000 2.6 270 13:18 06.11.2019
4873 Clouds 29 1008 83 10000 2.6 280 12:54 06.11.2019
4874 Clouds 29 1008 83 10000 2.6 290 12:36 06.11.2019
4875 Clouds 29 1008 83 10000 2.6 290 12:18 06.11.2019
4876 Clouds 29 1007 79 10000 3.6 300 11:54 06.11.2019
4877 Clouds 29 1007 74 10000 3.6 300 11:36 06.11.2019
4878 Clouds 30 1007 74 10000 3.6 300 11:18 06.11.2019
4879 Clouds 30 1006 74 10000 4.1 300 10:42 06.11.2019
4880 Clouds 30 1006 74 10000 4.6 300 10:24 06.11.2019
4881 Clouds 30 1006 74 10000 4.6 300 10:24 06.11.2019
4882 Clouds 31 1006 74 10000 5.1 290 09:58 06.11.2019
4883 Clouds 31 1005 74 10000 6.2 300 09:38 06.11.2019
4884 Clouds 31 1005 74 10000 6.2 300 09:20 06.11.2019
4885 Clouds 33 1005 66 10000 5.1 310 08:55 06.11.2019
4886 Rain 33 1005 70 10000 6.2 330 08:37 06.11.2019
4887 Rain 33 1005 70 10000 6.2 330 08:18 06.11.2019
4888 Clouds 35 1005 32 10000 5.1 20 07:41 06.11.2019
4889 Clouds 36 1005 32 10000 5.1 20 07:22 06.11.2019
4890 Clouds 37 1006 34 10000 6.2 310 06:48 06.11.2019
4891 Clouds 37 1006 37 10000 6.2 310 06:28 06.11.2019
4892 Clouds 36 1007 36 10000 5.1 130 05:32 06.11.2019
4893 Clouds 32 1010 58 10000 4.6 170 02:54 06.11.2019
4894 Clouds 31 1011 74 10000 3.6 150 01:41 06.11.2019
4895 Clouds 29 1011 74 10000 3.1 150 00:46 06.11.2019
4896 Clouds 28 1011 74 10000 3.1 150 00:46 06.11.2019
4897 Clouds 26 1010 83 10000 1.5 150 23:59 05.11.2019
4898 Clouds 26 1010 83 10000 2.1 110 23:40 05.11.2019
4899 Clouds 25 1010 83 10000 2.1 110 23:21 05.11.2019
4900 Rain 24 1010 88 10000 2.1 140 22:55 05.11.2019
4901 Rain 24 1009 88 10000 2.1 140 22:37 05.11.2019
4902 Rain 23 1009 88 10000 2.1 140 22:18 05.11.2019
4903 Clouds 23 1009 88 10000 1 130 21:42 05.11.2019
4904 Clouds 23 1009 88 10000 1.5 120 21:21 05.11.2019
4905 Clouds 23 1009 88 10000 1 130 20:59 05.11.2019
4906 Clouds 23 1008 94 10000 1 70 20:39 05.11.2019
4907 Clouds 23 1008 94 10000 1 70 20:20 05.11.2019
4908 Clouds 23 1009 94 10000 0.95 167 19:58 05.11.2019
4909 Clouds 23 1009 94 10000 0.95 167 19:38 05.11.2019
4910 Clouds 23 1009 94 10000 0.95 167 19:20 05.11.2019
4911 Clouds 23 1009 88 10000 0.5 210 18:57 05.11.2019
4912 Clouds 23 1009 88 10000 1 150 18:39 05.11.2019
4913 Clouds 23 1009 88 10000 1 150 18:39 05.11.2019
4914 Clouds 23 1009 88 10000 1 150 18:20 05.11.2019
4915 Clouds 23 1009 88 10000 1 150 18:20 05.11.2019
4916 Rain 23 1009 88 10000 1.5 120 17:58 05.11.2019
4917 Rain 23 1010 94 9000 1.5 150 17:38 05.11.2019
4918 Rain 23 1010 94 9000 1.5 150 17:18 05.11.2019
4919 Rain 23 1010 88 10000 0.5 90 16:55 05.11.2019
4920 Rain 23 1010 94 10000 2.6 40 16:37 05.11.2019
4921 Rain 23 1010 94 10000 2.6 40 16:18 05.11.2019
4922 Thunderstorm 23 1012 88 5000 6.7 130 15:38 05.11.2019
4923 Thunderstorm 23 1012 88 5000 6.7 130 15:19 05.11.2019
4924 Rain 25 1010 94 10000 0.5 360 14:58 05.11.2019
4925 Rain 25 1010 94 10000 2.6 10 14:39 05.11.2019
4926 Rain 25 1010 94 10000 2.6 10 14:21 05.11.2019
4927 Rain 25 1010 88 10000 1.5 10 13:44 05.11.2019
4928 Rain 24 1010 94 10000 1 300 13:25 05.11.2019
4929 Thunderstorm 24 1010 88 9000 3.6 180 12:59 05.11.2019
4930 Thunderstorm 25 1010 78 3500 2.1 190 12:39 05.11.2019
4931 Thunderstorm 26 1010 78 3500 2.1 190 12:20 05.11.2019
4932 Thunderstorm 28 1009 78 10000 3.6 270 11:55 05.11.2019
4933 Clouds 28 1009 78 10000 3.6 250 11:36 05.11.2019
4934 Clouds 28 1009 78 10000 3.6 250 11:18 05.11.2019
4935 Clouds 29 1008 70 10000 4.1 260 10:42 05.11.2019
4936 Clouds 29 1008 70 10000 4.1 290 10:24 05.11.2019
4937 Clouds 30 1008 66 10000 3.1 280 09:58 05.11.2019
4938 Clouds 31 1007 58 10000 3.6 260 09:39 05.11.2019
4939 Clouds 31 1007 58 10000 3.6 260 09:19 05.11.2019
4940 Clouds 32 1007 58 10000 3.6 250 08:55 05.11.2019
4941 Clouds 31 1007 66 10000 4.6 250 08:36 05.11.2019
4942 Clouds 31 1007 66 10000 4.6 250 08:18 05.11.2019
4943 Clouds 31 1008 58 10000 4.1 260 07:42 05.11.2019
4944 Clouds 32 1008 58 10000 4.1 260 07:23 05.11.2019
4945 Clouds 31 1009 66 10000 4.1 250 06:51 05.11.2019
4946 Clouds 30 1009 66 10000 2.6 210 05:54 05.11.2019
4947 Clouds 30 1009 66 10000 2.6 210 05:54 05.11.2019
4948 Rain 30 1010 66 10000 2.6 180 05:36 05.11.2019
4949 Rain 30 1010 66 10000 2.6 180 05:18 05.11.2019
4950 Clouds 30 1011 66 10000 3.1 230 04:18 05.11.2019
4951 Clouds 29 1012 65 10000 3.1 200 03:24 05.11.2019
4952 Clouds 28 1013 74 10000 2.6 240 02:41 05.11.2019
4953 Clouds 27 1013 83 10000 3.1 240 01:52 05.11.2019
4954 Rain 24 1013 94 10000 3.1 220 00:41 05.11.2019
4955 Rain 25 1013 94 10000 3.1 220 00:23 05.11.2019
4956 Rain 23 1013 100 4000 2.1 180 23:41 04.11.2019
4957 Rain 23 1013 100 4000 2.1 180 23:19 04.11.2019
4958 Rain 23 1013 100 3000 2.1 200 22:55 04.11.2019
4959 Rain 22 1013 100 4000 2.6 170 22:37 04.11.2019
4960 Rain 22 1013 100 4000 2.6 170 22:19 04.11.2019
4961 Rain 23 1013 94 7000 0.5 150 21:54 04.11.2019
4962 Rain 22 1012 94 10000 0.5 330 21:36 04.11.2019
4963 Rain 22 1012 94 10000 0.5 330 21:18 04.11.2019
4964 Rain 22 1012 94 5000 8.2 70 20:55 04.11.2019
4965 Rain 23 1011 94 10000 2.6 180 20:36 04.11.2019
4966 Rain 23 1011 94 10000 2.6 180 20:36 04.11.2019
4967 Clouds 24 1011 94 10000 2.6 180 20:18 04.11.2019
4968 Rain 24 1011 94 10000 3.6 190 19:42 04.11.2019
4969 Rain 25 1011 94 10000 4.1 200 19:23 04.11.2019
4970 Clouds 25 1011 94 10000 2.6 180 18:59 04.11.2019
4971 Rain 25 1011 94 10000 1 210 18:40 04.11.2019
4972 Rain 25 1011 94 10000 1 210 18:21 04.11.2019
4973 Rain 25 1011 94 6000 4.1 130 17:59 04.11.2019
4974 Drizzle 25 1011 88 10000 4.1 150 17:37 04.11.2019
4975 Drizzle 26 1011 88 10000 4.1 150 17:19 04.11.2019
4976 Clouds 26 1011 83 10000 2.1 170 16:44 04.11.2019
4977 Clouds 26 1012 83 10000 1 210 16:25 04.11.2019
4978 Clouds 26 1012 83 10000 1 210 16:25 04.11.2019
4979 Clouds 26 1011 83 10000 1.5 230 15:59 04.11.2019
4980 Clouds 26 1012 83 10000 1.5 260 15:41 04.11.2019
4981 Clouds 26 1012 83 10000 1.5 260 15:21 04.11.2019
4982 Rain 26 1012 78 10000 1.5 240 14:58 04.11.2019
4983 Rain 26 1012 83 10000 1.5 270 14:40 04.11.2019
4984 Rain 26 1012 83 10000 1.5 270 14:20 04.11.2019
4985 Clouds 26 1012 88 10000 3.1 250 13:58 04.11.2019
4986 Clouds 26 1012 88 10000 4.1 240 13:40 04.11.2019
4987 Clouds 26 1012 88 10000 4.1 240 13:21 04.11.2019
4988 Rain 27 1012 88 10000 3.1 240 12:56 04.11.2019
4989 Rain 27 1012 83 10000 2.1 310 12:38 04.11.2019
4990 Rain 27 1012 83 10000 2.1 310 12:18 04.11.2019
4991 Clouds 28 1011 74 10000 3.6 320 11:42 04.11.2019
4992 Clouds 29 1010 74 10000 5.1 320 11:23 04.11.2019
4993 Clouds 29 1010 74 10000 4.6 310 10:58 04.11.2019
4994 Clouds 29 1010 74 10000 4.6 310 10:58 04.11.2019
4995 Clouds 29 1010 66 10000 5.1 310 10:39 04.11.2019
4996 Clouds 29 1010 66 10000 5.1 310 10:20 04.11.2019
4997 Clouds 30 1009 66 10000 5.7 310 09:45 04.11.2019
4998 Clouds 30 1009 55 10000 4.6 330 09:27 04.11.2019
4999 Clouds 30 1009 55 10000 3.6 290 08:57 04.11.2019
5000 Rain 31 1009 52 10000 3.6 280 08:37 04.11.2019
5001 Rain 31 1009 52 10000 3.6 280 08:18 04.11.2019
5002 Rain 31 1009 49 10000 4.1 340 07:43 04.11.2019
5003 Clouds 32 1009 52 10000 3.6 320 07:21 04.11.2019
5004 Clouds 31 1009 58 10000 3.1 340 06:56 04.11.2019
5005 Rain 31 1009 66 10000 2.6 10 06:18 04.11.2019
5006 Rain 30 1011 66 10000 3.6 310 05:42 04.11.2019
5007 Clouds 33 1012 55 10000 5.1 300 04:43 04.11.2019
5008 Clouds 33 1012 55 10000 5.1 300 04:21 04.11.2019
5009 Clouds 33 1013 58 10000 3.1 340 02:25 04.11.2019
5010 Clouds 31 1013 62 10000 4.1 360 01:21 04.11.2019
5011 Clouds 30 1012 66 10000 4.6 360 00:40 04.11.2019
5012 Clouds 30 1012 66 10000 4.6 360 00:20 04.11.2019
5013 Clouds 29 1012 74 10000 4.1 10 23:41 03.11.2019
5014 Clouds 28 1012 74 10000 4.1 10 23:21 03.11.2019
5015 Clouds 28 1011 78 10000 3.6 10 22:57 03.11.2019
5016 Clouds 27 1011 83 10000 4.1 10 22:39 03.11.2019
5017 Clouds 27 1011 83 10000 4.1 10 22:20 03.11.2019
5018 Clouds 27 1011 78 10000 3.1 10 21:56 03.11.2019
5019 Clouds 27 1011 74 10000 2.6 360 21:38 03.11.2019
5020 Clouds 27 1011 74 10000 2.6 360 21:19 03.11.2019
5021 Rain 27 1010 78 10000 2.6 10 20:54 03.11.2019
5022 Rain 27 1010 78 10000 3.1 360 20:36 03.11.2019
5023 Rain 27 1010 78 10000 3.1 360 20:18 03.11.2019
5024 Rain 27 1010 78 10000 2.6 350 19:54 03.11.2019
5025 Clouds 27 1010 78 10000 2.6 350 19:36 03.11.2019
5026 Clouds 27 1010 78 10000 2.6 350 19:18 03.11.2019
5027 Rain 27 1010 74 10000 3.1 360 18:38 03.11.2019
5028 Rain 27 1010 74 10000 3.1 360 18:18 03.11.2019
5029 Rain 27 1010 69 10000 3.6 360 17:57 03.11.2019
5030 Rain 27 1010 74 10000 4.1 360 17:39 03.11.2019
5031 Rain 27 1010 74 10000 4.1 360 17:18 03.11.2019
5032 Rain 27 1010 78 10000 3.1 360 16:54 03.11.2019
5033 Rain 27 1011 78 10000 2.6 360 16:36 03.11.2019
5034 Rain 27 1011 78 10000 2.6 360 16:18 03.11.2019
5035 Clouds 27 1011 83 10000 3.1 350 15:45 03.11.2019
5036 Clouds 28 1011 74 10000 3.1 340 15:25 03.11.2019
5037 Clouds 28 1011 74 10000 3.1 330 14:58 03.11.2019
5038 Clouds 28 1011 70 10000 3.6 330 14:39 03.11.2019
5039 Clouds 28 1011 70 10000 3.6 330 14:18 03.11.2019
5040 Clouds 28 1011 74 10000 3.6 310 13:54 03.11.2019
5041 Rain 28 1011 70 10000 3.6 300 13:36 03.11.2019
5042 Clouds 28 1011 70 10000 3.6 300 13:18 03.11.2019
5043 Clouds 28 1010 74 10000 3.1 290 12:38 03.11.2019
5044 Clouds 28 1010 74 10000 3.1 290 12:19 03.11.2019
5045 Clouds 29 1010 74 10000 3.6 290 11:55 03.11.2019
5046 Clouds 29 1010 66 10000 3.6 290 11:37 03.11.2019
5047 Clouds 29 1010 66 10000 3.6 290 11:19 03.11.2019
5048 Clouds 29 1009 70 10000 4.1 290 10:40 03.11.2019
5049 Clouds 29 1009 70 10000 4.1 290 10:22 03.11.2019
5050 Clouds 29 1009 70 10000 4.1 290 10:22 03.11.2019
5051 Clouds 29 1009 70 10000 4.1 290 10:22 03.11.2019
5052 Clouds 30 1009 70 10000 4.6 300 09:57 03.11.2019
5053 Clouds 30 1009 70 10000 5.1 300 09:39 03.11.2019
5054 Clouds 30 1009 70 10000 5.1 300 09:39 03.11.2019
5055 Clouds 30 1009 70 10000 5.1 300 09:21 03.11.2019
5056 Clouds 31 1008 62 10000 5.1 300 08:42 03.11.2019
5057 Clouds 31 1008 62 10000 4.6 280 08:24 03.11.2019
5058 Rain 31 1008 58 10000 4.6 290 07:46 03.11.2019
5059 Rain 31 1008 55 10000 5.7 310 07:28 03.11.2019
5060 Rain 30 1008 55 10000 5.7 320 06:52 03.11.2019
5061 Rain 31 1008 55 10000 6.7 300 06:33 03.11.2019
5062 Rain 31 1009 49 10000 6.2 300 05:40 03.11.2019
5063 Clouds 34 1009 49 10000 5.7 300 04:58 03.11.2019
5064 Clouds 35 1010 46 10000 4.6 290 04:37 03.11.2019
5065 Clouds 34 1011 49 10000 3.1 320 03:38 03.11.2019
5066 Clouds 34 1011 52 10000 2.6 280 02:45 03.11.2019
5067 Clouds 31 1011 58 10000 2.6 240 02:20 03.11.2019
5068 Clouds 32 1011 58 10000 3.1 260 01:42 03.11.2019
5069 Clouds 32 1011 58 10000 3.1 260 01:20 03.11.2019
5070 Clouds 31 1011 66 10000 2.6 250 00:45 03.11.2019
5071 Clouds 30 1011 66 10000 1.5 230 00:27 03.11.2019
5072 Clouds 29 1011 78 10000 1.5 180 23:58 02.11.2019
5073 Clouds 28 1011 83 10000 1 130 23:38 02.11.2019
5074 Clouds 27 1011 83 10000 1 130 23:19 02.11.2019
5075 Clouds 26 1011 88 10000 1.62 41 22:56 02.11.2019
5076 Clouds 26 1011 88 10000 1 100 22:37 02.11.2019
5077 Clouds 26 1011 88 10000 1 100 22:18 02.11.2019
5078 Clouds 26 1011 88 10000 2.1 40 21:56 02.11.2019
5079 Clouds 26 1010 88 10000 2.6 20 21:38 02.11.2019
5080 Clouds 26 1010 88 10000 2.6 20 21:38 02.11.2019
5081 Clouds 26 1010 88 10000 2.6 20 21:18 02.11.2019
5082 Clouds 26 1010 88 10000 2.6 20 21:18 02.11.2019
5083 Clouds 27 1010 83 10000 1.5 340 20:58 02.11.2019
5084 Clouds 27 1010 83 10000 1.5 360 20:39 02.11.2019
5085 Clouds 26 1010 83 10000 1.5 360 20:19 02.11.2019
5086 Clouds 27 1009 83 10000 2.1 340 19:41 02.11.2019
5087 Clouds 27 1009 83 10000 2.1 340 19:23 02.11.2019
5088 Clouds 27 1009 74 10000 2.1 350 18:57 02.11.2019
5089 Clouds 27 1010 78 10000 2.1 350 18:38 02.11.2019
5090 Clouds 27 1010 78 10000 2.1 350 18:20 02.11.2019
5091 Clouds 27 1010 74 10000 2.6 350 17:58 02.11.2019
5092 Clouds 27 1010 74 10000 2.1 340 17:39 02.11.2019
5093 Clouds 28 1010 74 10000 2.1 340 17:21 02.11.2019
5094 Clouds 28 1010 74 10000 2.1 360 16:57 02.11.2019
5095 Clouds 27 1010 78 10000 2.1 350 16:36 02.11.2019
5096 Clouds 28 1010 78 10000 2.1 350 16:18 02.11.2019
5097 Clouds 28 1010 74 10000 1.5 330 15:42 02.11.2019
5098 Clouds 28 1010 74 10000 1.5 320 15:20 02.11.2019
5099 Clouds 28 1011 74 10000 2.1 330 14:43 02.11.2019
5100 Clouds 28 1011 74 10000 1.5 350 14:24 02.11.2019
5101 Clouds 27 1010 74 10000 2.1 330 13:58 02.11.2019
5102 Clouds 27 1010 74 10000 2.1 330 13:58 02.11.2019
5103 Clouds 28 1010 70 10000 2.6 330 13:39 02.11.2019
5104 Clouds 28 1010 70 10000 2.6 330 13:19 02.11.2019
5105 Clouds 28 1010 66 10000 3.1 320 12:41 02.11.2019
5106 Clouds 28 1010 66 10000 3.1 320 12:23 02.11.2019
5107 Clouds 28 1009 70 10000 3.1 300 11:59 02.11.2019
5108 Clouds 28 1009 70 10000 3.1 320 11:40 02.11.2019
5109 Clouds 28 1009 70 10000 3.1 320 11:22 02.11.2019
5110 Clouds 28 1009 70 10000 3.6 320 10:55 02.11.2019
5111 Clouds 29 1008 70 10000 4.6 330 10:36 02.11.2019
5112 Clouds 29 1008 70 10000 4.6 330 10:18 02.11.2019
5113 Clouds 29 1008 74 10000 5.1 330 09:40 02.11.2019
5114 Clouds 29 1008 74 10000 5.1 330 09:21 02.11.2019
5115 Clouds 30 1008 70 10000 6.2 330 08:50 02.11.2019
5116 Rain 31 1008 66 10000 7.2 310 08:23 02.11.2019
5117 Rain 31 1008 66 10000 7.7 320 07:51 02.11.2019
5118 Rain 31 1008 52 10000 5.7 310 07:33 02.11.2019
5119 Clouds 32 1008 46 10000 4.6 300 06:58 02.11.2019
5120 Clouds 33 1008 52 10000 3.6 300 06:39 02.11.2019
5121 Clouds 34 1008 52 10000 3.6 300 06:18 02.11.2019
5122 Clouds 31 1009 66 10000 2.1 260 05:29 02.11.2019
5123 Rain 30 1010 83 6000 4.1 230 04:23 02.11.2019
5124 Rain 32 1010 66 10000 7.2 250 03:50 02.11.2019
5125 Clouds 34 1010 52 10000 3.1 340 02:49 02.11.2019
5126 Clouds 34 1010 52 10000 3.1 340 02:49 02.11.2019
5127 Clouds 31 1011 58 10000 2.6 310 01:57 02.11.2019
5128 Clouds 31 1011 62 10000 1.5 300 01:25 02.11.2019
5129 Clouds 30 1011 62 10000 5.1 280 00:54 02.11.2019
5130 Clouds 29 1011 66 10000 2.1 350 00:27 02.11.2019
5131 Clouds 29 1010 66 10000 6.2 280 23:49 01.11.2019
5132 Clouds 28 1010 78 10000 1 20 23:23 01.11.2019
5133 Clouds 27 1009 83 10000 0.5 30 22:59 01.11.2019
5134 Clouds 27 1009 78 10000 1 20 22:40 01.11.2019
5135 Clouds 26 1009 78 10000 1 20 22:20 01.11.2019
5136 Rain 26 1008 78 10000 1 10 21:42 01.11.2019
5137 Rain 26 1008 78 10000 1 10 21:23 01.11.2019
5138 Clouds 26 1008 78 10000 1.5 10 20:58 01.11.2019
5139 Clouds 26 1007 78 10000 1 350 20:40 01.11.2019
5140 Clouds 26 1007 78 10000 1 350 20:20 01.11.2019
5141 Clouds 26 1007 78 10000 1.5 340 19:56 01.11.2019
5142 Clouds 26 1007 78 10000 2.6 340 19:38 01.11.2019
5143 Clouds 26 1007 78 10000 2.6 340 19:19 01.11.2019
5144 Clouds 26 1007 83 10000 2.1 350 18:40 01.11.2019
5145 Clouds 26 1007 83 10000 2.1 350 18:21 01.11.2019
5146 Clouds 26 1007 83 10000 2.1 350 17:56 01.11.2019
5147 Clouds 27 1008 74 10000 3.1 340 17:37 01.11.2019
5148 Clear 27 1008 74 10000 3.1 340 17:19 01.11.2019
5149 Clouds 27 1008 69 10000 3.6 310 16:38 01.11.2019
5150 Clouds 27 1008 69 10000 3.6 310 16:20 01.11.2019
5151 Clear 27 1008 69 10000 1.5 330 15:55 01.11.2019
5152 Clear 27 1008 69 10000 2.6 300 15:36 01.11.2019
5153 Clear 27 1008 69 10000 2.6 300 15:18 01.11.2019
5154 Clear 27 1009 74 10000 2.6 320 14:41 01.11.2019
5155 Clear 27 1009 74 10000 2.6 320 14:23 01.11.2019
5156 Clear 27 1009 74 10000 4.1 300 13:57 01.11.2019
5157 Clear 27 1009 74 10000 4.1 300 13:57 01.11.2019
5158 Clear 27 1009 74 10000 4.1 300 13:57 01.11.2019
5159 Clear 27 1009 78 10000 4.6 300 13:38 01.11.2019
5160 Rain 27 1009 78 10000 4.6 300 13:20 01.11.2019
5161 Rain 27 1009 74 10000 3.6 280 12:43 01.11.2019
5162 Rain 28 1008 74 10000 3.1 270 12:25 01.11.2019
5163 Rain 27 1008 74 10000 2.1 270 11:56 01.11.2019
5164 Rain 28 1008 74 10000 3.1 270 11:38 01.11.2019
5165 Rain 28 1008 74 10000 3.1 270 11:19 01.11.2019
5166 Clouds 29 1007 70 10000 5.1 250 10:41 01.11.2019
5167 Clouds 29 1007 70 10000 5.1 250 10:21 01.11.2019
5168 Clouds 29 1007 62 10000 5.1 250 09:57 01.11.2019
5169 Clouds 29 1007 62 10000 5.1 250 09:57 01.11.2019
5170 Clouds 30 1007 66 10000 4.6 250 09:38 01.11.2019
5171 Clouds 30 1007 66 10000 4.6 250 09:19 01.11.2019
5172 Clouds 30 1007 62 10000 4.6 250 08:43 01.11.2019
5173 Clouds 30 1007 58 10000 4.1 260 08:22 01.11.2019
5174 Clouds 32 1007 55 10000 5.7 230 07:56 01.11.2019
5175 Clouds 32 1007 58 10000 6.2 250 07:37 01.11.2019
5176 Clouds 32 1007 58 10000 6.2 250 07:18 01.11.2019
5177 Clouds 32 1007 58 10000 6.2 250 06:41 01.11.2019
5178 Clouds 32 1007 58 10000 6.2 250 06:21 01.11.2019
5179 Clouds 31 1008 62 10000 5.1 250 05:43 01.11.2019
5180 Clouds 30 1009 66 10000 3.6 270 03:42 01.11.2019
5181 Rain 31 1010 74 10000 4.6 270 02:49 01.11.2019
5182 Thunderstorm 30 1011 65 10000 2.6 290 01:28 01.11.2019
5183 Rain 29 1010 79 10000 1 70 00:40 01.11.2019
5184 Rain 30 1010 79 10000 1 70 00:18 01.11.2019
5185 Rain 29 1010 79 10000 1.5 0 23:43 31.10.2019
5186 Clouds 28 1010 83 10000 2.1 60 23:23 31.10.2019
5187 Rain 26 1009 88 10000 1.5 80 22:55 31.10.2019
5188 Rain 26 1009 88 10000 2.1 60 22:36 31.10.2019
5189 Rain 25 1009 88 10000 2.1 60 22:18 31.10.2019
5190 Rain 25 1009 88 10000 2.1 60 22:18 31.10.2019
5191 Clouds 26 1009 88 10000 1 100 21:42 31.10.2019
5192 Clouds 26 1008 88 10000 1.5 70 21:20 31.10.2019
5193 Clouds 26 1008 88 10000 1 340 20:56 31.10.2019
5194 Clouds 26 1008 88 10000 1 310 20:37 31.10.2019
5195 Clouds 26 1008 88 10000 1 310 20:19 31.10.2019
5196 Rain 27 1007 88 10000 2.1 290 19:41 31.10.2019
5197 Rain 27 1007 88 10000 2.1 290 19:21 31.10.2019
5198 Clouds 27 1007 88 10000 2.6 290 18:56 31.10.2019
5199 Clouds 27 1008 83 10000 2.6 330 18:38 31.10.2019
5200 Clouds 27 1008 83 10000 2.6 330 18:19 31.10.2019
5201 Rain 26 1008 83 10000 3.1 340 17:41 31.10.2019
5202 Rain 26 1008 83 10000 3.1 340 17:22 31.10.2019
5203 Clouds 26 1008 83 10000 5.7 360 16:58 31.10.2019
5204 Clouds 26 1009 94 10000 3.6 350 16:40 31.10.2019
5205 Clouds 26 1009 94 10000 3.6 350 16:40 31.10.2019
5206 Clouds 26 1009 94 10000 3.6 350 16:20 31.10.2019
5207 Rain 26 1008 94 10000 4.1 270 15:56 31.10.2019
5208 Rain 25 1009 94 4000 3.6 260 15:37 31.10.2019
5209 Rain 25 1009 94 4000 3.6 260 15:19 31.10.2019
5210 Rain 26 1010 88 1500 3.6 190 14:54 31.10.2019
5211 Rain 28 1009 74 10000 3.6 300 14:36 31.10.2019
5212 Rain 28 1009 74 10000 3.6 300 14:18 31.10.2019
5213 Clouds 29 1008 74 10000 5.1 290 13:40 31.10.2019
5214 Clouds 29 1008 74 10000 5.1 290 13:40 31.10.2019
5215 Clouds 29 1008 74 10000 5.1 290 13:20 31.10.2019
5216 Clouds 29 1008 74 10000 5.7 290 12:59 31.10.2019
5217 Clouds 29 1008 74 10000 6.2 300 12:41 31.10.2019
5218 Clouds 29 1008 74 10000 6.2 300 12:22 31.10.2019
5219 Clouds 29 1007 74 10000 5.1 290 11:55 31.10.2019
5220 Clouds 29 1007 70 10000 5.7 280 11:36 31.10.2019
5221 Clouds 29 1007 70 10000 5.7 280 11:18 31.10.2019
5222 Clouds 29 1006 66 10000 6.2 300 10:40 31.10.2019
5223 Clouds 29 1006 66 10000 6.2 300 10:40 31.10.2019
5224 Clouds 30 1006 66 10000 6.2 300 10:22 31.10.2019
5225 Clouds 31 1006 55 10000 5.7 300 09:59 31.10.2019
5226 Clouds 31 1006 55 10000 5.7 300 09:59 31.10.2019
5227 Clouds 33 1006 52 10000 4.6 290 09:39 31.10.2019
5228 Clouds 33 1006 52 10000 4.6 290 09:18 31.10.2019
5229 Clouds 33 1006 55 10000 5.7 290 08:49 31.10.2019
5230 Clouds 33 1005 55 10000 5.1 280 08:30 31.10.2019
5231 Clouds 33 1006 49 10000 5.7 300 07:54 31.10.2019
5232 Clouds 33 1006 52 10000 6.7 290 07:36 31.10.2019
5233 Clouds 32 1006 52 10000 6.7 290 07:18 31.10.2019
5234 Clouds 32 1006 49 10000 5.1 300 06:38 31.10.2019
5235 Clouds 34 1006 49 10000 5.1 300 06:18 31.10.2019
5236 Clouds 34 1006 49 10000 5.1 300 06:18 31.10.2019
5237 Clouds 34 1009 52 10000 4.6 290 03:43 31.10.2019
5238 Clouds 32 1010 52 10000 3.1 330 02:41 31.10.2019
5239 Clouds 32 1011 52 10000 2.6 340 01:53 31.10.2019
5240 Clouds 32 1011 52 10000 2.6 340 01:53 31.10.2019
5241 Clouds 30 1011 74 10000 2.1 20 00:37 31.10.2019
5242 Clouds 30 1011 74 10000 2.1 20 00:18 31.10.2019
5243 Clouds 28 1010 83 10000 1.5 20 23:30 30.10.2019
5244 Clouds 26 1010 88 10000 1.5 70 22:44 30.10.2019
5245 Clouds 25 1010 94 10000 1.5 80 22:23 30.10.2019
5246 Clouds 25 1010 88 10000 1.5 80 21:56 30.10.2019
5247 Clouds 25 1009 88 10000 1 360 21:38 30.10.2019
5248 Clouds 25 1009 88 10000 1 360 21:19 30.10.2019
5249 Clouds 25 1009 88 10000 2.1 20 20:59 30.10.2019
5250 Clouds 25 1009 88 10000 2.6 40 20:41 30.10.2019
5251 Clouds 26 1009 88 10000 2.6 40 20:22 30.10.2019
5252 Clouds 26 1008 88 10000 1 60 19:58 30.10.2019
5253 Clouds 26 1008 88 10000 1.5 350 19:39 30.10.2019
5254 Clouds 26 1008 88 10000 1.5 350 19:20 30.10.2019
5255 Clouds 26 1008 83 10000 2.1 350 18:58 30.10.2019
5256 Clouds 27 1008 83 10000 2.1 340 18:37 30.10.2019
5257 Clouds 27 1008 83 10000 2.1 340 18:37 30.10.2019
5258 Clouds 27 1008 83 10000 2.1 340 18:18 30.10.2019
5259 Clouds 27 1009 83 10000 2.1 340 17:41 30.10.2019
5260 Clouds 27 1009 83 10000 2.1 340 17:20 30.10.2019
5261 Clouds 27 1009 83 10000 2.1 330 16:59 30.10.2019
5262 Clouds 27 1009 78 10000 3.1 320 16:40 30.10.2019
5263 Clouds 27 1009 78 10000 3.1 320 16:22 30.10.2019
5264 Clouds 27 1009 83 10000 3.6 330 15:57 30.10.2019
5265 Clouds 28 1010 83 10000 4.1 320 15:38 30.10.2019
5266 Clouds 28 1010 83 10000 4.1 320 15:19 30.10.2019
5267 Clouds 28 1010 74 10000 3.1 280 14:56 30.10.2019
5268 Clouds 28 1010 74 10000 3.1 280 14:56 30.10.2019
5269 Clouds 28 1010 78 10000 3.6 290 14:38 30.10.2019
5270 Clouds 28 1010 78 10000 3.6 290 14:18 30.10.2019
5271 Clouds 28 1010 78 10000 3.1 270 13:42 30.10.2019
5272 Clouds 27 1010 74 10000 4.1 250 13:21 30.10.2019
5273 Clouds 27 1009 78 10000 3.1 250 12:59 30.10.2019
5274 Clouds 27 1009 78 10000 3.1 250 12:59 30.10.2019
5275 Clouds 26 1009 74 10000 1.5 250 12:41 30.10.2019
5276 Clouds 27 1009 74 10000 1.5 250 12:23 30.10.2019
5277 Clouds 27 1009 74 10000 1 330 11:54 30.10.2019
5278 Clouds 27 1009 69 10000 2.1 60 11:36 30.10.2019
5279 Clouds 28 1009 69 10000 2.1 60 11:18 30.10.2019
5280 Rain 28 1009 66 10000 5.1 170 10:41 30.10.2019
5281 Rain 29 1009 66 10000 5.1 170 10:22 30.10.2019
5282 Clouds 31 1008 49 10000 4.1 300 09:41 30.10.2019
5283 Clouds 31 1008 49 10000 4.1 300 09:22 30.10.2019
5284 Clouds 31 1008 49 10000 4.1 300 09:22 30.10.2019
5285 Rain 31 1007 55 10000 5.1 340 08:57 30.10.2019
5286 Thunderstorm 32 1007 52 10000 5.1 340 08:38 30.10.2019
5287 Thunderstorm 32 1007 52 10000 5.1 340 08:19 30.10.2019
5288 Clouds 33 1007 49 10000 5.7 340 07:43 30.10.2019
5289 Clouds 32 1008 59 10000 5.1 10 06:59 30.10.2019
5290 Clouds 32 1008 66 10000 4.6 360 06:40 30.10.2019
5291 Clouds 30 1009 70 10000 3.6 10 05:58 30.10.2019
5292 Rain 29 1010 78 10000 4.1 10 05:40 30.10.2019
5293 Rain 31 1010 70 10000 4.6 310 04:26 30.10.2019
5294 Rain 31 1010 70 10000 4.6 310 04:26 30.10.2019
5295 Rain 31 1011 66 10000 5.7 240 03:39 30.10.2019
5296 Clouds 32 1011 62 10000 6.2 330 02:50 30.10.2019
5297 Clouds 31 1012 58 10000 6.2 330 01:51 30.10.2019
5298 Clouds 30 1012 62 10000 6.2 330 00:49 30.10.2019
5299 Clouds 30 1012 70 10000 2.1 60 00:28 30.10.2019
5300 Clouds 29 1012 78 10000 0.5 30 23:41 29.10.2019
5301 Clouds 28 1012 78 10000 0.5 30 23:22 29.10.2019
5302 Clouds 26 1011 94 10000 0.93 102 22:46 29.10.2019
5303 Clouds 25 1011 94 10000 0.93 102 22:20 29.10.2019
5304 Clouds 25 1011 94 10000 0.93 102 21:56 29.10.2019
5305 Clouds 25 1011 94 10000 0.5 80 21:38 29.10.2019
5306 Clouds 25 1011 94 10000 0.5 80 21:20 29.10.2019
5307 Rain 25 1010 94 10000 0.5 30 20:54 29.10.2019
5308 Rain 25 1010 94 10000 0.5 10 20:36 29.10.2019
5309 Rain 25 1010 94 10000 0.5 10 20:18 29.10.2019
5310 Rain 25 1010 94 10000 1.5 10 19:55 29.10.2019
5311 Clouds 26 1010 88 10000 1.5 360 19:36 29.10.2019
5312 Clouds 26 1010 88 10000 1.5 360 19:18 29.10.2019
5313 Clouds 26 1010 88 10000 1.5 350 18:54 29.10.2019
5314 Clouds 26 1010 88 10000 1.5 340 18:36 29.10.2019
5315 Clouds 26 1010 88 10000 1.5 340 18:18 29.10.2019
5316 Clouds 26 1010 83 10000 1.5 330 17:40 29.10.2019
5317 Clouds 27 1010 83 10000 1.5 330 17:21 29.10.2019
5318 Rain 27 1011 83 10000 1.5 310 16:58 29.10.2019
5319 Rain 27 1011 78 10000 1.5 310 16:38 29.10.2019
5320 Rain 27 1011 78 10000 1.5 310 16:19 29.10.2019
5321 Clouds 27 1011 78 10000 2.1 330 15:55 29.10.2019
5322 Clouds 27 1011 74 10000 2.1 330 15:36 29.10.2019
5323 Clouds 27 1011 74 10000 2.1 330 15:36 29.10.2019
5324 Clouds 27 1011 74 10000 2.1 330 15:18 29.10.2019
5325 Clouds 28 1011 74 10000 3.1 330 14:54 29.10.2019
5326 Rain 28 1011 78 10000 3.1 330 14:36 29.10.2019
5327 Clouds 28 1011 78 10000 3.1 330 14:18 29.10.2019
5328 Clouds 28 1010 74 10000 3.6 340 13:40 29.10.2019
5329 Clouds 28 1010 74 10000 3.6 340 13:21 29.10.2019
5330 Clouds 28 1010 74 10000 3.1 340 12:44 29.10.2019
5331 Clouds 28 1010 74 10000 3.6 350 12:25 29.10.2019
5332 Clouds 28 1010 74 10000 3.6 350 12:25 29.10.2019
5333 Clouds 28 1009 78 10000 3.6 340 11:57 29.10.2019
5334 Rain 28 1009 74 10000 3.1 340 11:38 29.10.2019
5335 Rain 29 1009 74 10000 3.1 340 11:19 29.10.2019
5336 Rain 29 1009 62 10000 3.1 340 10:57 29.10.2019
5337 Clouds 30 1008 48 10000 3.6 20 10:38 29.10.2019
5338 Clouds 30 1008 48 10000 3.6 20 10:19 29.10.2019
5339 Clouds 31 1008 52 10000 4.1 10 09:44 29.10.2019
5340 Clouds 31 1007 55 10000 3.6 10 09:23 29.10.2019
5341 Clouds 31 1007 55 10000 3.6 10 09:23 29.10.2019
5342 Clouds 31 1007 55 10000 3.6 10 09:23 29.10.2019
5343 Rain 31 1007 58 10000 3.1 10 08:58 29.10.2019
5344 Rain 30 1008 70 10000 3.6 10 08:39 29.10.2019
5345 Rain 30 1008 70 10000 3.6 10 08:21 29.10.2019
5346 Rain 31 1008 88 10000 2.6 20 07:49 29.10.2019
5347 Rain 29 1008 94 10000 1 150 07:22 29.10.2019
5348 Rain 29 1009 74 8000 6.2 330 06:55 29.10.2019
5349 Rain 31 1008 74 7000 6.2 350 06:36 29.10.2019
5350 Rain 32 1008 74 7000 6.2 350 06:18 29.10.2019
5351 Clouds 33 1009 46 10000 6.2 340 05:48 29.10.2019
5352 Clouds 33 1009 46 10000 4.6 320 05:18 29.10.2019
5353 Clouds 34 1011 36 10000 3.1 50 03:34 29.10.2019
5354 Clouds 33 1012 40 10000 3.6 60 02:31 29.10.2019
5355 Clouds 31 1012 45 10000 5.7 100 01:42 29.10.2019
5356 Clouds 29 1012 48 10000 5.7 90 00:56 29.10.2019
5357 Clouds 28 1012 57 10000 6.2 90 00:30 29.10.2019
5358 Clouds 26 1012 69 10000 4.1 110 23:41 28.10.2019
5359 Rain 25 1012 69 10000 4.1 110 23:20 28.10.2019
5360 Rain 25 1012 69 10000 4.1 110 23:20 28.10.2019
5361 Rain 25 1011 69 10000 3.6 90 22:57 28.10.2019
5362 Rain 24 1011 78 10000 3.1 100 22:36 28.10.2019
5363 Rain 24 1011 78 10000 3.1 100 22:18 28.10.2019
5364 Rain 24 1011 78 10000 3.1 120 21:54 28.10.2019
5365 Rain 24 1011 78 10000 3.1 120 21:54 28.10.2019
5366 Clouds 24 1011 78 10000 2.6 120 21:36 28.10.2019
5367 Clouds 24 1011 78 10000 2.6 120 21:18 28.10.2019
5368 Clouds 25 1010 73 10000 3.6 90 20:41 28.10.2019
5369 Clouds 25 1010 73 10000 3.6 90 20:23 28.10.2019
5370 Clouds 25 1010 78 10000 4.1 100 19:55 28.10.2019
5371 Clouds 25 1010 74 10000 4.6 100 19:37 28.10.2019
5372 Clouds 25 1010 74 10000 4.6 100 19:18 28.10.2019
5373 Clouds 25 1010 74 10000 4.6 100 18:58 28.10.2019
5374 Clouds 26 1010 74 10000 4.1 90 18:38 28.10.2019
5375 Clouds 26 1010 74 10000 4.1 90 18:20 28.10.2019
5376 Rain 26 1010 74 10000 4.1 70 17:56 28.10.2019
5377 Rain 26 1011 69 10000 3.6 120 17:38 28.10.2019
5378 Rain 26 1011 69 10000 3.6 120 17:18 28.10.2019
5379 Clouds 26 1010 69 10000 1.17 114 16:55 28.10.2019
5380 Drizzle 26 1010 69 10000 0.5 200 16:37 28.10.2019
5381 Drizzle 26 1010 69 10000 0.5 200 16:19 28.10.2019
5382 Clouds 26 1011 74 10000 1.5 190 15:56 28.10.2019
5383 Clouds 26 1011 74 10000 3.1 210 15:37 28.10.2019
5384 Clouds 26 1011 74 10000 3.1 210 15:18 28.10.2019
5385 Clouds 26 1011 74 10000 3.1 180 14:55 28.10.2019
5386 Rain 26 1011 74 10000 1.5 160 14:36 28.10.2019
5387 Rain 27 1011 74 10000 1.5 160 14:18 28.10.2019
5388 Rain 27 1011 74 10000 1.5 160 14:18 28.10.2019
5389 Clouds 27 1010 69 10000 1.5 110 13:41 28.10.2019
5390 Clouds 27 1010 69 10000 1.5 110 13:19 28.10.2019
5391 Clouds 27 1010 69 10000 3.6 110 12:59 28.10.2019
5392 Rain 27 1010 69 10000 2.6 90 12:40 28.10.2019
5393 Rain 27 1010 69 10000 2.6 90 12:19 28.10.2019
5394 Clouds 28 1009 70 10000 2.6 360 11:38 28.10.2019
5395 Clouds 28 1009 70 10000 2.6 360 11:20 28.10.2019
5396 Clouds 28 1008 70 10000 2.6 340 10:56 28.10.2019
5397 Clouds 29 1008 66 10000 3.1 330 10:38 28.10.2019
5398 Clouds 29 1008 66 10000 3.1 330 10:19 28.10.2019
5399 Clouds 30 1008 62 10000 3.1 340 09:54 28.10.2019
5400 Clouds 31 1008 58 10000 4.1 350 09:36 28.10.2019
5401 Clouds 31 1008 58 10000 4.1 350 09:18 28.10.2019
5402 Clouds 31 1007 62 10000 4.1 350 08:55 28.10.2019
5403 Clouds 31 1008 55 10000 4.1 340 08:37 28.10.2019
5404 Clouds 31 1008 55 10000 4.1 340 08:18 28.10.2019
5405 Clouds 32 1008 58 10000 4.6 330 07:42 28.10.2019
5406 Clouds 32 1008 58 10000 4.6 330 07:21 28.10.2019
5407 Clouds 32 1008 58 10000 5.1 330 06:55 28.10.2019
5408 Rain 31 1008 58 10000 1 150 06:34 28.10.2019
5409 Clouds 32 1010 52 10000 5.1 330 04:39 28.10.2019
5410 Clouds 31 1011 55 10000 5.1 330 03:43 28.10.2019
5411 Clouds 31 1011 58 10000 5.1 330 02:45 28.10.2019
5412 Clouds 29 1012 62 10000 5.1 330 01:36 28.10.2019
5413 Clouds 28 1012 65 10000 4.6 120 00:46 28.10.2019
5414 Clouds 27 1012 69 10000 5.1 120 00:23 28.10.2019
5415 Clouds 27 1011 69 10000 5.1 120 23:44 27.10.2019
5416 Clouds 26 1011 74 10000 3.6 110 23:21 27.10.2019
5417 Rain 26 1011 74 10000 3.1 100 22:56 27.10.2019
5418 Rain 26 1011 74 10000 3.1 100 22:56 27.10.2019
5419 Clouds 25 1010 78 10000 3.6 90 22:37 27.10.2019
5420 Clouds 25 1010 78 10000 3.6 90 22:18 27.10.2019
5421 Clouds 25 1010 83 10000 2.1 100 21:40 27.10.2019
5422 Clouds 25 1010 83 10000 2.1 100 21:22 27.10.2019
5423 Clouds 25 1009 83 10000 1.55 146 20:59 27.10.2019
5424 Clouds 25 1009 83 10000 1.5 80 20:40 27.10.2019
5425 Clouds 25 1009 83 10000 1.5 80 20:22 27.10.2019
5426 Rain 25 1009 83 10000 2.6 70 19:57 27.10.2019
5427 Clouds 25 1009 83 10000 2.6 40 19:37 27.10.2019
5428 Clouds 25 1009 83 10000 2.6 40 19:19 27.10.2019
5429 Clouds 25 1009 83 10000 2.6 80 18:56 27.10.2019
5430 Clouds 25 1009 78 10000 2.1 100 18:38 27.10.2019
5431 Rain 25 1009 78 10000 2.1 100 18:20 27.10.2019
5432 Rain 25 1009 78 10000 3.1 100 17:55 27.10.2019
5433 Rain 25 1010 78 10000 3.6 90 17:36 27.10.2019
5434 Clouds 25 1010 78 10000 3.6 90 17:18 27.10.2019
5435 Clouds 25 1010 78 10000 2.6 100 16:55 27.10.2019
5436 Clouds 25 1010 78 10000 2.6 100 16:55 27.10.2019
5437 Rain 25 1010 83 10000 1.5 110 16:37 27.10.2019
5438 Rain 25 1010 83 10000 1.5 110 16:18 27.10.2019
5439 Rain 25 1010 78 10000 1.5 130 15:55 27.10.2019
5440 Rain 25 1010 78 10000 2.6 90 15:36 27.10.2019
5441 Rain 25 1010 78 10000 2.6 90 15:18 27.10.2019
5442 Clouds 26 1010 83 10000 2.6 80 14:41 27.10.2019
5443 Clouds 26 1010 83 10000 2.6 80 14:19 27.10.2019
5444 Clouds 26 1010 83 10000 2.1 70 13:55 27.10.2019
5445 Clouds 26 1010 83 10000 2.6 120 13:37 27.10.2019
5446 Clouds 26 1010 83 10000 2.6 120 13:18 27.10.2019
5447 Clouds 26 1009 83 10000 0.88 41 12:42 27.10.2019
5448 Clouds 26 1009 88 10000 1 30 12:23 27.10.2019
5449 Clouds 26 1009 83 10000 0.5 340 11:55 27.10.2019
5450 Clouds 27 1008 78 10000 3.1 330 11:37 27.10.2019
5451 Clouds 27 1008 78 10000 3.1 330 11:18 27.10.2019
5452 Clouds 28 1007 66 10000 3.1 340 10:41 27.10.2019
5453 Clouds 28 1007 66 10000 3.1 340 10:22 27.10.2019
5454 Clouds 28 1007 69 10000 1.5 190 09:44 27.10.2019
5455 Clouds 28 1007 69 10000 1.5 190 09:19 27.10.2019
5456 Clouds 28 1007 74 10000 3.1 190 08:57 27.10.2019
5457 Clouds 28 1007 69 10000 2.6 180 08:38 27.10.2019
5458 Clouds 28 1007 69 10000 2.6 180 08:19 27.10.2019
5459 Clouds 28 1008 65 10000 3.6 190 07:48 27.10.2019
5460 Clouds 28 1008 74 10000 3.6 190 07:28 27.10.2019
5461 Clouds 26 1008 74 10000 5.7 190 06:56 27.10.2019
5462 Clouds 27 1008 78 10000 4.1 190 06:31 27.10.2019
5463 Rain 28 1008 83 10000 4.1 300 05:58 27.10.2019
5464 Rain 28 1008 83 10000 4.1 300 05:58 27.10.2019
5465 Rain 27 1009 88 10000 3.1 190 05:37 27.10.2019
5466 Rain 30 1009 55 10000 5.1 330 04:32 27.10.2019
5467 Clouds 31 1010 62 10000 2.6 10 02:42 27.10.2019
5468 Clouds 29 1011 74 10000 1.5 10 01:28 27.10.2019
5469 Clouds 29 1011 74 10000 1.5 10 01:28 27.10.2019
5470 Rain 28 1010 74 10000 4.1 330 00:56 27.10.2019
5471 Clouds 27 1010 74 10000 2.1 30 00:38 27.10.2019
5472 Clouds 26 1009 74 10000 2.1 10 23:59 26.10.2019
5473 Clouds 26 1009 74 10000 2.1 10 23:59 26.10.2019
5474 Clouds 25 1009 83 10000 2.6 300 23:40 26.10.2019
5475 Clouds 25 1009 83 10000 2.6 300 23:22 26.10.2019
5476 Clouds 25 1009 83 10000 2.6 300 22:58 26.10.2019
5477 Clouds 25 1009 83 10000 2.6 70 22:39 26.10.2019
5478 Clouds 25 1009 83 10000 2.6 70 22:20 26.10.2019
5479 Clouds 25 1008 83 10000 3.6 60 21:58 26.10.2019
5480 Rain 25 1008 88 10000 1 80 21:40 26.10.2019
5481 Rain 25 1008 88 10000 1 80 21:19 26.10.2019
5482 Clouds 25 1008 88 10000 2.1 70 20:45 26.10.2019
5483 Clouds 25 1008 88 10000 1.5 50 20:20 26.10.2019
5484 Clouds 25 1008 88 10000 0.5 90 19:56 26.10.2019
5485 Rain 25 1008 88 10000 1.5 70 19:38 26.10.2019
5486 Rain 25 1008 88 10000 1.5 70 19:19 26.10.2019
5487 Rain 25 1008 88 10000 1.5 60 18:55 26.10.2019
5488 Rain 25 1009 88 10000 2.1 70 18:36 26.10.2019
5489 Rain 25 1009 88 10000 2.1 70 18:18 26.10.2019
5490 Rain 26 1009 83 10000 2.6 320 17:39 26.10.2019
5491 Rain 26 1009 83 10000 2.6 320 17:20 26.10.2019
5492 Clouds 26 1010 74 10000 2.6 330 16:58 26.10.2019
5493 Clouds 27 1010 74 10000 2.6 350 16:40 26.10.2019
5494 Clouds 27 1010 74 10000 2.6 350 16:20 26.10.2019
5495 Rain 27 1009 69 10000 3.1 340 15:41 26.10.2019
5496 Rain 27 1009 69 10000 3.1 340 15:19 26.10.2019
5497 Rain 25 1009 78 10000 2.6 310 14:40 26.10.2019
5498 Rain 25 1009 78 10000 2.6 310 14:22 26.10.2019
5499 Rain 25 1009 83 10000 2.6 290 13:59 26.10.2019
5500 Rain 25 1010 83 10000 2.6 10 13:40 26.10.2019
5501 Rain 25 1010 83 10000 2.6 10 13:40 26.10.2019
5502 Rain 28 1010 74 0 2.57 231 13:20 26.10.2019
5503 Rain 25 1009 78 10000 2.6 290 12:46 26.10.2019
5504 Clouds 29 1007 55 10000 4.6 260 12:23 26.10.2019
5505 Clouds 29 1007 55 10000 4.6 260 11:50 26.10.2019
5506 Clouds 29 1007 55 10000 4.6 260 11:29 26.10.2019
5507 Clouds 29 1007 55 10000 4.6 260 11:29 26.10.2019
5508 Rain 29 1007 66 10000 5.7 280 10:54 26.10.2019
5509 Clouds 31 1006 62 10000 7.2 290 10:36 26.10.2019
5510 Clouds 31 1006 62 10000 7.2 290 10:18 26.10.2019
5511 Clouds 32 1006 55 10000 7.2 310 09:41 26.10.2019
5512 Clouds 32 1006 55 10000 7.2 310 09:23 26.10.2019
5513 Clouds 31 1007 62 10000 6.7 310 08:43 26.10.2019
5514 Clouds 31 1007 62 10000 6.7 300 08:25 26.10.2019
5515 Rain 32 1007 55 10000 7.2 300 07:46 26.10.2019
5516 Rain 33 1007 52 10000 7.2 310 07:28 26.10.2019
5517 Rain 34 1007 49 10000 6.2 310 06:43 26.10.2019
5518 Clouds 33 1008 49 10000 6.2 300 06:24 26.10.2019
5519 Clouds 34 1010 41 10000 5.1 310 05:19 26.10.2019
5520 Rain 32 1011 49 10000 2.1 200 04:24 26.10.2019
5521 Clouds 31 1012 62 10000 2.6 250 02:47 26.10.2019
5522 Rain 30 1012 70 10000 1.5 230 01:55 26.10.2019
5523 Clouds 29 1012 70 10000 2.6 240 01:22 26.10.2019
5524 Clouds 28 1011 74 10000 1.5 240 00:24 26.10.2019
5525 Clouds 27 1011 74 10000 1.5 240 23:43 25.10.2019
5526 Clouds 26 1010 78 10000 1 270 23:20 25.10.2019
5527 Clouds 26 1010 74 10000 1.5 290 22:41 25.10.2019
5528 Clouds 26 1010 74 10000 1.5 290 22:23 25.10.2019
5529 Clouds 26 1009 74 10000 2.6 330 21:58 25.10.2019
5530 Rain 27 1009 74 10000 2.6 330 21:40 25.10.2019
5531 Rain 27 1009 74 10000 2.6 330 21:19 25.10.2019
5532 Clouds 27 1009 74 10000 2.6 330 20:56 25.10.2019
5533 Clouds 27 1009 74 10000 2.6 320 20:38 25.10.2019
5534 Clouds 27 1009 74 10000 2.6 320 20:18 25.10.2019
5535 Rain 27 1009 74 10000 2.6 330 19:43 25.10.2019
5536 Rain 27 1009 74 10000 3.1 330 19:25 25.10.2019
5537 Rain 27 1010 74 10000 2.6 340 18:45 25.10.2019
5538 Rain 27 1010 74 10000 3.1 320 18:23 25.10.2019
5539 Rain 28 1010 70 10000 2.6 300 17:41 25.10.2019
5540 Rain 27 1010 70 10000 2.6 300 17:22 25.10.2019
5541 Clouds 27 1010 74 10000 2.1 290 16:56 25.10.2019
5542 Clouds 27 1011 78 10000 2.1 290 16:37 25.10.2019
5543 Clouds 27 1011 78 10000 2.1 290 16:19 25.10.2019
5544 Clouds 27 1011 78 10000 1.5 280 15:41 25.10.2019
5545 Clouds 27 1011 78 10000 1.5 280 15:22 25.10.2019
5546 Clouds 27 1010 74 10000 2.1 250 14:58 25.10.2019
5547 Clouds 27 1010 74 10000 2.6 270 14:39 25.10.2019
5548 Clouds 28 1010 74 10000 2.6 270 14:20 25.10.2019
5549 Clouds 28 1010 70 10000 3.6 260 13:44 25.10.2019
5550 Clouds 28 1010 70 10000 3.6 260 13:24 25.10.2019
5551 Clouds 28 1009 70 10000 4.1 260 12:57 25.10.2019
5552 Clouds 28 1009 70 10000 4.1 270 12:39 25.10.2019
5553 Clouds 28 1009 70 10000 4.1 270 12:19 25.10.2019
5554 Clouds 28 1008 62 10000 3.1 260 11:41 25.10.2019
5555 Clouds 29 1008 62 10000 3.1 260 11:23 25.10.2019
5556 Clouds 29 1008 62 10000 3.6 250 10:59 25.10.2019
5557 Clouds 29 1008 62 10000 3.6 260 10:39 25.10.2019
5558 Clouds 29 1008 62 10000 3.6 260 10:20 25.10.2019
5559 Rain 30 1008 58 10000 3.6 270 09:55 25.10.2019
5560 Clouds 30 1008 66 10000 4.1 250 09:36 25.10.2019
5561 Clouds 30 1008 66 10000 4.1 250 09:18 25.10.2019
5562 Rain 29 1009 62 10000 5.7 220 08:43 25.10.2019
5563 Rain 30 1009 62 10000 5.7 220 08:23 25.10.2019
5564 Rain 31 1009 52 10000 5.1 270 07:51 25.10.2019
5565 Clouds 33 1009 49 10000 5.7 290 07:32 25.10.2019
5566 Clouds 32 1010 52 10000 4.6 340 06:39 25.10.2019
5567 Rain 32 1011 46 10000 4.6 350 05:51 25.10.2019
5568 Rain 33 1012 49 10000 5.1 330 05:32 25.10.2019
5569 Clouds 34 1013 55 10000 4.1 320 04:39 25.10.2019
5570 Clouds 30 1013 62 10000 3.1 340 02:46 25.10.2019
5571 Clouds 30 1013 66 10000 2.6 310 01:53 25.10.2019
5572 Clouds 29 1013 69 10000 3.1 360 00:41 25.10.2019
5573 Clouds 27 1012 74 10000 2.1 20 23:57 24.10.2019
5574 Clouds 26 1012 74 10000 1.5 350 23:38 24.10.2019
5575 Clouds 26 1012 74 10000 1.5 350 23:19 24.10.2019
5576 Rain 26 1012 74 10000 2.1 360 22:54 24.10.2019
5577 Rain 26 1012 74 10000 2.1 360 22:54 24.10.2019
5578 Rain 26 1011 74 10000 2.1 360 22:36 24.10.2019
5579 Rain 26 1011 74 10000 2.1 360 22:18 24.10.2019
5580 Clouds 26 1011 74 10000 1.5 350 21:54 24.10.2019
5581 Clouds 26 1011 74 10000 2.1 360 21:36 24.10.2019
5582 Clouds 26 1011 74 10000 2.1 360 21:18 24.10.2019
5583 Clouds 26 1011 74 10000 1 350 20:54 24.10.2019
5584 Clouds 26 1010 74 10000 1.5 350 20:36 24.10.2019
5585 Clouds 26 1010 74 10000 1.5 350 20:18 24.10.2019
5586 Clouds 26 1010 69 10000 1.5 350 19:42 24.10.2019
5587 Clouds 27 1010 69 10000 1.5 350 19:23 24.10.2019
5588 Clouds 27 1010 69 10000 1.5 330 18:58 24.10.2019
5589 Clouds 27 1010 69 10000 1.5 330 18:58 24.10.2019
5590 Clouds 27 1010 69 10000 1.5 330 18:39 24.10.2019
5591 Clouds 27 1010 69 10000 1.5 330 18:21 24.10.2019
5592 Clouds 28 1011 66 10000 2.6 340 17:56 24.10.2019
5593 Clouds 28 1011 70 10000 3.6 290 17:37 24.10.2019
5594 Clouds 28 1011 70 10000 3.6 290 17:18 24.10.2019
5595 Clouds 28 1011 74 10000 3.1 280 16:42 24.10.2019
5596 Clouds 28 1011 74 10000 3.6 270 16:23 24.10.2019
5597 Clouds 28 1011 74 10000 3.6 270 16:23 24.10.2019
5598 Clouds 28 1011 74 10000 4.6 270 15:59 24.10.2019
5599 Clouds 28 1011 70 10000 4.6 280 15:41 24.10.2019
5600 Clouds 28 1011 70 10000 4.6 280 15:23 24.10.2019
5601 Clouds 28 1011 70 10000 5.1 280 14:59 24.10.2019
5602 Clouds 28 1011 70 10000 6.2 270 14:41 24.10.2019
5603 Clouds 28 1011 70 10000 6.2 270 14:22 24.10.2019
5604 Clouds 28 1011 70 10000 6.7 280 13:42 24.10.2019
5605 Clouds 29 1010 62 10000 5.7 300 13:21 24.10.2019
5606 Clear 29 1009 58 10000 2.6 10 12:59 24.10.2019
5607 Clear 29 1009 55 10000 3.6 20 12:40 24.10.2019
5608 Clear 30 1009 55 10000 3.6 20 12:20 24.10.2019
5609 Clouds 30 1008 51 10000 5.1 30 11:57 24.10.2019
5610 Clouds 31 1008 48 10000 5.1 20 11:39 24.10.2019
5611 Clouds 31 1008 48 10000 5.1 20 11:20 24.10.2019
5612 Clear 31 1008 43 10000 5.7 10 10:59 24.10.2019
5613 Clear 32 1008 46 10000 6.7 10 10:41 24.10.2019
5614 Clear 32 1008 46 10000 6.7 10 10:41 24.10.2019
5615 Clear 32 1008 46 10000 6.7 10 10:22 24.10.2019
5616 Clear 32 1008 43 10000 7.2 10 09:39 24.10.2019
5617 Clear 33 1008 43 10000 7.2 10 09:19 24.10.2019
5618 Clear 33 1008 41 10000 8.2 10 08:56 24.10.2019
5619 Clear 34 1008 41 10000 8.2 360 08:37 24.10.2019
5620 Clear 34 1008 41 10000 8.2 360 08:18 24.10.2019
5621 Clear 34 1009 41 10000 8.7 360 07:46 24.10.2019
5622 Clear 34 1009 43 10000 8.7 360 07:23 24.10.2019
5623 Clear 34 1009 36 10000 8.2 10 06:48 24.10.2019
5624 Clear 34 1010 32 10000 5.7 10 06:26 24.10.2019
5625 Clear 35 1010 34 10000 6.7 20 05:50 24.10.2019
5626 Clear 33 1011 43 10000 6.2 10 05:29 24.10.2019
5627 Clear 33 1011 43 10000 6.2 10 05:29 24.10.2019
5628 Clouds 33 1013 46 10000 8.2 40 03:38 24.10.2019
5629 Clouds 32 1013 46 10000 8.2 40 03:19 24.10.2019
5630 Clouds 30 1013 62 10000 4.6 60 02:29 24.10.2019
5631 Clouds 30 1013 58 10000 4.6 50 01:54 24.10.2019
5632 Clouds 29 1013 66 10000 4.1 60 01:29 24.10.2019
5633 Clouds 28 1012 65 10000 4.1 70 00:44 24.10.2019
5634 Clouds 28 1012 69 10000 3.1 70 00:23 24.10.2019
5635 Clouds 25 1012 78 10000 1.5 80 23:43 23.10.2019
5636 Clouds 25 1012 78 10000 1.5 80 23:43 23.10.2019
5637 Clouds 25 1011 78 10000 2.1 90 23:23 23.10.2019
5638 Clouds 25 1011 78 10000 2.1 90 23:23 23.10.2019
5639 Clouds 25 1011 78 10000 1.5 90 22:57 23.10.2019
5640 Clouds 25 1011 78 10000 1.5 100 22:38 23.10.2019
5641 Clouds 25 1011 78 10000 1.5 100 22:19 23.10.2019
5642 Clouds 25 1011 78 10000 1.5 80 21:58 23.10.2019
5643 Clouds 25 1010 78 10000 1.5 100 21:38 23.10.2019
5644 Clouds 25 1010 78 10000 1.5 100 21:20 23.10.2019
5645 Rain 25 1010 78 10000 2.1 80 20:58 23.10.2019
5646 Clouds 25 1010 74 10000 2.6 60 20:39 23.10.2019
5647 Clouds 25 1010 74 10000 2.6 60 20:39 23.10.2019
5648 Clouds 26 1010 74 10000 2.6 60 20:20 23.10.2019
5649 Clouds 26 1010 74 10000 2.6 60 19:57 23.10.2019
5650 Clouds 26 1010 74 10000 2.6 60 19:57 23.10.2019
5651 Rain 26 1010 74 10000 2.6 50 19:38 23.10.2019
5652 Rain 26 1010 74 10000 2.6 50 19:18 23.10.2019
5653 Clouds 26 1011 69 10000 3.1 50 18:55 23.10.2019
5654 Clouds 27 1011 74 10000 2.6 60 18:36 23.10.2019
5655 Clouds 26 1011 74 10000 2.6 60 18:18 23.10.2019
5656 Clouds 27 1011 74 10000 2.6 50 17:43 23.10.2019
5657 Clouds 27 1011 78 10000 1 110 17:20 23.10.2019
5658 Clouds 27 1011 74 10000 2.1 220 16:56 23.10.2019
5659 Clouds 27 1011 78 10000 2.1 230 16:38 23.10.2019
5660 Clouds 27 1011 78 10000 2.1 230 16:19 23.10.2019
5661 Clouds 27 1011 78 10000 2.1 230 16:19 23.10.2019
5662 Clouds 28 1011 78 10000 3.1 270 15:42 23.10.2019
5663 Clouds 28 1011 78 10000 3.1 270 15:22 23.10.2019
5664 Clouds 28 1011 74 10000 3.1 280 14:58 23.10.2019
5665 Clouds 28 1011 74 10000 4.6 290 14:38 23.10.2019
5666 Clouds 29 1011 74 10000 4.6 290 14:19 23.10.2019
5667 Clouds 29 1010 58 10000 4.1 330 13:57 23.10.2019
5668 Clouds 29 1010 58 10000 4.6 30 13:39 23.10.2019
5669 Clouds 29 1010 58 10000 4.6 30 13:21 23.10.2019
5670 Clear 29 1010 62 10000 2.6 30 12:55 23.10.2019
5671 Clear 29 1009 55 10000 2.6 50 12:37 23.10.2019
5672 Clear 29 1009 55 10000 2.6 50 12:18 23.10.2019
5673 Clear 30 1009 51 10000 4.6 30 11:55 23.10.2019
5674 Clouds 30 1008 48 10000 7.7 30 11:37 23.10.2019
5675 Clouds 30 1008 48 10000 7.7 30 11:19 23.10.2019
5676 Clear 31 1008 43 10000 8.7 30 10:42 23.10.2019
5677 Clear 32 1008 43 10000 8.7 30 10:24 23.10.2019
5678 Clear 32 1008 46 10000 8.7 30 09:42 23.10.2019
5679 Clouds 33 1008 46 10000 8.7 30 09:24 23.10.2019
5680 Clouds 33 1008 46 10000 8.7 30 09:24 23.10.2019
5681 Clouds 33 1008 46 10000 8.2 20 08:59 23.10.2019
5682 Clouds 33 1008 52 10000 9.3 10 08:41 23.10.2019
5683 Clouds 33 1008 52 10000 9.3 10 08:41 23.10.2019
5684 Clouds 33 1008 52 10000 9.3 10 08:22 23.10.2019
5685 Clouds 34 1008 43 10000 9.3 10 07:46 23.10.2019
5686 Clouds 34 1008 41 10000 8.7 10 07:22 23.10.2019
5687 Clouds 34 1009 38 10000 8.2 20 06:46 23.10.2019
5688 Clouds 35 1009 34 10000 7.7 30 06:22 23.10.2019
5689 Clouds 34 1010 32 10000 7.7 10 05:45 23.10.2019
5690 Clouds 34 1012 41 10000 4.6 50 04:41 23.10.2019
5691 Clouds 33 1012 43 10000 6.2 50 03:35 23.10.2019
5692 Clouds 32 1013 48 10000 6.2 320 02:40 23.10.2019
5693 Clouds 31 1013 58 10000 4.6 70 01:32 23.10.2019
5694 Clouds 29 1012 69 10000 3.6 80 00:56 23.10.2019
5695 Clouds 28 1012 69 10000 3.1 90 00:28 23.10.2019
5696 Clouds 25 1011 83 10000 1.5 80 23:40 22.10.2019
5697 Clouds 25 1011 83 10000 1.5 80 23:18 22.10.2019
5698 Clouds 25 1011 88 10000 1.5 60 22:57 22.10.2019
5699 Clouds 25 1011 83 10000 1.5 70 22:38 22.10.2019
5700 Clouds 25 1011 83 10000 1.5 70 22:20 22.10.2019
5701 Clouds 25 1010 78 10000 1.5 80 21:56 22.10.2019
5702 Clouds 25 1010 83 10000 1.5 90 21:37 22.10.2019
5703 Clouds 25 1010 83 10000 1.5 90 21:18 22.10.2019
5704 Clouds 25 1010 83 10000 2.6 100 20:56 22.10.2019
5705 Clouds 25 1010 78 10000 2.6 90 20:37 22.10.2019
5706 Clouds 26 1010 78 10000 2.6 90 20:19 22.10.2019
5707 Clouds 26 1010 78 10000 3.1 90 19:45 22.10.2019
5708 Clouds 25 1010 83 10000 2.1 90 19:27 22.10.2019
5709 Clouds 26 1010 78 10000 2.1 110 18:58 22.10.2019
5710 Clouds 26 1010 78 10000 2.1 110 18:58 22.10.2019
5711 Clouds 26 1010 78 10000 1 130 18:40 22.10.2019
5712 Clouds 25 1010 78 10000 1 130 18:21 22.10.2019
5713 Clouds 26 1010 78 10000 1 150 17:57 22.10.2019
5714 Clouds 26 1011 78 10000 1.5 220 17:38 22.10.2019
5715 Clouds 26 1011 78 10000 1.5 220 17:20 22.10.2019
5716 Clouds 26 1011 78 10000 1.5 220 17:20 22.10.2019
5717 Clouds 26 1011 78 10000 1.5 220 17:20 22.10.2019
5718 Clouds 26 1011 69 10000 2.6 240 16:57 22.10.2019
5719 Clouds 27 1011 69 10000 2.6 260 16:37 22.10.2019
5720 Clouds 27 1011 69 10000 2.6 260 16:19 22.10.2019
5721 Clouds 27 1011 69 10000 2.6 260 16:19 22.10.2019
5722 Clouds 27 1011 74 10000 3.1 260 15:44 22.10.2019
5723 Smoke 27 1011 74 10000 3.6 270 15:21 22.10.2019
5724 Smoke 27 1010 74 10000 5.1 280 14:58 22.10.2019
5725 Smoke 28 1010 70 10000 4.6 290 14:40 22.10.2019
5726 Smoke 28 1010 70 10000 4.6 290 14:19 22.10.2019
5727 Clouds 28 1010 54 10000 1.5 10 13:42 22.10.2019
5728 Clouds 28 1010 54 10000 1.5 10 13:22 22.10.2019
5729 Clouds 28 1009 54 10000 3.1 20 12:58 22.10.2019
5730 Clouds 29 1009 51 10000 3.6 10 12:40 22.10.2019
5731 Clouds 29 1009 51 10000 3.6 10 12:21 22.10.2019
5732 Clouds 30 1009 48 10000 3.6 10 11:56 22.10.2019
5733 Clouds 30 1008 43 10000 5.7 20 11:37 22.10.2019
5734 Clouds 30 1008 43 10000 5.7 20 11:19 22.10.2019
5735 Clouds 31 1008 43 10000 5.1 30 10:55 22.10.2019
5736 Clouds 31 1007 38 10000 6.7 30 10:36 22.10.2019
5737 Clouds 32 1007 38 10000 6.7 30 10:18 22.10.2019
5738 Clouds 32 1007 35 10000 6.7 10 09:42 22.10.2019
5739 Clouds 33 1007 31 10000 7.7 10 09:22 22.10.2019
5740 Clouds 33 1007 41 10000 6.7 30 08:59 22.10.2019
5741 Clouds 33 1008 46 10000 7.2 350 08:41 22.10.2019
5742 Clouds 33 1008 46 10000 7.2 350 08:19 22.10.2019
5743 Clouds 33 1008 43 10000 7.2 350 07:45 22.10.2019
5744 Clouds 33 1008 49 10000 8.2 360 07:26 22.10.2019
5745 Clouds 33 1008 49 10000 7.2 360 06:47 22.10.2019
5746 Clouds 33 1009 52 10000 6.7 360 06:29 22.10.2019
5747 Clouds 33 1009 58 10000 7.7 360 05:50 22.10.2019
5748 Clouds 33 1009 58 10000 7.7 360 05:50 22.10.2019
5749 Clouds 33 1010 52 10000 7.2 340 05:19 22.10.2019
5750 Clouds 32 1012 48 10000 2.6 130 02:33 22.10.2019
5751 Clouds 31 1012 51 10000 3.1 110 01:51 22.10.2019
5752 Clouds 30 1012 58 10000 2.6 130 01:26 22.10.2019
5753 Clouds 29 1012 65 10000 2.6 90 00:57 22.10.2019
5754 Clouds 28 1011 69 10000 3.1 100 00:39 22.10.2019
5755 Clouds 27 1011 69 10000 3.1 100 00:20 22.10.2019
5756 Clouds 24 1011 73 10000 2.6 90 23:39 21.10.2019
5757 Clouds 25 1011 73 10000 2.6 90 23:20 21.10.2019
5758 Clouds 24 1011 73 10000 2.6 90 22:59 21.10.2019
5759 Clouds 24 1010 69 10000 2.6 70 22:40 21.10.2019
5760 Clouds 24 1010 69 10000 2.6 70 22:21 21.10.2019
5761 Clouds 24 1010 78 10000 2.1 70 21:59 21.10.2019
5762 Clouds 25 1010 83 10000 1 90 21:40 21.10.2019
5763 Clouds 24 1010 83 10000 1 90 21:22 21.10.2019
5764 Clouds 24 1010 83 10000 1.7 101 20:58 21.10.2019
5765 Clouds 24 1010 78 10000 1.7 101 20:40 21.10.2019
5766 Clouds 25 1010 78 10000 1.7 101 20:21 21.10.2019
5767 Clouds 25 1010 78 10000 0.5 340 19:58 21.10.2019
5768 Clouds 25 1010 78 10000 1.5 350 19:40 21.10.2019
5769 Clouds 25 1010 78 10000 1.5 350 19:40 21.10.2019
5770 Clouds 26 1010 78 10000 1.5 350 19:21 21.10.2019
5771 Clouds 26 1010 74 10000 1.5 340 18:56 21.10.2019
5772 Clouds 27 1010 69 10000 1.5 340 18:37 21.10.2019
5773 Clear 27 1010 69 10000 1.5 340 18:19 21.10.2019
5774 Clear 27 1010 69 10000 2.6 330 17:55 21.10.2019
5775 Clear 28 1011 62 10000 2.1 340 17:37 21.10.2019
5776 Clear 28 1011 62 10000 2.1 340 17:18 21.10.2019
5777 Clouds 28 1011 66 10000 3.1 320 16:55 21.10.2019
5778 Clear 28 1011 70 10000 3.6 290 16:37 21.10.2019
5779 Clear 28 1011 70 10000 3.6 290 16:19 21.10.2019
5780 Clear 28 1011 66 10000 3.6 290 15:42 21.10.2019
5781 Clouds 28 1011 70 10000 3.6 280 15:24 21.10.2019
5782 Clouds 28 1011 70 10000 4.6 270 14:57 21.10.2019
5783 Clouds 29 1011 62 10000 6.7 290 14:38 21.10.2019
5784 Clouds 29 1011 62 10000 6.7 290 14:19 21.10.2019
5785 Clouds 29 1010 66 10000 6.2 300 13:55 21.10.2019
5786 Clouds 29 1010 62 10000 4.1 320 13:37 21.10.2019
5787 Clouds 29 1010 62 10000 4.1 320 13:18 21.10.2019
5788 Clouds 30 1009 45 10000 1 50 12:41 21.10.2019
5789 Clear 30 1009 45 10000 1 50 12:22 21.10.2019
5790 Clouds 31 1009 40 10000 2.6 270 11:55 21.10.2019
5791 Clear 31 1008 40 10000 3.6 10 11:37 21.10.2019
5792 Clear 31 1008 40 10000 3.6 10 11:19 21.10.2019
5793 Clouds 32 1008 36 10000 2.6 270 10:55 21.10.2019
5794 Clear 33 1008 38 10000 5.7 10 10:37 21.10.2019
5795 Clear 33 1008 38 10000 5.7 10 10:18 21.10.2019
5796 Clear 34 1007 32 10000 6.2 10 09:44 21.10.2019
5797 Clear 35 1008 34 10000 7.7 10 09:25 21.10.2019
5798 Clear 36 1008 26 10000 7.7 10 08:43 21.10.2019
5799 Clear 36 1008 28 10000 6.7 350 08:24 21.10.2019
5800 Clear 36 1008 38 10000 6.7 360 07:59 21.10.2019
5801 Clear 35 1009 46 10000 6.2 350 07:37 21.10.2019
5802 Clear 35 1009 46 10000 6.2 350 07:19 21.10.2019
5803 Clear 35 1009 41 10000 6.7 330 06:53 21.10.2019
5804 Clear 36 1010 39 10000 7.2 330 06:33 21.10.2019
5805 Clear 36 1010 38 10000 7.7 340 05:50 21.10.2019
5806 Clear 36 1010 38 10000 7.7 340 05:50 21.10.2019
5807 Clouds 38 1011 16 10000 7.2 350 04:44 21.10.2019
5808 Clouds 33 1013 52 10000 7.2 110 02:50 21.10.2019
5809 Clouds 32 1013 66 10000 3.6 180 02:23 21.10.2019
5810 Clouds 31 1013 70 10000 2.6 180 01:55 21.10.2019
5811 Clouds 30 1013 78 10000 7.2 110 01:23 21.10.2019
5812 Clouds 28 1013 83 10000 7.2 110 00:46 21.10.2019
5813 Clouds 27 1013 88 10000 3.1 160 00:24 21.10.2019
5814 Clouds 25 1012 94 10000 7.2 110 23:42 20.10.2019
5815 Clouds 25 1012 88 10000 1.5 160 23:22 20.10.2019
5816 Fog 24 1012 94 10000 1 140 22:56 20.10.2019
5817 Fog 24 1012 94 10000 0.5 110 22:37 20.10.2019
5818 Fog 24 1012 94 10000 0.5 110 22:18 20.10.2019
5819 Clouds 24 1011 94 10000 3.54 155.655 21:57 20.10.2019
5820 Clouds 25 1011 88 10000 3.54 155.655 21:38 20.10.2019
5821 Clouds 25 1011 88 10000 1.64 340.217 21:20 20.10.2019
5822 Clouds 25 1011 88 10000 1 330 20:41 20.10.2019
5823 Clouds 25 1011 88 10000 1 330 20:18 20.10.2019
5824 Clouds 25 1011 88 10000 1.5 350 19:56 20.10.2019
5825 Clouds 26 1011 83 10000 1 300 19:37 20.10.2019
5826 Clouds 26 1011 83 10000 1 300 19:19 20.10.2019
5827 Clouds 26 1012 83 10000 1.5 270 18:42 20.10.2019
5828 Clouds 26 1012 83 10000 1.5 270 18:24 20.10.2019
5829 Clouds 27 1012 83 10000 1.5 260 17:59 20.10.2019
5830 Clouds 27 1012 83 10000 1.5 280 17:41 20.10.2019
5831 Clouds 27 1012 83 10000 1.5 280 17:23 20.10.2019
5832 Clouds 27 1012 83 10000 1.5 280 16:57 20.10.2019
5833 Clouds 27 1013 79 10000 2.1 270 16:39 20.10.2019
5834 Clouds 28 1013 79 10000 2.1 270 16:21 20.10.2019
5835 Clouds 28 1013 79 10000 2.1 270 15:55 20.10.2019
5836 Clear 28 1013 79 10000 2.1 260 15:37 20.10.2019
5837 Clear 28 1013 79 10000 2.1 260 15:18 20.10.2019
5838 Clear 28 1012 79 10000 3.6 260 14:55 20.10.2019
5839 Clear 29 1012 74 10000 3.6 270 14:37 20.10.2019
5840 Clear 29 1012 74 10000 3.6 270 14:18 20.10.2019
5841 Clear 29 1012 74 10000 3.6 260 13:54 20.10.2019
5842 Clear 29 1012 74 10000 3.6 260 13:54 20.10.2019
5843 Clear 29 1011 74 10000 4.6 280 13:36 20.10.2019
5844 Clear 29 1011 74 10000 4.6 280 13:18 20.10.2019
5845 Clear 29 1011 74 10000 4.6 280 13:18 20.10.2019
5846 Clear 30 1011 66 10000 5.7 290 12:54 20.10.2019
5847 Clear 30 1011 66 10000 5.7 290 12:54 20.10.2019
5848 Clear 31 1010 43 10000 5.7 330 12:36 20.10.2019
5849 Clear 31 1010 43 10000 5.7 330 12:18 20.10.2019
5850 Clear 32 1009 43 10000 2.1 350 11:41 20.10.2019
5851 Clear 33 1009 43 10000 2.1 350 11:22 20.10.2019
5852 Clear 32 1009 46 10000 2.6 330 10:58 20.10.2019
5853 Clear 33 1008 52 10000 3.6 330 10:39 20.10.2019
5854 Clear 33 1008 52 10000 3.6 330 10:39 20.10.2019
5855 Clear 33 1008 52 10000 3.6 330 10:21 20.10.2019
5856 Clear 33 1008 52 10000 5.1 310 09:56 20.10.2019
5857 Clear 33 1008 55 10000 5.7 300 09:37 20.10.2019
5858 Clear 33 1008 55 10000 5.7 300 09:18 20.10.2019
5859 Clear 34 1009 59 10000 5.1 320 08:40 20.10.2019
5860 Clear 34 1009 59 10000 5.1 320 08:21 20.10.2019
5861 Clouds 34 1009 59 10000 6.7 320 07:47 20.10.2019
5862 Clouds 35 1010 55 10000 6.2 330 07:26 20.10.2019
5863 Clouds 35 1010 52 10000 5.7 320 06:30 20.10.2019
5864 Clouds 36 1012 49 10000 4.1 290 04:30 20.10.2019
5865 Clouds 34 1013 55 10000 7.2 340 03:51 20.10.2019
5866 Clouds 34 1013 52 10000 7.2 340 03:22 20.10.2019
5867 Clouds 33 1013 52 10000 7.2 340 02:49 20.10.2019
5868 Clouds 32 1013 58 10000 1.5 360 02:22 20.10.2019
5869 Clouds 31 1014 62 10000 1.5 30 01:50 20.10.2019
5870 Clouds 30 1014 70 10000 2.6 50 01:21 20.10.2019
5871 Clouds 29 1014 70 10000 1.5 50 00:48 20.10.2019
5872 Clouds 27 1013 69 10000 1 70 00:21 20.10.2019
5873 Clear 25 1013 83 10000 1 70 23:54 19.10.2019
5874 Clear 24 1013 88 10000 1.17 102.177 23:36 19.10.2019
5875 Clear 23 1013 88 10000 1.17 102.177 23:18 19.10.2019
5876 Clear 24 1012 83 10000 1.17 102.177 22:40 19.10.2019
5877 Clear 24 1012 83 10000 1.17 102.177 22:22 19.10.2019
5878 Clear 24 1012 83 10000 1.17 102.177 21:57 19.10.2019
5879 Clear 24 1011 83 10000 1.17 102.177 21:39 19.10.2019
5880 Clear 24 1011 83 10000 3.23 345.611 21:20 19.10.2019
5881 Clear 25 1011 78 10000 0.5 340 20:42 19.10.2019
5882 Clear 25 1011 74 10000 1.5 320 20:21 19.10.2019
5883 Clear 26 1011 74 10000 2.1 330 19:45 19.10.2019
5884 Clear 26 1012 78 10000 1.5 340 19:26 19.10.2019
5885 Clear 27 1012 74 10000 2.1 290 18:57 19.10.2019
5886 Clear 27 1013 74 10000 2.1 320 18:39 19.10.2019
5887 Clear 27 1013 74 10000 2.1 320 18:19 19.10.2019
5888 Clouds 27 1013 69 10000 3.1 330 17:41 19.10.2019
5889 Clouds 27 1013 69 10000 3.1 330 17:23 19.10.2019
5890 Clouds 28 1013 70 10000 3.6 300 16:57 19.10.2019
5891 Clouds 28 1013 70 10000 3.6 300 16:57 19.10.2019
5892 Clouds 28 1013 66 10000 3.6 310 16:38 19.10.2019
5893 Clouds 28 1013 66 10000 3.6 310 16:19 19.10.2019
5894 Clouds 28 1013 66 10000 4.1 300 15:43 19.10.2019
5895 Clouds 28 1013 70 10000 4.1 290 15:25 19.10.2019
5896 Clouds 29 1013 74 10000 4.6 270 14:40 19.10.2019
5897 Clouds 29 1013 74 10000 4.6 270 14:39 19.10.2019
5898 Clouds 29 1013 74 10000 4.6 270 14:39 19.10.2019
5899 Clouds 29 1013 74 10000 4.6 270 14:21 19.10.2019
5900 Clear 29 1013 74 10000 4.1 270 13:59 19.10.2019
5901 Clouds 29 1012 74 10000 4.6 270 13:40 19.10.2019
5902 Clouds 29 1012 74 10000 4.6 270 13:20 19.10.2019
5903 Clouds 30 1011 66 10000 5.7 280 12:58 19.10.2019
5904 Clouds 30 1011 58 10000 3.1 300 12:38 19.10.2019
5905 Clouds 30 1011 58 10000 3.1 300 12:19 19.10.2019
5906 Clear 31 1010 58 10000 3.1 330 11:41 19.10.2019
5907 Clear 31 1010 58 10000 3.1 330 11:23 19.10.2019
5908 Clear 32 1010 55 10000 3.6 340 10:58 19.10.2019
5909 Clear 32 1009 49 10000 4.6 340 10:39 19.10.2019
5910 Clear 33 1009 49 10000 4.6 340 10:21 19.10.2019
5911 Clear 35 1009 34 10000 7.7 10 09:44 19.10.2019
5912 Clear 35 1009 34 10000 7.7 10 09:26 19.10.2019
5913 Clear 36 1009 32 10000 7.2 10 09:00 19.10.2019
5914 Clear 36 1010 26 10000 5.7 340 08:40 19.10.2019
5915 Clear 35 1010 26 10000 5.7 340 08:21 19.10.2019
5916 Clear 35 1010 39 10000 5.7 350 07:45 19.10.2019
5917 Clear 36 1010 39 10000 5.7 350 07:25 19.10.2019
5918 Clear 35 1011 46 10000 5.1 330 06:48 19.10.2019
5919 Clear 35 1011 46 10000 5.1 330 06:48 19.10.2019
5920 Clear 36 1011 46 10000 5.1 330 06:28 19.10.2019
5921 Clear 36 1012 46 10000 5.1 310 05:35 19.10.2019
5922 Clouds 36 1013 34 10000 7.2 340 04:26 19.10.2019
5923 Clouds 32 1014 48 10000 7.2 340 02:50 19.10.2019
5924 Clouds 31 1014 51 10000 3.1 80 01:55 19.10.2019
5925 Clouds 30 1014 58 10000 3.1 100 01:36 19.10.2019
5926 Clouds 28 1014 65 10000 3.1 100 00:49 19.10.2019
5927 Clouds 27 1014 74 10000 2.1 100 00:28 19.10.2019
5928 Clouds 25 1013 83 10000 1.5 70 23:56 18.10.2019
5929 Clouds 25 1013 83 10000 1.5 70 23:56 18.10.2019
5930 Clouds 24 1013 83 10000 1.5 70 23:37 18.10.2019
5931 Clouds 25 1013 83 10000 1.5 70 23:19 18.10.2019
5932 Clouds 24 1013 83 10000 2.1 60 22:43 18.10.2019
5933 Clouds 24 1013 83 10000 2.1 60 22:21 18.10.2019
5934 Clouds 24 1012 83 10000 2.1 60 21:59 18.10.2019
5935 Clouds 25 1012 78 10000 1.5 60 21:39 18.10.2019
5936 Clear 25 1012 78 10000 1.5 60 21:20 18.10.2019
5937 Clear 25 1012 78 10000 2.6 70 20:59 18.10.2019
5938 Clear 25 1012 83 10000 3.1 80 20:41 18.10.2019
5939 Clear 25 1012 83 10000 3.1 80 20:22 18.10.2019
5940 Clear 25 1013 88 10000 2.6 80 19:58 18.10.2019
5941 Clear 25 1013 88 10000 2.6 80 19:58 18.10.2019
5942 Clouds 26 1013 83 10000 1 140 19:39 18.10.2019
5943 Clouds 26 1013 83 10000 1 140 19:39 18.10.2019
5944 Clouds 26 1013 83 10000 1 140 19:39 18.10.2019
5945 Clouds 26 1013 83 10000 1 140 19:21 18.10.2019
5946 Clear 26 1013 83 10000 1 170 18:57 18.10.2019
5947 Clear 26 1013 83 10000 1.5 210 18:39 18.10.2019
5948 Clear 26 1013 83 10000 1.5 210 18:20 18.10.2019
5949 Clear 26 1013 78 10000 2.1 240 17:39 18.10.2019
5950 Clear 27 1013 78 10000 2.1 240 17:21 18.10.2019
5951 Clouds 27 1014 78 10000 2.1 240 16:59 18.10.2019
5952 Clouds 27 1014 78 10000 2.6 250 16:38 18.10.2019
5953 Clouds 27 1014 78 10000 2.6 250 16:19 18.10.2019
5954 Clouds 27 1014 78 10000 2.6 240 15:54 18.10.2019
5955 Clouds 27 1014 78 10000 3.6 240 15:36 18.10.2019
5956 Clouds 28 1014 78 10000 3.6 240 15:18 18.10.2019
5957 Clouds 28 1014 78 10000 3.6 240 15:18 18.10.2019
5958 Clouds 28 1013 78 10000 3.1 240 14:56 18.10.2019
5959 Clouds 28 1013 78 10000 3.6 270 14:38 18.10.2019
5960 Clouds 28 1013 78 10000 3.6 270 14:18 18.10.2019
5961 Clouds 28 1012 78 10000 5.1 280 13:41 18.10.2019
5962 Clouds 28 1012 78 10000 5.1 280 13:23 18.10.2019
5963 Clouds 29 1011 70 10000 6.2 280 12:58 18.10.2019
5964 Clouds 29 1011 70 10000 5.7 300 12:39 18.10.2019
5965 Clouds 29 1011 70 10000 5.7 300 12:21 18.10.2019
5966 Clouds 30 1010 55 10000 4.6 340 11:56 18.10.2019
5967 Clouds 30 1010 55 10000 4.6 340 11:56 18.10.2019
5968 Clouds 31 1010 43 10000 5.7 30 11:38 18.10.2019
5969 Clouds 31 1010 43 10000 5.7 30 11:19 18.10.2019
5970 Clouds 31 1010 43 10000 5.7 30 11:19 18.10.2019
5971 Clouds 32 1009 40 10000 7.2 20 10:56 18.10.2019
5972 Clear 33 1009 38 10000 6.7 30 10:38 18.10.2019
5973 Clear 33 1009 38 10000 6.7 30 10:18 18.10.2019
5974 Clear 33 1009 38 10000 6.7 20 09:55 18.10.2019
5975 Clear 34 1009 36 10000 7.2 10 09:37 18.10.2019
5976 Clear 35 1009 36 10000 7.2 10 09:18 18.10.2019
5977 Clear 35 1009 26 10000 8.7 10 08:42 18.10.2019
5978 Clear 35 1009 26 10000 8.7 10 08:42 18.10.2019
5979 Clear 36 1009 26 10000 8.7 10 08:23 18.10.2019
5980 Clear 36 1009 23 10000 6.7 360 07:44 18.10.2019
5981 Clear 36 1009 32 10000 6.2 330 07:26 18.10.2019
5982 Clear 34 1010 49 10000 6.7 330 06:41 18.10.2019
5983 Clear 34 1010 49 10000 6.7 330 06:22 18.10.2019
5984 Clear 35 1010 44 10000 6.2 340 05:58 18.10.2019
5985 Clear 35 1011 38 10000 6.2 350 05:24 18.10.2019
5986 Clear 36 1011 34 10000 4.1 20 04:49 18.10.2019
5987 Clear 31 1013 48 10000 3.6 60 03:34 18.10.2019
5988 Clouds 30 1013 62 10000 3.6 70 02:37 18.10.2019
5989 Clouds 30 1013 62 10000 3.6 70 02:18 18.10.2019
5990 Clouds 28 1014 74 10000 4.6 90 01:31 18.10.2019
5991 Clouds 27 1014 74 10000 3.6 90 00:54 18.10.2019
5992 Clouds 26 1013 78 10000 3.6 90 00:36 18.10.2019
5993 Clouds 26 1013 78 10000 3.6 90 00:18 18.10.2019
5994 Clouds 23 1012 88 10000 2.1 110 23:38 17.10.2019
5995 Clouds 24 1012 88 10000 2.1 110 23:19 17.10.2019
5996 Clouds 24 1012 88 10000 1.5 70 22:55 17.10.2019
5997 Clouds 23 1011 88 10000 1.5 80 22:37 17.10.2019
5998 Clouds 23 1011 88 10000 1.5 80 22:18 17.10.2019
5999 Clear 23 1011 88 10000 1.5 80 21:56 17.10.2019
6000 Clouds 23 1011 88 10000 1.5 90 21:37 17.10.2019
6001 Clouds 23 1011 88 10000 1.5 90 21:19 17.10.2019
6002 Clouds 23 1011 88 10000 1.5 90 20:56 17.10.2019
6003 Clear 23 1011 88 10000 1 50 20:38 17.10.2019
6004 Clear 23 1011 88 10000 1 50 20:18 17.10.2019
6005 Clouds 23 1011 88 10000 1.5 70 19:56 17.10.2019
6006 Clear 24 1011 83 10000 1.5 90 19:37 17.10.2019
6007 Clear 24 1011 83 10000 1.5 90 19:18 17.10.2019
6008 Clouds 25 1011 83 10000 1 330 18:42 17.10.2019
6009 Clouds 25 1011 83 10000 1 330 18:21 17.10.2019
6010 Clear 26 1011 78 10000 1.5 330 17:55 17.10.2019
6011 Clear 26 1011 78 10000 2.1 330 17:37 17.10.2019
6012 Clear 26 1011 78 10000 2.1 330 17:19 17.10.2019
6013 Clouds 26 1012 74 10000 2.6 330 16:55 17.10.2019
6014 -273 0 0 0 0 0 16:36 17.10.2019
6015 Clouds 26 1012 78 10000 2.1 310 16:18 17.10.2019
6016 Clouds 27 1012 78 10000 3.6 310 15:41 17.10.2019
6017 Clouds 27 1012 78 10000 3.6 310 15:21 17.10.2019
6018 Clouds 27 1012 69 10000 3.6 360 14:59 17.10.2019
6019 Clouds 27 1011 62 10000 2.6 350 14:41 17.10.2019
6020 Clouds 28 1011 62 10000 2.6 350 14:23 17.10.2019
6021 Clouds 27 1011 54 10000 3.1 20 13:42 17.10.2019
6022 Clouds 28 1011 54 10000 3.1 20 13:21 17.10.2019
6023 Clouds 29 1011 48 10000 3.6 20 12:59 17.10.2019
6024 Clouds 29 1011 51 10000 2.6 10 12:40 17.10.2019
6025 Clouds 29 1011 51 10000 2.6 10 12:20 17.10.2019
6026 Clouds 30 1010 43 10000 3.6 40 11:57 17.10.2019
6027 Clouds 31 1010 38 10000 4.1 30 11:39 17.10.2019
6028 Clouds 31 1010 38 10000 4.1 30 11:18 17.10.2019
6029 Clouds 33 1010 29 10000 6.2 60 10:42 17.10.2019
6030 Clouds 33 1010 29 10000 6.2 60 10:21 17.10.2019
6031 Clouds 33 1010 29 10000 6.2 60 10:20 17.10.2019
6032 Clouds 34 1009 26 10000 6.7 40 09:59 17.10.2019
6033 Clouds 34 1009 34 10000 5.7 30 09:41 17.10.2019
6034 Clouds 34 1009 34 10000 5.7 30 09:41 17.10.2019
6035 Clouds 34 1009 34 10000 5.7 30 09:21 17.10.2019
6036 Clouds 34 1009 41 10000 6.7 10 08:58 17.10.2019
6037 Clouds 34 1009 41 10000 6.7 10 08:58 17.10.2019
6038 Clouds 34 1009 46 10000 6.7 10 08:39 17.10.2019
6039 Clouds 34 1009 46 10000 6.7 10 08:20 17.10.2019
6040 -273 0 0 0 0 0 07:54 17.10.2019
6041 Clouds 34 1010 46 10000 6.7 360 07:36 17.10.2019
6042 Clouds 34 1010 46 10000 6.7 360 07:18 17.10.2019
6043 Clouds 34 1010 49 10000 7.2 10 06:39 17.10.2019
6044 Clouds 34 1010 49 10000 7.2 10 06:20 17.10.2019
6045 Clouds 33 1011 55 10000 7.2 330 05:49 17.10.2019
6046 Clouds 34 1011 52 10000 7.7 360 05:30 17.10.2019
6047 Clouds 34 1011 49 10000 6.2 360 04:51 17.10.2019
6048 Clouds 34 1012 43 10000 4.1 50 03:54 17.10.2019
6049 Clouds 31 1013 58 10000 3.6 50 02:36 17.10.2019
6050 Clear 28 1012 69 10000 2.1 70 00:56 17.10.2019
6051 Clear 26 1012 78 10000 1.5 80 00:38 17.10.2019
6052 Clear 26 1012 78 10000 1.5 80 00:18 17.10.2019
6053 Smoke 23 1011 88 1500 2.1 110 23:42 16.10.2019
6054 Smoke 23 1011 88 1500 2.1 110 23:21 16.10.2019
6055 Smoke 23 1011 88 1500 2.1 110 23:21 16.10.2019
6056 Smoke 22 1010 94 1200 1.5 70 22:55 16.10.2019
6057 Clear 23 1011 88 10000 1 60 22:36 16.10.2019
6058 Clear 23 1011 88 10000 1 60 22:18 16.10.2019
6059 -273 0 0 0 0 0 21:56 16.10.2019
6060 Clouds 23 1010 88 10000 1 90 21:37 16.10.2019
6061 Clear 23 1010 88 10000 1 90 21:18 16.10.2019
6062 Clear 23 1010 88 10000 1 70 20:57 16.10.2019
6063 Clear 23 1010 88 4500 1.5 60 20:38 16.10.2019
6064 Clear 23 1010 88 4500 1.5 60 20:20 16.10.2019
6065 Clear 24 1010 88 6000 1 80 19:57 16.10.2019
6066 Clear 24 1010 83 10000 1 130 19:38 16.10.2019
6067 Clear 24 1010 83 10000 1 130 19:20 16.10.2019
6068 Clear 25 1011 78 10000 1.5 210 18:39 16.10.2019
6069 Clear 25 1011 78 10000 1.5 210 18:39 16.10.2019
6070 Clear 25 1011 78 10000 1.5 210 18:19 16.10.2019
6071 Clear 25 1011 78 10000 1.5 210 17:57 16.10.2019
6072 -273 0 0 0 0 0 17:39 16.10.2019
6073 Clear 26 1011 78 10000 1.5 210 17:21 16.10.2019
6074 Clear 26 1011 78 10000 3.1 220 16:59 16.10.2019
6075 Clear 26 1011 78 10000 3.1 230 16:41 16.10.2019
6076 Clear 26 1011 78 10000 3.1 230 16:41 16.10.2019
6077 Clear 26 1011 78 10000 3.1 230 16:20 16.10.2019
6078 Clear 27 1012 69 10000 2.6 240 15:56 16.10.2019
6079 Clear 27 1012 69 10000 2.6 240 15:56 16.10.2019
6080 Clear 27 1012 69 10000 3.1 250 15:37 16.10.2019
6081 Clear 27 1012 69 10000 3.1 250 15:18 16.10.2019
6082 Clear 27 1012 69 10000 3.1 250 14:56 16.10.2019
6083 Clear 27 1012 69 10000 3.1 250 14:38 16.10.2019
6084 Clear 27 1011 69 10000 3.1 260 14:18 16.10.2019
6085 Clear 27 1011 69 10000 3.1 260 13:56 16.10.2019
6086 Clear 27 1011 69 10000 3.1 260 13:56 16.10.2019
6087 Clear 27 1011 69 10000 3.1 260 13:37 16.10.2019
6088 Clear 28 1011 69 10000 3.6 260 13:18 16.10.2019
6089 Clear 28 1010 69 10000 3.6 270 12:41 16.10.2019
6090 Clear 28 1010 62 10000 4.1 270 12:19 16.10.2019
6091 Clear 29 1010 62 10000 5.1 280 11:43 16.10.2019
6092 Smoke 29 1010 62 10000 6.2 290 11:18 16.10.2019
6093 Smoke 30 1010 55 10000 6.2 290 10:40 16.10.2019
6094 Smoke 31 1009 48 10000 6.2 290 10:22 16.10.2019
6095 Smoke 31 1009 55 10000 6.7 290 09:58 16.10.2019
6096 Smoke 32 1009 55 10000 6.7 290 09:38 16.10.2019
6097 Smoke 32 1009 46 10000 6.7 290 09:20 16.10.2019
6098 Smoke 33 1009 49 10000 7.2 290 08:43 16.10.2019
6099 Smoke 33 1009 52 10000 7.2 290 08:25 16.10.2019
6100 -273 0 0 0 0 0 07:56 16.10.2019
6101 Smoke 33 1009 55 10000 8.2 290 07:56 16.10.2019
6102 Smoke 33 1010 52 10000 8.2 300 07:38 16.10.2019
6103 Smoke 33 1010 52 10000 8.2 300 07:19 16.10.2019
6104 Smoke 33 1010 52 10000 7.7 300 06:40 16.10.2019
6105 Smoke 34 1011 52 10000 7.2 290 06:19 16.10.2019
6106 Clouds 31 1013 62 10000 6.7 320 03:33 16.10.2019
6107 Clouds 31 1013 62 10000 6.7 320 02:50 16.10.2019
6108 Clouds 29 1013 62 10000 1.5 250 01:20 16.10.2019
6109 Clouds 28 1013 69 10000 0.5 60 00:56 16.10.2019
6110 Clouds 26 1012 78 10000 0.5 40 00:37 16.10.2019
6111 Clouds 24 1012 83 10000 1 250 23:42 15.10.2019
6112 Clouds 23 1012 83 10000 1.5 270 23:22 15.10.2019
6113 Clouds 24 1011 83 10000 2.1 270 22:58 15.10.2019
6114 Clouds 24 1011 83 10000 2.1 270 22:40 15.10.2019
6115 Clouds 24 1011 78 10000 2.1 270 22:21 15.10.2019
6116 Clouds 25 1011 78 10000 2.6 270 21:57 15.10.2019
6117 Clouds 24 1011 78 10000 2.6 270 21:38 15.10.2019
6118 Clouds 25 1011 78 10000 2.1 270 21:20 15.10.2019
6119 Clouds 25 1011 78 10000 2.6 270 20:58 15.10.2019
6120 Clouds 25 1011 78 10000 2.6 270 20:40 15.10.2019
6121 Clouds 25 1011 78 10000 2.6 270 20:40 15.10.2019
6122 Clouds 25 1011 78 10000 2.6 280 20:21 15.10.2019
6123 Clouds 25 1011 78 10000 3.1 280 19:59 15.10.2019
6124 Clouds 25 1011 78 10000 3.1 280 19:41 15.10.2019
6125 Clouds 25 1011 78 10000 3.1 280 19:41 15.10.2019
6126 Clouds 26 1011 74 10000 3.1 280 19:20 15.10.2019
6127 Clouds 26 1011 74 10000 3.1 280 18:55 15.10.2019
6128 Clouds 26 1011 74 10000 3.1 280 18:37 15.10.2019
6129 Clouds 26 1011 74 10000 3.1 290 18:19 15.10.2019
6130 Clouds 26 1012 74 10000 3.6 290 17:42 15.10.2019
6131 Clouds 26 1012 74 10000 4.1 280 17:21 15.10.2019
6132 Clouds 26 1012 78 10000 3.6 260 16:59 15.10.2019
6133 Clouds 26 1012 78 10000 3.6 260 16:41 15.10.2019
6134 Clouds 27 1012 78 10000 3.1 260 16:21 15.10.2019
6135 Clouds 27 1012 78 10000 3.1 260 15:55 15.10.2019
6136 Clouds 27 1012 78 10000 3.1 260 15:37 15.10.2019
6137 Clouds 27 1012 78 10000 3.6 260 15:19 15.10.2019
6138 Clouds 27 1012 74 10000 3.1 260 14:54 15.10.2019
6139 Clear 27 1011 74 10000 3.1 270 14:36 15.10.2019
6140 Clear 27 1011 74 10000 3.1 270 14:18 15.10.2019
6141 Clear 27 1011 65 10000 3.1 260 13:43 15.10.2019
6142 Clear 28 1011 65 10000 3.6 260 13:20 15.10.2019
6143 Clear 28 1010 65 10000 4.1 260 12:46 15.10.2019
6144 Clear 28 1010 58 10000 4.6 270 12:23 15.10.2019
6145 Clear 29 1009 51 10000 4.6 360 11:59 15.10.2019
6146 Clear 30 1009 51 10000 4.6 360 11:40 15.10.2019
6147 Clear 30 1009 45 10000 4.6 10 11:20 15.10.2019
6148 Clear 32 1009 35 10000 6.2 20 10:46 15.10.2019
6149 Clear 32 1009 35 10000 6.2 20 10:46 15.10.2019
6150 Clear 32 1009 33 10000 6.7 20 10:24 15.10.2019
6151 Clear 33 1009 33 10000 6.7 20 09:59 15.10.2019
6152 Clear 33 1009 29 10000 7.7 10 09:40 15.10.2019
6153 Clear 34 1009 29 10000 7.7 10 09:21 15.10.2019
6154 Clear 34 1009 29 10000 7.7 10 09:21 15.10.2019
6155 Clear 34 1009 21 10000 7.2 10 08:58 15.10.2019
6156 Clear 34 1009 20 10000 6.7 360 08:39 15.10.2019
6157 -273 0 0 0 0 0 08:19 15.10.2019
6158 Clear 35 1010 26 10000 6.2 360 07:43 15.10.2019
6159 Clear 35 1010 30 10000 5.7 340 07:23 15.10.2019
6160 Clear 35 1010 36 10000 6.2 350 06:57 15.10.2019
6161 Clear 34 1010 36 10000 6.2 350 06:39 15.10.2019
6162 Clear 34 1011 41 10000 6.7 340 05:56 15.10.2019
6163 Clear 34 1011 43 10000 5.7 350 05:36 15.10.2019
6164 Clouds 34 1012 41 10000 5.7 330 04:49 15.10.2019
6165 Clouds 34 1013 49 10000 4.6 330 04:19 15.10.2019
6166 Clear 33 1013 45 10000 5.1 350 03:35 15.10.2019
6167 Clouds 30 1014 58 10000 5.1 350 01:57 15.10.2019
6168 Clouds 30 1014 58 10000 5.1 350 01:39 15.10.2019
6169 Clouds 28 1013 69 10000 0.5 170 00:59 15.10.2019
6170 Clear 26 1013 74 10000 1 120 00:25 15.10.2019
6171 Clear 23 1013 88 10000 1 130 23:59 14.10.2019
6172 Clear 22 1013 88 10000 1 130 23:37 14.10.2019
6173 Clear 22 1013 88 10000 1 130 23:37 14.10.2019
6174 Clear 21 1012 88 10000 1 110 23:18 14.10.2019
6175 Clear 22 1012 78 10000 0.5 70 22:39 14.10.2019
6176 Clear 22 1012 78 10000 0.5 70 22:21 14.10.2019
6177 Clouds 22 1012 78 10000 1 170 21:58 14.10.2019
6178 Clouds 22 1012 78 10000 1 170 21:40 14.10.2019
6179 Clouds 22 1012 78 10000 1.5 200 21:21 14.10.2019
6180 Clouds 23 1012 73 10000 1.5 210 20:58 14.10.2019
6181 Clouds 23 1012 73 10000 1.5 210 20:38 14.10.2019
6182 Clouds 23 1011 73 10000 1.5 230 20:19 14.10.2019
6183 Clouds 23 1011 69 10000 1.5 240 19:55 14.10.2019
6184 Clouds 23 1011 69 10000 1.5 240 19:54 14.10.2019
6185 Clouds 24 1011 69 10000 1.5 230 19:36 14.10.2019
6186 Clouds 24 1011 69 10000 1.5 230 19:18 14.10.2019
6187 Clouds 24 1012 69 10000 1.5 230 18:54 14.10.2019
6188 Clouds 24 1012 69 10000 1.5 250 18:36 14.10.2019
6189 Clouds 24 1012 69 10000 1.5 250 18:18 14.10.2019
6190 Clouds 24 1012 65 10000 1.5 250 17:41 14.10.2019
6191 Clouds 25 1012 65 10000 1.5 250 17:22 14.10.2019
6192 Clear 25 1012 61 10000 1 250 16:46 14.10.2019
6193 Clear 25 1012 58 10000 1.5 250 16:23 14.10.2019
6194 Clear 26 1012 61 10000 2.1 240 15:59 14.10.2019
6195 Clear 26 1012 54 10000 1.5 250 15:40 14.10.2019
6196 Clear 26 1012 54 10000 1.5 250 15:40 14.10.2019
6197 Clear 27 1012 54 10000 1.5 250 15:21 14.10.2019
6198 Clear 26 1012 54 10000 1.5 360 14:44 14.10.2019
6199 Clear 27 1012 51 10000 1.5 310 14:25 14.10.2019
6200 Clear 27 1011 48 10000 2.1 240 13:57 14.10.2019
6201 Clear 28 1011 45 10000 2.6 30 13:39 14.10.2019
6202 Clear 28 1011 45 10000 2.6 30 13:20 14.10.2019
6203 Clear 28 1011 45 10000 2.6 30 13:20 14.10.2019
6204 Clear 29 1010 30 10000 4.1 30 12:41 14.10.2019
6205 Clear 30 1010 30 10000 4.1 30 12:21 14.10.2019
6206 Clear 30 1010 27 10000 4.6 30 11:55 14.10.2019
6207 Clear 31 1010 21 10000 5.1 20 11:36 14.10.2019
6208 Clear 32 1010 21 10000 5.1 20 11:18 14.10.2019
6209 Clear 33 1010 16 10000 6.2 20 10:44 14.10.2019
6210 Clear 33 1010 16 10000 6.2 20 10:44 14.10.2019
6211 Clear 34 1010 14 10000 6.7 30 10:21 14.10.2019
6212 Clear 34 1009 12 10000 7.2 10 09:59 14.10.2019
6213 Clear 35 1009 14 10000 6.7 10 09:40 14.10.2019
6214 Clear 35 1009 14 10000 6.7 10 09:20 14.10.2019
6215 Clear 35 1010 16 10000 8.2 30 08:48 14.10.2019
6216 Clear 36 1010 13 10000 7.7 10 08:23 14.10.2019
6217 Clear 36 1010 17 10000 7.7 10 07:44 14.10.2019
6218 Clear 36 1010 19 10000 7.7 350 07:22 14.10.2019
6219 Clear 36 1011 23 10000 6.2 350 06:56 14.10.2019
6220 Clear 34 1011 33 10000 6.7 340 06:28 14.10.2019
6221 Clear 35 1012 23 10000 6.2 350 05:53 14.10.2019
6222 Clouds 35 1013 32 10000 4.1 350 04:53 14.10.2019
6223 Clear 34 1014 40 10000 2.6 30 03:49 14.10.2019
6224 Clear 33 1014 43 10000 2.6 30 03:22 14.10.2019
6225 Clear 31 1014 58 10000 2.6 30 01:52 14.10.2019
6226 Clear 29 1014 65 10000 2.6 20 01:18 14.10.2019
6227 Clear 26 1013 78 10000 2.1 60 00:40 14.10.2019
6228 Clear 25 1013 78 10000 2.1 60 00:18 14.10.2019
6229 Clear 22 1012 88 10000 1.5 40 23:40 13.10.2019
6230 Clear 21 1012 88 10000 1.5 40 23:19 13.10.2019
6231 Clear 21 1012 88 10000 2.54 30.527 22:55 13.10.2019
6232 Clear 21 1011 83 10000 2.54 30.527 22:37 13.10.2019
6233 Clear 21 1011 83 10000 2.54 30.527 22:19 13.10.2019
6234 Clear 21 1011 83 10000 2.54 30.527 22:19 13.10.2019
6235 Clouds 22 1011 78 10000 2.54 30.527 21:55 13.10.2019
6236 Clouds 22 1011 83 10000 2.54 30.527 21:36 13.10.2019
6237 Clouds 22 1011 83 10000 2.85 339.905 21:18 13.10.2019
6238 Clouds 22 1011 83 10000 2.85 339.905 21:18 13.10.2019
6239 Clouds 22 1011 78 10000 1 90 20:55 13.10.2019
6240 Clouds 23 1011 83 10000 1 100 20:37 13.10.2019
6241 Clouds 23 1011 83 10000 1 100 20:18 13.10.2019
6242 Clouds 23 1011 73 10000 2.87 334.665 19:54 13.10.2019
6243 Clouds 23 1011 73 10000 2.87 334.665 19:36 13.10.2019
6244 Clouds 23 1011 73 10000 2.87 334.665 19:18 13.10.2019
6245 Clouds 24 1011 69 10000 1 310 18:39 13.10.2019
6246 Clouds 25 1011 69 10000 1 310 18:20 13.10.2019
6247 Clouds 25 1011 69 10000 1 310 18:20 13.10.2019
6248 Clouds 26 1011 65 10000 2.1 310 17:59 13.10.2019
6249 Clouds 26 1012 57 10000 2.6 320 17:41 13.10.2019
6250 Clouds 26 1012 57 10000 2.6 320 17:22 13.10.2019
6251 Clear 27 1012 58 10000 3.1 330 16:43 13.10.2019
6252 Clear 27 1012 58 10000 3.1 320 16:19 13.10.2019
6253 Clouds 27 1012 58 10000 3.6 330 15:57 13.10.2019
6254 Clouds 27 1012 54 10000 4.6 310 15:39 13.10.2019
6255 Clouds 27 1012 54 10000 4.6 310 15:20 13.10.2019
6256 Clouds 27 1012 66 10000 4.6 300 14:58 13.10.2019
6257 Clouds 27 1011 66 10000 4.6 300 14:39 13.10.2019
6258 Clouds 27 1011 66 10000 4.6 300 14:20 13.10.2019
6259 Clouds 28 1011 66 10000 4.6 290 13:56 13.10.2019
6260 Clouds 28 1010 66 10000 4.1 280 13:37 13.10.2019
6261 Clouds 28 1010 66 10000 4.1 280 13:18 13.10.2019
6262 Clouds 28 1010 66 10000 3.6 290 12:55 13.10.2019
6263 Clear 28 1010 58 10000 4.1 300 12:37 13.10.2019
6264 Clear 28 1010 58 10000 4.1 300 12:18 13.10.2019
6265 Clouds 29 1010 51 10000 3.1 360 11:55 13.10.2019
6266 Clouds 29 1010 51 10000 3.1 360 11:55 13.10.2019
6267 Clouds 29 1009 51 10000 3.1 360 11:36 13.10.2019
6268 Clouds 29 1009 51 10000 3.1 360 11:18 13.10.2019
6269 Clouds 31 1009 52 10000 3.1 360 10:41 13.10.2019
6270 Clouds 31 1009 52 10000 3.1 360 10:22 13.10.2019
6271 Clouds 32 1008 52 10000 5.1 320 09:41 13.10.2019
6272 Clouds 32 1008 52 10000 5.1 320 09:21 13.10.2019
6273 Clouds 32 1008 46 10000 6.2 330 08:57 13.10.2019
6274 Clouds 32 1009 58 10000 6.2 330 08:38 13.10.2019
6275 Clouds 32 1009 58 10000 6.2 330 08:19 13.10.2019
6276 Clouds 33 1009 52 10000 6.2 330 07:46 13.10.2019
6277 Clouds 33 1009 55 10000 6.2 310 06:59 13.10.2019
6278 Clouds 35 1010 52 10000 5.1 300 06:40 13.10.2019
6279 Clouds 35 1011 52 10000 4.6 290 05:39 13.10.2019
6280 Clouds 34 1012 52 10000 4.6 310 04:46 13.10.2019
6281 Clouds 31 1013 62 10000 3.1 330 03:40 13.10.2019
6282 Clouds 31 1013 66 10000 1.5 260 02:41 13.10.2019
6283 Clouds 31 1013 66 10000 7.2 320 01:53 13.10.2019
6284 Clouds 30 1013 74 10000 3.1 300 01:26 13.10.2019
6285 Clouds 28 1013 78 10000 3.1 300 00:47 13.10.2019
6286 Clouds 26 1013 83 10000 1.5 80 00:21 13.10.2019
6287 Clouds 24 1012 88 10000 1.18 157.507 23:56 12.10.2019
6288 Fog 23 1012 94 10000 1.18 157.507 23:37 12.10.2019
6289 Fog 24 1012 94 10000 1.18 157.507 23:19 12.10.2019
6290 Fog 24 1011 94 10000 0.5 240 22:57 12.10.2019
6291 Clouds 24 1011 88 10000 1 240 22:38 12.10.2019
6292 Clouds 24 1011 88 10000 1 240 22:20 12.10.2019
6293 Clouds 24 1011 88 10000 1 250 21:54 12.10.2019
6294 Clouds 24 1011 88 10000 1.5 270 21:36 12.10.2019
6295 Clouds 24 1011 88 10000 1.5 270 21:18 12.10.2019
6296 Clouds 26 1010 83 10000 1.5 260 20:40 12.10.2019
6297 Clouds 26 1010 83 10000 1.5 260 20:22 12.10.2019
6298 Clouds 26 1010 83 10000 2.1 250 19:38 12.10.2019
6299 Clouds 26 1010 83 10000 2.1 250 19:20 12.10.2019
6300 Clouds 26 1010 78 10000 2.6 270 18:57 12.10.2019
6301 Clouds 26 1010 78 10000 2.6 270 18:39 12.10.2019
6302 Clouds 26 1010 78 10000 2.6 270 18:20 12.10.2019
6303 Clouds 27 1011 78 10000 2.6 270 17:43 12.10.2019
6304 Clouds 27 1011 78 10000 2.6 270 17:19 12.10.2019
6305 Clouds 27 1011 78 10000 3.1 280 16:54 12.10.2019
6306 Clouds 27 1011 78 10000 3.1 280 16:54 12.10.2019
6307 Clouds 27 1011 74 10000 3.6 290 16:36 12.10.2019
6308 Clouds 27 1011 74 10000 3.6 290 16:36 12.10.2019
6309 Clouds 27 1011 74 10000 3.6 290 16:18 12.10.2019
6310 Clouds 27 1011 74 10000 4.6 290 15:43 12.10.2019
6311 Clouds 28 1011 70 10000 4.6 290 15:23 12.10.2019
6312 Clouds 28 1010 70 10000 4.6 290 14:43 12.10.2019
6313 Clouds 28 1010 70 10000 5.1 290 14:22 12.10.2019
6314 Clear 28 1010 70 10000 4.6 280 13:58 12.10.2019
6315 Clear 28 1009 70 10000 4.6 270 13:40 12.10.2019
6316 Clear 28 1009 70 10000 4.6 270 13:21 12.10.2019
6317 Clear 29 1009 66 10000 5.1 290 12:39 12.10.2019
6318 Clear 29 1009 66 10000 5.1 290 12:21 12.10.2019
6319 Clear 29 1008 58 10000 3.6 300 11:58 12.10.2019
6320 Clear 30 1008 62 10000 3.6 300 11:39 12.10.2019
6321 Clear 30 1008 62 10000 3.6 300 11:20 12.10.2019
6322 Clear 30 1008 55 10000 4.6 300 10:44 12.10.2019
6323 Clear 31 1008 55 10000 4.6 300 10:24 12.10.2019
6324 Clear 32 1007 55 10000 5.1 300 09:58 12.10.2019
6325 Clear 32 1007 55 10000 5.1 300 09:58 12.10.2019
6326 Clear 33 1007 52 10000 4.1 320 09:39 12.10.2019
6327 Clear 33 1007 52 10000 4.1 320 09:21 12.10.2019
6328 Clear 33 1007 52 10000 5.1 340 08:58 12.10.2019
6329 Clear 33 1007 43 10000 5.7 330 08:38 12.10.2019
6330 Clear 33 1007 43 10000 5.7 330 08:20 12.10.2019
6331 Clear 33 1007 43 10000 5.7 330 08:20 12.10.2019
6332 Clouds 34 1008 46 10000 6.2 340 07:35 12.10.2019
6333 Clouds 34 1008 49 10000 5.7 320 06:56 12.10.2019
6334 Clear 36 1009 30 10000 3.6 300 05:47 12.10.2019
6335 Clouds 35 1010 46 10000 3.6 320 05:23 12.10.2019
6336 Clouds 34 1011 52 10000 3.6 300 04:24 12.10.2019
6337 Clouds 32 1012 58 10000 7.2 320 03:33 12.10.2019
6338 Clouds 31 1012 55 10000 7.2 320 01:50 12.10.2019
6339 Clouds 30 1012 66 10000 0.5 240 01:24 12.10.2019
6340 Clouds 28 1012 83 10000 0.91 307.903 00:42 12.10.2019
6341 Clouds 27 1012 83 10000 1.24 297.31 00:19 12.10.2019
6342 Fog 24 1011 88 10000 1.24 297.31 23:40 11.10.2019
6343 Fog 24 1011 88 10000 1.24 297.31 23:20 11.10.2019
6344 Fog 24 1011 88 10000 1 330 22:41 11.10.2019
6345 Fog 25 1011 88 10000 1 330 22:22 11.10.2019
6346 Clouds 25 1010 88 10000 1.5 330 21:59 11.10.2019
6347 Clouds 25 1010 83 10000 2.1 330 21:40 11.10.2019
6348 Clouds 26 1010 83 10000 2.1 330 21:21 11.10.2019
6349 Clouds 26 1010 83 10000 2.1 330 20:45 11.10.2019
6350 Clouds 26 1010 78 10000 2.6 320 20:27 11.10.2019
6351 Clouds 26 1010 78 10000 2.6 330 19:59 11.10.2019
6352 Clouds 26 1010 83 10000 2.1 330 19:39 11.10.2019
6353 Clouds 26 1010 83 10000 2.1 330 19:18 11.10.2019
6354 Clouds 26 1010 83 10000 2.1 330 19:18 11.10.2019
6355 Clouds 26 1010 83 10000 2.1 330 19:18 11.10.2019
6356 Clouds 27 1010 78 10000 2.6 330 18:59 11.10.2019
6357 Clouds 27 1011 78 10000 3.6 320 18:39 11.10.2019
6358 Clouds 27 1011 78 10000 3.6 320 18:19 11.10.2019
6359 Clouds 27 1011 78 10000 3.1 330 17:59 11.10.2019
6360 Clouds 27 1011 83 10000 4.6 310 17:38 11.10.2019
6361 Clouds 27 1011 83 10000 4.6 310 17:19 11.10.2019
6362 Clouds 27 1011 83 10000 4.6 310 17:19 11.10.2019
6363 Clouds 27 1011 78 10000 3.6 310 16:59 11.10.2019
6364 Clouds 27 1011 78 10000 3.1 290 16:39 11.10.2019
6365 Clouds 27 1011 78 10000 3.1 290 16:19 11.10.2019
6366 Clouds 27 1011 83 10000 3.6 300 15:55 11.10.2019
6367 Clouds 28 1011 79 10000 4.1 300 15:36 11.10.2019
6368 Clouds 28 1011 79 10000 4.1 300 15:18 11.10.2019
6369 Clouds 28 1010 83 10000 2.6 270 14:41 11.10.2019
6370 Clouds 27 1010 83 10000 2.6 270 14:21 11.10.2019
6371 Clear 28 1010 74 10000 2.6 270 13:46 11.10.2019
6372 Clear 28 1010 74 10000 2.6 250 13:26 11.10.2019
6373 Clear 29 1010 74 10000 3.1 280 12:58 11.10.2019
6374 Clear 29 1009 74 10000 3.6 250 12:39 11.10.2019
6375 Clear 29 1009 74 10000 3.6 250 12:21 11.10.2019
6376 Clear 29 1009 74 10000 4.1 260 11:59 11.10.2019
6377 Clear 29 1008 74 10000 4.6 270 11:39 11.10.2019
6378 Clear 29 1008 74 10000 4.6 270 11:21 11.10.2019
6379 Clear 30 1008 66 10000 6.2 280 10:56 11.10.2019
6380 Clear 30 1008 66 10000 6.2 280 10:56 11.10.2019
6381 Clear 31 1008 66 10000 6.7 280 10:37 11.10.2019
6382 Clear 31 1008 66 10000 6.7 280 10:18 11.10.2019
6383 Clear 31 1008 66 10000 6.7 280 10:18 11.10.2019
6384 Clouds 31 1008 66 10000 7.7 300 09:42 11.10.2019
6385 Clouds 32 1008 66 10000 7.7 300 09:21 11.10.2019
6386 Clouds 32 1008 66 10000 8.7 290 08:59 11.10.2019
6387 Clouds 32 1008 66 10000 8.7 300 08:39 11.10.2019
6388 Clouds 32 1008 66 10000 8.7 300 08:39 11.10.2019
6389 Clouds 32 1008 66 10000 8.7 300 08:20 11.10.2019
6390 Clouds 32 1008 59 10000 8.2 300 07:57 11.10.2019
6391 Clouds 33 1008 59 10000 7.2 300 07:38 11.10.2019
6392 Clouds 32 1008 59 10000 7.2 300 07:19 11.10.2019
6393 Clouds 33 1009 52 10000 6.2 290 06:43 11.10.2019
6394 Clouds 34 1009 52 10000 6.2 290 06:19 11.10.2019
6395 Clouds 33 1011 52 10000 6.2 330 05:32 11.10.2019
6396 Clouds 33 1011 43 10000 6.2 330 04:58 11.10.2019
6397 Clouds 33 1013 52 10000 6.2 330 03:45 11.10.2019
6398 Clouds 30 1013 66 10000 1.5 210 01:28 11.10.2019
6399 Clouds 28 1012 78 10000 1 210 00:42 11.10.2019
6400 Clouds 27 1012 78 10000 1 210 00:22 11.10.2019
6401 Clouds 24 1011 88 10000 1.5 250 23:41 10.10.2019
6402 Clouds 24 1011 88 10000 1.5 250 23:20 10.10.2019
6403 Clouds 24 1011 88 10000 1.54 246.015 22:57 10.10.2019
6404 Clear 24 1011 88 10000 0.5 330 22:37 10.10.2019
6405 Clear 24 1011 88 10000 0.5 330 22:19 10.10.2019
6406 Clouds 24 1010 83 10000 1 300 21:54 10.10.2019
6407 Clouds 24 1010 83 10000 1.5 310 21:36 10.10.2019
6408 Clouds 24 1010 83 10000 1.5 310 21:18 10.10.2019
6409 Clouds 25 1010 78 10000 2.1 330 20:41 10.10.2019
6410 Clouds 25 1010 78 10000 2.1 330 20:21 10.10.2019
6411 Clouds 25 1010 78 10000 2.1 330 20:21 10.10.2019
6412 Clouds 25 1011 83 10000 1.5 340 19:58 10.10.2019
6413 Clouds 25 1011 78 10000 1.5 360 19:39 10.10.2019
6414 Clouds 26 1011 78 10000 1.5 360 19:19 10.10.2019
6415 Clouds 26 1011 74 10000 2.1 330 18:54 10.10.2019
6416 Clouds 26 1011 69 10000 2.6 310 18:36 10.10.2019
6417 Clouds 26 1011 69 10000 2.6 310 18:18 10.10.2019
6418 Clouds 27 1012 78 10000 3.6 300 17:40 10.10.2019
6419 Clouds 27 1012 78 10000 3.6 300 17:20 10.10.2019
6420 Clouds 27 1012 78 10000 4.1 300 16:58 10.10.2019
6421 Clouds 27 1012 78 10000 4.6 290 16:39 10.10.2019
6422 Clouds 27 1012 78 10000 4.6 290 16:21 10.10.2019
6423 Clouds 27 1012 83 10000 4.6 290 15:43 10.10.2019
6424 Clouds 27 1012 83 10000 4.6 290 15:43 10.10.2019
6425 Clouds 28 1012 74 10000 4.1 290 15:24 10.10.2019
6426 Clouds 28 1012 74 10000 4.1 290 14:59 10.10.2019
6427 Clouds 28 1012 74 10000 2.6 280 14:37 10.10.2019
6428 Clouds 28 1012 74 10000 2.6 280 14:37 10.10.2019
6429 Clouds 28 1012 74 10000 2.6 280 14:19 10.10.2019
6430 Clouds 28 1012 74 10000 2.6 280 14:19 10.10.2019
6431 Clouds 27 1011 78 10000 2.1 280 13:59 10.10.2019
6432 Clear 27 1011 70 10000 2.6 270 13:39 10.10.2019
6433 Clear 28 1011 70 10000 2.6 270 13:18 10.10.2019
6434 Clear 28 1011 70 10000 2.6 270 13:18 10.10.2019
6435 Clear 28 1011 66 10000 2.1 310 12:54 10.10.2019
6436 Clear 28 1010 66 10000 2.6 280 12:36 10.10.2019
6437 Clear 28 1010 66 10000 2.6 280 12:18 10.10.2019
6438 Clear 29 1010 62 10000 3.1 300 11:41 10.10.2019
6439 Clear 30 1010 62 10000 3.1 300 11:20 10.10.2019
6440 Clear 30 1010 62 10000 3.1 300 11:20 10.10.2019
6441 Clear 30 1009 62 10000 4.1 300 10:58 10.10.2019
6442 Clear 30 1009 62 10000 4.6 300 10:40 10.10.2019
6443 Clear 31 1009 62 10000 4.6 300 10:21 10.10.2019
6444 Clouds 32 1009 58 10000 5.7 320 09:41 10.10.2019
6445 Clouds 32 1009 58 10000 5.7 320 09:41 10.10.2019
6446 Clouds 32 1009 58 10000 5.7 320 09:23 10.10.2019
6447 Clouds 32 1009 58 10000 5.7 310 08:59 10.10.2019
6448 Clouds 32 1009 55 10000 5.7 320 08:41 10.10.2019
6449 Clouds 33 1009 55 10000 5.7 320 08:21 10.10.2019
6450 Clouds 33 1009 55 10000 5.7 320 07:58 10.10.2019
6451 Clear 33 1010 62 10000 6.2 330 07:37 10.10.2019
6452 Clear 35 1010 62 10000 6.2 330 07:19 10.10.2019
6453 Clouds 34 1011 59 10000 5.7 330 06:40 10.10.2019
6454 Clouds 34 1011 52 10000 3.6 330 05:57 10.10.2019
6455 Clouds 34 1012 55 10000 4.1 290 05:22 10.10.2019
6456 Clouds 34 1012 55 10000 4.1 290 05:22 10.10.2019
6457 Clouds 33 1013 52 10000 3.6 340 04:36 10.10.2019
6458 Clouds 31 1014 62 10000 6.2 320 02:49 10.10.2019
6459 Clouds 29 1014 78 10000 2.1 130 01:41 10.10.2019
6460 Clouds 29 1014 78 10000 2.1 130 01:41 10.10.2019
6461 Clouds 29 1014 78 10000 2.1 130 01:22 10.10.2019
6462 Clouds 27 1013 83 10000 3.1 110 00:45 10.10.2019
6463 Clouds 26 1013 83 10000 3.1 110 00:19 10.10.2019
6464 Clouds 26 1012 88 10000 1 250 23:39 09.10.2019
6465 Clouds 25 1012 88 10000 1 250 23:19 09.10.2019
6466 Clouds 25 1011 83 10000 2.1 250 22:42 09.10.2019
6467 Clouds 25 1011 83 10000 2.1 250 22:24 09.10.2019
6468 Clouds 25 1011 83 10000 2.1 260 21:59 09.10.2019
6469 Clouds 25 1011 83 10000 2.1 270 21:39 09.10.2019
6470 Clouds 24 1011 83 10000 2.1 270 21:20 09.10.2019
6471 Clouds 24 1011 88 10000 2.1 290 20:56 09.10.2019
6472 Clouds 24 1011 88 10000 2.1 290 20:56 09.10.2019
6473 Clouds 25 1011 78 10000 2.1 290 20:37 09.10.2019
6474 Clouds 25 1011 78 10000 2.1 290 20:18 09.10.2019
6475 Clouds 26 1011 83 10000 2.6 310 19:45 09.10.2019
6476 Clouds 26 1011 83 10000 2.6 320 19:24 09.10.2019
6477 Clouds 26 1012 83 10000 2.6 320 18:58 09.10.2019
6478 Clouds 26 1012 83 10000 2.1 330 18:37 09.10.2019
6479 Clouds 26 1012 83 10000 2.1 330 18:18 09.10.2019
6480 Clouds 27 1012 78 10000 3.1 330 17:55 09.10.2019
6481 Clouds 27 1012 78 10000 3.6 320 17:36 09.10.2019
6482 Clouds 27 1012 78 10000 3.6 320 17:18 09.10.2019
6483 Clouds 27 1013 74 10000 2.6 300 16:41 09.10.2019
6484 Clouds 27 1013 74 10000 2.6 300 16:22 09.10.2019
6485 Clouds 27 1013 74 10000 2.6 300 15:58 09.10.2019
6486 Clouds 27 1013 74 10000 3.1 310 15:39 09.10.2019
6487 Clouds 27 1013 74 10000 3.1 310 15:20 09.10.2019
6488 Clouds 27 1013 74 10000 2.6 280 14:58 09.10.2019
6489 Clouds 27 1012 74 10000 2.1 280 14:39 09.10.2019
6490 Clouds 27 1012 74 10000 2.1 280 14:18 09.10.2019
6491 Clear 27 1011 74 10000 2.6 230 13:40 09.10.2019
6492 Clear 27 1011 74 10000 2.6 230 13:21 09.10.2019
6493 Clear 28 1011 74 10000 2.6 250 12:59 09.10.2019
6494 Clear 28 1010 70 10000 2.6 280 12:40 09.10.2019
6495 Clear 28 1010 70 10000 2.6 280 12:21 09.10.2019
6496 Clear 29 1010 70 10000 3.6 270 11:55 09.10.2019
6497 Clear 29 1009 66 10000 3.6 280 11:37 09.10.2019
6498 Clear 29 1009 66 10000 3.6 280 11:18 09.10.2019
6499 Clear 30 1009 66 10000 5.1 290 10:43 09.10.2019
6500 Clear 30 1009 66 10000 6.2 290 10:43 09.10.2019
6501 Clear 30 1009 66 10000 6.2 290 10:21 09.10.2019
6502 Clouds 31 1009 66 10000 5.7 300 09:57 09.10.2019
6503 Clouds 31 1009 58 10000 6.2 300 09:38 09.10.2019
6504 Clouds 32 1009 58 10000 6.2 300 09:18 09.10.2019
6505 Clouds 33 1010 62 10000 7.7 310 08:41 09.10.2019
6506 Clouds 33 1010 62 10000 7.7 310 08:21 09.10.2019
6507 Clouds 33 1010 62 10000 7.7 310 08:21 09.10.2019
6508 Clouds 32 1010 62 10000 7.7 310 07:56 09.10.2019
6509 Clouds 33 1010 55 10000 7.2 320 07:37 09.10.2019
6510 Clouds 33 1010 55 10000 7.2 320 07:19 09.10.2019
6511 Clouds 34 1011 55 10000 7.2 310 06:49 09.10.2019
6512 Clouds 34 1011 49 10000 5.7 300 05:55 09.10.2019
6513 Clouds 35 1012 55 10000 6.2 300 05:23 09.10.2019
6514 Clouds 35 1013 43 10000 8.7 340 04:24 09.10.2019
6515 Clouds 32 1014 58 10000 2.6 210 02:50 09.10.2019
6516 Clouds 30 1014 66 10000 2.1 250 01:43 09.10.2019
6517 Clouds 30 1014 66 10000 2.1 260 01:20 09.10.2019
6518 Clouds 28 1013 69 10000 2.1 260 00:56 09.10.2019
6519 Clouds 27 1013 78 10000 1.5 250 00:38 09.10.2019
6520 Clouds 27 1013 78 10000 1.5 250 00:19 09.10.2019
6521 Clouds 24 1012 83 10000 1.5 230 23:39 08.10.2019
6522 Clouds 24 1012 83 10000 1.5 230 23:18 08.10.2019
6523 Clouds 23 1012 88 10000 1 250 22:56 08.10.2019
6524 Clouds 23 1011 88 10000 1 250 22:38 08.10.2019
6525 Clouds 23 1011 88 10000 1 250 22:19 08.10.2019
6526 Clouds 24 1011 83 10000 1 260 21:57 08.10.2019
6527 Clouds 24 1011 83 10000 1 270 21:38 08.10.2019
6528 Clouds 24 1011 83 10000 1 270 21:19 08.10.2019
6529 Clouds 24 1011 83 10000 0.5 240 20:56 08.10.2019
6530 Clouds 25 1011 78 10000 2.86 323.507 20:37 08.10.2019
6531 Clouds 25 1011 78 10000 2.86 323.507 20:19 08.10.2019
6532 Clouds 25 1011 78 10000 2.86 323.507 19:56 08.10.2019
6533 Clouds 25 1011 78 10000 1 280 19:37 08.10.2019
6534 Clouds 25 1011 78 10000 1 280 19:18 08.10.2019
6535 Clouds 26 1012 74 10000 2.86 323.507 18:46 08.10.2019
6536 Clouds 26 1012 74 10000 0.5 350 18:26 08.10.2019
6537 Clouds 27 1012 69 10000 1 320 17:59 08.10.2019
6538 Clouds 26 1012 69 10000 2.6 270 17:40 08.10.2019
6539 Clouds 26 1012 69 10000 2.6 270 17:20 08.10.2019
6540 Clouds 26 1012 74 10000 2.1 270 16:56 08.10.2019
6541 Clouds 26 1012 74 10000 2.1 260 16:37 08.10.2019
6542 Clouds 26 1012 74 10000 2.1 260 16:19 08.10.2019
6543 Clouds 27 1012 69 10000 2.1 260 15:40 08.10.2019
6544 Clouds 27 1012 69 10000 2.1 260 15:21 08.10.2019
6545 Clouds 27 1012 69 10000 2.6 260 14:57 08.10.2019
6546 Clouds 27 1012 65 10000 2.6 280 14:38 08.10.2019
6547 Clouds 27 1012 65 10000 2.6 280 14:20 08.10.2019
6548 Clouds 27 1011 65 10000 3.1 260 13:56 08.10.2019
6549 Clear 27 1011 65 10000 3.1 260 13:37 08.10.2019
6550 Clear 28 1011 65 10000 3.1 260 13:18 08.10.2019
6551 Clear 28 1010 58 10000 3.6 280 12:42 08.10.2019
6552 Clear 28 1010 58 10000 3.6 280 12:21 08.10.2019
6553 Clear 28 1010 58 10000 3.1 290 11:59 08.10.2019
6554 Clear 29 1009 58 10000 4.1 280 11:40 08.10.2019
6555 Clear 29 1009 58 10000 4.1 280 11:21 08.10.2019
6556 Clouds 31 1009 48 10000 5.7 300 10:55 08.10.2019
6557 Clear 31 1009 48 10000 3.1 330 10:36 08.10.2019
6558 Clear 32 1009 48 10000 3.1 330 10:18 08.10.2019
6559 Clear 32 1009 43 10000 4.6 340 09:41 08.10.2019
6560 Clear 33 1009 43 10000 4.6 340 09:22 08.10.2019
6561 Clouds 33 1009 46 10000 4.6 330 08:55 08.10.2019
6562 Clouds 33 1009 52 10000 5.1 340 08:36 08.10.2019
6563 Clouds 33 1009 52 10000 5.1 340 08:18 08.10.2019
6564 Clouds 33 1010 52 10000 4.6 340 07:41 08.10.2019
6565 Clouds 33 1010 52 10000 4.6 340 07:19 08.10.2019
6566 Clouds 33 1010 55 10000 4.1 340 06:46 08.10.2019
6567 Clouds 34 1011 55 10000 4.1 320 06:23 08.10.2019
6568 Clouds 32 1011 55 10000 4.1 310 05:44 08.10.2019
6569 Clouds 33 1012 55 10000 4.1 310 05:21 08.10.2019
6570 Clouds 33 1012 55 10000 4.1 310 05:21 08.10.2019
6571 Clouds 31 1013 58 10000 2.6 360 03:32 08.10.2019
6572 Clouds 31 1014 58 10000 6.2 340 02:44 08.10.2019
6573 Clouds 31 1014 62 10000 2.1 20 02:25 08.10.2019
6574 Clouds 30 1013 69 10000 1.5 330 01:42 08.10.2019
6575 Clouds 28 1013 74 10000 0.5 10 00:57 08.10.2019
6576 Clouds 27 1013 74 10000 0.89 114.567 00:36 08.10.2019
6577 Clouds 26 1013 74 10000 1.38 92.035 00:18 08.10.2019
6578 Clouds 23 1013 83 10000 1.5 90 23:38 07.10.2019
6579 Clouds 23 1013 83 10000 1.5 90 23:19 07.10.2019
6580 Clouds 24 1012 78 10000 1.5 120 22:55 07.10.2019
6581 Clouds 24 1012 78 10000 1 120 22:37 07.10.2019
6582 Clouds 24 1012 78 10000 1 120 22:19 07.10.2019
6583 Clouds 24 1012 83 10000 2.1 70 21:55 07.10.2019
6584 Clear 24 1011 83 10000 1.38 92.035 21:37 07.10.2019
6585 Clouds 23 1011 83 10000 2.7 322.884 21:18 07.10.2019
6586 Clouds 24 1011 74 10000 2.6 290 20:56 07.10.2019
6587 Clouds 24 1011 83 10000 2.86 313.84 20:38 07.10.2019
6588 Clouds 24 1011 83 10000 2.86 313.84 20:18 07.10.2019
6589 Clouds 24 1011 83 10000 0.5 20 19:54 07.10.2019
6590 Clouds 24 1011 83 10000 0.5 20 19:54 07.10.2019
6591 Clouds 24 1011 83 10000 2.86 313.84 19:36 07.10.2019
6592 Clouds 24 1011 83 10000 2.86 313.84 19:18 07.10.2019
6593 Clouds 25 1011 74 10000 2.1 280 18:41 07.10.2019
6594 Rain 25 1011 74 10000 2.1 280 18:19 07.10.2019
6595 Clouds 25 1012 74 10000 2.1 280 17:58 07.10.2019
6596 Clouds 26 1012 69 10000 2.1 280 17:40 07.10.2019
6597 Clouds 26 1012 69 10000 2.1 280 17:40 07.10.2019
6598 Clouds 26 1012 69 10000 2.1 280 17:19 07.10.2019
6599 Clouds 26 1012 74 10000 3.1 270 16:46 07.10.2019
6600 Clouds 26 1012 69 10000 3.6 290 16:28 07.10.2019
6601 Clouds 27 1012 69 10000 3.6 280 15:57 07.10.2019
6602 Clouds 27 1012 69 10000 3.6 280 15:39 07.10.2019
6603 Clouds 27 1012 69 10000 3.6 280 15:21 07.10.2019
6604 Clouds 27 1012 69 10000 4.1 270 14:41 07.10.2019
6605 Clouds 27 1012 69 10000 4.1 270 14:23 07.10.2019
6606 Clouds 27 1011 69 10000 3.6 270 13:45 07.10.2019
6607 Clear 27 1011 65 10000 2.6 290 13:21 07.10.2019
6608 Clear 27 1011 62 10000 2.6 270 12:58 07.10.2019
6609 Clear 27 1010 65 10000 2.6 280 12:40 07.10.2019
6610 Clear 28 1010 65 10000 2.6 280 12:21 07.10.2019
6611 Clear 28 1010 58 10000 2.6 280 11:59 07.10.2019
6612 Clear 29 1010 42 10000 2.1 340 11:40 07.10.2019
6613 Clear 30 1010 42 10000 2.1 340 11:21 07.10.2019
6614 Clear 30 1010 40 10000 3.6 330 10:57 07.10.2019
6615 Clear 31 1009 29 10000 4.1 330 10:39 07.10.2019
6616 Clear 32 1009 29 10000 4.1 330 10:20 07.10.2019
6617 Clear 33 1009 38 10000 5.7 10 09:39 07.10.2019
6618 Clear 33 1009 38 10000 5.7 10 09:39 07.10.2019
6619 Clear 32 1009 38 10000 5.7 10 09:21 07.10.2019
6620 Clear 32 1009 40 10000 5.1 350 08:44 07.10.2019
6621 Clear 33 1009 38 10000 6.2 360 08:21 07.10.2019
6622 Clear 32 1009 46 10000 6.2 360 07:59 07.10.2019
6623 Clear 32 1010 48 10000 5.1 350 07:38 07.10.2019
6624 Clear 32 1010 48 10000 5.1 350 07:19 07.10.2019
6625 Clear 34 1011 46 10000 4.6 310 06:43 07.10.2019
6626 Clear 34 1011 46 10000 4.6 310 06:22 07.10.2019
6627 Clouds 33 1012 52 10000 4.6 290 05:27 07.10.2019
6628 Clouds 31 1013 58 10000 4.6 280 04:56 07.10.2019
6629 Clouds 32 1013 52 10000 2.1 230 04:19 07.10.2019
6630 Clouds 31 1014 45 10000 3.1 40 03:39 07.10.2019
6631 Clouds 31 1014 43 10000 2.1 20 02:55 07.10.2019
6632 Clouds 31 1014 48 10000 3.1 50 02:20 07.10.2019
6633 Clouds 31 1014 48 10000 3.1 50 02:20 07.10.2019
6634 Clouds 30 1014 65 10000 3.6 40 01:24 07.10.2019
6635 Clouds 28 1014 69 10000 2.1 60 00:55 07.10.2019
6636 Clouds 27 1014 78 10000 2.6 90 00:36 07.10.2019
6637 Clouds 27 1014 78 10000 2.6 90 00:18 07.10.2019
6638 Clouds 25 1013 83 10000 2.1 50 23:40 06.10.2019
6639 Clouds 25 1013 83 10000 2.1 50 23:21 06.10.2019
6640 Clouds 25 1013 88 10000 2.6 40 22:58 06.10.2019
6641 Clouds 25 1013 83 10000 2.6 20 22:40 06.10.2019
6642 Clouds 24 1013 83 10000 2.6 20 22:21 06.10.2019
6643 Clouds 24 1012 83 10000 2.6 30 21:57 06.10.2019
6644 Clouds 25 1012 83 10000 1.5 30 21:37 06.10.2019
6645 Clouds 25 1012 83 10000 1.5 30 21:37 06.10.2019
6646 Clouds 25 1012 83 10000 1.5 30 21:19 06.10.2019
6647 Clouds 25 1012 83 10000 1.5 360 20:57 06.10.2019
6648 Clear 25 1011 78 10000 2.6 350 20:38 06.10.2019
6649 Clear 25 1011 78 10000 2.6 350 20:20 06.10.2019
6650 Clouds 25 1011 78 10000 3.1 350 19:57 06.10.2019
6651 Clouds 26 1012 78 10000 3.1 340 19:37 06.10.2019
6652 Clouds 26 1012 78 10000 3.1 340 19:19 06.10.2019
6653 Clouds 26 1012 74 10000 4.1 340 18:56 06.10.2019
6654 Clouds 26 1012 74 10000 4.1 340 18:38 06.10.2019
6655 Clouds 27 1012 74 10000 4.1 340 18:19 06.10.2019
6656 Clouds 27 1012 74 10000 4.1 320 17:43 06.10.2019
6657 Clouds 27 1013 74 10000 3.6 320 17:20 06.10.2019
6658 Clouds 27 1013 74 10000 1.5 310 16:58 06.10.2019
6659 Clouds 27 1013 69 10000 1.5 250 16:40 06.10.2019
6660 Clouds 26 1013 69 10000 1.5 250 16:22 06.10.2019
6661 Clouds 26